# Wetter Temperatur Luftdruck Luftfeuchtigkeit Sichtweite Windgeschwindigkeit Windrichtung Zeit
1 Clouds 29 1012 79 9000 8.2 70 22:25 24.01.2020
2 Clouds 29 1012 79 9000 8.2 70 21:43 24.01.2020
3 Clouds 29 1012 79 9000 8.2 70 21:21 24.01.2020
4 Clouds 29 1012 79 9000 8.2 70 20:59 24.01.2020
5 Clouds 28 1010 82 0 8.01 56 20:40 24.01.2020
6 Clouds 29 1012 66 9000 7.7 70 20:20 24.01.2020
7 Clouds 29 1012 66 9000 7.7 70 19:57 24.01.2020
8 Rain 28 1012 82 0 9.66 56 19:38 24.01.2020
9 Clouds 29 1013 83 9000 7.7 70 19:20 24.01.2020
10 Clouds 29 1013 83 9000 7.7 70 18:43 24.01.2020
11 Clouds 29 1012 79 9000 7.2 70 18:24 24.01.2020
12 Clouds 29 1012 79 9000 7.2 70 17:54 24.01.2020
13 Rain 28 1012 82 0 9.66 56 17:36 24.01.2020
14 Clouds 28 1011 83 9000 6.2 70 17:18 24.01.2020
15 Rain 28 1011 82 0 9.98 55 16:39 24.01.2020
16 Clouds 27 1011 88 9000 6.2 70 16:20 24.01.2020
17 Clouds 27 1011 88 9000 6.2 70 15:43 24.01.2020
18 Clouds 27 1010 83 9000 7.7 70 15:23 24.01.2020
19 Clouds 27 1010 83 9000 7.7 70 14:58 24.01.2020
20 Rain 28 1011 82 0 9.98 55 14:40 24.01.2020
21 Clouds 29 1009 83 9000 8.2 70 14:21 24.01.2020
22 Clouds 29 1009 83 9000 8.2 70 13:43 24.01.2020
23 Clouds 29 1008 83 9000 7.2 80 13:23 24.01.2020
24 Clouds 29 1008 83 9000 7.2 80 12:44 24.01.2020
25 Clouds 28 1009 94 9000 7.2 80 12:22 24.01.2020
26 Clouds 28 1009 94 9000 7.2 80 11:57 24.01.2020
27 Rain 28 1009 82 0 10.32 62 11:38 24.01.2020
28 Rain 28 1009 84 0 9.46 60 11:18 24.01.2020
29 Rain 28 1009 84 0 9.46 60 11:18 24.01.2020
30 Rain 28 1009 84 0 9.46 60 10:41 24.01.2020
31 Clouds 30 1010 79 8000 9.3 90 10:20 24.01.2020
32 Clouds 30 1010 79 8000 9.3 90 09:42 24.01.2020
33 Clouds 30 1010 79 8000 9.3 90 09:24 24.01.2020
34 Clouds 30 1010 79 8000 9.3 90 09:00 24.01.2020
35 Rain 28 1009 84 0 9.46 60 08:38 24.01.2020
36 Clouds 29 1011 83 8000 8.7 80 08:18 24.01.2020
37 Clouds 29 1011 83 8000 8.7 80 07:43 24.01.2020
38 Clouds 29 1012 89 8000 7.7 70 07:22 24.01.2020
39 Clouds 29 1012 89 8000 7.7 70 07:22 24.01.2020
40 Clouds 29 1012 89 8000 7.7 70 06:43 24.01.2020
41 Clouds 28 1012 88 7000 7.7 70 06:23 24.01.2020
42 Clouds 29 1011 83 8000 6.7 70 05:22 24.01.2020
43 Rain 28 1011 84 0 9.3 55 03:36 24.01.2020
44 Rain 28 1011 84 0 9.3 55 02:40 24.01.2020
45 Clouds 29 1008 83 9000 8.2 80 02:21 24.01.2020
46 Clouds 28 1008 83 0 8.74 64 01:39 24.01.2020
47 Clouds 28 1008 81 0 9.23 70 00:49 24.01.2020
48 Clouds 29 1009 83 9000 9.3 80 00:19 24.01.2020
49 Clouds 28 1008 81 0 9.23 70 23:42 23.01.2020
50 Clouds 29 1009 83 9000 9.3 80 23:22 23.01.2020
51 Clouds 29 1009 83 9000 9.3 80 22:58 23.01.2020
52 Rain 28 1009 82 0 9.69 68 22:37 23.01.2020
53 Clouds 29 1010 83 9000 9.8 80 22:18 23.01.2020
54 Clouds 29 1010 83 9000 9.8 80 21:55 23.01.2020
55 Rain 28 1009 82 0 9.69 68 21:37 23.01.2020
56 Clouds 29 1011 83 9000 9.3 80 21:19 23.01.2020
57 Clouds 29 1011 83 9000 9.3 80 20:54 23.01.2020
58 Rain 28 1009 82 0 9.69 68 20:36 23.01.2020
59 Clouds 29 1011 83 9000 9.3 80 20:18 23.01.2020
60 Rain 28 1011 83 0 10.31 68 19:42 23.01.2020
61 Clouds 29 1011 83 9000 9.3 90 19:23 23.01.2020
62 Clouds 29 1011 83 9000 9.3 90 18:57 23.01.2020
63 Rain 28 1011 83 0 10.31 68 18:38 23.01.2020
64 Clouds 29 1011 79 9000 10.8 7 18:19 23.01.2020
65 Clouds 29 1011 79 9000 10.8 7 17:55 23.01.2020
66 Clouds 29 1011 79 9000 10.8 7 17:37 23.01.2020
67 Clouds 29 1010 83 9000 10.8 80 17:18 23.01.2020
68 Rain 28 1010 83 0 9.84 64 16:39 23.01.2020
69 Clouds 29 1009 83 9000 10.3 80 16:20 23.01.2020
70 Clouds 29 1009 83 9000 10.3 80 15:58 23.01.2020
71 Rain 28 1010 83 0 9.84 64 15:39 23.01.2020
72 Clouds 30 1008 79 9000 9.8 80 15:19 23.01.2020
73 Clouds 30 1008 79 9000 9.8 80 14:58 23.01.2020
74 Rain 28 1010 83 0 9.84 64 14:40 23.01.2020
75 Clouds 30 1008 79 9000 9.3 80 14:22 23.01.2020
76 Clouds 30 1008 79 9000 9.3 80 13:55 23.01.2020
77 Rain 28 1008 83 0 8.67 71 13:37 23.01.2020
78 Rain 31 1008 74 9000 7.7 90 13:18 23.01.2020
79 Rain 28 1008 82 0 8.1 75 12:42 23.01.2020
80 Clouds 31 1008 79 9000 8.2 90 12:24 23.01.2020
81 Clouds 31 1008 79 9000 8.2 90 11:56 23.01.2020
82 Rain 28 1008 82 0 8.1 75 11:37 23.01.2020
83 Clouds 32 1009 70 9000 8.7 90 11:18 23.01.2020
84 Rain 29 1008 82 0 8.89 77 10:42 23.01.2020
85 Clouds 32 1009 70 9000 9.8 80 10:19 23.01.2020
86 Clouds 32 1009 70 9000 9.8 80 10:19 23.01.2020
87 Rain 28 1008 82 0 9.02 74 09:42 23.01.2020
88 Clouds 31 1010 74 9000 8.7 80 09:24 23.01.2020
89 Clouds 31 1010 74 9000 8.7 80 08:57 23.01.2020
90 Rain 29 1008 82 0 8.89 77 08:38 23.01.2020
91 Clouds 31 1011 79 9000 9.8 90 08:20 23.01.2020
92 Clouds 31 1011 79 9000 9.8 90 07:42 23.01.2020
93 Clouds 30 1012 79 9000 8.7 90 07:24 23.01.2020
94 Clouds 30 1012 79 9000 8.7 90 06:46 23.01.2020
95 Clouds 29 1012 83 9000 9.8 90 06:19 23.01.2020
96 Rain 28 1011 82 0 12.39 70 04:58 23.01.2020
97 Rain 28 1011 82 0 12.39 70 04:22 23.01.2020
98 Clouds 29 1009 83 9000 9.3 90 02:31 23.01.2020
99 Clouds 29 1008 83 9000 9.3 80 00:56 23.01.2020
100 Clouds 29 1008 83 9000 9.8 80 00:26 23.01.2020
101 Clouds 29 1008 83 9000 9.8 80 23:47 22.01.2020
102 Clouds 29 1010 83 9000 9.8 80 23:29 22.01.2020
103 Clouds 29 1010 83 9000 9.8 80 22:56 22.01.2020
104 Rain 28 1008 82 0 9.87 74 22:38 22.01.2020
105 Clouds 29 1010 83 10000 9.8 80 22:20 22.01.2020
106 Rain 28 1008 82 0 9.87 74 21:39 22.01.2020
107 Clouds 29 1011 83 10000 9.8 80 21:21 22.01.2020
108 Clouds 29 1011 83 10000 9.8 80 20:56 22.01.2020
109 Rain 28 1008 82 0 9.87 74 20:37 22.01.2020
110 Clouds 29 1011 83 10000 9.3 80 20:18 22.01.2020
111 Clouds 29 1011 83 10000 9.3 80 19:55 22.01.2020
112 Clouds 28 1011 83 0 9.9 68 19:37 22.01.2020
113 Clouds 29 1011 83 10000 9.3 70 19:18 22.01.2020
114 Clouds 29 1011 83 10000 9.3 70 18:55 22.01.2020
115 Clouds 28 1011 83 0 9.9 68 18:37 22.01.2020
116 Clouds 29 1011 83 10000 9.8 70 18:18 22.01.2020
117 Clouds 28 1011 83 0 9.9 68 17:40 22.01.2020
118 Clouds 29 1011 83 10000 9.3 70 17:21 22.01.2020
119 Clouds 29 1011 83 10000 9.3 70 16:58 22.01.2020
120 Clear 28 1010 82 0 10.22 70 16:39 22.01.2020
121 Clouds 29 1010 83 10000 8.7 70 16:21 22.01.2020
122 Clouds 29 1010 83 10000 8.7 70 15:56 22.01.2020
123 Clear 28 1010 82 0 10.22 70 15:38 22.01.2020
124 Clouds 30 1009 79 10000 8.7 70 15:18 22.01.2020
125 Clear 28 1010 82 0 10.22 70 14:39 22.01.2020
126 Clouds 30 1009 74 10000 9.3 70 14:20 22.01.2020
127 Clouds 30 1009 74 10000 9.3 70 13:58 22.01.2020
128 Clouds 28 1009 81 0 11.16 68 13:38 22.01.2020
129 Clouds 31 1008 70 10000 10.3 70 13:19 22.01.2020
130 Clouds 31 1008 70 10000 10.3 70 12:57 22.01.2020
131 Clouds 28 1009 81 0 10.86 67 12:39 22.01.2020
132 Clouds 31 1009 74 10000 8.7 70 12:19 22.01.2020
133 Clouds 31 1009 74 10000 8.7 70 11:58 22.01.2020
134 Clouds 28 1009 81 0 10.86 67 11:39 22.01.2020
135 Clouds 31 1009 74 10000 8.7 70 11:19 22.01.2020
136 Clouds 31 1009 74 10000 8.7 70 11:19 22.01.2020
137 Clouds 31 1009 74 10000 8.7 70 10:54 22.01.2020
138 Rain 28 1009 81 0 10.85 63 10:36 22.01.2020
139 Clouds 31 1010 74 10000 10.3 70 10:18 22.01.2020
140 Rain 28 1009 81 0 10.85 63 09:41 22.01.2020
141 Clouds 31 1011 74 10000 9.3 70 09:23 22.01.2020
142 Clouds 31 1011 74 10000 9.3 70 08:56 22.01.2020
143 Clouds 28 1009 81 0 10.4 64 08:37 22.01.2020
144 Clouds 30 1013 84 10000 8.2 70 08:19 22.01.2020
145 Clouds 30 1013 84 10000 8.2 70 08:19 22.01.2020
146 Clouds 30 1013 84 10000 8.2 70 07:45 22.01.2020
147 Clouds 28 1013 88 10000 6.7 70 07:27 22.01.2020
148 Clouds 29 1012 80 0 9.52 68 06:38 22.01.2020
149 Rain 28 1013 94 9000 8.2 90 06:19 22.01.2020
150 Clouds 29 1012 89 10000 7.2 70 04:27 22.01.2020
151 Clouds 28 1011 88 10000 7.2 70 03:29 22.01.2020
152 Clouds 28 1011 88 10000 7.2 70 02:49 22.01.2020
153 Rain 28 1010 88 10000 5.7 60 01:30 22.01.2020
154 Rain 28 1010 80 0 9.9 65 00:40 22.01.2020
155 Clouds 28 1010 88 10000 7.2 70 00:19 22.01.2020
156 Rain 28 1010 80 0 9.9 65 23:37 21.01.2020
157 Rain 28 1010 80 0 9.9 65 23:37 21.01.2020
158 Clouds 28 1011 88 10000 7.2 70 23:19 21.01.2020
159 Clouds 28 1011 88 10000 7.2 70 22:42 21.01.2020
160 Clouds 29 1012 79 10000 9.3 70 22:24 21.01.2020
161 Clouds 29 1012 79 10000 9.3 70 21:59 21.01.2020
162 Rain 28 1010 82 0 8.75 67 21:40 21.01.2020
163 Clouds 29 1012 79 10000 10.3 70 21:21 21.01.2020
164 Clouds 29 1012 79 10000 10.3 70 20:59 21.01.2020
165 Rain 28 1010 82 0 8.75 67 20:39 21.01.2020
166 Clouds 29 1012 79 10000 10.3 70 20:20 21.01.2020
167 Clouds 29 1012 79 10000 10.3 70 19:58 21.01.2020
168 Clouds 29 1012 79 10000 10.3 70 19:58 21.01.2020
169 Clouds 28 1012 81 0 9.13 62 19:40 21.01.2020
170 Clouds 29 1013 79 10000 10.8 70 19:21 21.01.2020
171 Clouds 29 1013 79 10000 10.8 70 18:57 21.01.2020
172 Clouds 28 1012 81 0 9.13 62 18:39 21.01.2020
173 Clouds 29 1012 79 10000 10.3 80 18:21 21.01.2020
174 Clouds 29 1012 79 10000 10.3 80 17:57 21.01.2020
175 Clouds 28 1012 81 0 9.13 62 17:38 21.01.2020
176 Clouds 29 1011 79 10000 10.3 70 17:18 21.01.2020
177 Clouds 28 1011 79 0 10.49 56 16:38 21.01.2020
178 Clouds 29 1010 74 10000 9.8 70 16:19 21.01.2020
179 Clouds 29 1010 74 10000 9.8 70 15:59 21.01.2020
180 Clouds 28 1011 79 0 10.49 56 15:38 21.01.2020
181 Clouds 30 1010 70 10000 9.3 70 15:19 21.01.2020
182 Clouds 28 1011 79 0 10.49 56 14:40 21.01.2020
183 Clouds 30 1009 70 10000 8.7 70 14:21 21.01.2020
184 Clouds 30 1009 70 10000 8.7 70 13:44 21.01.2020
185 Clouds 31 1009 66 10000 8.7 70 13:21 21.01.2020
186 Clouds 31 1009 66 10000 8.7 70 12:59 21.01.2020
187 Clouds 28 1009 75 0 10.02 57 12:41 21.01.2020
188 Clouds 31 1009 70 10000 8.7 70 12:23 21.01.2020
189 Clouds 31 1009 70 10000 8.7 70 11:56 21.01.2020
190 Clouds 28 1009 75 0 10.02 57 11:37 21.01.2020
191 Clouds 31 1010 74 10000 8.7 70 11:18 21.01.2020
192 Clouds 28 1010 76 0 9.75 61 10:42 21.01.2020
193 Clouds 31 1011 70 10000 9.3 80 10:22 21.01.2020
194 Clouds 31 1011 70 10000 9.3 80 10:22 21.01.2020
195 Clouds 31 1011 70 10000 9.3 80 09:55 21.01.2020
196 Clouds 28 1010 76 0 9.75 61 09:37 21.01.2020
197 Clouds 31 1012 74 10000 8.2 80 09:18 21.01.2020
198 Clouds 28 1010 76 0 9.75 61 08:41 21.01.2020
199 Clouds 31 1013 70 10000 7.2 80 08:21 21.01.2020
200 Clouds 31 1013 70 10000 7.2 80 07:43 21.01.2020
201 Clouds 31 1013 70 10000 7.2 80 07:43 21.01.2020
202 Clouds 31 1013 70 10000 7.2 80 07:24 21.01.2020
203 Clouds 31 1013 70 10000 7.2 80 06:57 21.01.2020
204 Clouds 28 1012 78 0 9.06 69 06:38 21.01.2020
205 Clouds 30 1013 74 10000 7.2 80 05:53 21.01.2020
206 Clouds 29 1013 79 10000 7.2 80 05:32 21.01.2020
207 Clouds 28 1012 74 0 8.04 59 04:37 21.01.2020
208 Clouds 28 1011 83 10000 6.2 70 02:27 21.01.2020
209 Rain 28 1011 79 0 6.89 59 01:36 21.01.2020
210 Clouds 28 1010 83 10000 6.7 70 00:45 21.01.2020
211 Clouds 28 1010 83 10000 6.7 80 00:25 21.01.2020
212 Clouds 28 1010 83 10000 6.7 80 23:56 20.01.2020
213 Rain 28 1010 78 0 6.78 61 23:36 20.01.2020
214 Clouds 28 1011 83 10000 7.2 80 23:18 20.01.2020
215 Rain 28 1011 80 0 6.37 74 22:40 20.01.2020
216 Clouds 28 1012 83 10000 7.2 80 22:21 20.01.2020
217 Clouds 28 1012 83 10000 7.2 80 21:58 20.01.2020
218 Rain 28 1011 80 0 6.37 74 21:38 20.01.2020
219 Clouds 29 1012 79 10000 8.2 80 21:20 20.01.2020
220 Clouds 29 1012 79 10000 8.2 80 20:58 20.01.2020
221 Rain 28 1011 80 0 6.37 74 20:39 20.01.2020
222 Clouds 29 1013 79 10000 7.7 80 20:20 20.01.2020
223 Clouds 29 1013 79 10000 7.7 80 19:58 20.01.2020
224 Rain 28 1012 79 0 7.42 75 19:40 20.01.2020
225 Clouds 29 1013 74 10000 7.7 80 19:19 20.01.2020
226 Clouds 29 1013 74 10000 7.7 80 18:54 20.01.2020
227 Rain 28 1012 79 0 7.42 75 18:36 20.01.2020
228 Clouds 29 1012 79 10000 7.7 80 18:18 20.01.2020
229 Rain 28 1012 79 0 7.42 75 17:38 20.01.2020
230 Clouds 29 1011 79 10000 7.2 80 17:19 20.01.2020
231 Clouds 29 1011 79 10000 7.2 80 16:46 20.01.2020
232 Clouds 29 1010 79 10000 7.2 80 16:26 20.01.2020
233 Clouds 29 1010 79 10000 7.2 80 15:59 20.01.2020
234 Clouds 28 1012 78 0 7.74 62 15:40 20.01.2020
235 Clouds 29 1010 79 10000 7.2 80 15:22 20.01.2020
236 Clouds 29 1010 79 10000 7.2 80 14:56 20.01.2020
237 Clouds 28 1012 78 0 7.74 62 14:37 20.01.2020
238 Clouds 28 1012 78 0 7.74 62 14:37 20.01.2020
239 Clouds 30 1010 74 10000 7.2 80 14:19 20.01.2020
240 Rain 28 1009 80 0 7.94 54 13:42 20.01.2020
241 Clouds 31 1009 70 10000 6.2 90 13:23 20.01.2020
242 Clouds 31 1009 70 10000 6.2 90 12:58 20.01.2020
243 Rain 28 1009 80 0 8 56 12:40 20.01.2020
244 Clouds 31 1010 70 10000 6.2 80 12:21 20.01.2020
245 Clouds 31 1010 70 10000 6.2 80 11:43 20.01.2020
246 Clouds 31 1010 74 10000 7.7 80 11:24 20.01.2020
247 Clouds 31 1010 74 10000 7.7 80 10:58 20.01.2020
248 Clouds 28 1010 79 0 7.45 61 10:40 20.01.2020
249 Clouds 32 1011 70 10000 7.2 80 10:20 20.01.2020
250 Clouds 28 1010 79 0 7.45 61 09:41 20.01.2020
251 Clouds 31 1012 74 10000 7.2 80 09:22 20.01.2020
252 Clouds 31 1012 74 10000 7.2 80 08:54 20.01.2020
253 Clouds 31 1012 74 10000 7.2 80 08:31 20.01.2020
254 Clouds 31 1012 74 10000 7.2 80 07:55 20.01.2020
255 Clouds 28 1012 80 0 7.19 79 07:36 20.01.2020
256 Clouds 31 1013 74 10000 7.2 80 07:18 20.01.2020
257 Clouds 28 1012 80 0 7.19 79 06:35 20.01.2020
258 Clouds 30 1013 74 10000 7.2 80 05:56 20.01.2020
259 Clouds 28 1012 80 0 7.19 79 05:37 20.01.2020
260 Clouds 29 1012 79 10000 7.7 70 05:18 20.01.2020
261 Clouds 29 1011 79 10000 7.7 80 03:46 20.01.2020
262 Clouds 28 1010 83 10000 7.2 90 01:58 20.01.2020
263 Rain 28 1010 80 0 5.33 65 01:38 20.01.2020
264 Clouds 28 1010 88 10000 6.7 80 00:46 20.01.2020
265 Clouds 28 1010 88 10000 6.7 80 00:27 20.01.2020
266 Clouds 28 1010 88 10000 6.7 80 23:55 19.01.2020
267 Rain 28 1009 79 0 4.93 59 23:36 19.01.2020
268 Clouds 29 1010 83 10000 6.7 80 23:18 19.01.2020
269 Clouds 29 1010 83 10000 6.7 80 22:54 19.01.2020
270 Rain 28 1010 80 0 6.95 48 22:36 19.01.2020
271 Clouds 29 1011 79 10000 6.7 80 22:18 19.01.2020
272 Clouds 29 1011 79 10000 6.7 80 21:55 19.01.2020
273 Clouds 29 1011 79 10000 6.7 80 21:55 19.01.2020
274 Rain 28 1010 80 0 6.95 48 21:36 19.01.2020
275 Clouds 29 1012 79 10000 6.7 90 21:18 19.01.2020
276 Clouds 29 1012 79 10000 6.7 90 20:55 19.01.2020
277 Rain 28 1010 80 0 6.95 48 20:37 19.01.2020
278 Clouds 29 1012 79 10000 5.7 70 20:18 19.01.2020
279 Clouds 29 1012 79 10000 5.7 70 19:54 19.01.2020
280 Rain 28 1011 79 0 6.73 55 19:36 19.01.2020
281 Clouds 29 1012 79 10000 5.7 60 19:18 19.01.2020
282 Clouds 29 1012 79 10000 5.7 60 18:54 19.01.2020
283 Rain 28 1011 79 0 6.73 55 18:36 19.01.2020
284 Clouds 29 1012 79 10000 5.1 70 18:18 19.01.2020
285 Clouds 29 1012 79 10000 5.1 70 17:56 19.01.2020
286 Rain 28 1011 79 0 6.73 55 17:38 19.01.2020
287 Clouds 29 1011 79 10000 5.1 60 17:18 19.01.2020
288 Clouds 29 1011 79 10000 5.1 60 16:54 19.01.2020
289 Rain 28 1010 80 0 6.43 52 16:36 19.01.2020
290 Clouds 29 1010 79 10000 5.1 60 16:18 19.01.2020
291 Rain 28 1010 80 0 6.43 52 15:41 19.01.2020
292 Clouds 29 1009 79 10000 5.7 70 15:22 19.01.2020
293 Clouds 29 1009 79 10000 5.7 70 14:59 19.01.2020
294 Rain 28 1010 80 0 6.43 52 14:40 19.01.2020
295 Clouds 30 1009 74 10000 6.2 80 14:20 19.01.2020
296 Clouds 30 1009 74 10000 6.2 80 13:59 19.01.2020
297 Rain 28 1009 79 0 5.5 63 13:40 19.01.2020
298 Clouds 31 1008 70 10000 5.7 70 13:21 19.01.2020
299 Clouds 31 1008 70 10000 5.7 70 12:59 19.01.2020
300 Rain 28 1008 81 0 5.93 56 12:40 19.01.2020
301 Clouds 31 1009 70 10000 6.2 80 12:21 19.01.2020
302 Clouds 31 1009 70 10000 6.2 80 11:57 19.01.2020
303 Rain 28 1008 81 0 5.93 56 11:37 19.01.2020
304 Clouds 32 1009 66 10000 5.7 80 11:18 19.01.2020
305 Clouds 28 1009 79 0 6.09 76 10:39 19.01.2020
306 Clouds 31 1010 70 10000 5.7 80 10:20 19.01.2020
307 Clouds 31 1010 70 10000 5.7 80 09:57 19.01.2020
308 Clouds 28 1009 79 0 6.09 76 09:38 19.01.2020
309 Clouds 31 1011 74 10000 6.2 80 09:19 19.01.2020
310 Clouds 31 1011 74 10000 6.2 80 08:55 19.01.2020
311 Clouds 31 1012 70 10000 6.2 80 08:32 19.01.2020
312 Clouds 31 1012 70 10000 6.2 80 07:54 19.01.2020
313 Clouds 30 1012 79 10000 6.2 80 07:28 19.01.2020
314 Clouds 30 1012 79 10000 6.2 80 06:55 19.01.2020
315 Clouds 30 1012 79 10000 5.7 80 06:22 19.01.2020
316 Rain 28 1011 82 0 6.24 65 03:55 19.01.2020
317 Rain 28 1011 82 0 6.24 65 02:33 19.01.2020
318 Clouds 28 1009 79 0 6.01 63 01:39 19.01.2020
319 Clouds 28 1009 83 10000 4.6 80 01:20 19.01.2020
320 Clouds 28 1009 83 10000 4.6 80 00:44 19.01.2020
321 Clouds 28 1009 83 10000 4.6 70 00:21 19.01.2020
322 Clouds 28 1009 83 10000 4.6 70 23:47 18.01.2020
323 Clouds 28 1010 83 10000 4.6 90 23:25 18.01.2020
324 Clouds 28 1010 83 10000 4.6 90 22:59 18.01.2020
325 Clouds 28 1009 79 0 5.9 68 22:41 18.01.2020
326 Clouds 28 1010 83 10000 4.6 90 22:21 18.01.2020
327 Clouds 28 1010 83 10000 4.6 90 21:58 18.01.2020
328 Clouds 28 1009 79 0 5.9 68 21:38 18.01.2020
329 Clouds 28 1011 83 10000 5.7 90 21:20 18.01.2020
330 Clouds 28 1011 83 10000 5.7 90 20:56 18.01.2020
331 Clouds 28 1009 79 0 5.9 68 20:38 18.01.2020
332 Clouds 29 1011 74 10000 6.7 90 20:18 18.01.2020
333 Clouds 29 1011 74 10000 6.7 90 19:43 18.01.2020
334 Clouds 29 1011 74 10000 7.2 90 19:24 18.01.2020
335 Clouds 28 1010 80 0 7.05 71 18:43 18.01.2020
336 Clouds 29 1010 79 10000 7.2 80 18:25 18.01.2020
337 Clouds 29 1010 79 10000 7.2 80 18:25 18.01.2020
338 Clouds 29 1010 79 10000 7.2 80 17:59 18.01.2020
339 Clouds 28 1010 80 0 7.05 71 17:40 18.01.2020
340 Clouds 29 1010 79 10000 6.7 80 17:20 18.01.2020
341 Clouds 29 1010 79 10000 6.7 80 16:57 18.01.2020
342 Clouds 28 1009 79 0 7.55 65 16:38 18.01.2020
343 Clouds 28 1009 79 0 7.55 65 16:38 18.01.2020
344 Clouds 29 1009 74 10000 7.2 70 16:19 18.01.2020
345 Clouds 29 1009 74 10000 7.2 70 15:44 18.01.2020
346 Clouds 29 1008 74 10000 7.2 70 15:26 18.01.2020
347 Clouds 29 1008 74 10000 7.2 70 14:59 18.01.2020
348 Clouds 28 1009 79 0 7.55 65 14:40 18.01.2020
349 Clouds 30 1007 70 10000 8.2 90 14:19 18.01.2020
350 Clouds 30 1007 70 10000 8.2 90 13:56 18.01.2020
351 Clouds 30 1007 70 10000 8.2 90 13:56 18.01.2020
352 Clouds 28 1008 79 0 7.23 59 13:36 18.01.2020
353 Clouds 30 1007 70 10000 7.7 70 13:18 18.01.2020
354 Clouds 30 1007 70 10000 7.7 70 13:18 18.01.2020
355 Rain 28 1007 79 0 7.98 58 12:41 18.01.2020
356 Clouds 30 1008 70 10000 7.7 70 12:21 18.01.2020
357 Clouds 30 1008 70 10000 7.7 70 11:56 18.01.2020
358 Rain 28 1007 79 0 7.98 58 11:37 18.01.2020
359 Clouds 31 1009 70 10000 7.2 70 11:19 18.01.2020
360 Clouds 28 1008 79 0 7.13 57 10:41 18.01.2020
361 Clouds 31 1009 70 10000 7.2 70 10:20 18.01.2020
362 Clouds 31 1009 70 10000 7.2 70 10:20 18.01.2020
363 Clouds 31 1009 70 10000 7.2 70 09:54 18.01.2020
364 Clouds 28 1008 79 0 7.13 57 09:36 18.01.2020
365 Clouds 30 1010 70 10000 7.2 70 08:59 18.01.2020
366 Clouds 28 1008 79 0 7.13 57 08:41 18.01.2020
367 Clouds 31 1011 70 10000 7.2 80 08:20 18.01.2020
368 Clouds 31 1011 70 10000 7.2 80 07:52 18.01.2020
369 Rain 28 1010 81 0 6.66 74 07:32 18.01.2020
370 Clouds 31 1012 70 10000 6.7 80 06:48 18.01.2020
371 Clouds 29 1012 74 10000 5.7 80 06:19 18.01.2020
372 Clouds 29 1011 74 10000 6.2 80 05:30 18.01.2020
373 Clouds 27 1010 80 0 6.57 65 03:39 18.01.2020
374 Clouds 28 1009 74 10000 6.7 80 02:20 18.01.2020
375 Clouds 27 1009 77 0 5.7 66 01:36 18.01.2020
376 Clouds 27 1009 78 0 5.97 63 00:38 18.01.2020
377 Clouds 28 1008 74 10000 6.7 80 00:19 18.01.2020
378 Clouds 27 1009 78 0 5.97 63 23:44 17.01.2020
379 Clouds 28 1009 78 10000 7.2 80 23:21 17.01.2020
380 Clouds 28 1009 78 10000 7.2 80 22:59 17.01.2020
381 Clouds 27 1009 77 0 5.56 68 22:40 17.01.2020
382 Clouds 28 1010 78 10000 7.2 90 22:19 17.01.2020
383 Clouds 28 1010 78 10000 7.2 90 21:42 17.01.2020
384 Clouds 28 1011 74 10000 7.2 100 21:24 17.01.2020
385 Clouds 28 1011 74 10000 7.2 100 20:59 17.01.2020
386 Clouds 27 1009 77 0 5.56 68 20:40 17.01.2020
387 Clouds 28 1011 74 10000 6.7 100 20:20 17.01.2020
388 Clouds 28 1011 74 10000 6.7 100 19:57 17.01.2020
389 Clouds 27 1011 77 0 5.55 67 19:38 17.01.2020
390 Clouds 28 1011 78 10000 6.7 90 19:19 17.01.2020
391 Clouds 28 1011 78 10000 6.7 90 18:57 17.01.2020
392 Clouds 27 1011 77 0 5.55 67 18:37 17.01.2020
393 Clouds 28 1011 74 10000 6.7 80 18:19 17.01.2020
394 Clouds 27 1011 77 0 5.55 67 17:40 17.01.2020
395 Clouds 27 1011 77 0 5.55 67 17:40 17.01.2020
396 Clouds 28 1010 74 10000 6.2 80 17:21 17.01.2020
397 Clouds 28 1010 74 10000 6.2 80 16:55 17.01.2020
398 Clouds 27 1011 78 0 6.11 66 16:36 17.01.2020
399 Clouds 28 1010 74 10000 5.7 70 16:18 17.01.2020
400 Clouds 28 1010 74 10000 5.7 70 15:43 17.01.2020
401 Clouds 28 1009 78 10000 5.7 70 15:25 17.01.2020
402 Clouds 28 1009 78 10000 5.7 70 14:44 17.01.2020
403 Clouds 30 1008 70 10000 6.7 80 14:25 17.01.2020
404 Clouds 30 1008 70 10000 6.7 80 13:56 17.01.2020
405 Clouds 27 1008 78 0 6.66 64 13:37 17.01.2020
406 Clouds 30 1008 70 10000 6.2 80 13:18 17.01.2020
407 Clouds 30 1008 70 10000 6.2 80 13:18 17.01.2020
408 Clouds 27 1008 77 0 6.6 62 12:42 17.01.2020
409 Clouds 27 1008 77 0 6.6 62 12:42 17.01.2020
410 Clouds 30 1008 66 10000 6.7 80 12:21 17.01.2020
411 Clouds 27 1008 77 0 6.6 62 11:38 17.01.2020
412 Clouds 31 1009 62 10000 6.7 80 11:18 17.01.2020
413 Clouds 31 1009 62 10000 6.7 80 10:43 17.01.2020
414 Clouds 31 1009 62 10000 6.7 80 10:23 17.01.2020
415 Clouds 31 1010 62 10000 6.7 80 09:58 17.01.2020
416 Clouds 27 1009 77 0 6.81 62 09:39 17.01.2020
417 Clouds 27 1009 77 0 6.81 62 09:39 17.01.2020
418 Clouds 31 1011 62 10000 6.7 80 09:19 17.01.2020
419 Clouds 31 1011 62 10000 6.7 80 08:43 17.01.2020
420 Clouds 31 1012 62 10000 6.7 80 08:24 17.01.2020
421 Clouds 31 1012 62 10000 6.7 80 07:54 17.01.2020
422 Clouds 30 1012 66 10000 7.2 70 07:31 17.01.2020
423 Clouds 30 1012 66 10000 7.2 70 06:58 17.01.2020
424 Clouds 30 1012 66 10000 7.2 70 06:58 17.01.2020
425 Clouds 27 1011 77 0 7.36 63 06:40 17.01.2020
426 Clouds 30 1012 66 10000 6.7 80 05:53 17.01.2020
427 Clear 27 1012 77 0 6.18 62 03:39 17.01.2020
428 Clear 27 1012 77 0 6.18 62 02:52 17.01.2020
429 Clouds 27 1010 76 0 6.42 73 01:47 17.01.2020
430 Clouds 27 1010 76 0 6.42 73 01:29 17.01.2020
431 Clouds 27 1010 75 0 6.14 74 00:50 17.01.2020
432 Clouds 27 1010 75 0 6.14 74 00:26 17.01.2020
433 Clouds 27 1010 75 0 6.14 74 23:44 16.01.2020
434 Clouds 28 1010 74 9000 7.2 80 23:26 16.01.2020
435 Clouds 28 1010 74 9000 7.2 80 22:57 16.01.2020
436 Clouds 27 1010 77 0 6.44 72 22:39 16.01.2020
437 Clouds 28 1010 74 9000 7.2 80 22:20 16.01.2020
438 Clouds 28 1010 74 9000 7.2 80 21:55 16.01.2020
439 Clouds 27 1010 77 0 6.44 72 21:36 16.01.2020
440 Clouds 28 1011 74 9000 7.2 80 21:18 16.01.2020
441 Clouds 28 1011 74 9000 7.2 80 21:18 16.01.2020
442 Clouds 27 1010 77 0 6.44 72 20:41 16.01.2020
443 Clouds 28 1011 74 9000 7.2 80 20:21 16.01.2020
444 Clouds 28 1011 74 9000 7.2 80 19:59 16.01.2020
445 Clouds 27 1012 76 0 7.33 66 19:41 16.01.2020
446 Clouds 28 1011 74 9000 7.2 80 19:22 16.01.2020
447 Clouds 28 1011 74 9000 7.2 80 19:22 16.01.2020
448 Clouds 28 1011 74 9000 7.2 80 19:22 16.01.2020
449 Clouds 28 1011 74 9000 7.2 80 18:57 16.01.2020
450 Clouds 27 1012 76 0 7.33 66 18:38 16.01.2020
451 Clouds 28 1012 74 9000 6.7 80 18:20 16.01.2020
452 Clouds 28 1012 74 9000 6.7 80 17:59 16.01.2020
453 Clouds 28 1012 74 9000 6.7 80 17:59 16.01.2020
454 Clouds 27 1012 76 0 7.33 66 17:40 16.01.2020
455 Clouds 28 1011 74 9000 6.2 80 17:20 16.01.2020
456 Clouds 27 1011 75 0 6.68 59 16:42 16.01.2020
457 Clouds 28 1010 74 9000 6.7 80 16:24 16.01.2020
458 Clouds 28 1010 74 9000 6.7 80 15:59 16.01.2020
459 Clouds 27 1011 75 0 6.68 59 15:40 16.01.2020
460 Clouds 29 1009 70 9000 6.2 80 15:21 16.01.2020
461 Clouds 29 1009 70 9000 6.2 80 14:45 16.01.2020
462 Clouds 30 1009 62 9000 5.1 80 14:24 16.01.2020
463 Clouds 30 1009 62 9000 5.1 80 13:56 16.01.2020
464 Rain 27 1010 75 0 6.41 63 13:37 16.01.2020
465 Clouds 30 1009 66 10000 5.1 80 13:19 16.01.2020
466 Clouds 30 1009 66 10000 5.1 80 13:19 16.01.2020
467 Rain 27 1009 76 0 6.06 61 12:42 16.01.2020
468 Clouds 31 1009 62 10000 5.7 70 12:22 16.01.2020
469 Clouds 31 1009 62 10000 5.7 70 11:43 16.01.2020
470 Clouds 30 1009 66 10000 5.7 70 11:25 16.01.2020
471 Clouds 30 1009 66 10000 5.7 70 10:59 16.01.2020
472 Rain 27 1009 76 0 5.34 65 10:38 16.01.2020
473 Clouds 30 1010 66 10000 5.7 70 10:20 16.01.2020
474 Clouds 30 1010 66 10000 5.7 70 09:56 16.01.2020
475 Rain 27 1009 76 0 5.34 65 09:37 16.01.2020
476 Clouds 31 1011 62 10000 5.1 80 09:19 16.01.2020
477 Clouds 31 1011 62 10000 5.1 80 08:49 16.01.2020
478 Clouds 31 1012 62 10000 4.6 70 08:29 16.01.2020
479 Clouds 31 1012 62 10000 4.6 70 07:57 16.01.2020
480 Clouds 27 1012 75 0 4.9 63 07:37 16.01.2020
481 Clouds 30 1012 66 10000 5.1 70 07:18 16.01.2020
482 Clouds 27 1012 75 0 4.9 63 06:42 16.01.2020
483 Clouds 30 1012 62 10000 5.1 70 05:58 16.01.2020
484 Clouds 27 1012 75 0 4.9 63 05:40 16.01.2020
485 Clouds 27 1012 74 0 5.28 65 04:37 16.01.2020
486 Clouds 27 1012 74 0 5.28 65 04:37 16.01.2020
487 Clouds 27 1012 74 0 5.28 65 04:37 16.01.2020
488 Clouds 27 1011 74 10000 5.7 80 03:28 16.01.2020
489 Clouds 27 1012 74 0 5.28 65 02:42 16.01.2020
490 Clouds 27 1010 74 10000 5.7 90 00:53 16.01.2020
491 Clouds 27 1009 74 10000 6.2 90 00:24 16.01.2020
492 Clouds 27 1009 74 10000 6.2 90 23:48 15.01.2020
493 Clouds 28 1010 69 10000 6.7 90 23:23 15.01.2020
494 Clouds 28 1010 69 10000 6.7 90 23:23 15.01.2020
495 Clouds 28 1010 69 10000 6.7 90 22:57 15.01.2020
496 Clouds 27 1010 77 0 5.92 76 22:39 15.01.2020
497 Clouds 28 1011 69 10000 6.2 80 22:19 15.01.2020
498 Clouds 28 1011 69 10000 6.2 80 21:57 15.01.2020
499 Clouds 28 1011 69 10000 6.2 80 21:57 15.01.2020
500 Clouds 27 1010 77 0 5.92 76 21:38 15.01.2020
501 Clouds 28 1012 69 10000 6.7 80 21:20 15.01.2020
502 Clouds 28 1012 69 10000 6.7 80 20:58 15.01.2020
503 Clouds 28 1012 69 10000 6.7 80 20:58 15.01.2020
504 Clouds 27 1010 77 0 5.92 76 20:40 15.01.2020
505 Clouds 28 1012 69 10000 6.2 80 20:20 15.01.2020
506 Clouds 28 1012 69 10000 6.2 80 19:55 15.01.2020
507 Clouds 27 1012 73 0 6.15 69 19:37 15.01.2020
508 Clouds 28 1012 69 10000 6.2 80 19:19 15.01.2020
509 Clouds 28 1012 69 10000 6.2 80 18:57 15.01.2020
510 Clouds 27 1012 73 0 6.15 69 18:38 15.01.2020
511 Clouds 28 1012 69 10000 5.7 80 18:20 15.01.2020
512 Clouds 28 1012 69 10000 5.7 80 17:58 15.01.2020
513 Clouds 27 1012 73 0 6.15 69 17:39 15.01.2020
514 Clouds 28 1011 69 10000 5.7 80 17:20 15.01.2020
515 Clouds 27 1011 73 0 5.4 54 16:42 15.01.2020
516 Clouds 29 1011 70 10000 4.1 70 16:23 15.01.2020
517 Clouds 29 1011 70 10000 4.1 70 15:59 15.01.2020
518 Clouds 27 1011 73 0 5.4 54 15:41 15.01.2020
519 Clouds 29 1010 66 10000 4.6 70 15:20 15.01.2020
520 Clouds 29 1010 66 10000 4.6 70 14:44 15.01.2020
521 Clouds 30 1009 62 10000 5.7 70 14:21 15.01.2020
522 Clouds 30 1009 62 10000 5.7 70 13:56 15.01.2020
523 Clouds 27 1009 72 0 5.32 39 13:38 15.01.2020
524 Clouds 30 1009 66 10000 4.6 70 13:19 15.01.2020
525 Clouds 27 1009 73 0 5.4 38 12:41 15.01.2020
526 Clouds 31 1009 62 10000 4.6 70 12:20 15.01.2020
527 Clouds 31 1009 62 10000 4.6 70 11:59 15.01.2020
528 Clouds 27 1009 73 0 5.4 38 11:38 15.01.2020
529 Clouds 27 1009 73 0 5.4 38 11:38 15.01.2020
530 Clouds 30 1009 70 9000 5.7 70 11:19 15.01.2020
531 Clouds 30 1009 70 9000 5.7 70 10:46 15.01.2020
532 Clouds 31 1010 58 9000 4.6 60 10:28 15.01.2020
533 Clouds 31 1010 58 9000 4.6 60 09:55 15.01.2020
534 Clouds 27 1008 74 0 6.45 38 09:37 15.01.2020
535 Clouds 31 1011 62 9000 4.6 60 09:19 15.01.2020
536 Clouds 27 1008 74 0 6.45 38 08:41 15.01.2020
537 Clouds 31 1012 62 9000 5.1 80 08:23 15.01.2020
538 Clouds 31 1012 62 9000 5.1 80 07:54 15.01.2020
539 Clouds 30 1012 66 9000 5.1 70 07:32 15.01.2020
540 Clouds 30 1012 66 9000 5.1 70 06:48 15.01.2020
541 Clouds 29 1012 66 9000 6.2 70 06:26 15.01.2020
542 Clouds 27 1011 75 0 6.44 46 04:46 15.01.2020
543 Clouds 27 1011 75 0 6.44 46 02:40 15.01.2020
544 Clouds 27 1009 78 10000 4.1 60 01:43 15.01.2020
545 Clouds 27 1009 74 10000 4.6 80 01:20 15.01.2020
546 Clouds 27 1009 69 0 4.54 50 00:36 15.01.2020
547 Clouds 28 1009 74 10000 5.1 90 00:18 15.01.2020
548 Clouds 28 1009 74 10000 5.1 90 23:45 14.01.2020
549 Clouds 27 1010 68 0 3.67 59 23:24 14.01.2020
550 Clouds 27 1010 68 0 3.67 59 22:54 14.01.2020
551 Clouds 27 1010 68 0 3.67 59 22:36 14.01.2020
552 Clouds 28 1010 74 10000 4.6 90 22:18 14.01.2020
553 Clouds 28 1010 74 10000 4.6 90 22:18 14.01.2020
554 Clouds 28 1010 74 10000 4.6 90 21:55 14.01.2020
555 Clouds 27 1010 68 0 3.67 59 21:36 14.01.2020
556 Clouds 28 1011 69 10000 5.1 90 21:18 14.01.2020
557 Clouds 28 1011 69 10000 5.1 90 21:18 14.01.2020
558 Clouds 27 1010 68 0 3.67 59 20:42 14.01.2020
559 Clouds 28 1011 74 10000 4.6 90 20:22 14.01.2020
560 Clouds 28 1011 74 10000 4.6 90 19:56 14.01.2020
561 Clouds 28 1011 74 10000 4.6 90 19:56 14.01.2020
562 Clear 27 1011 70 0 4.47 53 19:38 14.01.2020
563 Clouds 28 1011 74 10000 5.7 80 19:19 14.01.2020
564 Clouds 28 1011 74 10000 5.7 80 18:56 14.01.2020
565 Clear 27 1011 70 0 4.47 53 18:38 14.01.2020
566 Clouds 27 1011 78 10000 5.1 80 18:19 14.01.2020
567 Clear 27 1011 70 0 4.47 53 17:39 14.01.2020
568 Clouds 28 1011 74 10000 4.1 70 17:19 14.01.2020
569 Clouds 28 1011 74 10000 4.1 70 16:57 14.01.2020
570 Clear 27 1011 71 0 4.71 62 16:38 14.01.2020
571 Clouds 28 1010 74 10000 4.1 50 16:20 14.01.2020
572 Clouds 28 1010 74 10000 4.1 50 15:54 14.01.2020
573 Clouds 29 1009 66 10000 4.1 60 15:36 14.01.2020
574 Clouds 29 1009 66 10000 4.1 60 15:18 14.01.2020
575 Clear 27 1011 71 0 4.71 62 14:41 14.01.2020
576 Clouds 29 1008 66 10000 4.1 60 14:20 14.01.2020
577 Clouds 29 1008 66 10000 4.1 60 13:42 14.01.2020
578 Clouds 30 1008 58 10000 5.1 60 13:20 14.01.2020
579 Clouds 30 1008 58 10000 5.1 60 12:57 14.01.2020
580 Clear 27 1009 72 0 5.23 49 12:39 14.01.2020
581 Clouds 30 1008 62 10000 5.7 60 12:20 14.01.2020
582 Clouds 30 1008 62 10000 5.7 60 12:20 14.01.2020
583 Clear 27 1009 72 0 5.23 49 11:42 14.01.2020
584 Clouds 30 1008 62 10000 5.7 60 11:23 14.01.2020
585 Clouds 30 1008 62 10000 5.7 60 10:58 14.01.2020
586 Clear 27 1009 69 0 5.54 46 10:39 14.01.2020
587 Clouds 31 1009 55 10000 6.2 50 10:19 14.01.2020
588 Clouds 31 1009 55 10000 6.2 50 09:56 14.01.2020
589 Clear 27 1009 69 0 5.54 46 09:38 14.01.2020
590 Clouds 31 1010 58 10000 6.2 30 09:20 14.01.2020
591 Clouds 31 1010 58 10000 6.2 30 08:42 14.01.2020
592 Clouds 31 1010 70 10000 5.7 30 08:23 14.01.2020
593 Clouds 31 1010 70 10000 5.7 30 07:53 14.01.2020
594 Clouds 31 1011 55 10000 5.1 30 07:31 14.01.2020
595 Clouds 31 1011 55 10000 5.1 30 06:50 14.01.2020
596 Clouds 29 1011 66 10000 5.1 10 06:23 14.01.2020
597 Clouds 28 1011 69 10000 5.1 30 04:58 14.01.2020
598 Clouds 27 1010 74 10000 4.1 30 03:48 14.01.2020
599 Clouds 27 1011 69 0 6.12 34 02:41 14.01.2020
600 Clouds 27 1009 69 0 6.27 15 01:35 14.01.2020
601 Clouds 27 1009 74 10000 3.1 20 00:49 14.01.2020
602 Clouds 27 1009 74 10000 3.1 20 00:27 14.01.2020
603 Clouds 27 1009 74 10000 3.1 20 23:48 13.01.2020
604 Clouds 27 1010 69 10000 3.1 30 23:19 13.01.2020
605 Clouds 27 1010 69 10000 3.1 30 22:59 13.01.2020
606 Clouds 27 1009 72 0 5.44 22 22:40 13.01.2020
607 Clouds 27 1011 69 10000 3.1 30 22:20 13.01.2020
608 Clouds 27 1011 69 10000 3.1 30 21:56 13.01.2020
609 Clouds 27 1009 72 0 5.44 22 21:37 13.01.2020
610 Clouds 28 1011 65 10000 3.6 30 21:18 13.01.2020
611 Clouds 28 1011 65 10000 3.6 30 20:57 13.01.2020
612 Clouds 28 1011 65 10000 3.6 30 20:57 13.01.2020
613 Clouds 27 1009 72 0 5.44 22 20:38 13.01.2020
614 Clouds 28 1012 65 10000 2.6 30 20:20 13.01.2020
615 Clouds 28 1012 65 10000 2.6 30 19:56 13.01.2020
616 Clouds 27 1012 70 0 4.22 13 19:37 13.01.2020
617 Clouds 28 1012 65 10000 3.1 40 19:18 13.01.2020
618 Clouds 28 1012 65 10000 3.1 40 18:55 13.01.2020
619 Clouds 27 1012 70 0 4.22 13 18:36 13.01.2020
620 Clouds 28 1012 74 10000 4.1 30 18:18 13.01.2020
621 Clouds 27 1012 70 0 4.22 13 17:40 13.01.2020
622 Clouds 29 1011 62 10000 4.1 30 17:21 13.01.2020
623 Clouds 29 1011 62 10000 4.1 30 16:56 13.01.2020
624 Clouds 27 1011 71 0 5.12 14 16:37 13.01.2020
625 Clouds 27 1011 71 0 5.12 14 16:18 13.01.2020
626 Clouds 27 1011 71 0 5.12 14 15:43 13.01.2020
627 Clouds 27 1011 71 0 5.12 14 15:22 13.01.2020
628 Clouds 27 1011 71 0 5.12 14 15:22 13.01.2020
629 Clouds 27 1011 71 0 5.12 14 14:57 13.01.2020
630 Clouds 27 1011 71 0 5.12 14 14:37 13.01.2020
631 Clouds 27 1011 71 0 5.12 14 14:37 13.01.2020
632 Rain 27 1009 75 0 5.99 11 14:18 13.01.2020
633 Rain 27 1009 75 0 5.99 11 13:41 13.01.2020
634 Rain 27 1009 76 0 6.4 4 13:22 13.01.2020
635 Rain 27 1009 76 0 6.4 4 12:58 13.01.2020
636 Rain 27 1009 76 0 6.4 4 12:40 13.01.2020
637 Rain 27 1009 76 0 6.4 4 12:40 13.01.2020
638 Clouds 31 1009 58 10000 4.6 10 12:21 13.01.2020
639 Clouds 31 1009 58 10000 4.6 10 11:56 13.01.2020
640 Rain 27 1009 76 0 6.4 4 11:36 13.01.2020
641 Clouds 32 1009 55 10000 4.6 360 11:18 13.01.2020
642 Clouds 32 1009 55 10000 4.6 360 10:55 13.01.2020
643 Clouds 32 1009 55 10000 4.6 360 10:36 13.01.2020
644 Clouds 32 1009 55 10000 4.6 360 10:18 13.01.2020
645 Rain 27 1010 78 0 6.21 354 09:40 13.01.2020
646 Clouds 32 1011 62 10000 4.6 360 09:22 13.01.2020
647 Rain 27 1010 78 0 6.21 354 08:42 13.01.2020
648 Clouds 31 1012 62 10000 4.6 20 08:21 13.01.2020
649 Clouds 31 1012 62 10000 4.6 20 07:59 13.01.2020
650 Clouds 27 1012 76 0 5.49 7 07:40 13.01.2020
651 Clouds 30 1012 66 10000 6.2 30 07:18 13.01.2020
652 Clouds 27 1012 76 0 5.49 7 06:36 13.01.2020
653 Clouds 27 1012 76 0 5.49 7 05:36 13.01.2020
654 Clouds 28 1011 74 10000 3.6 10 04:25 13.01.2020
655 Clouds 27 1011 75 0 5.81 20 03:34 13.01.2020
656 Clouds 28 1010 69 10000 3.6 10 02:49 13.01.2020
657 Clouds 28 1010 69 10000 3.1 30 02:29 13.01.2020
658 Clouds 28 1010 69 10000 3.1 30 02:29 13.01.2020
659 Clouds 27 1010 76 0 6.98 14 01:32 13.01.2020
660 Clouds 28 1009 74 10000 4.1 20 00:43 13.01.2020
661 Clouds 28 1009 74 10000 5.1 30 00:24 13.01.2020
662 Clouds 28 1009 74 10000 5.1 30 23:56 12.01.2020
663 Clouds 27 1009 76 0 7.46 15 23:37 12.01.2020
664 Clouds 28 1010 74 10000 5.1 30 23:19 12.01.2020
665 Clouds 27 1010 78 0 8 24 22:42 12.01.2020
666 Clouds 28 1011 74 10000 5.1 50 22:24 12.01.2020
667 Clouds 28 1011 74 10000 5.1 50 21:58 12.01.2020
668 Clouds 27 1010 78 0 8 24 21:39 12.01.2020
669 Clouds 28 1011 69 10000 5.7 30 21:20 12.01.2020
670 Clouds 28 1011 69 10000 5.7 30 20:57 12.01.2020
671 Clouds 27 1010 78 0 8 24 20:39 12.01.2020
672 Clouds 29 1012 70 10000 5.7 40 20:20 12.01.2020
673 Clouds 29 1012 70 10000 5.7 40 19:56 12.01.2020
674 Rain 28 1012 77 0 9.37 37 19:38 12.01.2020
675 Clouds 29 1012 70 10000 6.7 40 19:19 12.01.2020
676 Clouds 29 1012 70 10000 6.7 40 18:58 12.01.2020
677 Clouds 29 1012 70 10000 6.7 40 18:58 12.01.2020
678 Rain 28 1012 77 0 9.37 37 18:39 12.01.2020
679 Clouds 29 1012 70 10000 6.7 50 18:21 12.01.2020
680 Clouds 29 1012 70 10000 6.7 50 17:57 12.01.2020
681 Rain 28 1012 77 0 9.37 37 17:38 12.01.2020
682 Clouds 29 1011 70 10000 7.2 60 17:19 12.01.2020
683 Clouds 29 1011 70 10000 7.2 60 16:55 12.01.2020
684 Clear 28 1010 81 0 8.95 40 16:37 12.01.2020
685 Clouds 29 1010 74 10000 6.7 50 16:18 12.01.2020
686 Clear 28 1010 81 0 8.95 40 15:42 12.01.2020
687 Clouds 29 1009 74 10000 7.2 50 15:24 12.01.2020
688 Clouds 29 1009 74 10000 7.2 50 14:57 12.01.2020
689 Clear 28 1010 81 0 8.95 40 14:38 12.01.2020
690 Clouds 30 1008 70 10000 7.2 50 14:19 12.01.2020
691 Clouds 30 1008 70 10000 7.2 50 13:43 12.01.2020
692 Clouds 30 1008 74 10000 7.2 50 13:24 12.01.2020
693 Clouds 30 1008 74 10000 7.2 50 12:58 12.01.2020
694 Rain 28 1009 79 0 8.37 40 12:39 12.01.2020
695 Clouds 31 1008 66 10000 6.7 60 12:20 12.01.2020
696 Clouds 31 1008 66 10000 6.7 60 11:58 12.01.2020
697 Rain 28 1009 79 0 8.37 40 11:38 12.01.2020
698 Clouds 31 1009 66 10000 7.7 60 11:19 12.01.2020
699 Rain 28 1009 78 0 7.95 41 10:41 12.01.2020
700 Rain 28 1009 78 0 7.95 41 10:41 12.01.2020
701 Clouds 31 1010 66 10000 8.2 60 10:22 12.01.2020
702 Clouds 31 1010 66 10000 8.2 60 09:57 12.01.2020
703 Rain 28 1009 78 0 7.95 41 09:38 12.01.2020
704 Clouds 31 1011 66 10000 7.2 60 09:18 12.01.2020
705 Clouds 31 1011 66 10000 7.2 60 08:44 12.01.2020
706 Clouds 31 1012 62 10000 6.7 60 08:20 12.01.2020
707 Clouds 28 1012 77 0 7.72 48 07:40 12.01.2020
708 Clouds 31 1012 66 10000 7.2 60 07:22 12.01.2020
709 Clouds 31 1012 66 10000 7.2 60 06:48 12.01.2020
710 Clouds 30 1012 70 10000 7.7 60 06:29 12.01.2020
711 Clouds 29 1012 70 10000 7.2 60 05:24 12.01.2020
712 Clouds 28 1011 74 10000 6.7 60 04:27 12.01.2020
713 Clouds 28 1010 74 10000 7.2 70 03:23 12.01.2020
714 Clouds 28 1012 75 0 6.78 51 02:33 12.01.2020
715 Clouds 28 1010 74 10000 7.2 70 01:43 12.01.2020
716 Clouds 28 1010 74 10000 7.2 70 01:22 12.01.2020
717 Rain 28 1010 75 0 7.76 61 00:41 12.01.2020
718 Clouds 28 1009 78 10000 7.2 70 00:20 12.01.2020
719 Rain 28 1010 75 0 7.76 61 23:42 11.01.2020
720 Clouds 28 1010 78 10000 7.7 70 23:19 11.01.2020
721 Clouds 28 1010 78 10000 7.7 70 22:58 11.01.2020
722 Rain 27 1009 77 0 7.69 61 22:39 11.01.2020
723 Clouds 28 1010 74 10000 7.7 70 22:20 11.01.2020
724 Clouds 28 1010 74 10000 7.7 70 21:58 11.01.2020
725 Rain 27 1009 77 0 7.69 61 21:39 11.01.2020
726 Clouds 28 1011 74 10000 8.2 70 21:18 11.01.2020
727 Clouds 28 1011 74 10000 8.2 70 21:18 11.01.2020
728 Rain 27 1009 77 0 7.69 61 20:40 11.01.2020
729 Clouds 28 1011 78 10000 8.2 70 20:22 11.01.2020
730 Clouds 28 1011 78 10000 8.2 70 19:58 11.01.2020
731 Clear 28 1011 76 0 8.35 60 19:39 11.01.2020
732 Clouds 28 1012 78 10000 7.7 70 19:21 11.01.2020
733 Clouds 28 1012 78 10000 7.7 70 18:58 11.01.2020
734 Clear 28 1011 76 0 8.35 60 18:38 11.01.2020
735 Clouds 29 1011 70 10000 8.7 70 18:19 11.01.2020
736 -273 0 0 0 0 0 17:57 11.01.2020
737 Clear 28 1011 76 0 8.35 60 17:39 11.01.2020
738 Clear 28 1011 76 0 8.35 60 17:39 11.01.2020
739 Clouds 29 1011 74 10000 8.2 70 17:19 11.01.2020
740 Clouds 29 1011 74 10000 8.2 70 16:45 11.01.2020
741 Clouds 29 1010 74 10000 8.2 70 16:27 11.01.2020
742 Clouds 29 1010 74 10000 8.2 70 15:58 11.01.2020
743 Rain 28 1010 77 0 8.84 62 15:40 11.01.2020
744 Clouds 29 1009 74 10000 7.2 70 15:20 11.01.2020
745 Clouds 29 1009 74 10000 7.2 70 14:56 11.01.2020
746 Rain 28 1010 77 0 8.84 62 14:38 11.01.2020
747 Clouds 30 1009 66 10000 8.2 60 14:19 11.01.2020
748 Clouds 28 1009 76 0 8.2 55 13:39 11.01.2020
749 Clouds 30 1008 66 10000 7.2 60 13:20 11.01.2020
750 Clouds 30 1008 66 10000 7.2 60 12:58 11.01.2020
751 Rain 28 1009 76 0 8.28 58 12:39 11.01.2020
752 Clouds 31 1009 66 10000 7.7 70 12:21 11.01.2020
753 Clouds 31 1009 66 10000 7.7 70 11:47 11.01.2020
754 Clouds 31 1009 66 10000 7.2 70 11:26 11.01.2020
755 Clouds 31 1009 66 10000 7.2 70 10:50 11.01.2020
756 Clouds 31 1010 70 10000 7.2 70 10:30 11.01.2020
757 Clouds 31 1010 70 10000 7.2 70 09:55 11.01.2020
758 Clouds 27 1008 78 0 8.03 59 09:37 11.01.2020
759 Clouds 31 1011 66 10000 7.7 90 09:18 11.01.2020
760 Clouds 27 1008 78 0 8.03 59 08:41 11.01.2020
761 Clouds 31 1011 66 10000 8.2 70 08:21 11.01.2020
762 Clouds 31 1011 66 10000 8.2 70 07:44 11.01.2020
763 Clouds 30 1012 66 10000 8.2 70 07:25 11.01.2020
764 Clouds 30 1012 66 10000 8.2 70 06:48 11.01.2020
765 Clouds 27 1011 80 0 7.91 62 05:34 11.01.2020
766 Clouds 29 1011 70 10000 8.2 60 04:46 11.01.2020
767 Clouds 28 1010 74 10000 9.3 70 04:27 11.01.2020
768 Clouds 28 1010 69 10000 8.2 70 02:49 11.01.2020
769 Clouds 28 1010 69 10000 8.2 70 02:20 11.01.2020
770 Clouds 27 1010 78 0 8.59 58 01:42 11.01.2020
771 Clouds 28 1010 69 10000 7.7 70 01:18 11.01.2020
772 Clear 27 1009 76 0 8.59 58 00:38 11.01.2020
773 Clouds 28 1010 69 10000 8.2 70 23:59 10.01.2020
774 Clear 27 1009 76 0 8.59 58 23:40 10.01.2020
775 Clouds 28 1010 69 10000 8.7 80 23:21 10.01.2020
776 Clouds 28 1010 69 10000 8.7 80 22:57 10.01.2020
777 Clear 27 1010 75 0 8.44 58 22:39 10.01.2020
778 Clouds 28 1011 74 10000 7.2 80 22:20 10.01.2020
779 Clouds 28 1011 74 10000 7.2 80 21:56 10.01.2020
780 Clear 27 1010 75 0 8.44 58 21:36 10.01.2020
781 Clouds 28 1012 74 10000 8.2 80 21:18 10.01.2020
782 Clear 27 1010 75 0 8.44 58 20:43 10.01.2020
783 Clouds 28 1012 74 10000 7.2 80 20:24 10.01.2020
784 Clouds 28 1012 74 10000 7.2 80 19:56 10.01.2020
785 Clear 27 1012 76 0 8.3 67 19:37 10.01.2020
786 Clouds 28 1012 69 10000 7.2 80 19:19 10.01.2020
787 Clear 27 1012 76 0 8.3 67 18:42 10.01.2020
788 Clouds 28 1012 74 10000 7.2 70 18:19 10.01.2020
789 Clouds 28 1012 74 10000 7.2 70 18:19 10.01.2020
790 Clouds 28 1012 74 10000 7.2 70 17:57 10.01.2020
791 Clouds 28 1012 74 10000 7.2 70 17:39 10.01.2020
792 Clouds 28 1012 74 10000 7.2 70 17:20 10.01.2020
793 Clouds 29 1011 70 10000 7.2 80 16:56 10.01.2020
794 Clear 28 1011 73 0 7.82 69 16:37 10.01.2020
795 Clouds 29 1010 70 10000 7.2 80 16:19 10.01.2020
796 Clouds 29 1010 70 10000 7.2 80 15:55 10.01.2020
797 Clear 28 1011 73 0 7.82 69 15:36 10.01.2020
798 Clouds 29 1010 70 10000 6.7 70 15:18 10.01.2020
799 Clouds 29 1010 70 10000 6.7 70 14:54 10.01.2020
800 Clouds 29 1010 70 10000 6.7 70 14:36 10.01.2020
801 Clouds 29 1010 70 10000 6.7 70 14:18 10.01.2020
802 Clouds 30 1009 66 10000 6.7 70 13:42 10.01.2020
803 Clouds 30 1009 66 10000 6.7 70 13:23 10.01.2020
804 Clouds 31 1009 66 10000 6.7 70 12:58 10.01.2020
805 Clouds 28 1009 73 0 7.51 54 12:39 10.01.2020
806 Clouds 28 1009 73 0 7.51 54 12:39 10.01.2020
807 Clouds 28 1009 73 0 7.51 54 12:39 10.01.2020
808 Clouds 31 1009 62 10000 7.2 70 12:19 10.01.2020
809 Clouds 31 1009 62 10000 7.2 70 11:55 10.01.2020
810 Clouds 28 1009 73 0 7.51 54 11:37 10.01.2020
811 Clouds 31 1009 66 10000 7.2 70 11:18 10.01.2020
812 Clouds 31 1009 66 10000 7.2 70 10:57 10.01.2020
813 Clouds 28 1009 73 0 7.09 53 10:36 10.01.2020
814 Clouds 31 1010 66 10000 6.2 80 10:18 10.01.2020
815 Clouds 28 1009 73 0 7.09 53 09:42 10.01.2020
816 Clouds 31 1011 66 10000 5.7 80 09:23 10.01.2020
817 Clouds 28 1009 73 0 7.09 53 08:43 10.01.2020
818 Clouds 31 1012 66 10000 5.7 80 08:24 10.01.2020
819 Clouds 31 1012 66 10000 5.7 80 07:47 10.01.2020
820 Clouds 31 1012 70 10000 5.7 90 07:28 10.01.2020
821 Clouds 31 1012 70 10000 5.7 90 06:55 10.01.2020
822 Clouds 30 1012 70 10000 5.1 90 06:27 10.01.2020
823 Clouds 30 1012 70 10000 5.1 90 05:52 10.01.2020
824 Clouds 28 1011 78 10000 6.2 70 03:47 10.01.2020
825 Clouds 28 1010 78 10000 5.7 70 03:28 10.01.2020
826 Clouds 28 1010 78 10000 5.7 70 02:51 10.01.2020
827 Clouds 28 1010 78 10000 6.2 70 01:49 10.01.2020
828 Clouds 28 1010 78 10000 6.2 60 01:28 10.01.2020
829 Clouds 28 1010 78 10000 6.2 60 00:47 10.01.2020
830 Clouds 28 1010 78 10000 6.2 70 00:29 10.01.2020
831 Rain 27 1010 80 0 7.95 61 23:39 09.01.2020
832 Rain 27 1010 80 0 7.95 61 23:39 09.01.2020
833 Rain 27 1010 80 0 7.95 61 23:39 09.01.2020
834 Rain 27 1010 80 0 7.95 61 23:39 09.01.2020
835 Clouds 28 1010 78 10000 5.7 70 23:21 09.01.2020
836 Clouds 28 1010 78 10000 5.7 70 22:58 09.01.2020
837 Clouds 28 1010 78 10000 5.7 70 22:58 09.01.2020
838 Rain 27 1010 81 0 6.28 64 22:39 09.01.2020
839 Clouds 28 1010 65 10000 5.7 70 22:19 09.01.2020
840 Clouds 28 1010 65 10000 5.7 70 21:57 09.01.2020
841 Clouds 28 1010 65 10000 5.7 70 21:57 09.01.2020
842 Rain 27 1010 81 0 6.28 64 21:38 09.01.2020
843 Clouds 28 1011 83 10000 7.2 70 21:20 09.01.2020
844 Clouds 28 1011 83 10000 7.2 70 20:58 09.01.2020
845 Clouds 28 1011 83 10000 7.2 70 20:39 09.01.2020
846 Clouds 28 1011 78 10000 4.6 60 20:20 09.01.2020
847 Clouds 28 1011 78 10000 4.6 60 20:20 09.01.2020
848 Clouds 28 1011 78 10000 4.6 60 19:59 09.01.2020
849 Clouds 28 1011 80 0 6.07 54 19:39 09.01.2020
850 Clouds 29 1011 74 10000 5.1 60 19:20 09.01.2020
851 Clouds 29 1011 74 10000 5.1 60 18:56 09.01.2020
852 Clouds 28 1011 80 0 6.07 54 18:38 09.01.2020
853 Clouds 29 1011 74 10000 3.6 40 18:20 09.01.2020
854 Clouds 28 1011 80 0 6.07 54 17:41 09.01.2020
855 Clouds 29 1011 70 10000 4.1 40 17:19 09.01.2020
856 Clouds 29 1011 70 10000 4.1 40 16:56 09.01.2020
857 Clouds 28 1011 78 0 5.68 34 16:37 09.01.2020
858 Clouds 29 1010 70 10000 4.6 50 16:19 09.01.2020
859 Clouds 29 1010 70 10000 4.6 50 15:42 09.01.2020
860 Clouds 29 1009 74 10000 5.1 60 15:21 09.01.2020
861 Clouds 29 1009 74 10000 5.1 60 14:57 09.01.2020
862 Clouds 28 1011 78 0 5.68 34 14:38 09.01.2020
863 Clouds 30 1009 70 10000 4.6 60 14:18 09.01.2020
864 Clouds 30 1009 70 10000 4.6 60 13:55 09.01.2020
865 Clear 28 1009 77 0 6.15 31 13:37 09.01.2020
866 Clouds 30 1009 70 10000 5.1 60 13:18 09.01.2020
867 Clouds 30 1009 70 10000 5.1 60 12:42 09.01.2020
868 Clouds 31 1009 66 10000 5.1 60 12:24 09.01.2020
869 Clouds 31 1009 66 10000 5.1 60 11:59 09.01.2020
870 Clouds 31 1009 66 10000 5.1 60 11:41 09.01.2020
871 Clouds 31 1010 70 10000 5.1 70 11:23 09.01.2020
872 Clouds 31 1010 70 10000 5.1 70 10:56 09.01.2020
873 Clear 28 1009 79 0 5.45 35 10:37 09.01.2020
874 Clouds 31 1011 70 10000 5.1 70 10:19 09.01.2020
875 Clouds 31 1011 70 10000 5.1 70 10:19 09.01.2020
876 Clouds 31 1011 70 10000 5.1 70 09:41 09.01.2020
877 Clouds 31 1012 70 10000 5.1 60 09:22 09.01.2020
878 Clouds 31 1012 70 10000 5.1 60 08:56 09.01.2020
879 Clear 28 1009 79 0 5.45 35 08:37 09.01.2020
880 Clouds 31 1012 70 10000 5.1 70 08:19 09.01.2020
881 Clouds 31 1012 70 10000 5.1 70 07:44 09.01.2020
882 Clouds 30 1012 70 10000 4.6 70 07:24 09.01.2020
883 Clouds 28 1012 77 0 5.08 45 06:39 09.01.2020
884 Clouds 30 1013 70 10000 4.6 60 06:21 09.01.2020
885 Clouds 30 1013 70 10000 4.6 60 05:50 09.01.2020
886 Clouds 29 1013 74 10000 4.1 50 04:45 09.01.2020
887 Clouds 28 1012 78 10000 3.1 30 03:54 09.01.2020
888 Clouds 28 1011 78 10000 3.1 30 03:26 09.01.2020
889 Rain 27 1012 75 0 4.69 45 02:31 09.01.2020
890 Rain 27 1011 76 0 5.02 4 01:40 09.01.2020
891 Clouds 28 1010 78 10000 4.1 50 00:44 09.01.2020
892 Clouds 28 1010 78 10000 4.1 30 00:23 09.01.2020
893 Clouds 28 1010 78 10000 4.1 30 23:58 08.01.2020
894 Rain 27 1011 78 0 5.36 16 23:38 08.01.2020
895 Clouds 28 1011 78 10000 5.1 50 23:19 08.01.2020
896 Rain 27 1010 82 0 6.76 30 22:40 08.01.2020
897 Clouds 28 1011 78 10000 5.1 50 22:21 08.01.2020
898 Clouds 28 1011 78 10000 5.1 50 21:58 08.01.2020
899 Rain 27 1010 82 0 6.76 30 21:39 08.01.2020
900 Clouds 28 1012 78 10000 7.2 60 21:20 08.01.2020
901 Clouds 28 1012 78 10000 7.2 60 20:58 08.01.2020
902 Rain 27 1010 82 0 6.76 30 20:40 08.01.2020
903 Clouds 29 1012 74 10000 7.2 60 20:20 08.01.2020
904 Clouds 29 1012 74 10000 7.2 60 20:20 08.01.2020
905 Clouds 29 1012 74 10000 7.2 60 19:57 08.01.2020
906 Clouds 28 1012 80 0 8.05 52 19:37 08.01.2020
907 Clouds 29 1012 74 10000 6.7 70 19:19 08.01.2020
908 Clouds 29 1012 74 10000 6.7 70 18:56 08.01.2020
909 Clouds 28 1012 80 0 8.05 52 18:37 08.01.2020
910 Clouds 29 1012 74 10000 6.2 60 18:18 08.01.2020
911 Clouds 29 1012 74 10000 6.2 60 17:56 08.01.2020
912 Clouds 28 1012 80 0 8.05 52 17:37 08.01.2020
913 Clouds 29 1011 74 10000 6.7 60 17:18 08.01.2020
914 Clouds 29 1011 74 10000 6.7 60 16:54 08.01.2020
915 Rain 28 1011 78 0 8.43 50 16:36 08.01.2020
916 Clouds 29 1011 74 10000 7.2 70 16:18 08.01.2020
917 Clouds 29 1011 74 10000 7.2 70 15:41 08.01.2020
918 Clouds 29 1010 74 10000 7.7 70 15:21 08.01.2020
919 Clouds 29 1010 74 10000 7.7 70 14:57 08.01.2020
920 Clouds 29 1010 74 10000 7.7 70 14:39 08.01.2020
921 Clouds 30 1010 70 10000 7.2 70 14:20 08.01.2020
922 Clouds 30 1010 70 10000 7.2 70 13:40 08.01.2020
923 Clouds 31 1009 66 10000 7.7 70 13:19 08.01.2020
924 Clouds 31 1009 66 10000 7.7 70 12:42 08.01.2020
925 Clouds 31 1000 70 10000 7.7 70 12:19 08.01.2020
926 Clouds 31 1000 70 10000 7.7 70 11:55 08.01.2020
927 Clouds 31 1000 70 10000 7.7 70 11:55 08.01.2020
928 Rain 28 1009 79 0 8.27 46 11:37 08.01.2020
929 Clouds 30 1010 74 10000 6.7 70 11:19 08.01.2020
930 Clouds 30 1010 74 10000 6.7 70 10:55 08.01.2020
931 Rain 28 1009 78 0 6.68 49 10:37 08.01.2020
932 Clouds 31 1010 66 10000 7.2 70 10:18 08.01.2020
933 Clouds 31 1010 66 10000 7.2 70 09:41 08.01.2020
934 Clouds 31 1011 66 10000 7.7 70 09:19 08.01.2020
935 Clouds 31 1011 66 10000 7.7 70 08:56 08.01.2020
936 Rain 28 1009 78 0 6.68 49 08:37 08.01.2020
937 Clouds 31 1012 66 10000 7.2 70 08:19 08.01.2020
938 Clouds 31 1012 66 10000 7.2 70 07:48 08.01.2020
939 Clouds 30 1012 70 10000 7.2 70 07:29 08.01.2020
940 Clouds 30 1012 70 10000 7.2 70 06:45 08.01.2020
941 Clouds 30 1013 70 10000 6.2 70 06:22 08.01.2020
942 Clouds 30 1013 70 10000 6.2 70 05:41 08.01.2020
943 Clouds 29 1012 74 10000 6.2 70 04:56 08.01.2020
944 Clouds 28 1011 78 10000 6.2 70 04:24 08.01.2020
945 Clouds 28 1011 78 10000 5.7 90 02:45 08.01.2020
946 Clouds 28 1010 78 10000 5.7 90 02:21 08.01.2020
947 Clouds 28 1010 78 10000 5.7 90 01:46 08.01.2020
948 Clouds 28 1009 78 10000 5.1 80 01:19 08.01.2020
949 Clouds 28 1009 83 10000 5.1 80 00:27 08.01.2020
950 Clouds 28 1009 83 10000 5.1 80 23:55 07.01.2020
951 Rain 28 1010 77 0 5.86 66 23:37 07.01.2020
952 Clouds 29 1010 74 10000 5.7 80 23:19 07.01.2020
953 Clouds 29 1010 74 10000 5.7 80 22:40 07.01.2020
954 Clouds 29 1011 74 10000 6.7 80 22:20 07.01.2020
955 Clouds 29 1011 74 10000 6.7 80 21:55 07.01.2020
956 Rain 27 1009 78 0 6.79 69 21:37 07.01.2020
957 Clouds 29 1012 79 10000 6.7 90 21:19 07.01.2020
958 Clouds 29 1012 79 10000 6.7 90 20:55 07.01.2020
959 Rain 27 1009 78 0 6.79 69 20:36 07.01.2020
960 Rain 27 1009 78 0 6.79 69 20:36 07.01.2020
961 Rain 29 1012 79 10000 6.7 90 20:18 07.01.2020
962 Rain 28 1011 81 0 8.74 66 19:38 07.01.2020
963 Clouds 29 1012 79 10000 7.2 70 19:19 07.01.2020
964 Clouds 29 1012 79 10000 7.2 70 18:58 07.01.2020
965 Clouds 29 1012 79 10000 7.2 70 18:58 07.01.2020
966 Clouds 29 1012 79 10000 7.2 70 18:40 07.01.2020
967 Clouds 29 1012 79 10000 8.7 70 18:18 07.01.2020
968 Clouds 29 1012 79 10000 8.7 70 17:58 07.01.2020
969 Rain 28 1011 81 0 8.74 66 17:39 07.01.2020
970 Clouds 29 1015 79 10000 7.2 70 17:20 07.01.2020
971 Clouds 29 1015 79 10000 7.2 70 16:56 07.01.2020
972 Clouds 28 1011 79 0 8.31 50 16:37 07.01.2020
973 Clouds 29 1011 74 10000 7.2 70 16:18 07.01.2020
974 Clouds 29 1011 74 10000 7.2 70 15:57 07.01.2020
975 Clouds 28 1011 79 0 8.31 50 15:37 07.01.2020
976 Clouds 29 1010 79 10000 8.2 70 15:18 07.01.2020
977 Clouds 29 1010 79 10000 8.2 70 14:42 07.01.2020
978 Clouds 30 1009 74 10000 7.7 70 14:23 07.01.2020
979 Clouds 30 1009 74 10000 7.7 70 14:23 07.01.2020
980 Clouds 30 1009 74 10000 7.7 70 13:56 07.01.2020
981 Clouds 30 1009 74 10000 7.7 70 13:56 07.01.2020
982 Rain 28 1009 77 0 8.58 49 13:37 07.01.2020
983 Clouds 30 1009 74 10000 7.7 60 13:18 07.01.2020
984 Clouds 30 1009 74 10000 7.7 60 12:40 07.01.2020
985 Clouds 30 1009 74 10000 7.7 60 12:40 07.01.2020
986 Clouds 30 1009 74 10000 7.7 70 12:19 07.01.2020
987 Clouds 30 1009 74 10000 7.7 70 11:43 07.01.2020
988 Rain 31 1009 70 7000 6.7 80 11:23 07.01.2020
989 Rain 31 1009 70 7000 6.7 80 11:23 07.01.2020
990 Rain 31 1009 70 7000 6.7 80 10:59 07.01.2020
991 Rain 31 1009 70 7000 6.7 80 10:40 07.01.2020
992 Clouds 31 1010 70 10000 6.7 80 10:22 07.01.2020
993 Clouds 31 1010 70 10000 6.7 80 09:56 07.01.2020
994 Rain 28 1009 80 0 7.72 56 09:37 07.01.2020
995 Rain 28 1009 80 0 7.72 56 09:37 07.01.2020
996 Clouds 31 1011 70 10000 6.7 80 09:19 07.01.2020
997 Clouds 31 1011 70 10000 6.7 80 08:41 07.01.2020
998 Clouds 31 1011 70 10000 6.7 80 08:41 07.01.2020
999 Clouds 31 1012 70 10000 6.7 80 08:20 07.01.2020
1000 Clouds 31 1012 70 10000 6.7 80 07:49 07.01.2020
1001 Clouds 31 1012 70 10000 6.7 80 07:25 07.01.2020
1002 Clouds 31 1012 70 10000 6.7 80 06:52 07.01.2020
1003 Clouds 30 1012 70 10000 6.7 80 06:32 07.01.2020
1004 Clouds 30 1012 70 10000 6.7 80 05:42 07.01.2020
1005 Clouds 28 1011 83 10000 6.7 80 03:52 07.01.2020
1006 Clouds 28 1011 78 10000 7.7 80 03:25 07.01.2020
1007 Clouds 28 1010 78 10000 7.7 80 02:21 07.01.2020
1008 Clouds 28 1010 78 10000 7.7 80 01:45 07.01.2020
1009 Clouds 28 1010 83 10000 7.7 90 01:21 07.01.2020
1010 Clouds 28 1009 83 10000 7.7 80 00:22 07.01.2020
1011 Clouds 28 1009 83 10000 7.7 80 23:58 06.01.2020
1012 Rain 28 1010 79 0 7.09 56 23:39 06.01.2020
1013 Clouds 28 1010 83 10000 7.2 80 23:21 06.01.2020
1014 Clouds 28 1010 83 10000 7.2 80 22:56 06.01.2020
1015 Clouds 28 1010 81 0 7.3 57 22:37 06.01.2020
1016 Clouds 28 1011 78 10000 7.2 80 22:19 06.01.2020
1017 Clouds 28 1011 78 10000 7.2 80 21:55 06.01.2020
1018 Clouds 28 1010 81 0 7.3 57 21:36 06.01.2020
1019 Clouds 28 1010 81 0 7.3 57 21:36 06.01.2020
1020 Clouds 29 1011 74 10000 7.7 80 21:18 06.01.2020
1021 Clouds 29 1011 74 10000 7.7 80 20:54 06.01.2020
1022 Clouds 29 1011 74 10000 7.7 80 20:54 06.01.2020
1023 Clouds 28 1010 81 0 7.3 57 20:36 06.01.2020
1024 Clouds 29 1011 74 10000 8.7 80 20:18 06.01.2020
1025 Clouds 29 1011 74 10000 8.7 80 19:55 06.01.2020
1026 Rain 28 1012 81 0 6.34 72 19:36 06.01.2020
1027 Rain 28 1012 81 0 6.34 72 19:36 06.01.2020
1028 Clouds 29 1012 74 10000 8.2 90 19:18 06.01.2020
1029 Clouds 29 1012 74 10000 8.2 90 18:43 06.01.2020
1030 Clouds 29 1012 79 10000 7.7 70 18:20 06.01.2020
1031 Rain 28 1012 81 0 6.34 72 17:39 06.01.2020
1032 Clouds 29 1011 74 10000 8.2 80 17:20 06.01.2020
1033 Clouds 29 1011 74 10000 8.2 80 16:57 06.01.2020
1034 Rain 28 1011 80 0 6.67 70 16:38 06.01.2020
1035 Clouds 29 1011 79 10000 7.2 80 16:19 06.01.2020
1036 Clouds 29 1011 79 10000 7.2 80 15:44 06.01.2020
1037 Clouds 29 1010 79 10000 6.7 80 15:22 06.01.2020
1038 Clouds 29 1010 79 10000 6.7 80 14:59 06.01.2020
1039 Clouds 29 1010 79 10000 6.7 80 14:41 06.01.2020
1040 Clouds 30 1010 74 10000 6.7 90 14:22 06.01.2020
1041 Clouds 30 1010 74 10000 6.7 90 13:59 06.01.2020
1042 Clouds 28 1010 78 0 5.52 65 13:38 06.01.2020
1043 Clouds 30 1009 74 10000 7.2 80 13:20 06.01.2020
1044 Clouds 30 1009 74 10000 7.2 80 12:55 06.01.2020
1045 Clouds 28 1009 78 0 5.05 62 12:37 06.01.2020
1046 Clouds 31 1009 70 10000 5.7 70 12:18 06.01.2020
1047 Clouds 31 1009 70 10000 5.7 70 11:41 06.01.2020
1048 Clouds 31 1009 70 10000 6.7 70 11:23 06.01.2020
1049 Clouds 31 1009 70 10000 6.7 70 10:58 06.01.2020
1050 Clouds 28 1010 78 0 4.95 60 10:40 06.01.2020
1051 Clouds 28 1010 78 0 4.95 60 10:20 06.01.2020
1052 Clouds 28 1010 78 0 4.95 60 09:39 06.01.2020
1053 Clouds 31 1011 70 10000 5.7 80 09:20 06.01.2020
1054 Clouds 31 1011 70 10000 5.7 80 08:51 06.01.2020
1055 Clouds 28 1010 78 0 4.95 60 08:33 06.01.2020
1056 Clouds 31 1012 70 10000 5.7 90 07:56 06.01.2020
1057 Clouds 28 1012 79 0 6.58 59 07:36 06.01.2020
1058 Clouds 31 1013 70 10000 6.2 90 06:46 06.01.2020
1059 Clouds 28 1012 79 0 6.58 59 06:23 06.01.2020
1060 Clouds 28 1012 79 0 6.58 59 05:45 06.01.2020
1061 Clouds 28 1012 80 0 5.43 66 04:52 06.01.2020
1062 Clouds 29 1011 79 10000 5.7 80 04:19 06.01.2020
1063 Clouds 28 1010 78 10000 6.2 90 02:56 06.01.2020
1064 Clouds 28 1012 80 0 5.43 66 02:24 06.01.2020
1065 Clear 28 1010 79 0 5.22 53 01:45 06.01.2020
1066 Clouds 28 1009 83 10000 6.2 90 01:26 06.01.2020
1067 Clouds 28 1009 83 10000 6.2 90 00:42 06.01.2020
1068 Clouds 28 1009 83 10000 6.2 70 00:23 06.01.2020
1069 Clouds 28 1009 83 10000 6.2 70 23:43 05.01.2020
1070 Clouds 28 1009 83 10000 5.1 80 23:23 05.01.2020
1071 Clouds 28 1009 83 10000 5.1 80 22:57 05.01.2020
1072 Rain 28 1009 79 0 5.29 39 22:38 05.01.2020
1073 Clouds 28 1010 83 10000 4.6 70 22:20 05.01.2020
1074 Clouds 28 1010 83 10000 4.6 70 21:55 05.01.2020
1075 Rain 28 1009 79 0 5.29 39 21:37 05.01.2020
1076 Clouds 29 1011 79 10000 5.1 70 21:19 05.01.2020
1077 Clouds 29 1011 79 10000 5.1 70 21:19 05.01.2020
1078 Clouds 29 1011 79 10000 5.1 70 20:55 05.01.2020
1079 Rain 28 1009 79 0 5.29 39 20:37 05.01.2020
1080 Clouds 29 1011 74 10000 5.7 80 20:19 05.01.2020
1081 Clouds 29 1011 74 10000 5.7 80 19:56 05.01.2020
1082 Clouds 28 1010 79 0 5.28 51 19:37 05.01.2020
1083 Clouds 28 1010 79 0 5.28 51 19:18 05.01.2020
1084 Clouds 28 1010 79 0 5.28 51 18:54 05.01.2020
1085 Clouds 28 1010 79 0 5.28 51 18:36 05.01.2020
1086 Thunderstorm 29 1011 79 10000 6.2 80 18:18 05.01.2020
1087 Thunderstorm 29 1011 79 10000 6.2 80 17:55 05.01.2020
1088 Thunderstorm 29 1011 79 10000 6.2 80 17:55 05.01.2020
1089 Clouds 28 1010 79 0 5.28 51 17:37 05.01.2020
1090 Clouds 29 1010 83 10000 4.6 80 17:18 05.01.2020
1091 Clouds 29 1010 83 10000 4.6 80 16:54 05.01.2020
1092 Clouds 28 1011 77 0 5.03 47 16:36 05.01.2020
1093 Clouds 29 1010 79 10000 4.1 70 16:18 05.01.2020
1094 Clouds 28 1011 77 0 5.03 47 15:36 05.01.2020
1095 Clouds 29 1009 79 10000 4.1 70 15:18 05.01.2020
1096 Clouds 29 1009 79 10000 4.1 70 14:54 05.01.2020
1097 Clouds 28 1011 77 0 5.03 47 14:36 05.01.2020
1098 Clouds 30 1008 74 10000 4.6 70 14:18 05.01.2020
1099 Clouds 30 1008 74 10000 4.6 70 13:39 05.01.2020
1100 Clouds 31 1008 70 10000 5.1 70 13:21 05.01.2020
1101 Clouds 31 1008 70 10000 5.1 70 12:57 05.01.2020
1102 Clear 28 1008 76 0 4.74 51 12:39 05.01.2020
1103 Clear 28 1008 76 0 4.74 51 12:39 05.01.2020
1104 Clear 28 1008 76 0 4.74 51 12:39 05.01.2020
1105 Clouds 31 1008 70 10000 4.6 70 12:21 05.01.2020
1106 Clouds 31 1008 70 10000 4.6 70 12:21 05.01.2020
1107 Clouds 31 1008 70 10000 4.6 70 11:55 05.01.2020
1108 Clear 28 1008 76 0 4.74 51 11:37 05.01.2020
1109 Clouds 31 1008 70 10000 5.1 70 11:19 05.01.2020
1110 Clouds 31 1008 70 10000 5.1 70 10:55 05.01.2020
1111 Clear 28 1009 78 0 5.79 39 10:36 05.01.2020
1112 Clear 28 1009 78 0 5.79 39 10:36 05.01.2020
1113 Clouds 31 1009 70 10000 4.6 60 10:18 05.01.2020
1114 Clouds 31 1009 70 10000 4.6 60 09:41 05.01.2020
1115 Clouds 31 1010 70 10000 5.1 50 09:21 05.01.2020
1116 Clouds 31 1010 70 10000 5.1 50 08:45 05.01.2020
1117 Clouds 31 1011 70 10000 5.1 40 08:26 05.01.2020
1118 Clouds 31 1011 70 10000 5.1 40 07:55 05.01.2020
1119 Clouds 30 1012 74 10000 5.7 70 07:35 05.01.2020
1120 Clouds 30 1012 74 10000 5.7 70 06:58 05.01.2020
1121 Clouds 30 1012 79 10000 4.1 70 05:55 05.01.2020
1122 Clouds 29 1012 83 10000 3.6 70 05:30 05.01.2020
1123 Rain 28 1011 78 0 6.03 37 04:34 05.01.2020
1124 Rain 27 1011 88 9000 2.1 90 03:47 05.01.2020
1125 Clouds 27 1010 88 10000 2.1 80 02:45 05.01.2020
1126 Clouds 27 1009 88 10000 2.1 90 02:20 05.01.2020
1127 Clouds 27 1009 88 10000 2.1 90 01:40 05.01.2020
1128 Clouds 28 1009 78 10000 3.1 360 01:18 05.01.2020
1129 Rain 28 1009 79 0 5.28 60 00:41 05.01.2020
1130 Clouds 26 1008 94 10000 1 0 00:22 05.01.2020
1131 Clouds 26 1008 94 10000 1 0 23:59 04.01.2020
1132 Rain 28 1009 79 0 5.28 60 23:39 04.01.2020
1133 Clouds 26 1009 94 10000 1.5 20 23:19 04.01.2020
1134 Rain 28 1009 78 0 4.9 66 22:39 04.01.2020
1135 Clouds 27 1010 88 10000 4.9 66 22:21 04.01.2020
1136 Clouds 27 1010 88 10000 4.9 66 21:57 04.01.2020
1137 Rain 28 1009 78 0 4.9 66 21:38 04.01.2020
1138 Clouds 27 1011 88 10000 0.5 0 21:19 04.01.2020
1139 Clouds 27 1011 88 10000 0.5 0 20:57 04.01.2020
1140 Rain 28 1009 78 0 4.9 66 20:38 04.01.2020
1141 Clouds 27 1011 88 10000 1 0 20:19 04.01.2020
1142 Clouds 27 1011 88 10000 1 0 19:42 04.01.2020
1143 Clouds 27 1012 83 10000 1.5 90 19:24 04.01.2020
1144 Clouds 27 1012 83 10000 1.5 90 18:58 04.01.2020
1145 Rain 28 1011 78 0 4.3 56 18:39 04.01.2020
1146 Clouds 28 1012 78 10000 1.5 120 18:21 04.01.2020
1147 Clouds 28 1012 78 10000 1.5 120 17:58 04.01.2020
1148 Rain 28 1011 78 0 4.3 56 17:40 04.01.2020
1149 Clouds 28 1011 78 10000 2.1 140 17:22 04.01.2020
1150 Clouds 28 1011 78 10000 2.1 140 16:42 04.01.2020
1151 Clouds 28 1011 78 10000 1.5 130 16:24 04.01.2020
1152 Clouds 28 1011 78 10000 1.5 130 15:59 04.01.2020
1153 Clouds 28 1011 78 10000 1.5 130 15:59 04.01.2020
1154 Clouds 28 1011 78 10000 1.5 130 15:41 04.01.2020
1155 Clouds 28 1010 78 10000 2.1 200 15:19 04.01.2020
1156 Clouds 28 1010 78 10000 2.1 200 14:58 04.01.2020
1157 Clouds 28 1010 78 10000 2.1 200 14:58 04.01.2020
1158 Clouds 28 1010 78 10000 2.1 200 14:40 04.01.2020
1159 Clouds 28 1009 78 10000 3.1 200 14:19 04.01.2020
1160 Clouds 28 1009 78 10000 3.1 200 13:56 04.01.2020
1161 Clouds 29 1009 75 0 5.23 73 13:37 04.01.2020
1162 Clouds 28 1008 83 10000 2.6 140 13:18 04.01.2020
1163 Clouds 28 1008 83 10000 2.6 140 12:42 04.01.2020
1164 Clouds 28 1009 83 10000 4.6 130 12:20 04.01.2020
1165 Clouds 28 1009 83 10000 4.6 130 11:59 04.01.2020
1166 Clouds 28 1009 83 10000 4.6 130 11:40 04.01.2020
1167 Clouds 27 1010 94 10000 5.7 150 11:20 04.01.2020
1168 Clouds 28 1009 75 0 5.08 65 10:58 04.01.2020
1169 Clouds 28 1009 75 0 5.08 65 10:38 04.01.2020
1170 Clouds 28 1010 83 10000 3.6 160 10:19 04.01.2020
1171 Clouds 28 1010 83 10000 3.6 160 09:42 04.01.2020
1172 Clouds 28 1009 75 0 5.08 65 09:24 04.01.2020
1173 Clouds 28 1009 75 0 5.08 65 08:44 04.01.2020
1174 Clouds 30 1012 74 10000 3.6 80 08:25 04.01.2020
1175 Clouds 30 1012 74 10000 3.6 80 07:51 04.01.2020
1176 Rain 28 1012 74 0 4.8 62 07:32 04.01.2020
1177 Rain 28 1012 74 0 4.8 62 06:39 04.01.2020
1178 Clouds 29 1013 79 10000 2.6 70 05:46 04.01.2020
1179 Clouds 28 1012 83 10000 3.6 50 04:47 04.01.2020
1180 Clouds 27 1011 88 10000 3.1 60 04:27 04.01.2020
1181 Clouds 27 1010 94 10000 2.1 20 03:19 04.01.2020
1182 Rain 28 1012 76 0 3.79 67 02:36 04.01.2020
1183 Clouds 28 1010 83 10000 2.6 60 01:58 04.01.2020
1184 Clouds 28 1010 78 10000 2.6 110 01:32 04.01.2020
1185 Clouds 28 1010 78 10000 2.6 110 00:56 04.01.2020
1186 Clouds 28 1010 83 10000 4.1 110 00:28 04.01.2020
1187 Clouds 28 1010 83 10000 4.1 110 23:52 03.01.2020
1188 Clouds 28 1011 83 10000 3.1 120 23:27 03.01.2020
1189 Clouds 28 1011 83 10000 3.1 120 22:55 03.01.2020
1190 Rain 28 1010 79 0 3.77 81 22:37 03.01.2020
1191 Clouds 28 1011 83 10000 3.1 120 22:18 03.01.2020
1192 Clouds 28 1011 83 10000 3.1 120 21:56 03.01.2020
1193 Rain 28 1010 79 0 3.77 81 21:37 03.01.2020
1194 Clouds 28 1012 83 10000 4.6 100 21:18 03.01.2020
1195 Clouds 28 1012 83 10000 4.6 100 20:43 03.01.2020
1196 Clouds 28 1012 88 10000 4.1 90 20:19 03.01.2020
1197 Clouds 28 1012 88 10000 4.1 90 19:59 03.01.2020
1198 Rain 28 1012 77 0 4.61 87 19:41 03.01.2020
1199 Clouds 28 1013 88 10000 4.1 90 19:22 03.01.2020
1200 Clouds 28 1013 88 10000 4.1 90 18:46 03.01.2020
1201 Clouds 28 1013 83 10000 4.1 90 18:26 03.01.2020
1202 Clouds 28 1013 83 10000 4.1 90 17:58 03.01.2020
1203 Clouds 28 1013 83 10000 4.1 90 17:58 03.01.2020
1204 Rain 28 1012 77 0 4.61 87 17:39 03.01.2020
1205 Clouds 28 1012 83 10000 3.6 90 17:21 03.01.2020
1206 Clouds 28 1012 83 10000 3.6 90 16:43 03.01.2020
1207 Clouds 28 1012 83 10000 4.1 100 16:24 03.01.2020
1208 Clouds 28 1012 83 10000 4.1 100 15:59 03.01.2020
1209 Clouds 28 1012 83 10000 4.1 100 15:41 03.01.2020
1210 Clouds 28 1011 78 10000 5.1 90 15:19 03.01.2020
1211 Clouds 28 1011 78 10000 5.1 90 14:39 03.01.2020
1212 Clouds 29 1010 79 10000 4.1 100 14:20 03.01.2020
1213 Clouds 29 1010 79 10000 4.1 100 13:57 03.01.2020
1214 Rain 28 1010 78 0 6.05 62 13:38 03.01.2020
1215 Clouds 28 1010 83 10000 4.1 80 13:20 03.01.2020
1216 Clouds 28 1010 83 10000 4.1 80 12:41 03.01.2020
1217 Clouds 28 1010 83 10000 4.6 80 12:22 03.01.2020
1218 Clouds 28 1010 83 10000 4.6 80 11:49 03.01.2020
1219 Rain 28 1011 88 10000 8.7 100 11:31 03.01.2020
1220 Rain 28 1011 88 10000 8.7 100 10:57 03.01.2020
1221 Rain 28 1010 76 0 6.82 70 10:38 03.01.2020
1222 Clouds 30 1011 74 10000 6.2 100 10:20 03.01.2020
1223 Clouds 30 1011 74 10000 6.2 100 09:54 03.01.2020
1224 Rain 28 1010 76 0 6.82 70 09:36 03.01.2020
1225 Rain 27 1013 94 10000 7.2 100 09:18 03.01.2020
1226 Rain 27 1013 94 10000 7.2 100 08:44 03.01.2020
1227 Rain 30 1013 79 10000 7.2 100 08:21 03.01.2020
1228 Rain 30 1013 79 10000 7.2 100 07:43 03.01.2020
1229 Clouds 30 1014 79 10000 8.2 100 07:19 03.01.2020
1230 Clouds 30 1014 79 10000 8.2 100 07:19 03.01.2020
1231 Clouds 30 1014 79 10000 8.2 100 06:59 03.01.2020
1232 Clouds 30 1014 79 10000 8.2 100 06:40 03.01.2020
1233 Rain 27 1014 88 9000 8.7 70 06:22 03.01.2020
1234 Clouds 29 1013 83 10000 5.1 60 04:45 03.01.2020
1235 Rain 28 1013 77 0 6.97 66 03:38 03.01.2020
1236 Clouds 28 1011 83 10000 5.7 90 02:53 03.01.2020
1237 Rain 27 1011 88 10000 5.7 90 01:51 03.01.2020
1238 Clouds 28 1010 83 10000 4.1 60 01:31 03.01.2020
1239 Clouds 28 1010 83 10000 4.1 60 00:40 03.01.2020
1240 Clouds 27 1011 88 10000 5.1 60 00:20 03.01.2020
1241 Rain 28 1011 80 0 6.19 56 23:39 02.01.2020
1242 Clouds 28 1011 83 10000 5.7 70 23:20 02.01.2020
1243 Clouds 28 1011 83 10000 5.7 70 22:58 02.01.2020
1244 Rain 28 1011 80 0 6.6 54 22:40 02.01.2020
1245 Clouds 28 1012 83 10000 6.2 70 22:19 02.01.2020
1246 Clouds 28 1012 83 10000 6.2 70 21:55 02.01.2020
1247 Rain 28 1011 80 0 6.6 54 21:37 02.01.2020
1248 Clouds 29 1013 79 10000 6.2 70 21:18 02.01.2020
1249 Clouds 29 1013 79 10000 6.2 70 20:56 02.01.2020
1250 Rain 28 1011 80 0 6.6 54 20:37 02.01.2020
1251 Clouds 29 1013 79 10000 6.2 60 20:18 02.01.2020
1252 Clouds 29 1013 79 10000 6.2 60 19:54 02.01.2020
1253 Rain 28 1013 79 0 6.36 58 19:36 02.01.2020
1254 Clouds 29 1014 79 10000 5.1 60 19:18 02.01.2020
1255 Rain 28 1013 79 0 6.36 58 18:42 02.01.2020
1256 Clouds 29 1014 79 10000 5.7 70 18:23 02.01.2020
1257 Clouds 29 1014 79 10000 5.7 70 17:58 02.01.2020
1258 Rain 28 1013 79 0 6.36 58 17:38 02.01.2020
1259 Clouds 29 1013 79 10000 5.1 70 17:20 02.01.2020
1260 Clouds 29 1013 79 10000 5.1 70 16:58 02.01.2020
1261 Clouds 29 1013 79 10000 5.1 70 16:40 02.01.2020
1262 Clouds 29 1012 79 10000 4.6 80 16:20 02.01.2020
1263 Clouds 29 1012 79 10000 4.6 80 16:20 02.01.2020
1264 Clouds 29 1012 79 10000 4.6 80 15:57 02.01.2020
1265 Clouds 29 1012 79 10000 4.6 80 15:39 02.01.2020
1266 Clouds 29 1010 74 10000 5.1 80 15:20 02.01.2020
1267 Clouds 29 1010 74 10000 5.1 80 14:56 02.01.2020
1268 Clouds 29 1010 74 10000 5.1 80 14:36 02.01.2020
1269 Clouds 30 1011 70 10000 5.1 90 14:18 02.01.2020
1270 Clouds 30 1011 70 10000 5.1 90 13:48 02.01.2020
1271 Clouds 30 1011 70 10000 5.1 90 13:30 02.01.2020
1272 Clouds 30 1010 74 10000 4.6 80 12:46 02.01.2020
1273 Clouds 31 1010 70 10000 4.6 80 12:26 02.01.2020
1274 Clouds 31 1010 70 10000 4.6 80 11:58 02.01.2020
1275 Clouds 28 1011 77 0 4.93 66 11:40 02.01.2020
1276 Clouds 31 1011 70 10000 4.6 90 11:19 02.01.2020
1277 Clouds 31 1011 70 10000 4.6 90 10:44 02.01.2020
1278 Clouds 31 1012 70 10000 5.7 90 10:25 02.01.2020
1279 Clouds 31 1012 70 10000 5.7 90 09:48 02.01.2020
1280 Clouds 31 1013 70 10000 5.7 90 09:29 02.01.2020
1281 Clouds 31 1013 70 10000 5.7 90 08:47 02.01.2020
1282 Clouds 31 1014 70 10000 5.7 90 08:27 02.01.2020
1283 Clouds 31 1014 70 10000 5.7 90 07:53 02.01.2020
1284 Clouds 30 1014 74 10000 5.1 90 07:30 02.01.2020
1285 Clouds 30 1014 74 10000 5.1 90 06:45 02.01.2020
1286 Clouds 30 1014 70 10000 4.6 90 06:27 02.01.2020
1287 Clear 29 1014 74 10000 4.6 90 05:29 02.01.2020
1288 Clouds 28 1013 78 10000 4.6 90 04:32 02.01.2020
1289 Clouds 28 1012 78 10000 5.1 80 02:48 02.01.2020
1290 Clouds 27 1012 83 10000 4.6 80 01:59 02.01.2020
1291 Rain 28 1012 76 0 5.07 72 01:37 02.01.2020
1292 Clouds 27 1011 83 10000 4.1 80 00:58 02.01.2020
1293 Rain 28 1012 77 0 5.19 68 00:33 02.01.2020
1294 Clouds 28 1011 78 10000 4.6 90 23:52 01.01.2020
1295 Clouds 28 1012 78 10000 5.1 80 23:28 01.01.2020
1296 Clouds 28 1012 78 10000 5.1 80 22:59 01.01.2020
1297 Clouds 27 1011 79 0 5.77 74 22:38 01.01.2020
1298 Clouds 28 1012 78 10000 5.1 90 22:19 01.01.2020
1299 Clouds 28 1012 78 10000 5.1 90 21:56 01.01.2020
1300 Clouds 27 1011 79 0 5.77 74 21:37 01.01.2020
1301 Clouds 28 1013 78 10000 4.6 90 21:19 01.01.2020
1302 Clouds 28 1013 78 10000 4.6 90 20:55 01.01.2020
1303 Clouds 27 1011 79 0 5.77 74 20:37 01.01.2020
1304 Clouds 28 1013 78 10000 5.7 100 20:18 01.01.2020
1305 Clouds 28 1013 78 10000 5.7 100 19:54 01.01.2020
1306 Clouds 28 1013 78 0 5.87 81 19:36 01.01.2020
1307 Clouds 28 1014 78 10000 5.1 100 19:18 01.01.2020
1308 Clouds 28 1014 78 10000 5.1 100 18:55 01.01.2020
1309 Clouds 28 1013 78 0 5.87 81 18:36 01.01.2020
1310 Clouds 28 1013 78 10000 4.6 100 18:18 01.01.2020
1311 Clouds 28 1013 78 10000 4.6 100 17:55 01.01.2020
1312 Clouds 28 1013 78 0 5.87 81 17:37 01.01.2020
1313 Clouds 28 1013 78 10000 5.1 90 17:18 01.01.2020
1314 Clouds 28 1013 78 10000 5.1 90 16:40 01.01.2020
1315 Clouds 28 1012 78 10000 6.2 100 16:21 01.01.2020
1316 Clouds 28 1012 78 10000 6.2 100 15:57 01.01.2020
1317 Clouds 28 1012 78 10000 6.2 100 15:39 01.01.2020
1318 Clouds 29 1011 74 10000 5.1 90 15:20 01.01.2020
1319 Clouds 29 1011 74 10000 5.1 90 14:58 01.01.2020
1320 Clouds 29 1011 74 10000 5.1 90 14:58 01.01.2020
1321 Clouds 28 1012 76 0 6.15 76 14:39 01.01.2020
1322 Clouds 29 1010 74 10000 4.6 90 14:21 01.01.2020
1323 Clouds 29 1010 74 10000 4.6 90 13:56 01.01.2020
1324 Clouds 28 1010 78 0 5.91 76 13:37 01.01.2020
1325 Clouds 30 1010 70 10000 5.1 90 13:18 01.01.2020
1326 Clouds 30 1010 70 10000 5.1 90 12:55 01.01.2020
1327 Clouds 28 1010 78 0 5.91 76 12:37 01.01.2020
1328 Clouds 30 1010 74 10000 5.1 90 12:18 01.01.2020
1329 Clouds 30 1010 74 10000 5.1 90 11:43 01.01.2020
1330 Clouds 31 1010 66 10000 5.1 110 11:22 01.01.2020
1331 Clouds 31 1010 66 10000 5.1 110 10:58 01.01.2020
1332 Clouds 31 1010 66 10000 5.1 110 10:40 01.01.2020
1333 Clouds 31 1011 70 10000 5.1 110 10:20 01.01.2020
1334 Clouds 31 1011 70 10000 5.1 110 09:56 01.01.2020
1335 Rain 28 1010 79 0 5.73 71 09:37 01.01.2020
1336 Clouds 31 1012 66 10000 5.7 110 09:18 01.01.2020
1337 Clouds 31 1012 66 10000 5.7 110 08:55 01.01.2020
1338 Rain 28 1010 79 0 5.73 71 08:36 01.01.2020
1339 Clouds 30 1013 70 10000 5.1 100 08:36 01.01.2020
1340 Clouds 30 1013 70 10000 5.1 100 08:18 01.01.2020
1341 Clouds 30 1013 70 10000 5.1 100 07:48 01.01.2020
1342 Clouds 30 1013 70 10000 5.7 90 07:30 01.01.2020
1343 Clouds 30 1013 70 10000 5.7 90 06:44 01.01.2020
1344 Clouds 29 1013 74 10000 5.1 100 06:20 01.01.2020
1345 Clouds 29 1013 74 10000 4.6 90 04:44 01.01.2020
1346 Clouds 28 1012 78 10000 5.7 90 03:43 01.01.2020
1347 Clouds 28 1011 78 9000 6.2 90 03:22 01.01.2020
1348 Clouds 28 1011 78 9000 6.2 90 02:55 01.01.2020
1349 Rain 27 1012 81 0 6.29 83 02:32 01.01.2020
1350 Clouds 28 1010 78 9000 6.2 90 01:45 01.01.2020
1351 Clouds 28 1010 78 9000 5.7 90 01:24 01.01.2020
1352 Clouds 28 1010 78 9000 5.7 90 00:57 01.01.2020
1353 Rain 28 1011 81 0 5.46 81 00:37 01.01.2020
1354 Clouds 28 1010 78 9000 5.7 90 00:19 01.01.2020
1355 Rain 28 1011 81 0 5.46 81 23:40 31.12.2019
1356 Clouds 28 1010 78 9000 6.2 80 23:21 31.12.2019
1357 Clouds 28 1010 78 9000 6.2 80 22:57 31.12.2019
1358 Clear 28 1010 78 0 5.64 66 22:38 31.12.2019
1359 Clouds 28 1011 78 9000 5.7 80 22:18 31.12.2019
1360 Clouds 28 1011 78 9000 5.7 80 21:54 31.12.2019
1361 Clear 28 1010 78 0 5.64 66 21:36 31.12.2019
1362 Clouds 28 1012 78 9000 5.1 70 21:18 31.12.2019
1363 Clouds 28 1012 78 9000 5.1 70 20:40 31.12.2019
1364 Clouds 28 1012 78 9000 5.1 70 20:40 31.12.2019
1365 Clouds 28 1012 78 9000 5.7 70 20:21 31.12.2019
1366 Clouds 28 1012 78 9000 5.7 70 19:59 31.12.2019
1367 Clouds 28 1012 78 9000 5.7 70 19:40 31.12.2019
1368 Clouds 28 1013 78 9000 5.1 70 19:22 31.12.2019
1369 Clouds 28 1013 78 9000 5.1 70 19:22 31.12.2019
1370 Clouds 28 1013 78 9000 5.1 70 18:58 31.12.2019
1371 Clouds 28 1012 76 0 5.12 68 18:40 31.12.2019
1372 Clouds 28 1012 78 9000 5.7 70 18:20 31.12.2019
1373 Clouds 28 1012 78 9000 5.7 70 17:56 31.12.2019
1374 Clouds 28 1012 76 0 5.12 68 17:38 31.12.2019
1375 Clouds 29 1011 74 9000 6.2 70 17:19 31.12.2019
1376 Clouds 29 1011 74 9000 6.2 70 16:57 31.12.2019
1377 Clouds 28 1012 75 0 5.56 63 16:38 31.12.2019
1378 Clouds 29 1011 74 9000 5.7 90 16:19 31.12.2019
1379 Clouds 29 1011 74 9000 5.7 90 15:56 31.12.2019
1380 Clouds 28 1012 75 0 5.56 63 15:38 31.12.2019
1381 Clouds 29 1010 74 9000 5.7 90 15:20 31.12.2019
1382 Clouds 29 1010 74 9000 5.7 90 14:57 31.12.2019
1383 Clouds 28 1012 75 0 5.56 63 14:38 31.12.2019
1384 Clouds 30 1010 70 9000 5.7 70 14:19 31.12.2019
1385 Clouds 30 1010 70 9000 5.7 70 14:19 31.12.2019
1386 Clouds 30 1010 70 9000 5.7 70 13:57 31.12.2019
1387 Clouds 28 1010 75 0 5.52 73 13:39 31.12.2019
1388 Clouds 30 1010 70 9000 5.1 80 13:20 31.12.2019
1389 Clouds 30 1010 70 9000 5.1 80 12:56 31.12.2019
1390 Clouds 28 1010 76 0 5.38 72 12:38 31.12.2019
1391 Clouds 31 1010 66 9000 6.2 90 12:19 31.12.2019
1392 Clouds 31 1010 66 9000 6.2 90 12:19 31.12.2019
1393 Clouds 31 1010 66 9000 6.2 90 11:56 31.12.2019
1394 Clouds 31 1010 66 9000 6.2 90 11:56 31.12.2019
1395 Clouds 31 1010 66 9000 6.2 90 11:56 31.12.2019
1396 Clouds 31 1010 66 9000 6.2 90 11:56 31.12.2019
1397 Clouds 28 1010 76 0 5.38 72 11:38 31.12.2019
1398 Clouds 31 1011 66 9000 6.7 80 11:19 31.12.2019
1399 Clouds 31 1011 66 9000 6.7 80 10:57 31.12.2019
1400 Clouds 31 1011 66 9000 6.7 80 10:57 31.12.2019
1401 Clouds 28 1011 76 0 5.7 70 10:38 31.12.2019
1402 Clouds 28 1011 76 0 5.7 70 10:38 31.12.2019
1403 Clouds 31 1012 66 9000 6.7 80 10:20 31.12.2019
1404 Clouds 31 1012 66 9000 6.7 80 09:58 31.12.2019
1405 Clouds 28 1011 76 0 5.7 70 09:39 31.12.2019
1406 Clouds 31 1012 66 9000 7.2 70 09:20 31.12.2019
1407 Clouds 31 1012 66 9000 7.2 70 08:57 31.12.2019
1408 Clouds 28 1011 76 0 5.7 70 08:37 31.12.2019
1409 Clouds 31 1013 66 9000 6.7 70 08:18 31.12.2019
1410 Clouds 31 1013 66 9000 6.7 70 07:41 31.12.2019
1411 Clouds 31 1013 70 9000 7.2 80 07:19 31.12.2019
1412 Clouds 31 1013 70 9000 7.2 80 06:49 31.12.2019
1413 Clouds 30 1013 70 9000 6.7 80 05:57 31.12.2019
1414 Clouds 28 1012 78 9000 6.7 90 04:28 31.12.2019
1415 Clouds 28 1011 78 9000 6.7 90 03:27 31.12.2019
1416 Clouds 28 1011 78 9000 6.7 90 02:49 31.12.2019
1417 Clouds 28 1011 78 9000 7.2 80 01:55 31.12.2019
1418 Clouds 28 1010 77 0 7.53 58 01:34 31.12.2019
1419 Clouds 28 1010 78 9000 7.2 70 00:59 31.12.2019
1420 Clouds 28 1010 78 9000 7.2 70 00:41 31.12.2019
1421 Clouds 28 1010 78 9000 6.7 70 00:21 31.12.2019
1422 Clouds 28 1010 78 9000 6.7 70 23:56 30.12.2019
1423 Clouds 28 1010 77 0 7.53 58 23:37 30.12.2019
1424 Clouds 28 1010 78 9000 7.7 70 23:19 30.12.2019
1425 Clouds 28 1010 78 9000 7.7 70 22:56 30.12.2019
1426 Clouds 28 1009 77 0 7.75 56 22:37 30.12.2019
1427 Clouds 28 1009 77 0 7.75 56 22:37 30.12.2019
1428 Clouds 28 1010 78 10000 7.7 70 22:18 30.12.2019
1429 Clouds 28 1010 78 10000 7.7 70 21:56 30.12.2019
1430 Clouds 28 1009 77 0 7.75 56 21:38 30.12.2019
1431 Clouds 28 1011 78 10000 8.2 70 21:18 30.12.2019
1432 Clouds 28 1011 78 10000 8.2 70 20:56 30.12.2019
1433 Clouds 28 1011 78 10000 8.2 70 20:56 30.12.2019
1434 Clouds 28 1009 77 0 7.75 56 20:38 30.12.2019
1435 Clouds 28 1011 78 10000 6.7 70 20:19 30.12.2019
1436 Clouds 28 1011 78 10000 6.7 70 19:56 30.12.2019
1437 Clouds 28 1012 77 0 7.32 75 19:37 30.12.2019
1438 Clouds 28 1012 83 10000 5.7 70 19:18 30.12.2019
1439 Clouds 28 1012 83 10000 5.7 70 18:56 30.12.2019
1440 Clouds 28 1012 77 0 7.32 75 18:37 30.12.2019
1441 Clouds 29 1012 79 10000 5.7 90 18:19 30.12.2019
1442 Clouds 29 1012 79 10000 5.7 90 17:54 30.12.2019
1443 Clouds 28 1012 77 0 7.32 75 17:36 30.12.2019
1444 Clouds 29 1012 74 10000 5.1 90 17:18 30.12.2019
1445 Clouds 29 1012 74 10000 5.1 90 16:54 30.12.2019
1446 Rain 28 1012 75 0 6.22 80 16:36 30.12.2019
1447 Clouds 29 1010 74 10000 5.1 90 16:18 30.12.2019
1448 Clouds 29 1010 74 10000 5.1 90 15:54 30.12.2019
1449 Rain 28 1012 75 0 6.22 80 15:36 30.12.2019
1450 Clouds 29 1010 74 10000 6.2 90 15:18 30.12.2019
1451 Clouds 29 1010 74 10000 6.2 90 14:42 30.12.2019
1452 Clouds 30 1010 70 10000 5.7 90 14:19 30.12.2019
1453 Clouds 30 1010 70 10000 5.7 90 13:54 30.12.2019
1454 Clouds 31 1009 70 9000 5.7 90 13:36 30.12.2019
1455 Clouds 31 1009 70 9000 5.7 90 13:18 30.12.2019
1456 Clouds 31 1009 70 9000 5.7 90 12:42 30.12.2019
1457 Clouds 31 1010 70 9000 5.7 90 12:20 30.12.2019
1458 Clouds 31 1010 70 9000 5.7 90 11:58 30.12.2019
1459 Rain 28 1010 77 0 7.13 81 11:39 30.12.2019
1460 Clouds 31 1010 70 9000 5.1 70 11:19 30.12.2019
1461 Clouds 31 1010 70 9000 5.1 70 10:44 30.12.2019
1462 Clouds 31 1010 70 9000 6.2 70 10:21 30.12.2019
1463 Clouds 31 1010 70 9000 6.2 70 09:57 30.12.2019
1464 Clouds 31 1010 70 9000 6.2 70 09:39 30.12.2019
1465 Clouds 31 1011 70 9000 6.7 80 09:19 30.12.2019
1466 Clouds 31 1011 70 9000 6.7 80 08:50 30.12.2019
1467 Clouds 30 1012 70 9000 8.2 70 08:23 30.12.2019
1468 Clouds 30 1012 70 9000 8.2 70 07:55 30.12.2019
1469 Clouds 31 1012 66 9000 8.2 70 07:34 30.12.2019
1470 Clouds 31 1012 66 9000 8.2 70 06:52 30.12.2019
1471 Clouds 29 1011 74 9000 8.2 80 04:57 30.12.2019
1472 Clouds 28 1011 78 10000 8.7 80 03:55 30.12.2019
1473 Clouds 28 1010 78 10000 7.7 70 02:56 30.12.2019
1474 Clouds 28 1010 78 10000 7.7 70 02:56 30.12.2019
1475 Clouds 28 1011 78 0 8.94 57 02:37 30.12.2019
1476 Clouds 28 1009 78 10000 8.2 80 01:50 30.12.2019
1477 Clouds 28 1009 78 10000 7.7 80 01:21 30.12.2019
1478 Clouds 28 1009 78 10000 7.7 80 00:44 30.12.2019
1479 Clouds 28 1009 83 10000 7.7 80 00:19 30.12.2019
1480 Clouds 28 1009 83 10000 7.7 80 23:39 29.12.2019
1481 Clouds 28 1009 83 10000 7.7 80 23:21 29.12.2019
1482 Clouds 28 1010 83 10000 7.7 80 22:54 29.12.2019
1483 Clouds 28 1009 76 0 7.97 66 22:36 29.12.2019
1484 Clouds 28 1009 76 0 7.97 66 22:36 29.12.2019
1485 Clouds 28 1010 83 10000 8.2 80 22:18 29.12.2019
1486 Clouds 28 1010 83 10000 8.2 80 21:42 29.12.2019
1487 Clouds 28 1011 78 10000 8.7 80 21:21 29.12.2019
1488 Clouds 28 1011 78 10000 8.7 80 20:57 29.12.2019
1489 Clouds 28 1009 76 0 7.97 66 20:39 29.12.2019
1490 Clouds 28 1011 83 10000 8.2 80 20:21 29.12.2019
1491 Clouds 28 1011 83 10000 8.2 80 19:59 29.12.2019
1492 Clouds 28 1011 83 10000 8.2 80 19:40 29.12.2019
1493 Clouds 28 1011 78 10000 7.7 80 19:21 29.12.2019
1494 Clouds 28 1011 78 10000 7.7 80 18:58 29.12.2019
1495 Clouds 28 1011 77 0 8.34 65 18:38 29.12.2019
1496 Clouds 28 1011 78 10000 7.7 70 18:20 29.12.2019
1497 Clouds 28 1011 78 10000 7.7 70 17:58 29.12.2019
1498 Clouds 28 1011 77 0 8.34 65 17:39 29.12.2019
1499 Clouds 29 1010 74 10000 7.7 70 17:20 29.12.2019
1500 Clouds 29 1010 74 10000 7.7 70 16:56 29.12.2019
1501 Clouds 28 1011 81 0 7.65 66 16:38 29.12.2019
1502 Clouds 28 1011 81 0 7.65 66 16:38 29.12.2019
1503 Clouds 28 1010 78 10000 7.2 70 16:20 29.12.2019
1504 Clouds 28 1010 78 10000 7.2 70 15:58 29.12.2019
1505 Clouds 28 1011 81 0 7.65 66 15:39 29.12.2019
1506 Clouds 28 1009 78 10000 7.7 70 15:20 29.12.2019
1507 Clouds 28 1009 78 10000 7.7 70 14:58 29.12.2019
1508 Clouds 28 1011 81 0 7.65 66 14:38 29.12.2019
1509 Clouds 29 1008 74 10000 7.7 70 14:18 29.12.2019
1510 Clouds 29 1008 74 10000 7.7 70 13:57 29.12.2019
1511 Clouds 28 1009 79 0 7.42 59 13:38 29.12.2019
1512 Clouds 29 1008 83 10000 7.2 70 13:20 29.12.2019
1513 Clouds 29 1008 83 10000 7.2 70 12:45 29.12.2019
1514 Clouds 28 1008 88 10000 5.7 100 12:27 29.12.2019
1515 Clouds 28 1008 88 10000 5.7 100 12:27 29.12.2019
1516 Clouds 28 1008 88 10000 5.7 100 11:58 29.12.2019
1517 Clouds 28 1009 78 0 7.14 64 11:40 29.12.2019
1518 Clouds 30 1009 74 10000 6.2 70 11:20 29.12.2019
1519 Clouds 30 1009 74 10000 6.2 70 11:20 29.12.2019
1520 Clouds 30 1009 74 10000 6.2 70 10:55 29.12.2019
1521 Clear 28 1009 79 0 7.79 66 10:37 29.12.2019
1522 Clouds 30 1009 79 10000 7.7 70 10:18 29.12.2019
1523 Clouds 30 1009 79 10000 7.7 70 09:43 29.12.2019
1524 Clouds 30 1010 74 10000 4.1 50 09:25 29.12.2019
1525 Clouds 30 1010 74 10000 4.1 50 08:50 29.12.2019
1526 Clouds 27 1011 88 10000 4.1 50 08:29 29.12.2019
1527 Clouds 27 1011 88 10000 4.1 50 07:58 29.12.2019
1528 Rain 28 1012 78 0 8.13 65 07:31 29.12.2019
1529 Rain 28 1012 78 0 8.13 65 07:31 29.12.2019
1530 Rain 28 1012 78 0 8.13 65 06:57 29.12.2019
1531 Clouds 30 1012 70 10000 5.1 90 06:27 29.12.2019
1532 Clouds 30 1012 70 10000 5.1 90 05:54 29.12.2019
1533 Clouds 29 1011 79 10000 4.1 70 04:42 29.12.2019
1534 Clouds 28 1010 83 10000 4.1 70 04:21 29.12.2019
1535 Clouds 27 1010 83 10000 5.7 90 03:28 29.12.2019
1536 Clouds 28 1009 78 10000 4.1 70 02:22 29.12.2019
1537 Clouds 28 1009 78 10000 4.1 70 02:22 29.12.2019
1538 Clouds 28 1009 78 10000 4.1 70 01:42 29.12.2019
1539 Clouds 28 1009 78 10000 4.6 70 01:23 29.12.2019
1540 Clouds 28 1009 78 10000 4.6 70 00:44 29.12.2019
1541 Clouds 28 1009 78 10000 5.7 80 00:24 29.12.2019
1542 Clouds 28 1009 78 10000 5.7 80 23:45 28.12.2019
1543 Clouds 28 1009 78 10000 5.1 80 23:19 28.12.2019
1544 Clouds 28 1009 78 10000 5.1 80 23:19 28.12.2019
1545 Clouds 28 1009 78 10000 5.1 80 22:54 28.12.2019
1546 Clouds 27 1009 82 0 5.7 75 22:36 28.12.2019
1547 Clouds 28 1010 78 10000 6.2 80 22:18 28.12.2019
1548 Clouds 28 1010 78 10000 6.2 80 21:55 28.12.2019
1549 Clouds 27 1009 82 0 5.7 75 21:36 28.12.2019
1550 Clouds 28 1010 78 10000 7.2 80 21:18 28.12.2019
1551 Clouds 27 1009 82 0 5.7 75 20:38 28.12.2019
1552 Clouds 28 1011 78 10000 6.7 80 20:20 28.12.2019
1553 Clouds 28 1011 78 10000 6.7 80 19:59 28.12.2019
1554 Clouds 28 1011 79 0 5.59 78 19:39 28.12.2019
1555 Clouds 28 1011 78 10000 6.2 80 19:21 28.12.2019
1556 Clouds 28 1011 78 10000 6.2 80 18:59 28.12.2019
1557 Clouds 28 1011 78 10000 6.2 80 18:40 28.12.2019
1558 Clouds 28 1011 78 10000 5.1 90 18:19 28.12.2019
1559 Clouds 28 1011 78 10000 5.1 90 17:56 28.12.2019
1560 Clouds 28 1011 79 0 5.59 78 17:38 28.12.2019
1561 Clouds 28 1010 78 10000 5.1 90 17:18 28.12.2019
1562 Clouds 28 1010 78 10000 5.1 90 16:46 28.12.2019
1563 Clouds 29 1010 74 10000 5.7 90 16:26 28.12.2019
1564 Clouds 29 1010 74 10000 5.7 90 16:26 28.12.2019
1565 Clouds 29 1010 74 10000 5.7 90 16:26 28.12.2019
1566 Clouds 29 1010 74 10000 5.7 90 15:49 28.12.2019
1567 Clouds 29 1009 70 10000 6.2 80 15:25 28.12.2019
1568 Clouds 29 1009 70 10000 6.2 80 14:59 28.12.2019
1569 Clouds 29 1009 70 10000 6.2 80 14:40 28.12.2019
1570 Clouds 29 1009 70 10000 6.7 80 14:21 28.12.2019
1571 Clouds 29 1009 70 10000 6.7 80 13:56 28.12.2019
1572 Clouds 28 1008 77 0 6.64 61 13:37 28.12.2019
1573 Clouds 30 1008 66 10000 6.7 80 13:18 28.12.2019
1574 Clouds 30 1008 66 10000 6.7 80 12:43 28.12.2019
1575 Clouds 30 1008 66 10000 6.7 80 12:43 28.12.2019
1576 Clouds 31 1008 62 10000 6.7 60 12:24 28.12.2019
1577 Clouds 31 1008 62 10000 6.7 60 11:56 28.12.2019
1578 Clear 28 1008 77 0 6.83 62 11:38 28.12.2019
1579 Clouds 31 1009 66 10000 6.7 70 11:19 28.12.2019
1580 Clouds 31 1009 66 10000 6.7 70 10:44 28.12.2019
1581 Clouds 31 1010 66 10000 6.7 70 10:22 28.12.2019
1582 Clouds 31 1010 66 10000 6.7 70 09:58 28.12.2019
1583 Clouds 31 1010 66 10000 6.7 70 09:40 28.12.2019
1584 Clouds 31 1011 66 10000 6.7 70 09:20 28.12.2019
1585 Clouds 31 1011 66 10000 6.7 70 08:44 28.12.2019
1586 Clouds 31 1011 66 10000 6.2 70 08:26 28.12.2019
1587 Clouds 31 1011 66 10000 6.2 70 07:53 28.12.2019
1588 Clouds 30 1012 70 10000 5.7 80 07:30 28.12.2019
1589 Clouds 30 1012 70 10000 5.7 80 06:41 28.12.2019
1590 Clouds 29 1011 74 10000 6.2 80 04:51 28.12.2019
1591 Clouds 28 1010 78 10000 5.7 90 03:47 28.12.2019
1592 Clouds 28 1009 78 10000 5.7 90 02:48 28.12.2019
1593 Clouds 28 1009 78 10000 5.1 70 01:59 28.12.2019
1594 Clouds 28 1009 78 10000 5.7 80 01:30 28.12.2019
1595 Clouds 28 1009 78 10000 5.7 80 00:58 28.12.2019
1596 Clouds 28 1009 78 0 8.13 68 00:38 28.12.2019
1597 Clouds 28 1009 78 10000 6.2 80 00:19 28.12.2019
1598 Clouds 28 1009 78 10000 6.2 80 23:43 27.12.2019
1599 Clouds 28 1009 83 10000 6.7 80 23:20 27.12.2019
1600 Clouds 28 1009 83 10000 6.7 80 22:58 27.12.2019
1601 Rain 28 1008 77 0 7.29 67 22:38 27.12.2019
1602 Clouds 28 1010 83 10000 5.7 80 22:20 27.12.2019
1603 Clouds 28 1010 83 10000 5.7 80 21:55 27.12.2019
1604 Rain 28 1008 77 0 7.29 67 21:37 27.12.2019
1605 Clouds 28 1010 83 10000 4.6 90 21:18 27.12.2019
1606 Clouds 28 1010 83 10000 4.6 90 20:41 27.12.2019
1607 Clouds 29 1010 79 10000 6.2 80 20:22 27.12.2019
1608 Clouds 29 1010 79 10000 6.2 80 19:43 27.12.2019
1609 Clouds 29 1010 79 10000 5.7 80 19:21 27.12.2019
1610 Clouds 29 1010 79 10000 5.7 80 19:21 27.12.2019
1611 Clouds 29 1010 79 10000 5.7 80 18:59 27.12.2019
1612 Rain 28 1010 79 0 5.78 83 18:39 27.12.2019
1613 Rain 28 1010 79 0 5.78 83 18:39 27.12.2019
1614 Rain 28 1010 79 0 5.78 83 18:39 27.12.2019
1615 Clouds 29 1010 74 10000 7.2 90 18:21 27.12.2019
1616 Clouds 29 1010 74 10000 7.2 90 17:58 27.12.2019
1617 Rain 28 1010 79 0 5.78 83 17:40 27.12.2019
1618 Clouds 29 1010 74 10000 7.2 90 17:19 27.12.2019
1619 Clouds 29 1010 74 10000 7.2 90 16:58 27.12.2019
1620 Clouds 28 1010 78 0 6.1 70 16:38 27.12.2019
1621 Clouds 29 1008 74 10000 6.7 80 16:19 27.12.2019
1622 Clouds 29 1008 74 10000 6.7 80 15:45 27.12.2019
1623 Clouds 29 1008 74 10000 7.2 90 15:23 27.12.2019
1624 Clouds 29 1008 74 10000 7.2 90 14:58 27.12.2019
1625 Clouds 28 1010 78 0 6.1 70 14:39 27.12.2019
1626 Clouds 30 1007 70 10000 7.2 80 14:21 27.12.2019
1627 Clouds 30 1007 70 10000 7.2 80 13:57 27.12.2019
1628 Clouds 28 1008 78 0 6.25 58 13:38 27.12.2019
1629 Clouds 28 1008 78 0 6.25 58 13:38 27.12.2019
1630 Clouds 30 1007 74 10000 7.2 80 13:20 27.12.2019
1631 Clouds 30 1007 74 10000 7.2 80 12:42 27.12.2019
1632 Clouds 31 1007 70 10000 7.2 80 12:23 27.12.2019
1633 Clouds 31 1007 70 10000 7.2 80 11:46 27.12.2019
1634 Clouds 31 1008 70 10000 7.7 80 11:27 27.12.2019
1635 Clouds 31 1008 70 10000 7.7 80 10:59 27.12.2019
1636 Rain 28 1008 82 0 6.96 65 10:41 27.12.2019
1637 Clouds 31 1009 70 10000 7.7 80 10:22 27.12.2019
1638 Clouds 31 1009 70 10000 7.7 80 09:46 27.12.2019
1639 Clouds 31 1010 70 10000 7.2 90 09:22 27.12.2019
1640 Clouds 31 1010 70 10000 7.2 90 08:59 27.12.2019
1641 Rain 28 1008 82 0 6.96 65 08:38 27.12.2019
1642 Clouds 31 1010 70 10000 7.2 90 07:57 27.12.2019
1643 Clouds 28 1011 78 0 6.22 73 07:38 27.12.2019
1644 Clouds 28 1011 78 0 6.22 73 06:39 27.12.2019
1645 Clouds 30 1011 74 10000 6.7 100 06:18 27.12.2019
1646 Clouds 28 1010 78 10000 6.7 90 04:20 27.12.2019
1647 Clouds 28 1009 78 10000 6.7 90 02:27 27.12.2019
1648 Clouds 28 1009 78 10000 6.7 90 01:42 27.12.2019
1649 Clouds 28 1009 83 10000 6.2 80 01:20 27.12.2019
1650 Clouds 28 1009 83 10000 6.2 80 00:46 27.12.2019
1651 Clouds 28 1009 83 10000 6.7 70 00:25 27.12.2019
1652 Clouds 28 1009 83 10000 6.7 70 00:25 27.12.2019
1653 Clouds 28 1009 79 0 5.78 68 23:44 26.12.2019
1654 Rain 28 1010 83 10000 5.7 90 23:24 26.12.2019
1655 Rain 28 1010 83 10000 5.7 90 22:58 26.12.2019
1656 Clouds 28 1009 81 0 5.85 68 22:38 26.12.2019
1657 Clouds 28 1010 83 10000 5.7 90 22:18 26.12.2019
1658 Clouds 28 1010 83 10000 5.7 90 21:39 26.12.2019
1659 Clouds 28 1011 83 10000 5.7 70 21:21 26.12.2019
1660 Clouds 28 1011 83 10000 5.7 70 20:54 26.12.2019
1661 Clouds 28 1009 81 0 5.85 68 20:36 26.12.2019
1662 Clouds 28 1011 83 10000 5.1 70 20:18 26.12.2019
1663 Clouds 28 1011 83 10000 5.1 70 20:18 26.12.2019
1664 Clouds 28 1011 83 10000 5.1 70 19:54 26.12.2019
1665 Clear 28 1011 81 0 6.25 73 19:36 26.12.2019
1666 Clouds 28 1011 83 10000 5.7 80 19:18 26.12.2019
1667 Clouds 28 1011 83 10000 5.7 80 19:18 26.12.2019
1668 Clouds 28 1011 83 10000 5.7 80 18:55 26.12.2019
1669 Clouds 28 1011 83 10000 5.7 80 18:55 26.12.2019
1670 Clear 28 1011 81 0 6.25 73 18:36 26.12.2019
1671 Clouds 28 1011 83 10000 4.6 90 18:18 26.12.2019
1672 Clouds 28 1011 83 10000 4.6 90 17:40 26.12.2019
1673 Clouds 28 1011 83 10000 4.6 100 17:20 26.12.2019
1674 Clouds 28 1011 83 10000 4.6 100 16:48 26.12.2019
1675 Clouds 28 1010 83 10000 4.6 100 16:26 26.12.2019
1676 Clouds 28 1010 83 10000 4.6 100 15:57 26.12.2019
1677 Clear 28 1010 81 0 6.51 67 15:38 26.12.2019
1678 Clouds 28 1009 78 10000 2.6 90 15:19 26.12.2019
1679 Clouds 28 1009 78 10000 2.6 90 14:41 26.12.2019
1680 Clouds 29 1009 79 10000 6.2 100 14:23 26.12.2019
1681 Clouds 29 1009 79 10000 6.2 100 14:23 26.12.2019
1682 Clouds 29 1009 79 10000 6.2 100 14:23 26.12.2019
1683 Clouds 29 1009 79 10000 6.2 100 13:55 26.12.2019
1684 Clouds 28 1009 79 0 6.31 75 13:36 26.12.2019
1685 Rain 28 1009 83 10000 4.6 90 13:18 26.12.2019
1686 Rain 28 1009 83 10000 4.6 90 12:44 26.12.2019
1687 Clouds 31 1009 70 10000 4.1 100 12:24 26.12.2019
1688 Clouds 31 1009 70 10000 4.1 100 11:59 26.12.2019
1689 Clouds 31 1009 70 10000 4.1 100 11:40 26.12.2019
1690 Clouds 31 1010 70 10000 3.6 100 11:21 26.12.2019
1691 Rain 28 1009 80 0 6.4 83 10:50 26.12.2019
1692 Clouds 30 1011 74 10000 4.6 100 10:26 26.12.2019
1693 Clouds 30 1011 74 10000 4.6 100 09:55 26.12.2019
1694 Rain 28 1009 80 0 6.4 83 09:36 26.12.2019
1695 Clouds 29 1012 83 10000 5.7 100 09:18 26.12.2019
1696 Rain 28 1009 80 0 6.4 83 08:39 26.12.2019
1697 Clouds 31 1012 70 10000 6.7 90 08:21 26.12.2019
1698 Clouds 31 1012 70 10000 6.7 90 07:41 26.12.2019
1699 Clouds 30 1013 74 10000 5.1 110 07:19 26.12.2019
1700 Rain 28 1011 80 0 6.63 82 06:38 26.12.2019
1701 Rain 28 1013 88 10000 3.6 110 06:20 26.12.2019
1702 Rain 28 1013 88 10000 3.6 110 05:42 26.12.2019
1703 Clouds 27 1012 88 10000 2.6 140 04:33 26.12.2019
1704 Clouds 27 1011 88 10000 2.6 150 03:31 26.12.2019
1705 Clouds 27 1011 88 10000 2.6 150 02:46 26.12.2019
1706 Clouds 27 1011 83 10000 2.6 150 02:27 26.12.2019
1707 Clouds 27 1011 83 10000 2.6 150 01:44 26.12.2019
1708 Clouds 27 1010 83 10000 3.6 150 01:25 26.12.2019
1709 Clouds 27 1010 83 10000 3.6 150 00:44 26.12.2019
1710 Clouds 28 1010 83 10000 3.1 130 00:23 26.12.2019
1711 Clouds 28 1010 83 10000 3.1 130 23:58 25.12.2019
1712 Rain 28 1010 77 0 6.97 79 23:37 25.12.2019
1713 Clouds 28 1011 78 10000 3.6 110 23:19 25.12.2019
1714 Clouds 28 1011 78 10000 3.6 110 22:57 25.12.2019
1715 Rain 28 1010 78 0 6.05 80 22:37 25.12.2019
1716 Clouds 28 1012 78 10000 3.6 110 22:19 25.12.2019
1717 Clouds 28 1012 78 10000 3.6 110 21:55 25.12.2019
1718 Rain 28 1010 78 0 6.05 80 21:37 25.12.2019
1719 Clouds 29 1012 79 10000 4.1 110 21:19 25.12.2019
1720 Clouds 29 1012 79 10000 4.1 110 20:40 25.12.2019
1721 Clouds 29 1013 79 10000 3.6 120 20:21 25.12.2019
1722 Clouds 29 1013 79 10000 3.6 120 19:59 25.12.2019
1723 Clouds 29 1013 79 10000 3.6 120 19:41 25.12.2019
1724 Clouds 29 1012 79 10000 6.2 110 19:21 25.12.2019
1725 Clouds 29 1012 79 10000 6.2 110 18:40 25.12.2019
1726 Clouds 29 1012 79 10000 4.1 110 18:21 25.12.2019
1727 Clouds 29 1012 79 10000 4.1 110 17:58 25.12.2019
1728 Rain 28 1012 76 0 5.06 83 17:39 25.12.2019
1729 Clouds 28 1012 83 10000 5.1 110 17:18 25.12.2019
1730 Clouds 28 1012 83 10000 5.1 110 16:54 25.12.2019
1731 Rain 28 1011 76 0 5.2 102 16:36 25.12.2019
1732 Rain 27 1011 88 9000 6.7 80 16:18 25.12.2019
1733 Rain 27 1011 88 9000 6.7 80 15:55 25.12.2019
1734 Rain 28 1011 76 0 5.2 102 15:36 25.12.2019
1735 Clouds 30 1010 74 10000 7.2 100 15:18 25.12.2019
1736 Clouds 30 1010 74 10000 7.2 100 14:42 25.12.2019
1737 Clouds 30 1010 79 10000 2.6 130 14:23 25.12.2019
1738 Clouds 30 1010 79 10000 2.6 130 13:58 25.12.2019
1739 Clouds 30 1010 79 10000 2.6 130 13:40 25.12.2019
1740 Clouds 30 1009 70 10000 3.6 140 13:20 25.12.2019
1741 Clouds 30 1009 70 10000 3.6 140 12:43 25.12.2019
1742 Clouds 31 1009 70 10000 5.1 110 12:22 25.12.2019
1743 Clouds 31 1009 70 10000 5.1 110 11:58 25.12.2019
1744 Rain 29 1009 78 0 5.44 97 11:40 25.12.2019
1745 Clouds 31 1010 70 10000 4.1 90 11:20 25.12.2019
1746 Rain 29 1009 78 0 5.19 88 10:39 25.12.2019
1747 Clouds 31 1011 70 10000 5.1 110 10:21 25.12.2019
1748 Clouds 31 1011 70 10000 5.1 110 09:58 25.12.2019
1749 Rain 29 1009 78 0 5.19 88 09:40 25.12.2019
1750 Clouds 31 1012 74 10000 4.6 90 09:21 25.12.2019
1751 Clouds 31 1012 74 10000 4.6 90 08:42 25.12.2019
1752 Clouds 31 1012 74 10000 4.6 90 08:23 25.12.2019
1753 Clouds 31 1012 74 10000 4.6 90 08:23 25.12.2019
1754 Clouds 31 1012 74 10000 4.6 90 07:42 25.12.2019
1755 Rain 28 1012 78 0 6.14 82 07:22 25.12.2019
1756 Clouds 30 1012 79 10000 4.1 100 06:24 25.12.2019
1757 Clouds 30 1012 79 10000 4.1 100 05:50 25.12.2019
1758 Clouds 29 1012 83 10000 3.6 90 04:44 25.12.2019
1759 Clouds 28 1011 83 10000 4.1 100 04:24 25.12.2019
1760 Clouds 28 1011 83 10000 4.1 100 03:44 25.12.2019
1761 Clouds 28 1010 83 10000 5.1 90 02:59 25.12.2019
1762 Clouds 28 1009 83 10000 5.1 80 02:29 25.12.2019
1763 Clouds 28 1009 83 10000 5.1 80 01:44 25.12.2019
1764 Clouds 28 1009 83 10000 6.2 80 01:19 25.12.2019
1765 Clouds 28 1009 83 10000 6.2 80 00:42 25.12.2019
1766 Clouds 28 1009 83 10000 5.7 80 00:23 25.12.2019
1767 Clouds 28 1010 75 0 3.75 64 23:40 24.12.2019
1768 Clouds 28 1010 83 10000 5.1 80 23:20 24.12.2019
1769 Clouds 28 1010 83 10000 5.1 80 22:55 24.12.2019
1770 Clouds 28 1009 75 0 4.48 59 22:37 24.12.2019
1771 Clouds 28 1010 83 10000 7.2 80 22:19 24.12.2019
1772 Clouds 28 1010 83 10000 7.2 80 21:41 24.12.2019
1773 Clouds 28 1011 83 10000 7.2 80 21:20 24.12.2019
1774 Clouds 28 1011 83 10000 7.2 80 20:43 24.12.2019
1775 Clouds 28 1012 83 10000 6.2 80 20:23 24.12.2019
1776 Clouds 28 1012 83 10000 6.2 80 19:56 24.12.2019
1777 Clouds 28 1012 74 0 2.5 28 19:37 24.12.2019
1778 Clouds 28 1012 83 10000 5.7 90 19:18 24.12.2019
1779 Clouds 28 1012 83 10000 5.7 90 18:42 24.12.2019
1780 Clouds 28 1012 83 10000 5.7 90 18:19 24.12.2019
1781 Clouds 28 1012 83 10000 5.7 90 17:45 24.12.2019
1782 Clouds 28 1012 83 10000 3.6 80 17:23 24.12.2019
1783 Clouds 28 1012 83 10000 3.6 80 16:58 24.12.2019
1784 Clouds 28 1012 83 10000 3.6 80 16:40 24.12.2019
1785 Clouds 28 1012 83 10000 3.6 80 16:40 24.12.2019
1786 Clouds 29 1011 74 10000 0.5 0 16:22 24.12.2019
1787 Clouds 29 1011 74 10000 0.5 0 15:58 24.12.2019
1788 Rain 27 1012 77 0 3.55 57 15:38 24.12.2019
1789 Clouds 29 1011 74 10000 1 0 15:20 24.12.2019
1790 Clouds 29 1011 74 10000 1 0 14:58 24.12.2019
1791 Clouds 29 1011 74 10000 1 0 14:58 24.12.2019
1792 Clouds 29 1011 74 10000 1 0 14:40 24.12.2019
1793 Clouds 30 1010 70 10000 1.5 320 14:22 24.12.2019
1794 Clouds 30 1010 70 10000 1.5 320 13:56 24.12.2019
1795 Clouds 27 1010 76 0 0.38 84 13:38 24.12.2019
1796 Clouds 30 1010 70 10000 3.6 80 13:20 24.12.2019
1797 Clouds 30 1010 70 10000 3.6 80 12:57 24.12.2019
1798 Clouds 27 1010 73 0 2.42 310 12:38 24.12.2019
1799 Clouds 30 1009 70 10000 4.1 80 12:19 24.12.2019
1800 Clouds 30 1009 70 10000 4.1 80 11:57 24.12.2019
1801 Clouds 27 1010 73 0 2.42 310 11:38 24.12.2019
1802 Clouds 30 1010 74 10000 3.6 70 11:20 24.12.2019
1803 Clouds 30 1010 74 10000 3.6 70 10:57 24.12.2019
1804 Clouds 27 1009 74 0 1.71 226 10:38 24.12.2019
1805 Clouds 30 1011 70 10000 3.6 70 10:20 24.12.2019
1806 Clouds 30 1011 70 10000 3.6 70 09:58 24.12.2019
1807 Clouds 30 1011 70 10000 3.6 70 09:58 24.12.2019
1808 Clouds 30 1011 70 10000 3.6 70 09:39 24.12.2019
1809 Clouds 30 1011 70 10000 3.6 70 09:39 24.12.2019
1810 Clouds 30 1012 70 10000 4.1 80 09:21 24.12.2019
1811 Clouds 30 1012 70 10000 4.1 80 08:47 24.12.2019
1812 Clouds 30 1012 74 10000 3.6 90 08:25 24.12.2019
1813 Clouds 30 1012 74 10000 3.6 90 07:59 24.12.2019
1814 Rain 26 1013 80 0 3.75 192 07:39 24.12.2019
1815 Clouds 30 1013 74 10000 3.6 90 07:21 24.12.2019
1816 Clouds 30 1013 74 10000 3.6 90 07:21 24.12.2019
1817 Rain 26 1013 80 0 3.75 192 06:40 24.12.2019
1818 Clouds 29 1013 79 10000 2.6 100 06:19 24.12.2019
1819 Clouds 29 1013 79 10000 2.6 100 05:53 24.12.2019
1820 Rain 25 1013 86 0 3.97 170 05:19 24.12.2019
1821 Clouds 28 1011 83 10000 2.6 110 04:21 24.12.2019
1822 Clouds 28 1011 83 10000 2.6 110 03:48 24.12.2019
1823 Clouds 26 1010 88 10000 2.6 130 02:29 24.12.2019
1824 Clouds 26 1010 88 10000 2.6 130 01:55 24.12.2019
1825 Clouds 26 1009 88 10000 2.6 90 01:26 24.12.2019
1826 Clouds 26 1009 88 10000 2.6 90 00:58 24.12.2019
1827 Rain 25 1011 83 0 4.08 239 00:39 24.12.2019
1828 Clouds 26 1009 94 10000 2.6 90 00:20 24.12.2019
1829 Clouds 26 1009 94 10000 2.6 90 23:43 23.12.2019
1830 Clouds 26 1010 94 10000 2.6 70 23:24 23.12.2019
1831 Clouds 26 1010 94 10000 2.6 70 23:24 23.12.2019
1832 Clouds 26 1010 94 10000 2.6 70 22:57 23.12.2019
1833 Rain 25 1011 90 0 5.94 251 22:38 23.12.2019
1834 Rain 25 1011 90 0 5.94 251 22:38 23.12.2019
1835 Rain 27 1011 88 10000 1 0 22:20 23.12.2019
1836 Rain 27 1011 88 10000 1 0 21:56 23.12.2019
1837 Rain 25 1011 90 0 5.94 251 21:37 23.12.2019
1838 Clouds 27 1012 83 10000 1 0 21:19 23.12.2019
1839 Clouds 27 1012 83 10000 1 0 20:58 23.12.2019
1840 Clouds 27 1012 83 10000 1 0 20:58 23.12.2019
1841 Clouds 27 1012 83 10000 1 0 20:40 23.12.2019
1842 Clouds 27 1012 83 10000 1.5 20 20:19 23.12.2019
1843 Clouds 27 1012 83 10000 1.5 20 20:19 23.12.2019
1844 Clouds 27 1012 83 10000 1.5 20 19:58 23.12.2019
1845 Clouds 27 1012 83 10000 1.5 20 19:39 23.12.2019
1846 Clouds 27 1012 83 10000 2.6 280 19:20 23.12.2019
1847 Clouds 27 1012 83 10000 2.6 280 18:58 23.12.2019
1848 Rain 25 1013 93 0 3.26 169 18:39 23.12.2019
1849 Clouds 27 1012 83 10000 4.6 270 18:20 23.12.2019
1850 Clouds 27 1012 83 10000 4.6 270 18:20 23.12.2019
1851 Clouds 27 1012 83 10000 4.6 270 17:58 23.12.2019
1852 Rain 25 1013 93 0 3.26 169 17:40 23.12.2019
1853 Clouds 27 1012 83 10000 7.2 270 17:19 23.12.2019
1854 Clouds 27 1012 83 10000 7.2 270 16:57 23.12.2019
1855 Rain 26 1012 89 0 5.9 74 16:39 23.12.2019
1856 Clouds 27 1011 83 10000 7.2 270 16:18 23.12.2019
1857 Clouds 27 1011 83 10000 7.2 270 15:57 23.12.2019
1858 Rain 26 1012 89 0 5.9 74 15:37 23.12.2019
1859 Clouds 27 1009 83 10000 7.7 290 15:19 23.12.2019
1860 Clouds 27 1009 83 10000 7.7 290 14:56 23.12.2019
1861 Clouds 27 1009 83 10000 7.7 290 14:56 23.12.2019
1862 Rain 26 1012 89 0 5.9 74 14:38 23.12.2019
1863 Clouds 28 1009 78 10000 3.1 230 14:18 23.12.2019
1864 Clouds 28 1009 78 10000 3.1 230 13:56 23.12.2019
1865 Rain 25 1010 89 0 6.39 62 13:37 23.12.2019
1866 Clouds 29 1009 74 10000 1.5 150 13:19 23.12.2019
1867 Clouds 29 1009 74 10000 1.5 150 12:54 23.12.2019
1868 Rain 26 1010 89 0 6.82 40 12:36 23.12.2019
1869 Rain 26 1010 89 0 6.82 40 12:36 23.12.2019
1870 Clouds 29 1008 74 10000 2.1 160 12:18 23.12.2019
1871 Clouds 29 1008 74 10000 2.1 160 11:42 23.12.2019
1872 Clouds 28 1009 78 10000 3.1 100 11:22 23.12.2019
1873 Clouds 28 1009 78 10000 3.1 100 10:56 23.12.2019
1874 Rain 26 1009 87 0 5.53 36 10:37 23.12.2019
1875 Clouds 28 1010 83 10000 4.1 100 10:18 23.12.2019
1876 Clouds 28 1010 83 10000 4.1 100 09:57 23.12.2019
1877 Rain 26 1009 87 0 5.53 36 09:39 23.12.2019
1878 Clouds 28 1011 78 10000 3.1 130 09:19 23.12.2019
1879 Clouds 28 1011 78 10000 3.1 130 08:42 23.12.2019
1880 Clouds 27 1012 88 10000 3.1 110 08:23 23.12.2019
1881 Clouds 27 1012 88 10000 3.1 110 07:57 23.12.2019
1882 Rain 26 1012 84 0 5.94 0 07:38 23.12.2019
1883 Clouds 27 1012 83 10000 2.6 110 07:19 23.12.2019
1884 Clouds 27 1012 83 10000 2.6 110 06:43 23.12.2019
1885 Rain 26 1012 84 0 5.94 0 06:22 23.12.2019
1886 Rain 26 1012 84 0 5.94 0 05:46 23.12.2019
1887 Rain 25 1012 88 0 5.42 354 04:55 23.12.2019
1888 Rain 25 1012 88 0 5.42 354 03:59 23.12.2019
1889 Rain 25 1012 88 0 5.42 354 02:48 23.12.2019
1890 Rain 26 1010 79 0 4.64 341 02:20 23.12.2019
1891 Rain 26 1010 79 0 4.64 341 01:51 23.12.2019
1892 Rain 27 1010 75 0 6.58 247 01:32 23.12.2019
1893 Rain 27 1010 75 0 6.58 247 01:32 23.12.2019
1894 Rain 27 1010 75 0 6.58 247 01:32 23.12.2019
1895 Rain 27 1010 75 0 6.58 247 00:49 23.12.2019
1896 Rain 27 1010 75 0 6.58 247 00:30 23.12.2019
1897 Rain 27 1010 75 0 6.58 247 23:57 22.12.2019
1898 Rain 27 1010 75 0 6.58 247 23:38 22.12.2019
1899 Rain 27 1009 80 0 5.82 198 23:20 22.12.2019
1900 Rain 27 1009 80 0 5.82 198 22:57 22.12.2019
1901 Rain 27 1009 80 0 5.82 198 22:38 22.12.2019
1902 Rain 27 1009 80 0 5.82 198 22:19 22.12.2019
1903 Rain 27 1009 80 0 5.82 198 21:56 22.12.2019
1904 Rain 27 1009 80 0 5.82 198 21:38 22.12.2019
1905 Rain 27 1009 80 0 5.82 198 21:20 22.12.2019
1906 Rain 27 1009 80 0 5.82 198 20:41 22.12.2019
1907 Rain 27 1011 80 0 7.15 176 20:19 22.12.2019
1908 Rain 28 1011 77 0 5.41 131 19:58 22.12.2019
1909 Rain 28 1011 77 0 5.41 131 19:40 22.12.2019
1910 Rain 28 1011 77 0 5.41 131 19:20 22.12.2019
1911 Rain 28 1011 77 0 5.41 131 18:58 22.12.2019
1912 Rain 28 1011 77 0 5.41 131 18:38 22.12.2019
1913 Rain 26 1012 94 6000 6.2 240 18:19 22.12.2019
1914 Rain 26 1012 94 6000 6.2 240 17:55 22.12.2019
1915 Rain 28 1011 77 0 5.41 131 17:36 22.12.2019
1916 Clouds 27 1011 88 10000 2.1 180 17:18 22.12.2019
1917 Clouds 27 1011 88 10000 2.1 180 16:42 22.12.2019
1918 Rain 26 1010 88 8000 3.1 140 16:23 22.12.2019
1919 Rain 26 1010 88 8000 3.1 140 16:23 22.12.2019
1920 Rain 26 1010 88 8000 3.1 140 15:57 22.12.2019
1921 Rain 28 1011 79 0 5.5 113 15:39 22.12.2019
1922 Rain 26 1009 94 6000 4.1 140 15:21 22.12.2019
1923 Rain 26 1009 94 6000 4.1 140 14:59 22.12.2019
1924 Rain 28 1011 79 0 5.5 113 14:38 22.12.2019
1925 Clouds 28 1009 83 10000 3.6 140 14:19 22.12.2019
1926 Clouds 28 1009 83 10000 3.6 140 13:56 22.12.2019
1927 Rain 28 1008 78 0 6.17 120 13:38 22.12.2019
1928 Rain 27 1008 88 7000 5.1 120 13:19 22.12.2019
1929 Rain 27 1008 88 7000 5.1 120 12:57 22.12.2019
1930 Rain 28 1008 80 0 5.82 105 12:38 22.12.2019
1931 Rain 28 1008 83 9000 5.7 120 12:19 22.12.2019
1932 Rain 28 1008 83 9000 5.7 120 11:57 22.12.2019
1933 Rain 28 1008 80 0 5.82 105 11:38 22.12.2019
1934 Clouds 31 1008 70 10000 5.1 130 11:19 22.12.2019
1935 Clouds 31 1008 70 10000 5.1 130 10:57 22.12.2019
1936 Clouds 28 1008 81 0 6.41 102 10:38 22.12.2019
1937 Clouds 31 1009 70 10000 5.7 130 10:19 22.12.2019
1938 Clouds 31 1009 70 10000 5.7 130 09:57 22.12.2019
1939 Clouds 31 1009 70 10000 5.7 130 09:57 22.12.2019
1940 Clouds 28 1008 81 0 6.41 102 09:39 22.12.2019
1941 Clouds 31 1010 66 10000 5.1 130 09:20 22.12.2019
1942 Clouds 31 1010 66 10000 5.1 130 08:45 22.12.2019
1943 Clouds 31 1010 66 10000 5.7 130 08:22 22.12.2019
1944 Clouds 31 1010 66 10000 5.7 130 07:44 22.12.2019
1945 Clouds 30 1011 70 10000 6.2 140 07:21 22.12.2019
1946 Clouds 30 1011 70 10000 6.2 140 07:21 22.12.2019
1947 Clouds 30 1011 70 10000 6.2 140 07:21 22.12.2019
1948 Clouds 30 1011 70 10000 6.2 140 06:55 22.12.2019
1949 Clouds 30 1011 74 10000 5.1 140 06:26 22.12.2019
1950 Clouds 28 1011 82 0 6.99 112 05:33 22.12.2019
1951 Rain 29 1011 79 10000 6.2 110 04:55 22.12.2019
1952 Clouds 28 1010 83 10000 5.1 130 04:26 22.12.2019
1953 Clouds 27 1009 88 10000 5.7 140 02:47 22.12.2019
1954 Clouds 28 1009 78 10000 5.7 110 02:23 22.12.2019
1955 Clouds 28 1008 78 10000 5.1 130 01:32 22.12.2019
1956 Clouds 28 1008 78 10000 5.1 130 00:57 22.12.2019
1957 Rain 28 1009 83 0 7.68 118 00:38 22.12.2019
1958 Clouds 27 1008 83 10000 5.7 120 00:20 22.12.2019
1959 Clouds 27 1008 83 10000 5.7 120 23:41 21.12.2019
1960 Rain 27 1008 83 9000 6.7 100 23:22 21.12.2019
1961 Rain 27 1008 83 9000 6.7 100 22:57 21.12.2019
1962 Clouds 28 1009 83 0 7.39 104 22:39 21.12.2019
1963 Rain 27 1009 94 9000 5.1 90 22:18 21.12.2019
1964 Rain 27 1009 94 9000 5.1 90 22:18 21.12.2019
1965 Rain 27 1009 94 9000 5.1 90 21:55 21.12.2019
1966 Clouds 28 1009 83 0 7.39 104 21:36 21.12.2019
1967 Clouds 28 1009 88 10000 6.2 90 21:18 21.12.2019
1968 Clouds 28 1009 88 10000 6.2 90 20:57 21.12.2019
1969 Clouds 28 1009 83 0 7.39 104 20:37 21.12.2019
1970 Clouds 28 1010 88 10000 5.1 110 20:19 21.12.2019
1971 Clouds 28 1010 88 10000 5.1 110 19:55 21.12.2019
1972 Rain 28 1010 82 0 7.44 100 19:36 21.12.2019
1973 Rain 28 1010 82 0 7.44 100 19:36 21.12.2019
1974 Clouds 28 1010 83 10000 6.2 110 19:18 21.12.2019
1975 Clouds 28 1010 83 10000 6.2 110 18:41 21.12.2019
1976 Clouds 29 1011 79 10000 7.2 100 18:23 21.12.2019
1977 Clouds 29 1011 79 10000 7.2 100 17:56 21.12.2019
1978 Rain 28 1010 82 0 7.44 100 17:38 21.12.2019
1979 Clouds 29 1010 79 10000 6.7 110 17:20 21.12.2019
1980 Clouds 29 1010 79 10000 6.7 110 16:57 21.12.2019
1981 Clouds 28 1010 82 0 7.16 99 16:38 21.12.2019
1982 Clouds 29 1009 74 10000 7.2 110 16:18 21.12.2019
1983 Clouds 29 1009 74 10000 7.2 110 15:55 21.12.2019
1984 Clouds 28 1010 82 0 7.16 99 15:37 21.12.2019
1985 Clouds 29 1008 74 10000 7.2 110 15:18 21.12.2019
1986 Clouds 29 1008 74 10000 7.2 110 14:42 21.12.2019
1987 Clouds 29 1007 79 10000 6.7 110 14:23 21.12.2019
1988 Clouds 29 1007 79 10000 6.7 110 13:58 21.12.2019
1989 Clouds 29 1007 79 10000 6.7 110 13:39 21.12.2019
1990 Clouds 29 1007 74 10000 6.7 110 13:19 21.12.2019
1991 Clouds 29 1007 74 10000 6.7 110 12:56 21.12.2019
1992 Clouds 28 1008 81 0 8.67 93 12:38 21.12.2019
1993 Clouds 28 1008 81 0 8.67 93 12:38 21.12.2019
1994 Clouds 30 1006 70 10000 6.2 120 12:20 21.12.2019
1995 Clouds 30 1006 70 10000 6.2 120 11:48 21.12.2019
1996 Clouds 30 1007 74 10000 5.7 120 11:27 21.12.2019
1997 Clouds 30 1007 74 10000 5.7 120 10:59 21.12.2019
1998 Clouds 28 1007 82 0 9.34 86 10:40 21.12.2019
1999 Clouds 29 1008 74 10000 7.2 110 10:21 21.12.2019
2000 Clouds 29 1008 74 10000 7.2 110 09:58 21.12.2019
2001 Clouds 28 1007 82 0 9.34 86 09:39 21.12.2019
2002 Clouds 29 1009 74 10000 7.7 110 09:19 21.12.2019
2003 Clouds 29 1009 74 10000 7.7 110 08:47 21.12.2019
2004 Clouds 29 1010 74 10000 7.7 100 08:27 21.12.2019
2005 Clouds 29 1010 74 10000 7.7 100 07:47 21.12.2019
2006 Clouds 29 1010 74 10000 7.2 110 07:23 21.12.2019
2007 Clouds 29 1010 74 10000 7.2 110 06:58 21.12.2019
2008 Clouds 27 1010 82 0 7.94 76 06:40 21.12.2019
2009 Clouds 28 1010 78 10000 7.7 100 06:21 21.12.2019
2010 Clouds 27 1009 83 10000 7.2 100 05:25 21.12.2019
2011 Rain 27 1010 83 0 8.85 79 04:34 21.12.2019
2012 Clouds 27 1009 83 10000 6.7 90 03:56 21.12.2019
2013 Clouds 27 1008 78 10000 7.2 70 02:25 21.12.2019
2014 Clouds 27 1008 78 10000 7.2 70 01:48 21.12.2019
2015 Rain 26 1008 94 10000 9.8 70 01:25 21.12.2019
2016 Rain 26 1008 94 10000 9.8 70 00:45 21.12.2019
2017 Rain 27 1008 83 0 7.09 63 00:26 21.12.2019
2018 Rain 27 1008 83 0 7.09 63 23:39 20.12.2019
2019 Rain 26 1008 88 9000 11.3 70 23:21 20.12.2019
2020 Rain 26 1008 88 9000 11.3 70 22:59 20.12.2019
2021 Rain 26 1008 88 9000 11.3 70 22:59 20.12.2019
2022 Clouds 27 1008 85 0 7.52 60 22:39 20.12.2019
2023 Rain 25 1008 88 9000 13.9 70 22:18 20.12.2019
2024 Rain 25 1008 88 9000 13.9 70 21:41 20.12.2019
2025 Rain 25 1010 88 8000 11.3 80 21:21 20.12.2019
2026 Rain 25 1010 88 8000 11.3 80 20:59 20.12.2019
2027 Clouds 27 1008 85 0 7.52 60 20:38 20.12.2019
2028 Rain 25 1011 88 7000 9.3 80 20:19 20.12.2019
2029 Rain 25 1011 88 7000 9.3 80 19:56 20.12.2019
2030 Rain 27 1011 85 0 7.19 58 19:38 20.12.2019
2031 Rain 26 1012 94 8000 9.8 90 19:18 20.12.2019
2032 Rain 26 1012 94 8000 9.8 90 18:41 20.12.2019
2033 Rain 25 1011 94 9000 5.7 70 18:23 20.12.2019
2034 Rain 27 1011 85 0 7.19 58 17:58 20.12.2019
2035 Rain 27 1011 85 0 7.19 58 17:39 20.12.2019
2036 Rain 25 1011 94 9000 6.7 60 17:20 20.12.2019
2037 Rain 25 1011 94 9000 6.7 60 16:57 20.12.2019
2038 Rain 27 1010 83 0 7.33 57 16:38 20.12.2019
2039 Rain 27 1010 83 0 7.33 57 16:19 20.12.2019
2040 Rain 27 1010 83 0 7.33 57 15:55 20.12.2019
2041 Rain 27 1010 83 0 7.33 57 15:37 20.12.2019
2042 Rain 27 1010 83 0 7.33 57 15:37 20.12.2019
2043 Clouds 27 1009 83 10000 3.6 30 15:18 20.12.2019
2044 Rain 27 1010 83 0 7.33 57 14:42 20.12.2019
2045 Clouds 27 1008 83 10000 4.1 30 14:24 20.12.2019
2046 Clouds 27 1008 83 10000 4.1 30 13:57 20.12.2019
2047 Rain 27 1008 80 0 5.28 57 13:37 20.12.2019
2048 Clouds 28 1008 78 10000 5.1 30 13:19 20.12.2019
2049 Clouds 28 1008 78 10000 5.1 30 12:56 20.12.2019
2050 Clouds 27 1008 83 10000 5.7 20 12:36 20.12.2019
2051 Clouds 27 1008 83 10000 5.7 20 12:18 20.12.2019
2052 Clouds 27 1008 83 10000 5.7 20 11:57 20.12.2019
2053 Rain 27 1009 84 0 6.55 38 11:38 20.12.2019
2054 Rain 27 1009 84 0 6.55 38 11:38 20.12.2019
2055 Rain 27 1008 83 9000 7.2 20 11:18 20.12.2019
2056 Rain 27 1008 83 9000 7.2 20 10:56 20.12.2019
2057 Rain 28 1008 72 0 3.77 48 10:37 20.12.2019
2058 Rain 27 1009 88 8000 3.1 360 10:19 20.12.2019
2059 Rain 28 1008 72 0 3.77 48 09:43 20.12.2019
2060 Drizzle 28 1010 78 10000 2.1 360 09:21 20.12.2019
2061 Drizzle 28 1010 78 10000 2.1 360 08:57 20.12.2019
2062 Rain 28 1008 72 0 3.77 48 08:38 20.12.2019
2063 Clouds 28 1011 78 10000 1.5 340 08:20 20.12.2019
2064 Clouds 28 1011 78 10000 1.5 340 08:20 20.12.2019
2065 Clouds 28 1011 78 10000 1.5 340 07:57 20.12.2019
2066 Rain 28 1011 72 0 2.27 70 07:37 20.12.2019
2067 Clouds 27 1011 83 10000 1.5 340 07:18 20.12.2019
2068 Clouds 27 1011 83 10000 1.5 340 06:44 20.12.2019
2069 Clouds 26 1012 88 10000 2.1 100 06:26 20.12.2019
2070 Clouds 26 1012 88 10000 2.1 100 05:47 20.12.2019
2071 Rain 25 1011 94 9000 3.1 140 04:59 20.12.2019
2072 Rain 24 1010 100 6000 1.5 100 03:49 20.12.2019
2073 Clouds 28 1011 70 0 1.96 142 02:55 20.12.2019
2074 Rain 26 1007 88 8000 1.5 140 01:59 20.12.2019
2075 Rain 27 1008 72 0 2 163 01:35 20.12.2019
2076 Clouds 26 1007 88 10000 2.6 30 00:55 20.12.2019
2077 Rain 27 1008 73 0 1.77 82 00:35 20.12.2019
2078 Clouds 27 1007 88 10000 3.1 90 23:58 19.12.2019
2079 Rain 27 1008 73 0 1.77 82 23:40 19.12.2019
2080 Clouds 27 1008 88 10000 3.1 90 23:19 19.12.2019
2081 Rain 27 1008 77 0 3.13 90 22:40 19.12.2019
2082 Clouds 27 1009 88 10000 3.1 80 22:22 19.12.2019
2083 Clouds 27 1009 88 10000 3.1 80 21:57 19.12.2019
2084 Rain 27 1008 77 0 3.13 90 21:39 19.12.2019
2085 Clouds 27 1009 88 10000 4.1 80 21:19 19.12.2019
2086 Clouds 27 1009 88 10000 4.1 80 20:57 19.12.2019
2087 Rain 27 1008 77 0 3.13 90 20:38 19.12.2019
2088 Clouds 27 1010 88 10000 2.6 80 20:20 19.12.2019
2089 Clouds 27 1010 88 10000 2.6 80 19:58 19.12.2019
2090 Rain 27 1010 79 0 2.66 139 19:39 19.12.2019
2091 Clouds 27 1011 88 10000 2.6 70 19:19 19.12.2019
2092 Clouds 27 1011 88 10000 2.6 70 19:19 19.12.2019
2093 Clouds 27 1011 88 10000 2.6 70 19:19 19.12.2019
2094 Clouds 27 1011 88 10000 2.6 70 18:57 19.12.2019
2095 Clouds 27 1011 88 10000 2.6 70 18:57 19.12.2019
2096 Rain 27 1010 79 0 2.66 139 18:39 19.12.2019
2097 Clouds 25 1011 94 10000 2.1 70 18:19 19.12.2019
2098 Clouds 25 1011 94 10000 2.1 70 18:19 19.12.2019
2099 Clouds 25 1011 94 10000 2.1 70 17:56 19.12.2019
2100 Rain 27 1010 79 0 2.66 139 17:37 19.12.2019
2101 Clouds 25 1010 88 10000 3.1 50 17:18 19.12.2019
2102 Clouds 25 1010 88 10000 3.1 50 16:56 19.12.2019
2103 Rain 28 1010 77 0 3.7 108 16:37 19.12.2019
2104 Rain 25 1010 94 9000 4.6 70 16:19 19.12.2019
2105 Rain 25 1010 94 9000 4.6 70 15:57 19.12.2019
2106 Rain 28 1010 77 0 3.7 108 15:37 19.12.2019
2107 Rain 28 1010 77 0 3.7 108 15:19 19.12.2019
2108 Rain 28 1010 77 0 3.7 108 14:44 19.12.2019
2109 Clouds 27 1008 88 10000 3.6 90 14:20 19.12.2019
2110 Clouds 27 1008 88 10000 3.6 90 13:59 19.12.2019
2111 Rain 28 1007 78 0 5.08 100 13:38 19.12.2019
2112 Clouds 29 1008 79 10000 5.1 80 13:19 19.12.2019
2113 Clouds 29 1008 79 10000 5.1 80 12:57 19.12.2019
2114 Rain 28 1008 78 0 5.74 93 12:39 19.12.2019
2115 Clouds 28 1007 83 10000 4.1 110 12:19 19.12.2019
2116 Clouds 28 1007 83 10000 4.1 110 11:58 19.12.2019
2117 Rain 28 1008 78 0 5.74 93 11:40 19.12.2019
2118 Clouds 28 1009 83 10000 5.1 100 11:18 19.12.2019
2119 Clouds 28 1009 83 10000 5.1 100 11:18 19.12.2019
2120 Clouds 28 1009 83 10000 5.1 100 10:58 19.12.2019
2121 Clouds 28 1009 83 10000 5.1 100 10:38 19.12.2019
2122 Clouds 28 1009 83 10000 5.1 100 10:20 19.12.2019
2123 Clouds 28 1010 83 10000 4.6 90 09:56 19.12.2019
2124 Clouds 28 1010 83 10000 4.6 90 09:37 19.12.2019
2125 Clouds 28 1010 83 10000 4.6 90 09:18 19.12.2019
2126 Clouds 26 1010 94 9000 3.1 110 08:55 19.12.2019
2127 Clouds 26 1010 94 9000 3.1 110 08:36 19.12.2019
2128 Clouds 26 1010 94 9000 3.1 110 08:18 19.12.2019
2129 Rain 28 1011 78 0 8.06 96 07:40 19.12.2019
2130 Rain 25 1012 100 3000 6.2 120 07:22 19.12.2019
2131 Rain 25 1012 100 3000 6.2 120 06:54 19.12.2019
2132 Rain 28 1011 78 0 8.06 96 06:36 19.12.2019
2133 Rain 28 1011 78 0 8.06 96 06:18 19.12.2019
2134 Rain 28 1011 78 0 8.06 96 05:42 19.12.2019
2135 Rain 26 1011 94 6000 6.7 120 05:18 19.12.2019
2136 Rain 28 1010 79 0 9.61 83 03:51 19.12.2019
2137 Rain 28 1010 79 0 9.61 83 02:28 19.12.2019
2138 Thunderstorm 26 1007 94 10000 6.2 100 01:24 19.12.2019
2139 Thunderstorm 26 1007 94 10000 6.2 100 00:57 19.12.2019
2140 Rain 28 1009 79 0 11.05 78 00:38 19.12.2019
2141 Thunderstorm 27 1007 88 10000 10.3 90 00:19 19.12.2019
2142 Thunderstorm 27 1007 88 10000 10.3 90 00:19 19.12.2019
2143 Thunderstorm 27 1007 88 10000 10.3 90 23:44 18.12.2019
2144 Thunderstorm 27 1007 88 10000 10.3 90 23:19 18.12.2019
2145 Thunderstorm 26 1008 94 9000 11.8 90 22:56 18.12.2019
2146 Thunderstorm 26 1008 94 9000 11.8 90 22:38 18.12.2019
2147 Thunderstorm 26 1008 94 9000 11.8 90 22:20 18.12.2019
2148 Thunderstorm 27 1008 88 10000 8.7 100 21:58 18.12.2019
2149 Rain 28 1008 83 0 9.31 72 21:39 18.12.2019
2150 Rain 28 1008 83 0 9.31 72 21:39 18.12.2019
2151 Thunderstorm 27 1009 88 8000 7.7 100 21:20 18.12.2019
2152 Thunderstorm 27 1009 88 8000 7.7 100 20:56 18.12.2019
2153 Rain 28 1008 83 0 9.31 72 20:38 18.12.2019
2154 Thunderstorm 27 1010 88 9000 9.3 80 20:19 18.12.2019
2155 Thunderstorm 27 1010 88 9000 9.3 80 19:56 18.12.2019
2156 Thunderstorm 27 1010 88 9000 9.3 80 19:38 18.12.2019
2157 Thunderstorm 27 1010 88 9000 9.3 80 19:18 18.12.2019
2158 Thunderstorm 28 1011 88 10000 7.2 90 18:54 18.12.2019
2159 Rain 28 1011 81 0 9.26 79 18:36 18.12.2019
2160 Thunderstorm 28 1011 88 10000 8.7 90 18:18 18.12.2019
2161 Thunderstorm 28 1011 88 10000 8.7 90 17:55 18.12.2019
2162 Rain 28 1011 81 0 9.26 79 17:37 18.12.2019
2163 Clouds 28 1010 79 0 9.57 76 17:18 18.12.2019
2164 Clouds 28 1010 79 0 9.57 76 16:42 18.12.2019
2165 Clouds 28 1010 79 0 9.57 76 16:23 18.12.2019
2166 Clouds 28 1010 79 0 9.57 76 15:57 18.12.2019
2167 Clouds 28 1010 79 0 9.57 76 15:39 18.12.2019
2168 Thunderstorm 27 1009 88 10000 7.7 90 15:21 18.12.2019
2169 Thunderstorm 27 1009 88 10000 7.7 90 14:56 18.12.2019
2170 Clouds 28 1010 79 0 9.57 76 14:36 18.12.2019
2171 Thunderstorm 27 1009 83 9000 7.2 90 14:18 18.12.2019
2172 Thunderstorm 27 1009 83 9000 7.2 90 13:54 18.12.2019
2173 Clouds 28 1009 78 0 9.28 75 13:36 18.12.2019
2174 Clouds 29 1008 79 10000 8.2 90 13:18 18.12.2019
2175 Rain 28 1009 77 0 7.4 83 12:40 18.12.2019
2176 Rain 28 1009 77 0 7.4 83 12:40 18.12.2019
2177 Rain 28 1009 77 0 7.4 83 12:21 18.12.2019
2178 Rain 28 1009 77 0 7.4 83 11:57 18.12.2019
2179 Rain 28 1009 77 0 7.4 83 11:39 18.12.2019
2180 Rain 27 1008 83 0 6.55 46 11:20 18.12.2019
2181 Clouds 27 1008 88 10000 11.3 70 10:58 18.12.2019
2182 Rain 27 1008 83 0 6.55 46 10:39 18.12.2019
2183 Clouds 29 1009 79 9000 8.7 90 10:20 18.12.2019
2184 Clouds 29 1009 79 9000 8.7 90 09:57 18.12.2019
2185 Clouds 29 1010 83 10000 5.7 100 09:20 18.12.2019
2186 Clouds 29 1010 83 10000 5.7 100 08:43 18.12.2019
2187 Rain 28 1008 78 0 7.79 84 08:24 18.12.2019
2188 Rain 28 1012 78 0 7.85 99 07:57 18.12.2019
2189 Rain 28 1012 78 0 7.85 99 07:39 18.12.2019
2190 Clouds 30 1011 74 10000 10.8 100 07:20 18.12.2019
2191 Clouds 30 1011 74 10000 10.8 100 06:52 18.12.2019
2192 Clouds 28 1011 83 10000 8.7 100 06:24 18.12.2019
2193 Clouds 28 1011 83 10000 8.7 100 05:35 18.12.2019
2194 Clouds 28 1010 83 10000 9.3 100 04:31 18.12.2019
2195 Rain 28 1011 80 0 10.54 79 02:47 18.12.2019
2196 Thunderstorm 28 1009 83 10000 9.3 80 02:28 18.12.2019
2197 Thunderstorm 28 1009 83 10000 9.3 80 01:44 18.12.2019
2198 Thunderstorm 27 1008 88 10000 7.2 80 01:25 18.12.2019
2199 Thunderstorm 27 1008 88 10000 7.2 80 00:55 18.12.2019
2200 Rain 28 1009 79 0 9.71 75 00:36 18.12.2019
2201 Thunderstorm 26 1008 94 8000 9.8 70 00:18 18.12.2019
2202 Thunderstorm 26 1008 94 8000 9.8 70 23:43 17.12.2019
2203 Thunderstorm 26 1008 94 8000 9.8 70 23:23 17.12.2019
2204 Thunderstorm 27 1009 88 6000 10.8 70 22:57 17.12.2019
2205 Rain 28 1008 80 0 9.72 63 22:39 17.12.2019
2206 Thunderstorm 28 1009 83 10000 8.7 70 22:20 17.12.2019
2207 Thunderstorm 28 1009 83 10000 8.7 70 21:57 17.12.2019
2208 Rain 28 1008 80 0 9.72 63 21:39 17.12.2019
2209 Thunderstorm 28 1010 78 10000 8.2 80 21:20 17.12.2019
2210 Thunderstorm 28 1010 78 10000 8.2 80 21:20 17.12.2019
2211 Thunderstorm 28 1010 78 10000 8.2 80 20:59 17.12.2019
2212 Rain 28 1008 80 0 9.72 63 20:40 17.12.2019
2213 Clouds 28 1011 78 10000 8.2 80 20:19 17.12.2019
2214 Clouds 28 1011 78 10000 8.2 80 19:57 17.12.2019
2215 Rain 28 1011 79 0 8.91 69 19:39 17.12.2019
2216 Clouds 28 1011 83 10000 8.2 80 19:20 17.12.2019
2217 Clouds 28 1011 83 10000 8.2 80 18:57 17.12.2019
2218 Rain 28 1011 79 0 8.91 69 18:38 17.12.2019
2219 Clouds 28 1011 78 10000 7.2 70 18:20 17.12.2019
2220 Clouds 28 1011 78 10000 7.2 70 17:55 17.12.2019
2221 Clouds 28 1011 78 10000 7.2 70 17:37 17.12.2019
2222 Clouds 28 1011 78 10000 7.2 70 17:18 17.12.2019
2223 Clouds 27 1010 88 10000 9.3 80 16:55 17.12.2019
2224 Rain 28 1010 79 0 9.7 62 16:36 17.12.2019
2225 Rain 28 1009 83 9000 7.2 100 16:18 17.12.2019
2226 Rain 28 1010 79 0 9.7 62 15:38 17.12.2019
2227 Clouds 26 1009 88 10000 6.2 30 15:20 17.12.2019
2228 Clouds 26 1009 88 10000 6.2 30 14:57 17.12.2019
2229 Rain 28 1010 79 0 9.7 62 14:39 17.12.2019
2230 Rain 28 1008 79 0 8.59 52 14:19 17.12.2019
2231 Rain 28 1008 79 0 8.59 52 13:59 17.12.2019
2232 Rain 28 1008 79 0 8.59 52 13:41 17.12.2019
2233 Clouds 27 1007 88 10000 8.2 80 13:19 17.12.2019
2234 Clouds 27 1007 88 10000 8.2 80 12:59 17.12.2019
2235 Clouds 27 1007 88 10000 8.2 80 12:38 17.12.2019
2236 Clouds 27 1007 88 10000 8.2 80 12:18 17.12.2019
2237 Rain 28 1009 79 0 8.62 55 11:57 17.12.2019
2238 Rain 28 1009 79 0 8.62 55 11:37 17.12.2019
2239 Clouds 29 1008 74 10000 6.7 50 11:18 17.12.2019
2240 Clouds 29 1008 74 10000 6.7 50 10:57 17.12.2019
2241 Clouds 28 1008 77 0 7.55 53 10:39 17.12.2019
2242 Clouds 28 1008 77 0 7.55 53 10:39 17.12.2019
2243 Clouds 30 1009 58 10000 7.2 50 10:19 17.12.2019
2244 Clouds 30 1009 58 10000 7.2 50 09:56 17.12.2019
2245 Clouds 28 1008 77 0 7.55 53 09:38 17.12.2019
2246 Clouds 30 1010 74 10000 10.8 70 09:19 17.12.2019
2247 Clouds 30 1010 74 10000 10.8 70 08:55 17.12.2019
2248 Clouds 28 1008 77 0 7.55 53 08:36 17.12.2019
2249 Clouds 30 1011 74 10000 5.7 70 08:18 17.12.2019
2250 Rain 28 1011 78 0 6.02 65 07:42 17.12.2019
2251 Clouds 29 1011 79 10000 5.7 80 07:23 17.12.2019
2252 Clouds 29 1011 79 10000 5.7 80 06:53 17.12.2019
2253 Clouds 29 1011 79 10000 5.7 80 06:32 17.12.2019
2254 Clouds 29 1011 79 10000 4.6 70 05:52 17.12.2019
2255 Clouds 29 1011 79 10000 4.6 70 05:32 17.12.2019
2256 Clouds 28 1010 78 10000 4.6 90 04:19 17.12.2019
2257 Clouds 28 1011 78 0 6.27 84 02:33 17.12.2019
2258 Clouds 28 1009 78 10000 3.6 100 01:50 17.12.2019
2259 Clouds 28 1009 78 10000 6.2 100 00:56 17.12.2019
2260 Clouds 28 1009 77 0 7.24 81 00:36 17.12.2019
2261 Clouds 28 1009 78 10000 7.2 100 00:18 17.12.2019
2262 Clouds 28 1009 78 10000 7.2 100 23:40 16.12.2019
2263 Clouds 28 1009 78 10000 7.2 100 23:19 16.12.2019
2264 Clouds 28 1009 78 10000 7.2 100 22:55 16.12.2019
2265 Clouds 28 1009 80 0 7.97 83 22:37 16.12.2019
2266 Clouds 28 1010 78 10000 6.7 90 22:19 16.12.2019
2267 Clouds 28 1010 78 10000 6.7 90 21:54 16.12.2019
2268 Clouds 28 1009 80 0 7.97 83 21:36 16.12.2019
2269 Clouds 28 1009 80 0 7.97 83 21:36 16.12.2019
2270 Clouds 28 1010 78 10000 7.2 90 21:18 16.12.2019
2271 Clouds 28 1010 78 10000 7.2 90 20:56 16.12.2019
2272 Clouds 28 1009 80 0 7.97 83 20:37 16.12.2019
2273 Clouds 28 1011 78 10000 7.7 90 20:18 16.12.2019
2274 Clouds 28 1011 78 10000 7.7 90 19:55 16.12.2019
2275 Rain 27 1011 80 0 7.13 75 19:36 16.12.2019
2276 Clouds 28 1011 78 10000 7.7 90 19:18 16.12.2019
2277 Clouds 28 1011 78 10000 7.7 90 18:55 16.12.2019
2278 Rain 27 1011 80 0 7.13 75 18:37 16.12.2019
2279 Clouds 29 1011 74 10000 7.2 70 18:18 16.12.2019
2280 Clouds 29 1011 74 10000 7.2 70 17:56 16.12.2019
2281 Clouds 29 1011 74 10000 7.2 70 17:37 16.12.2019
2282 Clouds 29 1011 74 10000 7.2 70 17:19 16.12.2019
2283 Clouds 28 1010 78 10000 7.2 80 16:54 16.12.2019
2284 Clouds 28 1010 78 0 7.45 65 16:36 16.12.2019
2285 Clouds 28 1009 78 10000 7.2 80 16:18 16.12.2019
2286 Clouds 28 1009 78 10000 7.2 80 15:55 16.12.2019
2287 Clouds 28 1010 78 0 7.45 65 15:37 16.12.2019
2288 Clouds 28 1010 78 0 7.45 65 15:37 16.12.2019
2289 Clouds 29 1009 74 10000 7.7 80 15:19 16.12.2019
2290 Clouds 29 1009 74 10000 7.7 80 14:54 16.12.2019
2291 Clouds 28 1010 78 0 7.45 65 14:36 16.12.2019
2292 Clouds 29 1008 74 10000 7.7 70 14:18 16.12.2019
2293 Clouds 29 1008 74 10000 7.7 70 14:18 16.12.2019
2294 Clouds 28 1009 76 0 6.09 65 13:38 16.12.2019
2295 Clouds 30 1008 70 10000 7.2 70 13:20 16.12.2019
2296 Clouds 30 1008 70 10000 7.2 70 12:59 16.12.2019
2297 Rain 27 1009 79 0 6.48 73 12:41 16.12.2019
2298 Clouds 30 1008 70 10000 7.2 70 12:20 16.12.2019
2299 Clouds 30 1008 70 10000 7.2 70 11:59 16.12.2019
2300 Clouds 30 1008 70 10000 7.2 70 11:41 16.12.2019
2301 Clouds 30 1008 70 10000 7.2 70 11:22 16.12.2019
2302 Clouds 29 1009 79 10000 6.7 70 11:00 16.12.2019
2303 Rain 26 1009 84 0 5.48 64 10:40 16.12.2019
2304 Clouds 30 1010 74 10000 7.7 60 10:21 16.12.2019
2305 Clouds 30 1010 74 10000 7.7 60 09:55 16.12.2019
2306 Rain 27 1009 74 0 5 94 09:37 16.12.2019
2307 Clouds 30 1010 70 10000 7.2 90 09:19 16.12.2019
2308 Rain 27 1009 74 0 5 94 08:39 16.12.2019
2309 Rain 27 1012 77 0 4.94 92 08:19 16.12.2019
2310 Rain 27 1012 78 0 5.68 83 07:51 16.12.2019
2311 Clouds 30 1011 70 10000 4.1 100 07:31 16.12.2019
2312 Clouds 30 1011 70 10000 4.1 100 06:49 16.12.2019
2313 Clouds 30 1011 70 10000 4.1 100 06:27 16.12.2019
2314 Clouds 30 1011 70 10000 4.6 100 05:58 16.12.2019
2315 Clouds 30 1011 70 10000 4.6 100 05:39 16.12.2019
2316 Clouds 30 1011 70 10000 4.6 100 05:21 16.12.2019
2317 Clouds 27 1009 83 10000 2.1 100 02:59 16.12.2019
2318 Clouds 27 1009 83 10000 1.5 180 01:45 16.12.2019
2319 Clouds 27 1009 83 10000 4.1 210 00:56 16.12.2019
2320 Clouds 27 1009 83 10000 4.1 210 00:38 16.12.2019
2321 Clouds 27 1009 83 10000 4.1 210 00:19 16.12.2019
2322 Clouds 27 1009 78 10000 3.6 140 23:43 15.12.2019
2323 Clouds 27 1009 78 10000 3.6 140 23:25 15.12.2019
2324 Clouds 27 1009 78 10000 5.1 140 22:57 15.12.2019
2325 Rain 27 1009 82 0 8.87 113 22:38 15.12.2019
2326 Clouds 27 1010 78 10000 6.7 120 22:19 15.12.2019
2327 Clouds 27 1010 78 10000 6.7 120 21:58 15.12.2019
2328 Rain 27 1009 82 0 8.87 113 21:38 15.12.2019
2329 Clouds 27 1011 78 10000 6.7 110 21:20 15.12.2019
2330 Clouds 27 1011 78 10000 6.7 110 20:58 15.12.2019
2331 Rain 27 1009 82 0 8.87 113 20:40 15.12.2019
2332 Rain 28 1011 77 0 7.02 98 20:21 15.12.2019
2333 Rain 28 1011 77 0 7.02 98 20:21 15.12.2019
2334 Rain 28 1011 77 0 6.99 99 19:58 15.12.2019
2335 Rain 28 1011 77 0 6.99 99 19:40 15.12.2019
2336 Clouds 28 1012 83 10000 6.2 140 19:20 15.12.2019
2337 Clouds 28 1012 83 10000 6.2 140 19:20 15.12.2019
2338 Clouds 28 1012 83 10000 6.2 140 18:58 15.12.2019
2339 Clouds 28 1012 83 10000 6.2 140 18:39 15.12.2019
2340 Clouds 28 1012 83 10000 6.2 140 18:19 15.12.2019
2341 Clouds 28 1012 78 10000 6.2 130 17:57 15.12.2019
2342 Clouds 28 1012 78 10000 6.2 130 17:38 15.12.2019
2343 Clouds 28 1012 78 10000 6.2 130 17:38 15.12.2019
2344 Clouds 28 1011 78 10000 6.7 110 17:19 15.12.2019
2345 Clouds 28 1011 78 10000 6.7 110 16:58 15.12.2019
2346 Rain 28 1011 76 0 6.61 96 16:39 15.12.2019
2347 Clouds 28 1010 78 10000 6.7 110 16:21 15.12.2019
2348 Clouds 28 1010 78 10000 6.7 110 15:56 15.12.2019
2349 Rain 28 1011 76 0 6.61 96 15:38 15.12.2019
2350 Clouds 28 1009 74 10000 8.2 110 15:19 15.12.2019
2351 Clouds 28 1009 74 10000 8.2 110 14:56 15.12.2019
2352 Rain 28 1011 78 0 7.04 93 14:37 15.12.2019
2353 Clouds 28 1009 78 10000 8.7 110 14:18 15.12.2019
2354 Clouds 28 1009 78 10000 8.7 110 13:58 15.12.2019
2355 Rain 28 1008 76 0 5.68 93 13:37 15.12.2019
2356 Clouds 28 1008 78 10000 7.7 110 13:19 15.12.2019
2357 Clouds 28 1008 78 10000 7.7 110 12:56 15.12.2019
2358 Clouds 28 1008 78 10000 7.7 110 12:38 15.12.2019
2359 Clouds 28 1008 78 10000 7.7 110 12:20 15.12.2019
2360 Clouds 27 1009 88 10000 8.7 110 11:56 15.12.2019
2361 Clouds 27 1009 88 10000 8.7 110 11:36 15.12.2019
2362 Clouds 30 1009 70 9000 5.7 120 11:18 15.12.2019
2363 Clouds 30 1009 70 9000 5.7 120 10:55 15.12.2019
2364 Rain 28 1008 75 0 5.95 102 10:36 15.12.2019
2365 Clouds 30 1010 74 10000 6.2 110 10:18 15.12.2019
2366 Rain 28 1008 75 0 5.95 102 09:40 15.12.2019
2367 Clouds 31 1011 70 10000 4.1 120 09:20 15.12.2019
2368 Clouds 31 1011 70 10000 4.1 120 08:58 15.12.2019
2369 Rain 28 1008 75 0 5.95 102 08:39 15.12.2019
2370 Clouds 31 1012 70 10000 5.1 120 08:20 15.12.2019
2371 Clouds 31 1012 70 10000 5.1 120 07:56 15.12.2019
2372 Clouds 31 1012 70 10000 5.1 120 07:34 15.12.2019
2373 Clouds 30 1012 74 10000 6.7 100 06:44 15.12.2019
2374 Clouds 30 1012 74 10000 5.1 100 06:19 15.12.2019
2375 Clouds 30 1012 74 10000 5.1 100 05:25 15.12.2019
2376 Clouds 28 1012 74 10000 3.6 90 04:47 15.12.2019
2377 Clouds 27 1010 83 10000 3.1 90 03:22 15.12.2019
2378 Rain 28 1012 74 0 3.5 80 02:33 15.12.2019
2379 Clouds 27 1010 83 10000 3.1 90 01:46 15.12.2019
2380 Clouds 27 1010 83 10000 4.6 80 01:28 15.12.2019
2381 Clouds 27 1010 83 10000 4.6 80 00:57 15.12.2019
2382 Clouds 28 1009 71 0 3.08 60 00:38 15.12.2019
2383 Clouds 28 1010 78 10000 4.6 70 00:20 15.12.2019
2384 Clouds 28 1010 78 10000 4.6 70 23:39 14.12.2019
2385 Clouds 28 1010 83 10000 3.1 50 23:19 14.12.2019
2386 Clouds 28 1010 83 10000 3.1 50 22:58 14.12.2019
2387 Rain 28 1010 72 0 3.63 50 22:40 14.12.2019
2388 Clouds 28 1011 83 10000 4.1 90 22:20 14.12.2019
2389 Clouds 28 1011 83 10000 4.1 90 21:56 14.12.2019
2390 Rain 28 1010 72 0 3.63 50 21:37 14.12.2019
2391 Clouds 28 1012 78 10000 4.6 90 21:18 14.12.2019
2392 Clouds 28 1012 78 10000 4.6 90 20:56 14.12.2019
2393 Rain 28 1010 72 0 3.63 50 20:37 14.12.2019
2394 Clouds 27 1012 88 10000 5.1 40 20:19 14.12.2019
2395 Clouds 27 1012 88 10000 5.1 40 20:19 14.12.2019
2396 Clouds 27 1012 88 10000 5.1 40 19:54 14.12.2019
2397 Rain 28 1012 72 0 4.13 27 19:36 14.12.2019
2398 Rain 28 1012 72 0 4.13 27 19:18 14.12.2019
2399 Rain 28 1012 72 0 4.13 27 18:55 14.12.2019
2400 Rain 28 1012 72 0 4.13 27 18:36 14.12.2019
2401 Clouds 28 1012 78 10000 3.1 40 18:18 14.12.2019
2402 Clouds 28 1012 78 10000 3.1 40 17:42 14.12.2019
2403 Clouds 28 1012 78 10000 3.1 40 17:22 14.12.2019
2404 Rain 28 1012 72 0 3.27 356 16:42 14.12.2019
2405 Clouds 28 1011 78 10000 3.6 50 16:20 14.12.2019
2406 Clouds 28 1011 78 10000 3.6 50 15:58 14.12.2019
2407 Rain 28 1012 72 0 3.27 356 15:39 14.12.2019
2408 Clouds 28 1011 78 10000 3.1 40 15:20 14.12.2019
2409 Clouds 28 1011 78 10000 3.1 40 14:57 14.12.2019
2410 Rain 28 1012 72 0 3.27 356 14:38 14.12.2019
2411 Clouds 28 1010 74 10000 4.6 30 14:19 14.12.2019
2412 Clouds 28 1010 74 10000 4.6 30 13:45 14.12.2019
2413 Clouds 30 1010 70 10000 5.7 30 13:20 14.12.2019
2414 Clouds 30 1010 70 10000 5.7 30 12:59 14.12.2019
2415 Rain 28 1010 70 0 3.56 19 12:40 14.12.2019
2416 Clouds 29 1010 79 10000 4.6 30 12:21 14.12.2019
2417 Clouds 29 1010 79 10000 4.6 30 11:59 14.12.2019
2418 Clouds 29 1010 79 10000 4.6 30 11:39 14.12.2019
2419 Clouds 29 1010 79 10000 4.6 30 11:20 14.12.2019
2420 Clouds 29 1010 74 10000 4.1 40 10:59 14.12.2019
2421 Rain 28 1009 74 0 5.05 42 10:40 14.12.2019
2422 Rain 28 1009 72 0 3.77 26 10:22 14.12.2019
2423 Rain 28 1009 74 0 5.05 42 09:57 14.12.2019
2424 Rain 28 1009 72 0 3.77 26 09:39 14.12.2019
2425 Clouds 29 1012 79 10000 6.7 40 09:19 14.12.2019
2426 Clouds 29 1012 79 10000 6.7 40 08:43 14.12.2019
2427 Clouds 29 1013 74 10000 5.7 50 08:20 14.12.2019
2428 Clouds 29 1013 74 10000 5.7 50 08:20 14.12.2019
2429 Clouds 29 1013 74 10000 5.7 50 07:44 14.12.2019
2430 Clouds 29 1013 74 10000 5.7 50 07:24 14.12.2019
2431 Clouds 28 1013 83 10000 8.2 70 06:57 14.12.2019
2432 Clouds 28 1013 83 10000 8.2 70 06:38 14.12.2019
2433 Clouds 27 1013 88 9000 3.6 50 06:18 14.12.2019
2434 Rain 28 1012 74 0 5.01 25 04:48 14.12.2019
2435 Thunderstorm 26 1011 94 9000 1.5 360 02:41 14.12.2019
2436 Thunderstorm 25 1011 94 10000 2.6 120 02:19 14.12.2019
2437 Rain 28 1010 78 0 6.13 25 01:37 14.12.2019
2438 Rain 28 1010 78 0 5.9 24 00:49 14.12.2019
2439 Rain 28 1010 78 0 5.9 24 00:28 14.12.2019
2440 Rain 28 1010 78 0 5.9 24 23:57 13.12.2019
2441 Rain 28 1010 78 0 5.9 24 23:37 13.12.2019
2442 Rain 28 1010 79 0 6.97 43 23:18 13.12.2019
2443 Rain 28 1010 79 0 6.97 43 22:41 13.12.2019
2444 Rain 28 1010 79 0 6.97 43 22:19 13.12.2019
2445 Rain 28 1010 79 0 6.97 43 21:56 13.12.2019
2446 Rain 28 1010 79 0 6.97 43 21:38 13.12.2019
2447 Thunderstorm 27 1012 83 7000 7.2 50 21:20 13.12.2019
2448 Thunderstorm 27 1012 83 7000 7.2 50 20:43 13.12.2019
2449 Thunderstorm 28 1012 83 10000 2.6 20 20:24 13.12.2019
2450 Thunderstorm 28 1012 83 10000 2.6 20 19:59 13.12.2019
2451 Thunderstorm 28 1012 83 10000 2.6 20 19:41 13.12.2019
2452 Thunderstorm 28 1012 83 10000 2.6 20 19:41 13.12.2019
2453 Thunderstorm 28 1012 83 10000 2.6 20 19:23 13.12.2019
2454 Thunderstorm 28 1013 83 10000 2.1 20 18:59 13.12.2019
2455 Rain 28 1012 78 0 8.84 46 18:41 13.12.2019
2456 Thunderstorm 28 1012 83 10000 2.6 30 18:19 13.12.2019
2457 Thunderstorm 28 1012 83 10000 2.6 30 17:57 13.12.2019
2458 Rain 28 1012 78 0 8.84 46 17:38 13.12.2019
2459 Thunderstorm 28 1012 78 10000 6.2 50 17:18 13.12.2019
2460 Thunderstorm 28 1012 78 10000 6.2 50 16:54 13.12.2019
2461 Thunderstorm 28 1012 78 10000 6.2 50 16:36 13.12.2019
2462 Thunderstorm 28 1012 78 10000 6.2 50 16:18 13.12.2019
2463 Rain 28 1011 77 0 8.6 54 15:38 13.12.2019
2464 Clouds 28 1010 78 10000 5.7 70 15:20 13.12.2019
2465 Clouds 28 1010 78 10000 5.7 70 14:42 13.12.2019
2466 Clouds 28 1010 78 10000 5.7 70 14:21 13.12.2019
2467 Clouds 28 1010 78 10000 5.7 70 13:58 13.12.2019
2468 Clouds 28 1010 78 10000 5.7 70 13:40 13.12.2019
2469 Clouds 28 1010 78 10000 5.7 70 13:21 13.12.2019
2470 Rain 28 1009 77 0 5.65 31 12:44 13.12.2019
2471 Clouds 29 1009 79 10000 6.2 70 12:20 13.12.2019
2472 Clouds 29 1009 79 10000 6.2 70 11:58 13.12.2019
2473 Rain 28 1009 77 0 5.65 31 11:40 13.12.2019
2474 Clouds 29 1009 79 10000 6.2 40 11:22 13.12.2019
2475 Clouds 29 1009 79 10000 6.2 40 10:55 13.12.2019
2476 Clouds 29 1009 79 10000 6.2 40 10:37 13.12.2019
2477 Clouds 29 1009 79 10000 6.2 40 10:19 13.12.2019
2478 Clouds 30 1010 74 10000 5.1 70 09:39 13.12.2019
2479 Clouds 30 1010 74 10000 5.1 70 09:20 13.12.2019
2480 Clear 28 1008 77 0 5.79 28 08:42 13.12.2019
2481 Clouds 31 1011 70 10000 5.1 70 08:24 13.12.2019
2482 Clouds 31 1011 70 10000 5.1 70 07:47 13.12.2019
2483 Clouds 31 1011 70 10000 5.1 70 07:24 13.12.2019
2484 Clouds 30 1011 74 10000 5.7 70 06:55 13.12.2019
2485 Clouds 30 1011 74 10000 6.2 80 06:29 13.12.2019
2486 Clouds 30 1011 74 10000 6.2 80 05:47 13.12.2019
2487 Clouds 30 1011 74 10000 6.2 80 05:28 13.12.2019
2488 Clouds 28 1011 83 10000 5.7 80 04:46 13.12.2019
2489 Rain 28 1010 83 10000 4.6 40 03:48 13.12.2019
2490 Clouds 28 1011 76 0 5.57 38 02:34 13.12.2019
2491 Rain 27 1009 88 10000 1 0 01:48 13.12.2019
2492 Clouds 27 1008 88 10000 1.5 10 00:57 13.12.2019
2493 Clouds 27 1008 88 10000 1.5 10 00:37 13.12.2019
2494 Clouds 27 1008 88 10000 1.5 20 23:59 12.12.2019
2495 Clouds 27 1008 88 10000 1.5 20 23:40 12.12.2019
2496 Clouds 27 1008 88 10000 1.5 20 23:22 12.12.2019
2497 Clouds 27 1009 88 10000 2.1 40 22:56 12.12.2019
2498 Rain 28 1008 78 0 4.41 75 22:37 12.12.2019
2499 Clouds 28 1009 83 10000 3.6 60 22:19 12.12.2019
2500 Clouds 28 1009 83 10000 3.6 60 21:55 12.12.2019
2501 Clouds 28 1009 83 10000 3.6 60 21:37 12.12.2019
2502 Clouds 28 1009 83 10000 3.6 60 21:37 12.12.2019
2503 Clouds 28 1009 83 10000 3.6 60 21:18 12.12.2019
2504 Clouds 28 1010 78 10000 3.6 60 20:56 12.12.2019
2505 Clouds 28 1010 78 10000 3.6 60 20:38 12.12.2019
2506 Clouds 28 1010 78 10000 3.6 60 20:20 12.12.2019
2507 Clouds 28 1010 83 10000 4.1 70 19:43 12.12.2019
2508 Clouds 28 1010 83 10000 4.1 70 19:23 12.12.2019
2509 Clouds 28 1011 78 10000 4.6 60 18:58 12.12.2019
2510 Rain 28 1010 78 0 5.64 72 18:40 12.12.2019
2511 Clouds 28 1011 83 10000 5.7 80 18:21 12.12.2019
2512 Clouds 28 1011 83 10000 5.7 80 18:21 12.12.2019
2513 Clouds 28 1011 83 10000 5.7 80 17:59 12.12.2019
2514 Clouds 28 1011 83 10000 5.7 80 17:40 12.12.2019
2515 Clouds 28 1011 83 10000 5.7 80 17:21 12.12.2019
2516 Clouds 27 1010 88 10000 4.1 100 16:59 12.12.2019
2517 Clouds 27 1010 88 10000 4.1 100 16:41 12.12.2019
2518 Clouds 27 1010 88 10000 4.1 100 16:21 12.12.2019
2519 Clouds 28 1009 78 10000 5.1 70 15:58 12.12.2019
2520 Rain 28 1010 75 0 5.33 71 15:40 12.12.2019
2521 Clouds 28 1009 78 10000 3.1 80 15:18 12.12.2019
2522 Clouds 28 1009 78 10000 3.1 80 14:56 12.12.2019
2523 Clouds 28 1009 78 10000 3.1 80 14:36 12.12.2019
2524 Clouds 28 1009 78 10000 3.1 80 14:36 12.12.2019
2525 Clouds 28 1009 78 10000 3.1 80 14:18 12.12.2019
2526 Clouds 28 1008 74 10000 6.7 100 13:54 12.12.2019
2527 Clouds 28 1008 74 10000 6.7 100 13:36 12.12.2019
2528 Clouds 28 1008 74 10000 6.7 100 13:18 12.12.2019
2529 Rain 27 1008 78 0 5.5 43 12:40 12.12.2019
2530 Clouds 31 1008 70 10000 4.6 80 12:22 12.12.2019
2531 Clouds 31 1008 70 10000 4.6 80 11:57 12.12.2019
2532 Clouds 31 1008 70 10000 4.6 80 11:38 12.12.2019
2533 Clouds 31 1008 70 10000 4.6 80 11:38 12.12.2019
2534 Clouds 31 1008 70 10000 4.6 80 11:38 12.12.2019
2535 Clouds 31 1008 70 10000 4.6 80 11:20 12.12.2019
2536 Clouds 31 1008 66 10000 4.1 90 10:57 12.12.2019
2537 Clouds 31 1008 66 10000 4.1 90 10:39 12.12.2019
2538 Clouds 31 1008 66 10000 4.1 90 10:21 12.12.2019
2539 Clouds 30 1009 70 10000 3.6 90 09:55 12.12.2019
2540 Clouds 30 1009 70 10000 3.6 90 09:55 12.12.2019
2541 Rain 28 1007 77 0 5.63 47 09:37 12.12.2019
2542 Clouds 30 1010 70 10000 4.1 90 09:19 12.12.2019
2543 Clouds 30 1010 70 10000 4.1 90 08:46 12.12.2019
2544 Clouds 30 1011 70 10000 3.1 90 08:27 12.12.2019
2545 Clouds 30 1011 70 10000 3.1 90 07:50 12.12.2019
2546 Clouds 30 1011 70 10000 3.1 70 07:27 12.12.2019
2547 Clouds 30 1011 70 10000 3.1 70 06:56 12.12.2019
2548 Clouds 28 1011 76 0 5.42 51 06:35 12.12.2019
2549 Clouds 29 1011 74 10000 2.6 80 05:49 12.12.2019
2550 Clouds 29 1011 74 10000 2.6 80 05:25 12.12.2019
2551 Clouds 28 1011 78 10000 2.1 40 04:28 12.12.2019
2552 Clouds 27 1011 76 0 5.46 20 02:41 12.12.2019
2553 Clouds 27 1009 78 10000 3.6 60 02:22 12.12.2019
2554 Clouds 27 1009 78 10000 3.6 60 01:54 12.12.2019
2555 Clouds 27 1009 78 10000 3.6 60 01:35 12.12.2019
2556 Clouds 27 1008 83 10000 3.6 60 00:48 12.12.2019
2557 Clouds 27 1008 83 10000 3.6 60 00:21 12.12.2019
2558 Clouds 27 1008 83 10000 4.1 40 23:54 11.12.2019
2559 Rain 27 1009 76 0 2.05 302 23:36 11.12.2019
2560 Clouds 27 1008 88 10000 5.7 70 23:18 11.12.2019
2561 Clouds 27 1008 88 10000 5.7 70 22:55 11.12.2019
2562 Clouds 27 1008 88 10000 5.7 70 22:36 11.12.2019
2563 Clouds 27 1008 88 10000 5.7 70 22:36 11.12.2019
2564 Rain 27 1009 88 9000 7.2 70 22:18 11.12.2019
2565 Rain 27 1008 77 0 3.27 342 21:39 11.12.2019
2566 Clouds 27 1010 78 10000 1.5 20 21:20 11.12.2019
2567 Clouds 27 1010 78 10000 1.5 20 20:58 11.12.2019
2568 Rain 27 1008 77 0 3.27 342 20:40 11.12.2019
2569 Clouds 27 1011 83 10000 1.5 10 20:20 11.12.2019
2570 Clouds 27 1011 83 10000 1.5 10 19:59 11.12.2019
2571 Clouds 27 1011 83 10000 1.5 10 19:40 11.12.2019
2572 Clouds 27 1011 83 10000 1.5 10 19:21 11.12.2019
2573 Clouds 27 1011 83 10000 1 0 18:58 11.12.2019
2574 Rain 26 1010 84 0 3.27 354 18:39 11.12.2019
2575 Clouds 27 1011 83 10000 1.5 250 18:19 11.12.2019
2576 Clouds 27 1011 83 10000 1.5 250 17:56 11.12.2019
2577 Clouds 27 1011 83 10000 1.5 250 17:37 11.12.2019
2578 Clouds 27 1011 83 10000 1.5 250 17:18 11.12.2019
2579 Clouds 27 1010 74 10000 1.5 240 16:55 11.12.2019
2580 Rain 27 1010 80 0 3.87 65 16:37 11.12.2019
2581 Clouds 27 1010 74 10000 2.1 240 16:18 11.12.2019
2582 Clouds 27 1010 74 10000 2.1 240 15:55 11.12.2019
2583 Rain 27 1010 80 0 3.87 65 15:36 11.12.2019
2584 Clouds 27 1009 78 10000 1 0 15:18 11.12.2019
2585 Clouds 27 1009 78 10000 1 0 14:54 11.12.2019
2586 Clouds 27 1009 78 10000 1 0 14:36 11.12.2019
2587 Clouds 27 1009 78 10000 1 0 14:18 11.12.2019
2588 Rain 27 1008 81 0 6.54 56 13:42 11.12.2019
2589 Rain 27 1008 81 0 6.54 56 13:42 11.12.2019
2590 Clouds 27 1008 83 10000 1.5 110 13:21 11.12.2019
2591 Clouds 27 1008 83 10000 1.5 110 12:57 11.12.2019
2592 Clouds 27 1008 83 10000 1.5 110 12:39 11.12.2019
2593 Clouds 27 1008 83 10000 1.5 110 12:21 11.12.2019
2594 Clouds 27 1008 83 10000 1.5 110 12:21 11.12.2019
2595 Rain 26 1008 83 10000 3.6 70 11:58 11.12.2019
2596 Rain 26 1008 83 10000 3.6 70 11:39 11.12.2019
2597 Rain 26 1008 83 10000 3.6 70 11:19 11.12.2019
2598 Rain 26 1008 83 10000 3.6 70 11:19 11.12.2019
2599 Rain 25 1008 100 10000 2.1 70 10:57 11.12.2019
2600 Rain 25 1008 100 10000 2.1 70 10:39 11.12.2019
2601 Rain 26 1009 94 9000 2.6 30 10:20 11.12.2019
2602 Rain 26 1009 94 9000 2.6 30 09:44 11.12.2019
2603 Rain 26 1009 94 9000 2.6 30 09:21 11.12.2019
2604 Rain 25 1010 94 8000 3.6 50 09:21 11.12.2019
2605 Rain 25 1010 94 8000 3.6 50 08:58 11.12.2019
2606 Rain 25 1010 94 8000 3.6 50 08:40 11.12.2019
2607 Rain 25 1010 94 8000 3.6 50 08:20 11.12.2019
2608 Clouds 26 1011 83 10000 1 0 07:59 11.12.2019
2609 Clouds 26 1011 83 10000 1 0 07:41 11.12.2019
2610 Clouds 26 1011 83 10000 1 0 07:22 11.12.2019
2611 Rain 24 1012 94 8000 3.1 150 06:44 11.12.2019
2612 Rain 28 1010 77 0 3.51 82 06:23 11.12.2019
2613 Rain 28 1010 77 0 3.51 82 05:52 11.12.2019
2614 Rain 28 1010 77 0 3.51 82 05:27 11.12.2019
2615 Rain 28 1010 76 0 5.07 38 04:47 11.12.2019
2616 Clouds 28 1009 83 10000 6.2 80 02:50 11.12.2019
2617 Clouds 28 1008 83 10000 5.7 80 01:56 11.12.2019
2618 Thunderstorm 27 1008 88 10000 5.7 80 01:21 11.12.2019
2619 Rain 28 1009 76 0 4.92 44 00:37 11.12.2019
2620 Thunderstorm 27 1008 88 9000 9.3 80 00:18 11.12.2019
2621 Rain 28 1009 76 0 4.92 44 23:43 10.12.2019
2622 Thunderstorm 28 1008 83 10000 7.2 50 23:22 10.12.2019
2623 Rain 28 1008 80 0 4.05 53 22:42 10.12.2019
2624 Thunderstorm 28 1009 83 10000 5.1 40 22:24 10.12.2019
2625 Thunderstorm 28 1009 83 10000 5.1 40 22:24 10.12.2019
2626 Thunderstorm 28 1009 83 10000 5.1 40 21:58 10.12.2019
2627 Rain 28 1008 80 0 4.05 53 21:39 10.12.2019
2628 Clouds 28 1010 83 10000 5.1 30 21:21 10.12.2019
2629 Clouds 28 1010 83 10000 5.1 30 20:59 10.12.2019
2630 Rain 28 1008 80 0 4.05 53 20:38 10.12.2019
2631 Rain 28 1008 80 0 4.05 53 20:38 10.12.2019
2632 Clouds 28 1010 83 10000 4.6 70 20:19 10.12.2019
2633 Clouds 28 1010 83 10000 4.6 70 20:19 10.12.2019
2634 Clouds 28 1010 83 10000 4.6 70 20:19 10.12.2019
2635 Clouds 28 1010 83 10000 4.6 70 20:19 10.12.2019
2636 Clouds 28 1010 83 10000 4.6 70 20:19 10.12.2019
2637 Clouds 28 1010 83 10000 4.6 70 19:56 10.12.2019
2638 Rain 28 1010 80 0 7.2 63 19:38 10.12.2019
2639 Clouds 29 1011 79 10000 5.7 80 19:20 10.12.2019
2640 Clouds 29 1011 79 10000 5.7 80 18:56 10.12.2019
2641 Rain 28 1010 80 0 7.2 63 18:38 10.12.2019
2642 Clouds 29 1010 79 10000 5.7 80 18:18 10.12.2019
2643 Rain 28 1010 80 0 7.2 63 17:42 10.12.2019
2644 Clouds 29 1010 79 10000 6.7 80 17:23 10.12.2019
2645 Clouds 29 1010 79 10000 6.7 80 16:58 10.12.2019
2646 Rain 28 1010 80 0 6.85 68 16:39 10.12.2019
2647 Clouds 29 1009 79 10000 5.7 90 16:19 10.12.2019
2648 Rain 28 1010 80 0 6.85 68 15:39 10.12.2019
2649 Clouds 29 1008 79 10000 5.7 110 15:19 10.12.2019
2650 Clouds 29 1008 79 10000 5.7 110 14:57 10.12.2019
2651 Rain 28 1010 80 0 6.85 68 14:38 10.12.2019
2652 Clouds 29 1008 79 10000 6.7 80 14:20 10.12.2019
2653 Clouds 29 1008 79 10000 6.7 80 13:58 10.12.2019
2654 Rain 28 1008 79 0 6.52 68 13:40 10.12.2019
2655 Clouds 28 1007 83 10000 4.6 120 13:20 10.12.2019
2656 Clouds 28 1007 83 10000 4.6 120 13:20 10.12.2019
2657 Clouds 28 1007 83 10000 4.6 120 12:49 10.12.2019
2658 Clouds 29 1008 83 10000 5.7 120 12:28 10.12.2019
2659 Clouds 29 1008 83 10000 5.7 120 11:59 10.12.2019
2660 Rain 28 1008 79 0 7.21 64 11:40 10.12.2019
2661 Clouds 31 1008 70 10000 8.2 80 11:21 10.12.2019
2662 Clouds 31 1008 70 10000 8.2 80 10:43 10.12.2019
2663 Clouds 31 1009 70 10000 7.2 80 10:25 10.12.2019
2664 Clouds 31 1009 70 10000 7.2 80 09:57 10.12.2019
2665 Rain 28 1008 79 0 7.37 66 09:39 10.12.2019
2666 Clouds 31 1010 70 10000 7.7 80 09:20 10.12.2019
2667 Clouds 31 1010 70 10000 7.7 80 08:58 10.12.2019
2668 Rain 28 1008 79 0 7.37 66 08:39 10.12.2019
2669 Rain 28 1011 79 0 7.99 74 08:21 10.12.2019
2670 Rain 28 1011 79 0 7.99 74 07:45 10.12.2019
2671 Rain 28 1011 79 0 7.99 74 07:45 10.12.2019
2672 Clouds 31 1011 70 10000 7.7 80 07:27 10.12.2019
2673 Clouds 31 1011 70 10000 7.7 80 06:56 10.12.2019
2674 Rain 28 1011 79 0 7.99 74 06:38 10.12.2019
2675 Clouds 30 1011 74 10000 7.2 80 06:19 10.12.2019
2676 Clouds 30 1011 74 10000 7.2 80 05:51 10.12.2019
2677 Clouds 28 1011 79 0 7.98 68 04:35 10.12.2019
2678 Clouds 28 1010 78 10000 7.2 60 03:27 10.12.2019
2679 Clouds 28 1011 79 0 7.98 68 02:36 10.12.2019
2680 Clouds 28 1009 77 0 7.08 70 01:40 10.12.2019
2681 Clouds 28 1009 78 10000 8.2 70 01:19 10.12.2019
2682 Clouds 28 1009 78 10000 8.7 70 00:31 10.12.2019
2683 Clouds 28 1009 78 10000 8.7 70 23:59 09.12.2019
2684 Clouds 28 1009 77 0 7.02 64 23:39 09.12.2019
2685 Clouds 29 1010 74 10000 8.2 70 23:21 09.12.2019
2686 Clouds 29 1010 74 10000 8.2 70 22:57 09.12.2019
2687 Clouds 28 1009 80 0 7.61 62 22:39 09.12.2019
2688 Clouds 29 1011 79 10000 8.2 70 22:18 09.12.2019
2689 Clouds 29 1011 79 10000 8.2 70 21:56 09.12.2019
2690 Clouds 28 1009 80 0 7.61 62 21:38 09.12.2019
2691 Clouds 29 1011 79 10000 9.3 70 21:18 09.12.2019
2692 Clouds 29 1011 79 10000 9.3 70 20:56 09.12.2019
2693 Clouds 28 1009 80 0 7.61 62 20:37 09.12.2019
2694 Clouds 29 1011 79 10000 7.7 80 20:19 09.12.2019
2695 Clouds 29 1011 79 10000 7.7 80 19:55 09.12.2019
2696 Clouds 28 1011 79 0 7.64 66 19:37 09.12.2019
2697 Clouds 29 1012 79 10000 8.7 80 19:18 09.12.2019
2698 Clouds 29 1012 79 10000 8.7 80 18:55 09.12.2019
2699 Clouds 28 1011 79 0 7.64 66 18:36 09.12.2019
2700 Clouds 29 1011 79 10000 8.7 80 18:18 09.12.2019
2701 Clouds 29 1011 79 10000 8.7 80 18:18 09.12.2019
2702 Clouds 29 1011 79 10000 8.7 80 17:56 09.12.2019
2703 Clouds 28 1011 79 0 7.64 66 17:37 09.12.2019
2704 Clouds 29 1011 79 10000 8.2 80 17:18 09.12.2019
2705 Clouds 29 1011 79 10000 8.2 80 16:54 09.12.2019
2706 Clouds 28 1011 78 0 8.15 66 16:36 09.12.2019
2707 Clouds 29 1010 74 10000 7.2 80 16:18 09.12.2019
2708 Clouds 29 1010 74 10000 7.2 80 15:54 09.12.2019
2709 Clouds 28 1011 78 0 8.15 66 15:36 09.12.2019
2710 Clouds 30 1009 74 10000 6.2 80 15:18 09.12.2019
2711 Clouds 28 1011 78 0 8.15 66 14:42 09.12.2019
2712 Clouds 30 1008 79 10000 6.2 80 14:18 09.12.2019
2713 Clouds 30 1008 79 10000 6.2 80 14:18 09.12.2019
2714 Clouds 30 1008 79 10000 6.2 80 13:56 09.12.2019
2715 Rain 28 1009 80 0 8.19 72 13:38 09.12.2019
2716 Clouds 31 1008 70 10000 6.2 90 13:19 09.12.2019
2717 Clouds 31 1008 70 10000 6.2 90 12:56 09.12.2019
2718 Rain 28 1009 80 0 8 74 12:37 09.12.2019
2719 Clouds 31 1008 70 10000 6.7 90 12:19 09.12.2019
2720 Clouds 31 1008 70 10000 6.7 90 11:55 09.12.2019
2721 Rain 28 1009 80 0 8 74 11:36 09.12.2019
2722 Clouds 32 1009 66 10000 7.2 90 11:18 09.12.2019
2723 Clouds 32 1009 66 10000 7.2 90 10:40 09.12.2019
2724 Clouds 32 1009 66 10000 7.2 90 10:20 09.12.2019
2725 Clouds 30 1010 79 10000 8.2 90 09:56 09.12.2019
2726 Rain 28 1009 81 0 7.84 72 09:38 09.12.2019
2727 Clouds 31 1010 74 10000 8.2 70 09:20 09.12.2019
2728 Rain 28 1009 81 0 7.84 72 08:42 09.12.2019
2729 Clouds 31 1011 70 10000 9.3 80 08:24 09.12.2019
2730 Clouds 31 1011 70 10000 9.3 80 07:56 09.12.2019
2731 Clouds 29 1011 77 0 8.64 75 07:37 09.12.2019
2732 Clouds 31 1012 70 10000 7.2 90 07:19 09.12.2019
2733 Clouds 29 1011 77 0 8.64 75 06:39 09.12.2019
2734 Clouds 31 1012 70 10000 8.2 90 06:21 09.12.2019
2735 Clouds 30 1012 74 10000 8.2 90 05:26 09.12.2019
2736 Clouds 29 1011 79 10000 8.7 90 04:31 09.12.2019
2737 Clouds 29 1010 74 10000 8.7 90 03:19 09.12.2019
2738 Clouds 29 1010 74 10000 8.2 80 02:19 09.12.2019
2739 Clouds 28 1010 77 0 8.65 68 01:41 09.12.2019
2740 Clouds 29 1009 74 10000 8.2 80 00:45 09.12.2019
2741 Clouds 29 1009 79 10000 7.7 80 00:25 09.12.2019
2742 Clouds 28 1010 77 0 9.04 67 23:40 08.12.2019
2743 Clouds 29 1009 79 10000 8.2 80 23:22 08.12.2019
2744 Clouds 29 1009 79 10000 8.2 80 22:57 08.12.2019
2745 Clouds 28 1009 80 0 9.38 66 22:38 08.12.2019
2746 Clouds 29 1009 83 10000 8.7 80 22:19 08.12.2019
2747 Clouds 29 1009 83 10000 8.7 80 21:58 08.12.2019
2748 Clouds 28 1009 80 0 9.38 66 21:40 08.12.2019
2749 Clouds 29 1010 79 10000 8.2 80 21:19 08.12.2019
2750 Clouds 29 1010 79 10000 8.2 80 20:57 08.12.2019
2751 Clouds 28 1009 80 0 9.22 66 20:38 08.12.2019
2752 Clouds 28 1009 80 0 9.38 66 20:38 08.12.2019
2753 Clouds 29 1011 79 10000 9.3 90 20:20 08.12.2019
2754 Clouds 29 1011 79 10000 9.3 90 19:57 08.12.2019
2755 Clouds 28 1011 81 0 8.94 69 19:39 08.12.2019
2756 Clouds 28 1011 83 10000 9.8 80 19:21 08.12.2019
2757 Clouds 28 1011 83 10000 9.8 80 18:55 08.12.2019
2758 Clouds 28 1011 81 0 8.94 69 18:37 08.12.2019
2759 Clouds 28 1011 81 0 8.94 69 18:37 08.12.2019
2760 Clouds 28 1011 88 10000 8.2 90 18:18 08.12.2019
2761 Clouds 28 1011 88 10000 8.2 90 17:56 08.12.2019
2762 Clouds 28 1011 88 10000 8.2 90 17:56 08.12.2019
2763 Clouds 28 1011 81 0 8.94 69 17:38 08.12.2019
2764 Clouds 28 1011 83 10000 8.2 80 17:19 08.12.2019
2765 Clouds 28 1011 83 10000 8.2 80 16:56 08.12.2019
2766 Clouds 28 1011 80 0 7.62 75 16:38 08.12.2019
2767 Clouds 28 1011 88 10000 5.1 70 16:20 08.12.2019
2768 Clouds 28 1011 88 10000 5.1 70 15:54 08.12.2019
2769 Clouds 28 1011 80 0 7.62 75 15:36 08.12.2019
2770 Clouds 28 1011 80 0 7.62 75 15:18 08.12.2019
2771 Clouds 28 1011 80 0 7.62 75 14:40 08.12.2019
2772 Clouds 30 1009 70 10000 5.1 90 14:22 08.12.2019
2773 Clouds 30 1009 70 10000 5.1 90 13:57 08.12.2019
2774 Clouds 28 1009 80 0 6.74 76 13:38 08.12.2019
2775 Clouds 30 1008 74 10000 5.1 80 13:20 08.12.2019
2776 Clouds 30 1008 74 10000 5.1 80 12:54 08.12.2019
2777 Rain 28 1009 80 0 6.82 81 12:36 08.12.2019
2778 Clouds 31 1008 70 10000 4.1 70 12:18 08.12.2019
2779 Rain 28 1009 80 0 6.82 81 11:39 08.12.2019
2780 Rain 28 1009 80 0 6.82 81 11:39 08.12.2019
2781 Clouds 31 1009 70 10000 4.6 80 11:20 08.12.2019
2782 Clouds 31 1009 70 10000 4.6 80 10:59 08.12.2019
2783 Rain 28 1008 79 0 7.44 84 10:38 08.12.2019
2784 Clouds 31 1010 74 10000 4.1 80 10:20 08.12.2019
2785 Clouds 31 1010 74 10000 4.1 80 09:57 08.12.2019
2786 Rain 28 1008 79 0 7.44 84 09:39 08.12.2019
2787 Clouds 31 1011 70 10000 4.1 70 09:20 08.12.2019
2788 Clouds 31 1011 70 10000 4.1 70 08:58 08.12.2019
2789 Rain 28 1008 79 0 7.44 84 08:38 08.12.2019
2790 Clouds 30 1012 74 10000 5.1 70 08:19 08.12.2019
2791 Clouds 30 1012 74 10000 5.1 70 07:44 08.12.2019
2792 Clouds 30 1012 79 10000 6.2 90 07:20 08.12.2019
2793 Clouds 30 1012 79 10000 6.2 90 06:51 08.12.2019
2794 Clouds 30 1012 79 10000 4.1 90 06:22 08.12.2019
2795 Clouds 30 1012 79 10000 4.1 90 05:49 08.12.2019
2796 Clouds 29 1012 83 10000 6.2 90 05:18 08.12.2019
2797 Clouds 28 1011 88 10000 5.7 80 03:50 08.12.2019
2798 Clouds 28 1010 83 10000 7.2 90 03:26 08.12.2019
2799 Clouds 28 1011 76 0 6.25 75 02:39 08.12.2019
2800 Clouds 26 1010 94 10000 4.6 70 01:56 08.12.2019
2801 Rain 27 1010 88 9000 7.2 90 01:27 08.12.2019
2802 Rain 28 1010 80 0 6.4 90 00:40 08.12.2019
2803 Clouds 28 1009 83 10000 5.7 110 00:21 08.12.2019
2804 Rain 28 1010 80 0 6.4 90 23:42 07.12.2019
2805 Clouds 28 1010 88 10000 6.2 80 23:21 07.12.2019
2806 Clouds 28 1010 88 10000 6.2 80 22:58 07.12.2019
2807 Clouds 28 1008 79 0 7.66 97 22:40 07.12.2019
2808 Clouds 28 1008 79 0 7.66 97 22:40 07.12.2019
2809 Clouds 28 1008 79 0 7.66 97 22:40 07.12.2019
2810 Clouds 28 1008 79 0 7.66 97 22:40 07.12.2019
2811 Clouds 28 1008 79 0 7.66 97 22:40 07.12.2019
2812 Clouds 28 1010 83 10000 6.7 90 22:22 07.12.2019
2813 Clouds 28 1010 83 10000 6.7 90 21:56 07.12.2019
2814 Clouds 28 1008 79 0 7.66 97 21:38 07.12.2019
2815 Clouds 28 1011 83 10000 6.7 90 21:20 07.12.2019
2816 Clouds 28 1011 83 10000 6.7 90 20:59 07.12.2019
2817 Clouds 28 1008 79 0 7.66 97 20:37 07.12.2019
2818 Clouds 28 1011 83 10000 6.7 90 20:18 07.12.2019
2819 Clouds 28 1011 83 10000 6.7 90 19:56 07.12.2019
2820 Clouds 28 1010 80 0 8.73 92 19:38 07.12.2019
2821 Rain 27 1012 83 9000 7.2 90 19:20 07.12.2019
2822 Rain 27 1012 83 9000 7.2 90 18:44 07.12.2019
2823 Rain 27 1011 88 6000 7.7 90 18:21 07.12.2019
2824 Rain 27 1011 88 6000 7.7 90 17:59 07.12.2019
2825 Clouds 28 1010 80 0 8.73 92 17:41 07.12.2019
2826 Clouds 28 1011 78 10000 5.7 80 17:23 07.12.2019
2827 Clouds 28 1011 78 10000 5.7 80 16:58 07.12.2019
2828 Clouds 28 1010 79 0 8.11 81 16:39 07.12.2019
2829 Clouds 28 1010 88 10000 6.2 90 16:20 07.12.2019
2830 Clouds 28 1010 88 10000 6.2 90 15:57 07.12.2019
2831 Clouds 28 1010 79 0 8.11 81 15:38 07.12.2019
2832 Clouds 28 1010 79 0 8.11 81 15:38 07.12.2019
2833 Clouds 29 1009 74 10000 6.2 80 15:20 07.12.2019
2834 Clouds 28 1010 79 0 8.11 81 14:42 07.12.2019
2835 Clouds 29 1008 79 10000 6.7 90 14:19 07.12.2019
2836 Clouds 29 1008 79 10000 6.7 90 13:56 07.12.2019
2837 Clouds 29 1008 79 10000 6.7 90 13:56 07.12.2019
2838 Clouds 28 1009 80 0 8.22 66 13:37 07.12.2019
2839 Clouds 30 1008 74 10000 7.2 90 13:19 07.12.2019
2840 Clouds 28 1009 80 0 8.4 63 12:41 07.12.2019
2841 Clouds 29 1008 79 10000 7.2 90 12:23 07.12.2019
2842 Clouds 29 1008 79 10000 7.2 90 11:58 07.12.2019
2843 Clouds 28 1009 80 0 8.4 63 11:40 07.12.2019
2844 Clouds 29 1008 79 10000 7.7 80 11:22 07.12.2019
2845 Clouds 28 1007 81 0 7.11 52 10:39 07.12.2019
2846 Clouds 28 1007 81 0 7.11 52 10:39 07.12.2019
2847 Clouds 30 1009 70 10000 7.2 80 10:20 07.12.2019
2848 Clouds 30 1009 70 10000 7.2 80 09:59 07.12.2019
2849 Clouds 28 1007 81 0 7.11 52 09:38 07.12.2019
2850 Clouds 29 1010 70 10000 6.7 80 09:20 07.12.2019
2851 Clouds 29 1010 70 10000 6.7 80 08:45 07.12.2019
2852 Clouds 29 1010 70 10000 5.7 80 08:21 07.12.2019
2853 Clouds 29 1010 70 10000 5.7 80 07:47 07.12.2019
2854 Clouds 28 1011 74 10000 4.6 80 07:28 07.12.2019
2855 Clouds 28 1011 74 10000 4.6 80 06:52 07.12.2019
2856 Clouds 27 1012 83 9000 6.7 80 06:25 07.12.2019
2857 Clouds 27 1012 83 9000 6.7 80 05:44 07.12.2019
2858 Rain 28 1011 81 0 4.24 88 04:41 07.12.2019
2859 Rain 26 1011 83 9000 5.7 60 03:49 07.12.2019
2860 Rain 27 1010 86 0 6.03 68 02:22 07.12.2019
2861 Rain 27 1010 86 0 6.03 68 01:41 07.12.2019
2862 Thunderstorm 26 1009 88 8000 10.8 90 01:22 07.12.2019
2863 Thunderstorm 26 1009 94 8000 9.3 90 00:21 07.12.2019
2864 Thunderstorm 26 1009 94 8000 9.3 90 23:57 06.12.2019
2865 Thunderstorm 26 1009 94 8000 9.3 90 23:57 06.12.2019
2866 Rain 26 1010 87 0 5.01 80 23:39 06.12.2019
2867 Rain 26 1010 87 0 5.01 80 23:39 06.12.2019
2868 Thunderstorm 27 1009 88 8000 7.2 110 23:19 06.12.2019
2869 Rain 27 1008 81 0 9.26 68 22:39 06.12.2019
2870 Rain 27 1008 81 0 9.26 68 22:21 06.12.2019
2871 Rain 27 1008 81 0 9.26 68 21:59 06.12.2019
2872 Rain 27 1008 81 0 9.26 68 21:40 06.12.2019
2873 Clouds 28 1010 83 10000 8.7 80 21:20 06.12.2019
2874 Clouds 28 1010 83 10000 8.7 80 20:47 06.12.2019
2875 Rain 27 1008 82 0 10.42 60 20:27 06.12.2019
2876 Rain 28 1011 78 0 8.85 73 19:59 06.12.2019
2877 Rain 28 1011 78 0 8.85 73 19:40 06.12.2019
2878 Thunderstorm 28 1012 88 10000 5.1 90 19:22 06.12.2019
2879 Thunderstorm 28 1012 88 10000 5.1 90 18:59 06.12.2019
2880 Rain 28 1011 78 0 8.85 73 18:40 06.12.2019
2881 Thunderstorm 28 1012 83 10000 6.2 90 18:21 06.12.2019
2882 Thunderstorm 28 1012 83 10000 6.2 90 17:58 06.12.2019
2883 Rain 28 1011 78 0 8.85 73 17:40 06.12.2019
2884 Thunderstorm 28 1011 88 10000 8.2 90 17:21 06.12.2019
2885 Thunderstorm 28 1011 88 10000 8.2 90 16:56 06.12.2019
2886 Rain 28 1010 76 0 6.97 74 16:37 06.12.2019
2887 Thunderstorm 28 1010 88 10000 7.7 90 16:18 06.12.2019
2888 Rain 28 1010 76 0 6.97 74 15:41 06.12.2019
2889 Rain 28 1010 76 0 6.97 74 15:41 06.12.2019
2890 Rain 28 1010 76 0 6.97 74 15:22 06.12.2019
2891 Rain 28 1010 76 0 6.97 74 14:57 06.12.2019
2892 Rain 28 1010 76 0 6.97 74 14:39 06.12.2019
2893 Clouds 30 1008 74 10000 4.1 110 14:19 06.12.2019
2894 Clouds 30 1008 74 10000 4.1 110 13:46 06.12.2019
2895 Clouds 30 1008 74 10000 4.1 110 13:46 06.12.2019
2896 Clouds 31 1008 70 10000 5.1 120 13:26 06.12.2019
2897 Clouds 31 1008 70 10000 5.1 120 12:56 06.12.2019
2898 Rain 28 1009 78 0 8.01 82 12:38 06.12.2019
2899 Clouds 31 1007 70 10000 4.6 120 12:20 06.12.2019
2900 Rain 28 1009 78 0 8.01 82 11:42 06.12.2019
2901 Clouds 31 1008 70 10000 4.6 120 11:23 06.12.2019
2902 Clouds 31 1008 70 10000 4.6 120 10:55 06.12.2019
2903 Rain 28 1008 77 0 6.25 105 10:37 06.12.2019
2904 Clouds 31 1009 70 10000 6.2 120 10:19 06.12.2019
2905 Clouds 31 1009 70 10000 6.2 120 09:55 06.12.2019
2906 Rain 28 1008 77 0 6.25 105 09:36 06.12.2019
2907 Rain 28 1008 77 0 6.25 105 09:36 06.12.2019
2908 Clouds 31 1010 70 0 4.6 120 09:18 06.12.2019
2909 Rain 28 1008 77 0 6.25 105 08:40 06.12.2019
2910 Clouds 30 1011 74 10000 5.1 120 08:22 06.12.2019
2911 Rain 28 1011 81 0 8.32 85 07:38 06.12.2019
2912 Clouds 30 1011 79 10000 6.2 120 07:20 06.12.2019
2913 Clouds 30 1011 79 10000 6.2 120 06:48 06.12.2019
2914 Clouds 28 1012 88 10000 4.6 120 06:24 06.12.2019
2915 Clouds 28 1012 88 10000 4.6 120 05:47 06.12.2019
2916 Clouds 28 1009 78 10000 6.7 110 02:44 06.12.2019
2917 Clouds 28 1009 83 10000 6.2 110 01:43 06.12.2019
2918 Clouds 28 1008 83 10000 6.2 110 00:50 06.12.2019
2919 Clouds 28 1008 83 10000 6.7 110 00:23 06.12.2019
2920 Clouds 28 1008 83 10000 6.7 110 23:51 05.12.2019
2921 Clouds 28 1009 83 10000 5.1 120 23:20 05.12.2019
2922 Clouds 28 1009 83 10000 5.1 120 22:58 05.12.2019
2923 Clouds 28 1009 83 10000 5.1 120 22:58 05.12.2019
2924 Rain 28 1009 81 0 8.21 79 22:39 05.12.2019
2925 Clouds 28 1009 83 10000 6.2 120 22:19 05.12.2019
2926 Clouds 28 1009 83 10000 6.2 120 21:57 05.12.2019
2927 Rain 28 1009 81 0 8.21 79 21:39 05.12.2019
2928 Clouds 28 1010 83 10000 4.6 120 21:20 05.12.2019
2929 Clouds 28 1010 83 10000 4.6 120 20:56 05.12.2019
2930 Clouds 28 1010 83 10000 4.6 120 20:38 05.12.2019
2931 Clouds 28 1010 83 10000 4.6 120 20:38 05.12.2019
2932 Clouds 28 1011 78 10000 5.1 120 20:18 05.12.2019
2933 Clouds 28 1011 78 10000 5.1 120 20:18 05.12.2019
2934 Clouds 28 1011 78 10000 5.1 120 19:41 05.12.2019
2935 Clouds 28 1011 83 10000 4.6 120 19:22 05.12.2019
2936 Clouds 28 1011 83 10000 4.6 120 18:59 05.12.2019
2937 Rain 28 1011 82 0 7.87 68 18:39 05.12.2019
2938 Clouds 28 1011 83 10000 4.6 110 18:20 05.12.2019
2939 Clouds 28 1011 83 10000 4.6 110 17:56 05.12.2019
2940 Rain 28 1011 82 0 7.87 68 17:37 05.12.2019
2941 Clouds 28 1010 83 10000 3.6 80 17:18 05.12.2019
2942 Clouds 28 1010 83 10000 3.6 80 16:40 05.12.2019
2943 Clouds 28 1009 83 10000 4.1 70 16:22 05.12.2019
2944 Clouds 28 1009 83 10000 4.1 70 15:59 05.12.2019
2945 Clouds 28 1009 83 10000 4.1 70 15:40 05.12.2019
2946 Clouds 28 1009 88 10000 5.1 30 15:21 05.12.2019
2947 Clouds 28 1009 88 10000 5.1 30 14:57 05.12.2019
2948 Rain 28 1011 79 0 7.73 72 14:38 05.12.2019
2949 Rain 29 1008 79 10000 6.2 70 14:20 05.12.2019
2950 Rain 29 1008 79 10000 6.2 70 13:58 05.12.2019
2951 Rain 29 1008 79 10000 6.2 70 13:40 05.12.2019
2952 Rain 29 1008 79 10000 6.2 70 13:21 05.12.2019
2953 Rain 29 1008 79 10000 6.2 70 12:59 05.12.2019
2954 Clouds 27 1009 76 0 4.7 37 12:40 05.12.2019
2955 Clouds 30 1008 74 10000 5.7 60 12:21 05.12.2019
2956 Clouds 30 1008 74 10000 5.7 60 11:55 05.12.2019
2957 Clouds 27 1009 76 0 4.7 37 11:36 05.12.2019
2958 Clouds 30 1009 70 10000 7.2 60 11:18 05.12.2019
2959 Clouds 30 1009 70 10000 7.2 60 10:54 05.12.2019
2960 Clouds 27 1008 79 0 5.79 27 10:36 05.12.2019
2961 Clouds 30 1010 70 10000 6.7 50 10:18 05.12.2019
2962 Clouds 27 1008 79 0 5.79 27 09:42 05.12.2019
2963 Clouds 30 1011 70 10000 7.7 90 09:20 05.12.2019
2964 Clouds 30 1011 70 10000 7.7 90 08:57 05.12.2019
2965 Clouds 27 1008 79 0 5.79 27 08:37 05.12.2019
2966 Clouds 30 1012 70 10000 7.2 60 08:19 05.12.2019
2967 Clouds 27 1011 79 0 3.95 29 07:44 05.12.2019
2968 Clouds 29 1013 74 10000 6.7 70 07:24 05.12.2019
2969 Clouds 29 1013 74 10000 6.7 70 06:49 05.12.2019
2970 Clouds 29 1013 79 10000 6.2 60 06:24 05.12.2019
2971 Clouds 29 1013 79 10000 6.2 60 05:58 05.12.2019
2972 Clouds 27 1011 79 0 3.95 29 05:38 05.12.2019
2973 Clouds 28 1012 78 10000 6.2 60 05:18 05.12.2019
2974 Rain 27 1011 83 10000 6.7 50 03:43 05.12.2019
2975 Rain 27 1010 83 10000 6.2 50 02:42 05.12.2019
2976 -273 0 0 0 0 0 02:23 05.12.2019
2977 Rain 27 1010 83 10000 7.7 60 01:51 05.12.2019
2978 Rain 27 1010 83 10000 7.7 60 01:51 05.12.2019
2979 Clouds 27 1009 83 10000 7.2 60 01:24 05.12.2019
2980 Clouds 27 1009 83 10000 7.2 60 00:46 05.12.2019
2981 Rain 27 1009 83 10000 9.3 70 00:22 05.12.2019
2982 Rain 27 1009 83 10000 9.3 70 23:56 04.12.2019
2983 Clouds 27 1010 82 0 8.9 51 23:37 04.12.2019
2984 Rain 27 1010 78 9000 7.2 70 23:19 04.12.2019
2985 Rain 26 1009 85 0 7.98 72 22:39 04.12.2019
2986 Clouds 27 1010 88 10000 7.2 70 22:20 04.12.2019
2987 Clouds 27 1010 88 10000 7.2 70 21:58 04.12.2019
2988 Rain 26 1009 85 0 7.98 72 21:39 04.12.2019
2989 Clouds 27 1011 88 10000 8.7 80 21:20 04.12.2019
2990 Clouds 27 1011 88 10000 8.7 80 20:59 04.12.2019
2991 Clouds 27 1011 88 10000 8.7 80 20:40 04.12.2019
2992 Clouds 27 1011 88 10000 8.7 80 20:40 04.12.2019
2993 Rain 28 1011 78 10000 8.7 70 20:22 04.12.2019
2994 Rain 28 1011 78 10000 8.7 70 19:59 04.12.2019
2995 Rain 26 1012 83 0 10.78 51 19:38 04.12.2019
2996 Clouds 27 1012 78 10000 7.2 60 19:20 04.12.2019
2997 Clouds 27 1012 78 10000 7.2 60 18:56 04.12.2019
2998 Rain 26 1012 83 0 10.78 51 18:38 04.12.2019
2999 Rain 27 1012 83 10000 6.2 50 18:20 04.12.2019
3000 Rain 26 1012 83 0 10.78 51 17:40 04.12.2019
3001 Rain 27 1012 88 10000 7.2 70 17:21 04.12.2019
3002 Rain 27 1012 88 10000 7.2 70 16:59 04.12.2019
3003 Rain 26 1011 85 0 8.77 68 16:39 04.12.2019
3004 Clouds 27 1011 88 10000 5.1 70 16:19 04.12.2019
3005 Clouds 27 1011 88 10000 5.1 70 15:55 04.12.2019
3006 Rain 26 1011 85 0 8.77 68 15:37 04.12.2019
3007 Rain 27 1010 88 10000 4.6 50 15:19 04.12.2019
3008 Rain 27 1010 88 10000 4.6 50 14:44 04.12.2019
3009 Clouds 28 1009 83 10000 6.2 60 14:23 04.12.2019
3010 Clouds 28 1009 83 10000 6.2 60 13:58 04.12.2019
3011 Rain 26 1009 90 0 7.68 71 13:38 04.12.2019
3012 Clouds 28 1008 78 10000 6.2 80 13:19 04.12.2019
3013 Clouds 28 1008 78 10000 6.2 80 12:44 04.12.2019
3014 Clouds 28 1008 83 10000 7.2 80 12:25 04.12.2019
3015 Clouds 28 1008 83 10000 7.2 80 11:56 04.12.2019
3016 Rain 26 1010 88 0 7.46 68 11:38 04.12.2019
3017 Clouds 28 1009 83 10000 7.7 70 11:20 04.12.2019
3018 Clouds 28 1009 83 10000 7.7 70 10:44 04.12.2019
3019 Clouds 29 1011 79 10000 3.1 50 10:23 04.12.2019
3020 Clouds 29 1011 79 10000 3.1 50 09:57 04.12.2019
3021 Rain 26 1008 86 0 9.54 50 09:38 04.12.2019
3022 Clouds 29 1011 79 10000 3.1 50 09:19 04.12.2019
3023 Clouds 29 1011 79 10000 3.1 50 08:40 04.12.2019
3024 Clouds 29 1011 79 10000 3.1 50 08:22 04.12.2019
3025 Clouds 29 1011 79 10000 3.1 50 07:48 04.12.2019
3026 Drizzle 29 1011 79 10000 2.6 20 07:30 04.12.2019
3027 Drizzle 29 1011 79 10000 2.6 20 06:43 04.12.2019
3028 Clouds 29 1011 79 10000 1 0 06:24 04.12.2019
3029 Clouds 29 1011 79 10000 1 0 05:42 04.12.2019
3030 Clouds 27 1010 83 10000 2.1 290 04:30 04.12.2019
3031 Clouds 27 1010 88 10000 1 0 02:55 04.12.2019
3032 Clouds 27 1008 88 10000 1.5 60 00:53 04.12.2019
3033 Clouds 27 1008 83 10000 2.6 30 00:28 04.12.2019
3034 Clouds 27 1008 83 10000 2.6 30 23:59 03.12.2019
3035 Clouds 27 1008 83 10000 2.6 30 23:41 03.12.2019
3036 Rain 28 1008 80 0 2.72 39 23:19 03.12.2019
3037 Rain 28 1008 80 0 2.72 39 22:41 03.12.2019
3038 Thunderstorm 26 1009 88 9000 6.2 90 22:19 03.12.2019
3039 Thunderstorm 26 1009 88 9000 6.2 90 21:59 03.12.2019
3040 Rain 28 1008 80 0 2.72 39 21:39 03.12.2019
3041 Thunderstorm 26 1010 88 9000 8.7 90 21:19 03.12.2019
3042 Thunderstorm 26 1010 88 9000 8.7 90 20:58 03.12.2019
3043 Thunderstorm 26 1010 88 9000 8.7 90 20:40 03.12.2019
3044 Rain 27 1010 88 8000 8.2 90 20:19 03.12.2019
3045 Rain 27 1010 88 8000 8.2 90 19:55 03.12.2019
3046 Clouds 28 1010 80 0 4.59 82 19:37 03.12.2019
3047 Rain 26 1011 94 6000 4.6 70 19:19 03.12.2019
3048 Rain 26 1011 94 6000 4.6 70 18:56 03.12.2019
3049 Clouds 28 1010 80 0 4.59 82 18:38 03.12.2019
3050 Clouds 29 1010 79 10000 2.6 10 18:20 03.12.2019
3051 Clouds 29 1010 79 10000 2.6 10 17:56 03.12.2019
3052 Clouds 28 1010 80 0 4.59 82 17:36 03.12.2019
3053 Clouds 29 1010 79 10000 2.6 60 17:18 03.12.2019
3054 Clouds 29 1010 79 10000 2.6 60 16:56 03.12.2019
3055 Clouds 28 1009 80 0 5.55 79 16:38 03.12.2019
3056 Clouds 29 1009 79 10000 2.6 60 16:19 03.12.2019
3057 Clouds 29 1009 79 10000 2.6 60 15:54 03.12.2019
3058 Clouds 28 1009 80 0 5.55 79 15:36 03.12.2019
3059 Clouds 29 1008 79 10000 3.6 60 15:18 03.12.2019
3060 Clouds 29 1008 79 10000 3.6 60 14:42 03.12.2019
3061 Clouds 30 1007 70 10000 3.1 80 14:20 03.12.2019
3062 Clouds 30 1007 70 10000 3.1 80 14:20 03.12.2019
3063 Clouds 30 1007 70 10000 3.1 80 13:56 03.12.2019
3064 Clouds 29 1008 77 0 4.86 83 13:36 03.12.2019
3065 Clouds 30 1007 74 10000 3.6 80 13:18 03.12.2019
3066 Clouds 28 1007 77 0 5.08 87 12:40 03.12.2019
3067 Clouds 31 1007 70 10000 3.6 70 12:18 03.12.2019
3068 Clouds 31 1007 70 10000 3.6 70 12:18 03.12.2019
3069 Clouds 31 1007 70 10000 3.6 70 11:58 03.12.2019
3070 Clouds 28 1007 77 0 5.08 87 11:39 03.12.2019
3071 Clouds 31 1007 70 10000 4.1 80 11:20 03.12.2019
3072 Clouds 31 1007 70 10000 4.1 80 10:58 03.12.2019
3073 Clouds 28 1007 78 0 4.72 88 10:40 03.12.2019
3074 Clouds 31 1008 74 10000 4.6 80 10:19 03.12.2019
3075 Clouds 31 1008 74 10000 4.6 80 09:46 03.12.2019
3076 Clouds 31 1009 74 10000 4.6 80 09:25 03.12.2019
3077 Clouds 31 1009 74 10000 4.6 80 08:59 03.12.2019
3078 Clouds 28 1007 78 0 4.72 88 08:40 03.12.2019
3079 Clouds 31 1010 74 10000 5.1 90 08:21 03.12.2019
3080 -273 0 0 0 0 0 07:53 03.12.2019
3081 Clouds 31 1010 74 10000 5.1 90 07:53 03.12.2019
3082 Clouds 30 1010 74 10000 4.6 80 07:30 03.12.2019
3083 Clouds 30 1010 74 10000 4.6 80 06:59 03.12.2019
3084 Clouds 30 1011 74 10000 5.7 90 06:21 03.12.2019
3085 Clouds 30 1011 74 10000 5.7 90 05:56 03.12.2019
3086 Clouds 28 1009 88 10000 4.6 90 03:45 03.12.2019
3087 Clouds 28 1008 83 10000 5.1 100 03:23 03.12.2019
3088 Clouds 28 1008 83 10000 5.1 100 02:58 03.12.2019
3089 Rain 28 1010 79 0 4.79 103 02:40 03.12.2019
3090 Clouds 28 1008 83 10000 4.1 90 02:21 03.12.2019
3091 Clouds 28 1008 83 10000 4.1 90 01:41 03.12.2019
3092 Clouds 27 1008 94 10000 2.6 70 01:21 03.12.2019
3093 Clouds 27 1008 94 10000 2.6 70 00:43 03.12.2019
3094 Rain 26 1008 88 10000 5.7 90 00:25 03.12.2019
3095 Rain 26 1008 88 10000 5.7 90 23:44 02.12.2019
3096 Clouds 26 1008 94 10000 3.6 100 23:22 02.12.2019
3097 Clouds 26 1008 94 10000 3.6 100 22:59 02.12.2019
3098 Clouds 28 1007 79 0 4.56 116 22:39 02.12.2019
3099 Rain 25 1009 88 8000 2.6 120 22:21 02.12.2019
3100 Rain 25 1009 88 8000 2.6 120 21:57 02.12.2019
3101 Clouds 28 1007 79 0 4.56 116 21:36 02.12.2019
3102 Clouds 28 1009 88 10000 4.1 90 21:18 02.12.2019
3103 Clouds 28 1009 88 10000 4.1 90 20:55 02.12.2019
3104 Clouds 28 1007 79 0 4.56 116 20:37 02.12.2019
3105 Clouds 28 1007 79 0 4.56 116 20:37 02.12.2019
3106 Clouds 28 1010 83 10000 2.6 140 20:18 02.12.2019
3107 Clouds 28 1010 83 10000 2.6 140 19:42 02.12.2019
3108 Clouds 29 1011 79 10000 4.6 120 19:21 02.12.2019
3109 Clouds 29 1011 79 10000 4.6 120 18:56 02.12.2019
3110 Rain 28 1010 80 0 5.34 121 18:37 02.12.2019
3111 Clouds 29 1011 79 10000 4.1 120 18:18 02.12.2019
3112 Clouds 29 1011 79 10000 4.1 120 17:42 02.12.2019
3113 Clouds 29 1010 79 10000 3.6 130 17:22 02.12.2019
3114 Clouds 29 1010 79 10000 3.6 130 16:59 02.12.2019
3115 Clouds 28 1009 79 0 4.22 133 16:39 02.12.2019
3116 Clouds 29 1009 79 10000 3.1 130 16:19 02.12.2019
3117 Clouds 29 1009 79 10000 3.1 130 15:57 02.12.2019
3118 Clouds 28 1009 79 0 4.22 133 15:39 02.12.2019
3119 Clouds 28 1008 83 10000 1.5 120 15:21 02.12.2019
3120 Clouds 28 1008 83 10000 1.5 120 14:56 02.12.2019
3121 Clouds 28 1009 79 0 4.22 133 14:37 02.12.2019
3122 Clouds 28 1008 83 10000 2.6 130 14:19 02.12.2019
3123 -273 0 0 0 0 0 13:55 02.12.2019
3124 Rain 28 1008 78 0 4.1 148 13:37 02.12.2019
3125 Clouds 28 1007 88 10000 2.6 100 13:18 02.12.2019
3126 Clouds 28 1007 88 10000 2.6 100 12:42 02.12.2019
3127 Rain 27 1007 94 10000 4.1 100 12:21 02.12.2019
3128 Rain 27 1007 94 10000 4.1 100 11:57 02.12.2019
3129 Rain 28 1008 77 0 4.28 158 11:38 02.12.2019
3130 Rain 26 1008 88 8000 5.1 120 11:19 02.12.2019
3131 Rain 26 1008 88 8000 5.1 120 10:57 02.12.2019
3132 Rain 26 1008 88 8000 5.1 120 10:57 02.12.2019
3133 Rain 28 1007 80 0 4.77 161 10:39 02.12.2019
3134 Rain 27 1009 94 8000 4.6 140 10:21 02.12.2019
3135 Rain 27 1009 94 8000 4.6 140 10:21 02.12.2019
3136 Rain 27 1009 94 8000 4.6 140 09:56 02.12.2019
3137 Rain 28 1007 80 0 4.77 161 09:38 02.12.2019
3138 Clouds 30 1010 79 10000 2.6 140 09:18 02.12.2019
3139 Clouds 30 1010 79 10000 2.6 140 08:42 02.12.2019
3140 Clouds 31 1010 74 10000 2.1 140 08:23 02.12.2019
3141 Clouds 31 1010 74 10000 2.1 140 07:59 02.12.2019
3142 Rain 28 1010 79 0 4.1 161 07:38 02.12.2019
3143 Clouds 30 1011 79 10000 2.1 140 07:19 02.12.2019
3144 Rain 28 1010 79 0 4.1 161 06:40 02.12.2019
3145 Clouds 29 1011 79 10000 2.1 140 05:45 02.12.2019
3146 Clouds 28 1010 83 10000 0.5 0 05:18 02.12.2019
3147 Clouds 26 1009 94 10000 1 0 03:19 02.12.2019
3148 Clouds 26 1009 94 10000 1 0 02:47 02.12.2019
3149 Clouds 26 1009 94 10000 2.1 210 01:46 02.12.2019
3150 Rain 26 1008 94 8000 2.6 220 01:19 02.12.2019
3151 Rain 28 1009 78 0 4.22 173 00:34 02.12.2019
3152 Rain 25 1009 94 8000 2.1 210 23:59 01.12.2019
3153 Rain 25 1009 94 8000 2.1 210 23:41 01.12.2019
3154 Rain 28 1008 77 0 3.85 186 23:21 01.12.2019
3155 Rain 28 1008 77 0 3.85 186 22:56 01.12.2019
3156 Rain 28 1008 77 0 3.85 186 22:38 01.12.2019
3157 Rain 28 1008 77 0 3.85 186 22:19 01.12.2019
3158 Rain 28 1008 77 0 3.85 186 21:56 01.12.2019
3159 Rain 28 1008 77 0 3.85 186 21:56 01.12.2019
3160 Rain 28 1008 77 0 3.85 186 21:38 01.12.2019
3161 Rain 28 1008 77 0 3.85 186 21:19 01.12.2019
3162 Rain 28 1008 77 0 3.85 186 20:58 01.12.2019
3163 Rain 28 1008 77 0 3.85 186 20:39 01.12.2019
3164 Clouds 28 1010 78 0 4.84 188 20:21 01.12.2019
3165 Clouds 28 1010 78 0 4.32 177 19:57 01.12.2019
3166 Clouds 28 1010 78 0 4.32 177 19:38 01.12.2019
3167 Clouds 28 1011 83 10000 2.1 170 19:20 01.12.2019
3168 Clouds 28 1011 83 10000 2.1 170 18:55 01.12.2019
3169 Clouds 28 1010 78 0 4.32 177 18:37 01.12.2019
3170 Clouds 28 1010 78 0 4.32 177 18:37 01.12.2019
3171 Clouds 28 1010 78 0 4.32 177 18:37 01.12.2019
3172 Clouds 29 1011 74 10000 4.1 200 18:18 01.12.2019
3173 Clouds 29 1011 74 10000 4.1 200 17:56 01.12.2019
3174 Clouds 28 1010 78 0 4.32 177 17:38 01.12.2019
3175 Clouds 29 1011 74 10000 4.6 210 17:19 01.12.2019
3176 Clouds 29 1011 74 10000 4.6 210 16:44 01.12.2019
3177 Clouds 29 1009 74 10000 4.6 200 16:25 01.12.2019
3178 Clouds 29 1009 74 10000 4.6 200 15:58 01.12.2019
3179 Clouds 29 1009 74 10000 4.6 200 15:40 01.12.2019
3180 Clouds 29 1009 74 10000 4.6 200 15:40 01.12.2019
3181 Clouds 29 1009 74 10000 4.6 210 15:22 01.12.2019
3182 Clouds 28 1010 78 0 4.64 180 14:38 01.12.2019
3183 Clouds 30 1008 70 10000 5.1 210 14:19 01.12.2019
3184 Clouds 30 1008 70 10000 5.1 210 13:40 01.12.2019
3185 Clouds 31 1008 70 10000 5.1 180 13:22 01.12.2019
3186 Clouds 31 1008 70 10000 5.1 180 12:58 01.12.2019
3187 Clouds 28 1008 77 0 4.46 169 12:40 01.12.2019
3188 Clouds 28 1008 77 0 4.46 169 12:40 01.12.2019
3189 Clouds 28 1008 77 0 4.46 169 12:40 01.12.2019
3190 Clouds 28 1008 77 0 4.46 169 12:40 01.12.2019
3191 Clouds 31 1008 70 10000 4.6 210 11:44 01.12.2019
3192 Clouds 32 1008 66 10000 4.6 210 11:24 01.12.2019
3193 Clouds 32 1008 66 10000 4.6 210 10:55 01.12.2019
3194 Clouds 32 1008 66 10000 4.6 210 10:55 01.12.2019
3195 Clouds 28 1008 77 0 4.45 150 10:37 01.12.2019
3196 Clouds 31 1009 70 10000 5.1 200 10:19 01.12.2019
3197 Clouds 31 1009 70 10000 5.1 200 09:41 01.12.2019
3198 Clouds 31 1010 70 10000 4.6 210 09:22 01.12.2019
3199 Clouds 31 1010 70 10000 4.6 210 08:49 01.12.2019
3200 Clouds 31 1010 66 10000 4.6 200 08:24 01.12.2019
3201 Clouds 31 1010 66 10000 4.6 200 07:54 01.12.2019
3202 Clouds 28 1010 76 0 4.14 158 07:36 01.12.2019
3203 Clouds 31 1011 70 10000 3.6 200 07:18 01.12.2019
3204 Clouds 31 1011 70 10000 3.6 200 06:49 01.12.2019
3205 Clouds 30 1011 74 10000 3.6 210 05:58 01.12.2019
3206 Clouds 29 1010 79 10000 2.6 160 04:55 01.12.2019
3207 Rain 28 1010 78 9000 2.6 150 04:27 01.12.2019
3208 Clouds 27 1010 83 10000 2.6 170 02:44 01.12.2019
3209 Clouds 27 1009 83 10000 3.1 200 02:26 01.12.2019
3210 Clouds 27 1009 83 10000 3.1 200 01:53 01.12.2019
3211 Clouds 27 1009 83 10000 3.1 210 01:29 01.12.2019
3212 Clouds 27 1009 83 10000 3.1 210 00:45 01.12.2019
3213 Clouds 27 1008 83 10000 3.6 200 00:26 01.12.2019
3214 Clouds 27 1008 83 10000 3.6 200 23:47 30.11.2019
3215 Clouds 27 1009 83 10000 3.1 200 23:25 30.11.2019
3216 Clouds 27 1009 83 10000 3.1 200 22:59 30.11.2019
3217 Rain 26 1008 84 0 3.06 303 22:39 30.11.2019
3218 Clouds 27 1009 83 10000 2.1 200 22:20 30.11.2019
3219 Clouds 27 1009 83 10000 2.1 200 21:47 30.11.2019
3220 Clouds 27 1010 88 10000 2.1 210 21:28 30.11.2019
3221 Clouds 27 1010 88 10000 2.1 210 20:58 30.11.2019
3222 Clouds 27 1010 88 10000 2.1 210 20:40 30.11.2019
3223 Clouds 27 1010 83 10000 1.5 220 20:19 30.11.2019
3224 Clouds 27 1010 83 10000 1.5 220 19:56 30.11.2019
3225 Rain 26 1010 85 0 3.48 277 19:38 30.11.2019
3226 Clouds 27 1010 83 10000 1.5 280 19:20 30.11.2019
3227 Clouds 27 1010 83 10000 1.5 280 18:59 30.11.2019
3228 Rain 26 1010 85 0 3.48 277 18:38 30.11.2019
3229 Clouds 27 1010 83 10000 2.6 280 18:20 30.11.2019
3230 Clouds 27 1010 83 10000 2.6 280 17:58 30.11.2019
3231 Rain 26 1010 85 0 3.48 277 17:39 30.11.2019
3232 Clouds 28 1009 78 10000 3.1 290 17:21 30.11.2019
3233 Clouds 28 1009 78 10000 3.1 290 16:58 30.11.2019
3234 Rain 25 1010 90 0 3.32 264 16:40 30.11.2019
3235 Clouds 28 1009 78 10000 4.6 300 16:20 30.11.2019
3236 Clouds 28 1009 78 10000 4.6 300 15:42 30.11.2019
3237 Clouds 27 1008 83 10000 3.6 290 15:19 30.11.2019
3238 Clouds 27 1008 83 10000 3.6 290 14:58 30.11.2019
3239 Clouds 27 1008 83 10000 3.6 290 14:58 30.11.2019
3240 Rain 25 1010 90 0 3.32 264 14:38 30.11.2019
3241 Rain 27 1008 83 10000 4.6 280 14:19 30.11.2019
3242 Rain 27 1008 83 10000 4.6 280 13:58 30.11.2019
3243 Rain 27 1008 80 0 3.57 266 13:38 30.11.2019
3244 Rain 26 1008 88 9000 4.6 280 13:20 30.11.2019
3245 Rain 26 1008 88 9000 4.6 280 12:47 30.11.2019
3246 Rain 27 1008 81 0 5.44 201 12:29 30.11.2019
3247 Rain 27 1008 81 0 5.44 201 11:58 30.11.2019
3248 Rain 27 1008 81 0 5.44 201 11:58 30.11.2019
3249 Rain 27 1008 81 0 5.44 201 11:40 30.11.2019
3250 Rain 27 1008 84 0 6.45 216 11:18 30.11.2019
3251 Rain 27 1008 84 0 6.45 216 10:45 30.11.2019
3252 Rain 26 1009 94 9000 3.1 240 10:21 30.11.2019
3253 Rain 26 1009 94 9000 3.1 240 09:59 30.11.2019
3254 Rain 26 1009 94 9000 3.1 240 09:40 30.11.2019
3255 Rain 26 1010 94 6000 3.1 230 09:20 30.11.2019
3256 Rain 26 1010 94 6000 3.1 230 08:41 30.11.2019
3257 Rain 26 1011 94 8000 2.1 280 08:19 30.11.2019
3258 Rain 26 1011 94 8000 2.1 280 07:44 30.11.2019
3259 Rain 26 1011 94 8000 2.6 300 07:25 30.11.2019
3260 Rain 26 1011 94 8000 2.6 300 06:49 30.11.2019
3261 Rain 26 1012 88 8000 3.1 270 06:28 30.11.2019
3262 Rain 25 1011 94 8000 3.1 250 05:30 30.11.2019
3263 Rain 25 1010 94 8000 2.6 140 03:40 30.11.2019
3264 Rain 27 1010 86 0 7.64 198 02:39 30.11.2019
3265 Rain 27 1009 82 0 3.1 105 02:20 30.11.2019
3266 Rain 25 1009 100 4000 5.1 150 01:25 30.11.2019
3267 Rain 25 1009 100 4000 5.1 150 00:47 30.11.2019
3268 Rain 26 1009 88 0 5.08 10 00:28 30.11.2019
3269 Rain 26 1009 88 0 5.08 10 23:55 29.11.2019
3270 Rain 26 1009 88 0 5.08 10 23:37 29.11.2019
3271 Clouds 27 1009 88 10000 3.6 60 23:18 29.11.2019
3272 Rain 27 1008 83 0 6.73 26 22:39 29.11.2019
3273 Clouds 27 1009 88 10000 3.6 60 22:21 29.11.2019
3274 Clouds 27 1009 88 10000 3.6 60 21:42 29.11.2019
3275 Clouds 28 1009 83 10000 2.6 50 21:22 29.11.2019
3276 Clouds 28 1009 83 10000 2.6 50 20:57 29.11.2019
3277 Rain 27 1008 83 0 6.73 26 20:37 29.11.2019
3278 Clouds 28 1010 83 10000 3.6 40 20:18 29.11.2019
3279 Clouds 28 1010 83 10000 3.6 40 19:56 29.11.2019
3280 Rain 28 1010 80 0 6.1 33 19:38 29.11.2019
3281 Clouds 28 1010 83 10000 4.1 50 19:19 29.11.2019
3282 Clouds 28 1010 83 10000 4.1 50 18:42 29.11.2019
3283 Clouds 28 1010 83 10000 4.1 50 18:42 29.11.2019
3284 Clouds 28 1010 83 10000 6.2 70 18:24 29.11.2019
3285 Clouds 28 1010 83 10000 6.2 70 18:00 29.11.2019
3286 Clouds 28 1010 83 10000 6.2 70 17:41 29.11.2019
3287 Clouds 28 1010 83 10000 4.6 50 17:22 29.11.2019
3288 Clouds 28 1010 83 10000 4.6 50 16:44 29.11.2019
3289 Clouds 28 1009 83 10000 5.7 40 16:21 29.11.2019
3290 Clouds 28 1009 83 10000 5.7 40 15:59 29.11.2019
3291 Clouds 28 1009 83 10000 5.7 40 15:59 29.11.2019
3292 Rain 28 1010 81 0 6.83 13 15:39 29.11.2019
3293 Clouds 28 1008 83 10000 6.2 40 15:21 29.11.2019
3294 Clouds 28 1008 83 10000 6.2 40 14:41 29.11.2019
3295 Clouds 29 1008 79 10000 6.7 70 14:22 29.11.2019
3296 Clouds 29 1008 79 10000 6.7 70 13:58 29.11.2019
3297 Rain 27 1008 87 0 7.84 14 13:38 29.11.2019
3298 Clouds 29 1007 79 10000 7.7 40 13:20 29.11.2019
3299 Clouds 29 1007 79 10000 7.7 40 12:44 29.11.2019
3300 Clouds 29 1007 79 10000 7.2 40 12:25 29.11.2019
3301 Clouds 29 1007 79 10000 7.2 40 11:59 29.11.2019
3302 Clouds 29 1007 79 10000 7.2 40 11:40 29.11.2019
3303 Clouds 29 1007 79 10000 5.1 30 11:19 29.11.2019
3304 Clouds 29 1007 79 10000 5.1 30 10:58 29.11.2019
3305 Rain 27 1007 79 0 2.11 285 10:39 29.11.2019
3306 Clouds 29 1008 79 10000 5.7 30 10:21 29.11.2019
3307 Clouds 29 1008 79 10000 5.7 30 09:59 29.11.2019
3308 Rain 27 1007 79 0 2.11 285 09:39 29.11.2019
3309 Clouds 28 1009 83 10000 3.6 10 09:21 29.11.2019
3310 Clouds 28 1009 83 10000 3.6 10 08:55 29.11.2019
3311 Rain 27 1007 79 0 2.11 285 08:37 29.11.2019
3312 Clouds 27 1010 88 10000 2.6 360 08:19 29.11.2019
3313 Clouds 27 1010 88 10000 2.6 360 07:42 29.11.2019
3314 Clouds 27 1010 88 10000 2.6 360 07:42 29.11.2019
3315 Rain 27 1010 84 0 4.12 81 07:23 29.11.2019
3316 Rain 27 1010 84 0 4.12 81 06:54 29.11.2019
3317 Rain 27 1010 84 0 4.12 81 06:35 29.11.2019
3318 Rain 25 1012 100 4000 2.1 40 05:46 29.11.2019
3319 Rain 25 1012 94 4000 3.6 50 05:23 29.11.2019
3320 Rain 25 1012 94 4000 3.6 50 05:23 29.11.2019
3321 Rain 25 1010 90 0 4.88 60 03:43 29.11.2019
3322 Rain 25 1010 94 6000 2.6 90 03:19 29.11.2019
3323 Rain 26 1009 94 6000 1 0 02:25 29.11.2019
3324 Rain 26 1009 94 6000 1 0 01:49 29.11.2019
3325 Rain 25 1008 100 6000 2.6 320 01:23 29.11.2019
3326 Rain 25 1008 100 6000 2.6 320 01:23 29.11.2019
3327 Rain 25 1008 100 6000 2.6 320 00:40 29.11.2019
3328 Rain 26 1008 94 9000 11.87 70 00:20 29.11.2019
3329 Rain 26 1008 94 9000 11.87 70 23:44 28.11.2019
3330 Rain 26 1008 94 8000 1.5 100 23:21 28.11.2019
3331 Rain 26 1008 94 8000 1.5 100 23:21 28.11.2019
3332 Rain 26 1008 94 8000 1.5 100 22:57 28.11.2019
3333 Rain 28 1007 76 0 6.82 64 22:37 28.11.2019
3334 Rain 27 1009 88 9000 3.6 100 22:19 28.11.2019
3335 Rain 27 1009 88 9000 3.6 100 21:56 28.11.2019
3336 Rain 28 1007 76 0 6.82 64 21:37 28.11.2019
3337 Rain 28 1007 76 0 6.82 64 21:18 28.11.2019
3338 Rain 28 1007 76 0 6.82 64 20:42 28.11.2019
3339 Thunderstorm 26 1010 94 10000 2.6 100 20:23 28.11.2019
3340 Thunderstorm 26 1010 94 10000 2.6 100 19:59 28.11.2019
3341 Thunderstorm 26 1010 94 10000 2.6 100 19:40 28.11.2019
3342 Thunderstorm 27 1010 88 8000 3.1 110 19:22 28.11.2019
3343 Thunderstorm 27 1010 88 8000 3.1 110 18:59 28.11.2019
3344 Rain 28 1009 76 0 3.24 66 18:39 28.11.2019
3345 Rain 28 1009 76 0 3.24 66 18:18 28.11.2019
3346 Rain 28 1009 76 0 3.24 66 17:59 28.11.2019
3347 Rain 28 1009 76 0 3.24 66 17:59 28.11.2019
3348 Rain 28 1009 76 0 3.24 66 17:41 28.11.2019
3349 Rain 27 1009 79 0 4.81 110 17:21 28.11.2019
3350 Rain 27 1009 79 0 4.81 110 16:57 28.11.2019
3351 Rain 27 1009 79 0 4.81 110 16:56 28.11.2019
3352 Rain 27 1009 79 0 4.81 110 16:38 28.11.2019
3353 Thunderstorm 27 1008 94 10000 1.5 30 16:18 28.11.2019
3354 Thunderstorm 27 1008 94 10000 1.5 30 15:41 28.11.2019
3355 Thunderstorm 27 1008 88 9000 1.5 20 15:20 28.11.2019
3356 Thunderstorm 27 1008 88 9000 1.5 20 14:59 28.11.2019
3357 Thunderstorm 27 1008 88 9000 1.5 20 14:40 28.11.2019
3358 Rain 28 1007 78 0 4.65 81 14:21 28.11.2019
3359 Rain 28 1007 78 0 4.65 81 13:56 28.11.2019
3360 Rain 28 1007 78 0 4.65 81 13:38 28.11.2019
3361 Clouds 29 1006 83 10000 3.1 110 13:20 28.11.2019
3362 Clouds 29 1006 83 10000 3.1 110 12:43 28.11.2019
3363 Clouds 29 1007 83 10000 4.1 110 12:23 28.11.2019
3364 Clouds 29 1007 83 10000 4.1 110 11:58 28.11.2019
3365 Rain 27 1007 83 0 3.11 75 11:39 28.11.2019
3366 Clouds 30 1007 74 10000 6.2 100 11:20 28.11.2019
3367 Clouds 30 1007 74 10000 6.2 100 10:55 28.11.2019
3368 Clouds 27 1007 75 0 2.84 77 10:37 28.11.2019
3369 Clouds 30 1008 74 10000 6.2 100 10:18 28.11.2019
3370 Clouds 30 1008 74 10000 6.2 100 09:40 28.11.2019
3371 Clouds 29 1009 83 10000 4.6 100 09:21 28.11.2019
3372 Clouds 29 1009 83 10000 4.6 100 08:55 28.11.2019
3373 Clouds 27 1007 75 0 2.84 77 08:36 28.11.2019
3374 Rain 27 1009 94 9000 4.6 90 08:18 28.11.2019
3375 Rain 27 1009 94 9000 4.6 90 07:41 28.11.2019
3376 Rain 27 1010 88 7000 6.7 80 07:23 28.11.2019
3377 Rain 27 1010 88 7000 6.7 80 06:44 28.11.2019
3378 Rain 27 1010 88 7000 6.7 80 06:44 28.11.2019
3379 Rain 26 1011 94 8000 8.7 80 06:22 28.11.2019
3380 Rain 26 1011 94 8000 8.7 80 05:44 28.11.2019
3381 Rain 27 1009 84 0 10.26 70 04:57 28.11.2019
3382 Rain 27 1009 84 0 10.26 70 02:37 28.11.2019
3383 Rain 28 1007 81 0 5.44 73 01:35 28.11.2019
3384 Rain 28 1007 81 0 6.09 60 00:43 28.11.2019
3385 Thunderstorm 26 1007 94 9000 2.1 140 00:20 28.11.2019
3386 Thunderstorm 26 1007 94 9000 2.1 140 23:41 27.11.2019
3387 Thunderstorm 26 1007 94 8000 2.6 150 23:22 27.11.2019
3388 Thunderstorm 26 1007 94 8000 2.6 150 22:59 27.11.2019
3389 Rain 28 1006 82 0 6.32 65 22:38 27.11.2019
3390 Thunderstorm 25 1008 94 8000 2.1 150 22:20 27.11.2019
3391 Thunderstorm 25 1008 94 8000 2.1 150 21:56 27.11.2019
3392 Rain 28 1006 82 0 6.32 65 21:37 27.11.2019
3393 Thunderstorm 26 1009 94 7000 5.1 150 21:19 27.11.2019
3394 Thunderstorm 26 1009 94 7000 5.1 150 20:58 27.11.2019
3395 Rain 28 1006 82 0 6.32 65 20:38 27.11.2019
3396 Clouds 29 1009 83 10000 5.1 90 20:20 27.11.2019
3397 Clouds 29 1009 83 10000 5.1 90 19:57 27.11.2019
3398 Rain 28 1009 80 0 6.99 74 19:39 27.11.2019
3399 Clouds 29 1009 83 10000 6.2 80 19:19 27.11.2019
3400 Clouds 29 1009 83 10000 6.2 80 18:58 27.11.2019
3401 Rain 28 1009 80 0 6.99 74 18:37 27.11.2019
3402 Clouds 28 1009 83 10000 6.2 80 18:19 27.11.2019
3403 Clouds 28 1009 83 10000 6.2 80 17:56 27.11.2019
3404 Rain 28 1009 80 0 6.99 74 17:37 27.11.2019
3405 Rain 28 1009 80 0 6.99 74 17:37 27.11.2019
3406 Clouds 28 1008 83 10000 5.7 90 17:18 27.11.2019
3407 Clouds 28 1008 83 10000 5.7 90 16:56 27.11.2019
3408 Clouds 28 1008 83 10000 5.7 90 16:55 27.11.2019
3409 -273 0 0 0 0 0 16:55 27.11.2019
3410 Rain 28 1008 79 0 6.2 75 16:36 27.11.2019
3411 Clouds 28 1007 83 10000 4.1 120 16:18 27.11.2019
3412 Clouds 28 1007 83 10000 4.1 120 15:56 27.11.2019
3413 Rain 28 1008 79 0 6.2 75 15:37 27.11.2019
3414 Rain 27 1007 88 10000 7.2 90 15:19 27.11.2019
3415 -273 0 0 0 0 0 14:56 27.11.2019
3416 Rain 28 1008 79 0 6.2 75 14:38 27.11.2019
3417 Clouds 30 1006 74 10000 6.2 90 14:19 27.11.2019
3418 Clouds 30 1006 74 10000 6.2 90 14:19 27.11.2019
3419 Clouds 30 1006 74 10000 6.2 90 13:55 27.11.2019
3420 Clouds 30 1006 74 10000 6.2 90 13:37 27.11.2019
3421 Clouds 30 1006 74 10000 6.2 90 13:18 27.11.2019
3422 Clouds 30 1006 74 10000 7.2 90 12:41 27.11.2019
3423 Rain 28 1007 74 0 8.14 74 12:22 27.11.2019
3424 Rain 28 1007 74 0 8.14 74 11:56 27.11.2019
3425 Rain 28 1007 74 0 8.14 74 11:36 27.11.2019
3426 Clouds 31 1006 74 10000 6.2 80 11:18 27.11.2019
3427 Rain 26 1006 89 0 9.35 88 10:46 27.11.2019
3428 Rain 26 1006 89 0 9.35 88 10:46 27.11.2019
3429 Clouds 31 1007 74 10000 5.7 80 10:24 27.11.2019
3430 Clouds 31 1007 74 10000 5.7 80 09:57 27.11.2019
3431 Rain 26 1006 89 0 9.35 88 09:39 27.11.2019
3432 Clouds 30 1008 79 10000 6.2 70 09:18 27.11.2019
3433 Rain 26 1006 89 0 9.35 88 08:42 27.11.2019
3434 Clouds 30 1009 84 10000 7.7 70 08:23 27.11.2019
3435 Clouds 30 1009 84 10000 7.7 70 07:48 27.11.2019
3436 Clouds 30 1009 84 10000 7.7 70 07:29 27.11.2019
3437 Rain 29 1009 89 9000 5.7 60 06:54 27.11.2019
3438 Rain 29 1009 89 9000 5.7 60 06:36 27.11.2019
3439 Rain 27 1009 94 9000 7.2 80 05:47 27.11.2019
3440 Rain 27 1009 94 9000 7.2 80 05:22 27.11.2019
3441 Clouds 27 1009 94 10000 5.1 90 04:49 27.11.2019
3442 Clouds 28 1008 94 10000 5.7 80 04:30 27.11.2019
3443 Clouds 28 1008 94 10000 5.7 80 03:41 27.11.2019
3444 Clouds 28 1007 83 10000 6.7 90 03:20 27.11.2019
3445 Clouds 28 1007 83 10000 7.2 80 02:28 27.11.2019
3446 Clouds 27 1006 88 8000 6.2 100 00:50 27.11.2019
3447 Clouds 27 1006 88 8000 6.2 100 00:30 27.11.2019
3448 Rain 27 1006 88 8000 5.1 90 23:56 26.11.2019
3449 Rain 27 1006 88 8000 5.1 90 23:38 26.11.2019
3450 Rain 27 1006 88 8000 7.7 90 23:18 26.11.2019
3451 Clouds 28 1006 80 0 5.59 81 22:40 26.11.2019
3452 Clouds 28 1006 80 0 5.59 81 22:20 26.11.2019
3453 Clouds 28 1006 80 0 5.59 81 21:59 26.11.2019
3454 Clouds 28 1006 80 0 5.59 81 21:38 26.11.2019
3455 Clouds 28 1006 80 0 5.59 81 21:20 26.11.2019
3456 Clouds 28 1006 80 0 5.59 81 20:57 26.11.2019
3457 Clouds 28 1006 80 0 5.59 81 20:37 26.11.2019
3458 Rain 26 1009 83 8000 13.4 90 20:19 26.11.2019
3459 Rain 26 1009 83 8000 13.4 90 19:55 26.11.2019
3460 Rain 26 1009 83 8000 13.4 90 19:55 26.11.2019
3461 Rain 26 1009 83 8000 13.4 90 19:37 26.11.2019
3462 Rain 26 1009 83 8000 13.4 90 19:19 26.11.2019
3463 Rain 28 1008 80 0 8.13 90 18:57 26.11.2019
3464 Rain 28 1008 80 0 8.13 90 18:39 26.11.2019
3465 Rain 28 1008 80 0 8.13 90 18:20 26.11.2019
3466 Rain 28 1008 80 0 8.13 90 17:57 26.11.2019
3467 Rain 28 1008 80 0 8.13 90 17:39 26.11.2019
3468 Thunderstorm 26 1009 88 9000 4.1 110 17:20 26.11.2019
3469 Thunderstorm 26 1009 88 9000 4.1 110 16:56 26.11.2019
3470 Rain 29 1008 79 0 7.13 84 16:37 26.11.2019
3471 Rain 27 1008 88 9000 7.2 80 16:18 26.11.2019
3472 Rain 27 1008 88 9000 7.2 80 16:18 26.11.2019
3473 Rain 27 1008 88 9000 7.2 80 15:58 26.11.2019
3474 Rain 29 1008 79 0 7.13 84 15:37 26.11.2019
3475 Clouds 28 1007 83 10000 3.1 80 15:19 26.11.2019
3476 Clouds 28 1007 83 10000 3.1 80 14:46 26.11.2019
3477 Clouds 28 1006 88 9000 2.6 60 14:25 26.11.2019
3478 Clouds 28 1006 88 9000 2.6 60 13:56 26.11.2019
3479 Clouds 28 1006 88 9000 2.6 60 13:37 26.11.2019
3480 Clouds 28 1006 88 9000 2.6 60 13:18 26.11.2019
3481 Rain 27 1006 94 7000 5.1 90 12:38 26.11.2019
3482 Rain 28 1006 83 9000 5.7 70 12:19 26.11.2019
3483 Rain 28 1006 83 9000 5.7 70 11:56 26.11.2019
3484 Rain 28 1006 83 9000 5.7 70 11:38 26.11.2019
3485 Clouds 29 1006 79 10000 4.6 90 11:19 26.11.2019
3486 Clouds 29 1006 79 10000 4.6 90 10:57 26.11.2019
3487 Rain 29 1005 76 0 5.98 69 10:39 26.11.2019
3488 Clouds 30 1007 74 10000 5.7 80 10:20 26.11.2019
3489 Rain 29 1005 76 0 5.98 69 09:44 26.11.2019
3490 Clouds 30 1008 79 10000 4.6 110 09:25 26.11.2019
3491 Clouds 30 1008 79 10000 4.6 110 08:59 26.11.2019
3492 Rain 29 1005 76 0 5.98 69 08:38 26.11.2019
3493 Clouds 29 1009 83 10000 6.7 100 08:20 26.11.2019
3494 Clouds 29 1009 83 10000 6.7 100 07:43 26.11.2019
3495 Clouds 29 1009 83 10000 6.7 100 07:24 26.11.2019
3496 Clouds 30 1009 74 10000 6.2 80 06:54 26.11.2019
3497 Clouds 30 1009 74 10000 6.2 80 06:22 26.11.2019
3498 Clouds 28 1009 88 10000 5.7 70 05:38 26.11.2019
3499 Clouds 28 1008 83 10000 5.1 70 03:43 26.11.2019
3500 Rain 29 1007 75 0 5.2 93 01:55 26.11.2019
3501 Thunderstorm 26 1006 94 8000 2.6 70 01:29 26.11.2019
3502 Thunderstorm 26 1006 94 8000 2.6 70 00:48 26.11.2019
3503 Thunderstorm 26 1006 94 8000 2.6 70 00:23 26.11.2019
3504 Clouds 28 1007 78 0 5.83 87 23:39 25.11.2019
3505 Clouds 28 1007 78 0 5.83 87 23:39 25.11.2019
3506 Thunderstorm 28 1007 83 9000 4.1 70 23:20 25.11.2019
3507 Thunderstorm 28 1007 83 9000 4.1 70 22:56 25.11.2019
3508 Clouds 28 1006 78 0 5.47 83 22:37 25.11.2019
3509 Thunderstorm 26 1007 94 6000 2.1 120 22:18 25.11.2019
3510 Thunderstorm 26 1007 94 6000 2.1 120 21:56 25.11.2019
3511 Clouds 28 1006 78 0 5.47 83 21:38 25.11.2019
3512 Thunderstorm 27 1008 88 6000 3.6 110 21:19 25.11.2019
3513 Thunderstorm 27 1008 88 6000 3.6 110 20:55 25.11.2019
3514 Rain 28 1006 78 0 5.34 95 20:36 25.11.2019
3515 Thunderstorm 29 1009 79 10000 5.1 70 20:18 25.11.2019
3516 Thunderstorm 29 1009 79 10000 5.1 70 19:54 25.11.2019
3517 Thunderstorm 29 1009 79 10000 5.1 70 19:36 25.11.2019
3518 Thunderstorm 29 1009 79 10000 5.1 70 19:18 25.11.2019
3519 Clouds 28 1009 83 10000 4.1 40 18:56 25.11.2019
3520 Clouds 28 1009 83 10000 4.1 40 18:37 25.11.2019
3521 Clouds 29 1009 79 10000 3.6 80 18:18 25.11.2019
3522 Clouds 29 1009 79 10000 3.6 80 17:55 25.11.2019
3523 Clouds 29 1009 79 10000 3.6 80 17:36 25.11.2019
3524 Clouds 29 1008 74 10000 2.6 70 17:18 25.11.2019
3525 Clouds 28 1008 80 0 5.01 66 16:43 25.11.2019
3526 Clouds 29 1008 79 10000 4.1 90 16:25 25.11.2019
3527 Clouds 29 1008 79 10000 4.1 90 15:58 25.11.2019
3528 Clouds 28 1008 80 0 5.01 66 15:39 25.11.2019
3529 Clouds 29 1007 74 10000 5.7 70 15:20 25.11.2019
3530 Clouds 29 1007 74 10000 5.7 70 14:56 25.11.2019
3531 Clouds 28 1008 80 0 5.01 66 14:38 25.11.2019
3532 Clouds 30 1007 70 10000 3.6 90 14:20 25.11.2019
3533 Clouds 28 1007 78 0 4.82 62 13:40 25.11.2019
3534 Clouds 30 1006 70 10000 3.6 70 13:21 25.11.2019
3535 Clouds 30 1006 70 10000 3.6 70 12:59 25.11.2019
3536 Clouds 30 1006 70 10000 3.6 70 12:40 25.11.2019
3537 Clouds 30 1006 70 10000 3.1 80 12:20 25.11.2019
3538 Clouds 30 1006 70 10000 3.1 80 11:57 25.11.2019
3539 Clouds 30 1006 70 10000 3.1 80 11:38 25.11.2019
3540 Thunderstorm 25 1008 88 7000 6.7 80 11:19 25.11.2019
3541 Rain 27 1006 81 0 5.57 82 10:42 25.11.2019
3542 Thunderstorm 30 1008 79 10000 3.1 60 10:23 25.11.2019
3543 Thunderstorm 30 1008 79 10000 3.1 60 09:56 25.11.2019
3544 Rain 27 1006 81 0 5.57 82 09:38 25.11.2019
3545 Clouds 30 1009 74 10000 2.6 10 09:20 25.11.2019
3546 Rain 27 1006 81 0 5.57 82 08:40 25.11.2019
3547 Clouds 30 1010 74 10000 2.6 80 08:21 25.11.2019
3548 Clouds 30 1010 74 10000 2.6 80 07:42 25.11.2019
3549 Clouds 30 1010 74 10000 2.6 80 07:24 25.11.2019
3550 Clouds 30 1011 74 10000 2.1 100 06:48 25.11.2019
3551 Clouds 30 1011 74 10000 3.6 110 06:21 25.11.2019
3552 Clouds 30 1011 74 10000 3.6 110 06:21 25.11.2019
3553 Clouds 30 1011 74 10000 3.6 110 05:39 25.11.2019
3554 Clouds 29 1010 83 10000 3.6 110 04:52 25.11.2019
3555 Rain 27 1008 88 10000 6.7 90 03:18 25.11.2019
3556 Rain 28 1010 77 0 4.31 99 02:26 25.11.2019
3557 Rain 28 1008 75 0 3.74 103 01:40 25.11.2019
3558 Rain 27 1008 88 9000 5.1 60 01:21 25.11.2019
3559 Rain 27 1008 88 9000 5.1 60 00:24 25.11.2019
3560 Clouds 28 1007 83 10000 6.2 70 23:59 24.11.2019
3561 Clouds 28 1007 83 10000 6.2 70 23:59 24.11.2019
3562 Clouds 28 1007 83 10000 6.2 70 23:41 24.11.2019
3563 Clouds 28 1008 77 0 3.48 121 23:19 24.11.2019
3564 Clouds 28 1008 77 0 3.48 121 22:56 24.11.2019
3565 Thunderstorm 28 1008 88 10000 5.1 80 22:37 24.11.2019
3566 Thunderstorm 28 1008 88 10000 5.1 80 22:18 24.11.2019
3567 Thunderstorm 28 1008 88 10000 5.1 80 22:18 24.11.2019
3568 Thunderstorm 28 1008 88 10000 5.1 80 21:54 24.11.2019
3569 Clouds 28 1008 77 0 3.48 121 21:36 24.11.2019
3570 Thunderstorm 27 1010 83 6000 6.2 70 21:18 24.11.2019
3571 Thunderstorm 27 1010 83 6000 6.2 70 20:54 24.11.2019
3572 Clouds 28 1008 77 0 3.48 121 20:36 24.11.2019
3573 Thunderstorm 29 1010 79 10000 3.1 100 20:18 24.11.2019
3574 Thunderstorm 29 1010 79 10000 3.1 100 19:54 24.11.2019
3575 Thunderstorm 29 1010 79 10000 3.1 100 19:36 24.11.2019
3576 Thunderstorm 29 1010 79 10000 3.1 100 19:18 24.11.2019
3577 Clouds 29 1011 79 10000 2.6 120 18:38 24.11.2019
3578 Clouds 28 1011 83 10000 1.5 110 18:20 24.11.2019
3579 Clouds 28 1011 83 10000 1.5 110 17:59 24.11.2019
3580 Clouds 28 1011 83 10000 1.5 110 17:41 24.11.2019
3581 Clouds 28 1011 83 10000 1.5 110 17:22 24.11.2019
3582 Clouds 28 1010 83 10000 2.1 140 16:59 24.11.2019
3583 Rain 29 1010 78 0 5.36 108 16:41 24.11.2019
3584 Clouds 28 1009 83 10000 2.1 140 16:23 24.11.2019
3585 Clouds 28 1009 83 10000 2.1 140 15:56 24.11.2019
3586 Rain 29 1010 78 0 5.36 108 15:38 24.11.2019
3587 Clouds 28 1009 83 10000 2.1 140 15:20 24.11.2019
3588 Rain 29 1010 78 0 5.36 108 14:40 24.11.2019
3589 Clouds 30 1008 74 10000 2.6 140 14:20 24.11.2019
3590 Clouds 30 1008 74 10000 2.6 140 13:59 24.11.2019
3591 Clouds 30 1008 74 10000 2.6 140 13:38 24.11.2019
3592 Clouds 30 1008 74 10000 2.6 140 13:20 24.11.2019
3593 Clouds 31 1008 70 10000 2.6 120 12:56 24.11.2019
3594 Clouds 31 1008 70 10000 2.6 120 12:38 24.11.2019
3595 Clouds 32 1007 66 10000 3.6 160 12:18 24.11.2019
3596 Clouds 32 1007 66 10000 3.6 160 11:54 24.11.2019
3597 Clouds 32 1007 66 10000 3.6 160 11:36 24.11.2019
3598 Clouds 32 1007 66 10000 4.1 140 11:18 24.11.2019
3599 Rain 28 1007 77 0 4.5 109 10:42 24.11.2019
3600 Clouds 31 1008 74 10000 2.6 130 10:24 24.11.2019
3601 Rain 28 1007 77 0 4.5 109 09:40 24.11.2019
3602 Clouds 32 1009 66 10000 3.6 140 09:20 24.11.2019
3603 Clouds 32 1009 66 10000 3.6 140 08:59 24.11.2019
3604 Rain 28 1007 77 0 4.5 109 08:40 24.11.2019
3605 Clouds 32 1010 66 10000 3.6 140 08:21 24.11.2019
3606 Clouds 32 1010 66 10000 3.6 140 07:52 24.11.2019
3607 Clouds 32 1010 66 10000 3.6 140 07:25 24.11.2019
3608 Clouds 31 1011 70 10000 3.6 130 06:55 24.11.2019
3609 Clouds 30 1011 74 10000 4.1 120 05:47 24.11.2019
3610 Clouds 30 1011 74 10000 3.6 120 04:45 24.11.2019
3611 Clouds 29 1009 79 10000 5.1 120 02:49 24.11.2019
3612 Clouds 29 1009 79 10000 5.1 120 02:49 24.11.2019
3613 Clouds 29 1008 74 10000 7.2 110 01:56 24.11.2019
3614 Clouds 29 1008 74 10000 7.2 110 01:37 24.11.2019
3615 Clouds 29 1008 74 10000 7.2 110 01:18 24.11.2019
3616 Clouds 29 1007 74 10000 7.2 110 00:42 24.11.2019
3617 Clouds 29 1007 74 10000 5.7 110 00:20 24.11.2019
3618 Clouds 29 1007 74 10000 5.7 110 23:44 23.11.2019
3619 Clouds 29 1007 74 10000 5.7 110 23:21 23.11.2019
3620 Clouds 29 1008 74 10000 7.2 100 22:57 23.11.2019
3621 Rain 28 1007 79 0 7.31 88 22:38 23.11.2019
3622 Clouds 29 1009 74 10000 6.7 110 22:20 23.11.2019
3623 Clouds 29 1009 74 10000 6.7 110 21:57 23.11.2019
3624 Rain 28 1007 79 0 7.31 88 21:39 23.11.2019
3625 Clouds 29 1010 74 10000 7.2 110 21:20 23.11.2019
3626 Rain 28 1007 79 0 7.31 88 20:39 23.11.2019
3627 Clouds 29 1011 79 10000 7.7 110 20:21 23.11.2019
3628 Clouds 29 1011 79 10000 7.7 110 19:58 23.11.2019
3629 Clouds 29 1011 79 10000 7.7 110 19:39 23.11.2019
3630 Clouds 29 1011 74 10000 6.7 110 19:19 23.11.2019
3631 Clouds 29 1011 79 10000 7.7 110 19:19 23.11.2019
3632 Clouds 29 1011 74 10000 6.7 110 18:59 23.11.2019
3633 Clouds 29 1011 74 10000 6.7 110 18:39 23.11.2019
3634 Clouds 29 1011 79 10000 7.2 110 18:19 23.11.2019
3635 Clouds 29 1011 79 10000 7.2 110 17:45 23.11.2019
3636 Clouds 29 1011 79 10000 7.2 110 17:23 23.11.2019
3637 Clouds 29 1011 79 10000 7.2 110 17:23 23.11.2019
3638 Clouds 28 1011 88 10000 7.2 100 16:57 23.11.2019
3639 Rain 29 1010 76 0 5.94 80 16:39 23.11.2019
3640 Clouds 28 1010 83 10000 6.7 90 16:21 23.11.2019
3641 Clouds 28 1010 83 10000 6.7 90 15:59 23.11.2019
3642 Clouds 28 1010 83 10000 6.7 90 15:59 23.11.2019
3643 Rain 29 1010 76 0 5.94 80 15:39 23.11.2019
3644 Clouds 27 1009 83 10000 2.6 120 15:19 23.11.2019
3645 Clouds 27 1009 83 10000 2.6 120 14:57 23.11.2019
3646 Rain 29 1010 76 0 5.94 80 14:39 23.11.2019
3647 Clouds 30 1008 74 10000 4.6 110 14:21 23.11.2019
3648 Clouds 30 1008 74 10000 4.6 110 13:54 23.11.2019
3649 Clouds 29 1008 75 0 5.29 88 13:36 23.11.2019
3650 Clouds 29 1008 75 0 5.29 88 13:36 23.11.2019
3651 Clouds 30 1008 74 10000 4.6 100 13:18 23.11.2019
3652 Clouds 30 1008 74 10000 4.6 100 13:18 23.11.2019
3653 Clouds 30 1008 74 10000 4.6 100 12:41 23.11.2019
3654 Clouds 30 1008 74 10000 4.6 100 12:23 23.11.2019
3655 Clouds 30 1008 74 10000 4.6 90 11:45 23.11.2019
3656 Clouds 30 1008 74 10000 4.6 90 11:23 23.11.2019
3657 Clouds 30 1009 74 10000 4.6 100 10:46 23.11.2019
3658 Clouds 29 1009 83 10000 3.1 70 10:23 23.11.2019
3659 Clouds 29 1009 83 10000 3.1 70 09:59 23.11.2019
3660 Clouds 29 1008 73 0 5.33 78 09:40 23.11.2019
3661 Clouds 26 1011 94 10000 1.5 70 09:18 23.11.2019
3662 Clouds 29 1008 73 0 5.33 78 08:41 23.11.2019
3663 Clouds 29 1011 74 0 5.34 69 08:19 23.11.2019
3664 Clouds 29 1011 74 0 5.34 69 07:42 23.11.2019
3665 Clouds 29 1011 74 0 5.34 69 06:53 23.11.2019
3666 Rain 28 1012 83 10000 3.1 30 06:27 23.11.2019
3667 Rain 28 1012 83 10000 3.1 30 05:57 23.11.2019
3668 Rain 28 1012 83 10000 3.1 30 05:32 23.11.2019
3669 Clouds 28 1011 83 10000 5.65 72 04:57 23.11.2019
3670 Rain 27 1011 88 10000 6.7 30 04:32 23.11.2019
3671 Clouds 28 1010 83 10000 6.2 80 03:26 23.11.2019
3672 Rain 29 1011 74 0 5.65 72 02:37 23.11.2019
3673 Clouds 26 1009 83 10000 4.1 60 01:40 23.11.2019
3674 Clouds 29 1009 79 10000 4.6 60 00:47 23.11.2019
3675 Clouds 28 1009 83 10000 4.1 50 00:19 23.11.2019
3676 Clouds 28 1009 83 10000 4.1 50 23:55 22.11.2019
3677 Clouds 28 1009 83 10000 4.1 50 23:36 22.11.2019
3678 Clouds 28 1009 83 10000 4.6 60 23:18 22.11.2019
3679 Clouds 28 1009 83 10000 4.6 60 22:55 22.11.2019
3680 Clear 28 1009 75 0 4.09 30 22:36 22.11.2019
3681 Clouds 28 1009 83 10000 5.7 60 22:18 22.11.2019
3682 Clouds 28 1009 83 10000 5.7 60 22:18 22.11.2019
3683 Clear 28 1009 75 0 4.09 30 21:40 22.11.2019
3684 Clouds 29 1011 79 10000 5.1 60 21:21 22.11.2019
3685 Clouds 29 1011 79 10000 5.1 60 20:55 22.11.2019
3686 Clear 28 1009 75 0 4.09 30 20:37 22.11.2019
3687 Clouds 29 1012 74 10000 5.1 60 20:19 22.11.2019
3688 Clouds 28 1011 71 0 3.48 39 19:39 22.11.2019
3689 Clouds 29 1012 79 10000 5.7 60 19:20 22.11.2019
3690 Clouds 29 1012 79 10000 5.7 60 18:59 22.11.2019
3691 Clouds 28 1011 71 0 3.48 39 18:38 22.11.2019
3692 Clouds 29 1012 74 10000 4.1 40 18:20 22.11.2019
3693 Clouds 29 1012 74 10000 4.1 40 18:20 22.11.2019
3694 Clouds 29 1012 74 10000 4.1 40 17:42 22.11.2019
3695 Clouds 29 1011 74 10000 3.1 30 17:23 22.11.2019
3696 Clouds 29 1011 74 10000 3.1 30 16:55 22.11.2019
3697 Clouds 29 1011 71 0 4.06 38 16:37 22.11.2019
3698 Clouds 29 1010 70 10000 3.6 30 16:18 22.11.2019
3699 Clouds 29 1011 71 0 4.06 38 15:39 22.11.2019
3700 Clouds 29 1009 70 10000 3.6 50 15:20 22.11.2019
3701 Clouds 29 1009 70 10000 3.6 50 14:54 22.11.2019
3702 Clouds 29 1011 71 0 4.06 38 14:36 22.11.2019
3703 Clouds 29 1011 71 0 4.06 38 14:36 22.11.2019
3704 Clouds 30 1009 70 10000 3.1 70 14:18 22.11.2019
3705 Clouds 29 1009 68 0 3.57 34 13:39 22.11.2019
3706 Clouds 30 1008 70 10000 3.6 60 13:20 22.11.2019
3707 Clouds 30 1008 70 10000 3.6 60 12:58 22.11.2019
3708 Rain 29 1009 72 0 4.26 41 12:40 22.11.2019
3709 Clouds 31 1008 66 10000 3.1 70 12:20 22.11.2019
3710 Clouds 31 1008 66 10000 3.1 70 11:58 22.11.2019
3711 Rain 29 1009 72 0 4.26 41 11:37 22.11.2019
3712 Clouds 31 1009 70 10000 2.1 70 11:19 22.11.2019
3713 Clouds 31 1009 70 10000 2.1 70 10:55 22.11.2019
3714 Clouds 28 1008 69 0 2.68 59 10:37 22.11.2019
3715 Clouds 29 1010 70 10000 4.1 60 10:19 22.11.2019
3716 Clouds 29 1010 70 10000 4.1 60 09:41 22.11.2019
3717 Clouds 31 1011 70 10000 2.6 80 09:22 22.11.2019
3718 Clouds 31 1011 70 10000 2.6 80 08:59 22.11.2019
3719 Clouds 31 1011 70 10000 2.6 80 08:40 22.11.2019
3720 Clouds 31 1012 70 10000 3.1 70 08:22 22.11.2019
3721 Clouds 31 1012 70 10000 3.1 70 07:43 22.11.2019
3722 Clouds 31 1012 70 10000 2.6 90 07:21 22.11.2019
3723 Clouds 31 1012 70 10000 2.6 90 06:48 22.11.2019
3724 Clouds 31 1012 66 10000 2.6 90 06:28 22.11.2019
3725 Clouds 29 1012 71 0 3.47 67 05:37 22.11.2019
3726 Clouds 29 1011 74 10000 2.6 80 04:18 22.11.2019
3727 Clouds 28 1010 78 10000 1.5 90 02:47 22.11.2019
3728 Clouds 28 1010 78 10000 1 0 02:28 22.11.2019
3729 Clouds 28 1010 78 10000 1 0 01:44 22.11.2019
3730 Clouds 28 1009 78 10000 2.1 90 01:19 22.11.2019
3731 Clouds 28 1009 78 10000 2.1 90 00:49 22.11.2019
3732 Clouds 28 1009 78 10000 2.1 90 00:23 22.11.2019
3733 Clouds 28 1009 78 10000 2.1 90 23:44 21.11.2019
3734 Clouds 28 1009 78 10000 2.1 90 23:44 21.11.2019
3735 Clouds 28 1009 78 10000 2.6 90 23:26 21.11.2019
3736 Clouds 28 1009 78 10000 2.6 90 22:58 21.11.2019
3737 Clear 28 1009 74 0 3.42 91 22:39 21.11.2019
3738 Clear 28 1009 74 0 3.42 91 22:39 21.11.2019
3739 Clouds 28 1010 78 10000 3.1 100 22:20 21.11.2019
3740 Clouds 28 1010 78 10000 3.1 100 21:56 21.11.2019
3741 Clear 28 1009 74 0 3.42 91 21:37 21.11.2019
3742 Clouds 28 1011 78 10000 2.6 100 21:19 21.11.2019
3743 Clouds 28 1011 78 10000 2.6 100 20:57 21.11.2019
3744 Clear 28 1009 74 0 3.42 91 20:38 21.11.2019
3745 Clear 28 1009 74 0 3.42 91 20:38 21.11.2019
3746 Clouds 28 1011 78 10000 3.1 100 20:19 21.11.2019
3747 Clouds 28 1011 78 10000 3.1 100 19:58 21.11.2019
3748 Rain 28 1011 75 0 3.35 95 19:39 21.11.2019
3749 Rain 28 1011 75 0 3.35 95 19:39 21.11.2019
3750 Clouds 28 1011 83 10000 2.1 90 19:21 21.11.2019
3751 Clouds 28 1011 83 10000 2.1 90 18:56 21.11.2019
3752 Rain 28 1011 75 0 3.35 95 18:37 21.11.2019
3753 Clouds 29 1011 79 10000 2.6 80 18:18 21.11.2019
3754 Rain 28 1011 75 0 3.35 95 17:41 21.11.2019
3755 Clouds 29 1011 79 10000 2.6 90 17:22 21.11.2019
3756 Clouds 29 1011 79 10000 2.6 90 16:59 21.11.2019
3757 Rain 28 1010 74 0 3.11 95 16:41 21.11.2019
3758 Clouds 29 1010 74 10000 2.1 120 16:21 21.11.2019
3759 Clouds 29 1010 74 10000 2.1 120 15:56 21.11.2019
3760 Rain 28 1010 74 0 3.11 95 15:38 21.11.2019
3761 Clouds 29 1009 74 10000 2.6 120 15:19 21.11.2019
3762 Rain 28 1010 74 0 3.11 95 14:42 21.11.2019
3763 Clouds 30 1008 74 10000 2.1 90 14:23 21.11.2019
3764 Clouds 30 1008 74 10000 2.1 90 13:59 21.11.2019
3765 Clouds 28 1009 72 0 3.15 97 13:38 21.11.2019
3766 Clouds 30 1008 74 10000 3.1 90 13:19 21.11.2019
3767 Clouds 30 1008 74 10000 3.1 90 12:56 21.11.2019
3768 Clouds 28 1008 71 0 3.73 97 12:37 21.11.2019
3769 Clouds 30 1008 70 10000 2.6 120 12:19 21.11.2019
3770 Clouds 28 1008 71 0 3.73 97 11:41 21.11.2019
3771 Clouds 31 1008 70 10000 2.1 100 11:21 21.11.2019
3772 Clouds 31 1008 70 10000 2.1 100 10:59 21.11.2019
3773 Clouds 28 1008 72 0 3.88 102 10:41 21.11.2019
3774 Clouds 31 1009 66 10000 2.6 120 10:20 21.11.2019
3775 Clouds 31 1009 66 10000 2.6 120 09:56 21.11.2019
3776 Clouds 28 1008 72 0 3.88 102 09:37 21.11.2019
3777 Clouds 31 1010 70 10000 3.88 102 09:19 21.11.2019
3778 Clouds 31 1010 70 10000 3.88 102 08:41 21.11.2019
3779 Clouds 31 1011 70 10000 2.6 110 08:20 21.11.2019
3780 Clouds 31 1011 70 10000 2.6 110 07:42 21.11.2019
3781 Clouds 30 1011 70 10000 2.1 120 07:18 21.11.2019
3782 Clouds 30 1011 70 10000 2.1 120 06:57 21.11.2019
3783 Clouds 30 1011 70 10000 2.6 140 06:33 21.11.2019
3784 Rain 28 1011 75 0 4.19 72 05:36 21.11.2019
3785 Clouds 27 1009 83 10000 2.1 140 03:32 21.11.2019
3786 Clouds 27 1009 83 10000 2.1 140 02:41 21.11.2019
3787 Clouds 27 1009 88 10000 2.1 130 01:55 21.11.2019
3788 Clouds 27 1009 88 10000 2.1 130 01:55 21.11.2019
3789 Rain 28 1008 75 0 4.14 82 01:36 21.11.2019
3790 Clouds 27 1008 83 10000 2.1 150 00:54 21.11.2019
3791 Clouds 27 1008 83 10000 1.5 140 00:21 21.11.2019
3792 Clouds 27 1008 83 10000 1.5 140 23:58 20.11.2019
3793 Rain 28 1008 75 0 4.67 83 23:40 20.11.2019
3794 Clouds 27 1009 88 10000 1 0 23:20 20.11.2019
3795 Clouds 27 1009 88 10000 1 0 22:55 20.11.2019
3796 Rain 28 1008 76 0 3.2 110 22:37 20.11.2019
3797 Clouds 27 1009 83 10000 1.5 150 22:18 20.11.2019
3798 Clouds 27 1009 83 10000 1.5 150 21:55 20.11.2019
3799 Rain 28 1008 76 0 3.2 110 21:37 20.11.2019
3800 Rain 28 1008 76 0 3.2 110 21:18 20.11.2019
3801 Rain 28 1008 76 0 3.2 110 20:54 20.11.2019
3802 Rain 28 1008 76 0 3.2 110 20:36 20.11.2019
3803 Clouds 27 1010 88 10000 1.5 190 20:18 20.11.2019
3804 Clouds 27 1010 88 10000 1.5 190 19:54 20.11.2019
3805 Thunderstorm 27 1011 88 10000 1 0 19:36 20.11.2019
3806 Clouds 28 1010 76 0 3.76 149 19:36 20.11.2019
3807 Thunderstorm 27 1011 88 10000 1 0 19:18 20.11.2019
3808 Thunderstorm 27 1011 88 10000 1 0 19:18 20.11.2019
3809 Thunderstorm 27 1011 88 10000 1 0 18:41 20.11.2019
3810 Thunderstorm 27 1011 88 10000 2.6 250 18:23 20.11.2019
3811 Thunderstorm 27 1011 88 10000 2.6 250 17:59 20.11.2019
3812 Clouds 28 1010 76 0 3.76 149 17:40 20.11.2019
3813 Thunderstorm 26 1010 94 10000 0.5 0 17:21 20.11.2019
3814 Thunderstorm 26 1010 94 10000 0.5 0 16:59 20.11.2019
3815 Thunderstorm 26 1010 94 10000 0.5 0 16:59 20.11.2019
3816 Rain 28 1010 76 0 3.52 154 16:41 20.11.2019
3817 Rain 28 1010 76 0 3.52 154 16:20 20.11.2019
3818 Rain 28 1010 76 0 3.52 154 15:57 20.11.2019
3819 Rain 28 1010 76 0 3.52 154 15:39 20.11.2019
3820 Clouds 30 1009 74 10000 2.1 130 15:19 20.11.2019
3821 Clouds 30 1009 74 10000 2.1 130 14:56 20.11.2019
3822 Rain 28 1010 76 0 3.52 154 14:37 20.11.2019
3823 Clouds 29 1008 79 10000 2.1 130 14:18 20.11.2019
3824 Clouds 29 1008 79 10000 2.1 130 13:55 20.11.2019
3825 Rain 28 1008 77 0 4.66 160 13:36 20.11.2019
3826 Clouds 29 1007 74 10000 2.1 120 13:18 20.11.2019
3827 Rain 28 1008 75 0 3.78 154 12:40 20.11.2019
3828 Rain 28 1008 75 0 3.78 154 12:21 20.11.2019
3829 Rain 28 1008 75 0 3.78 154 11:47 20.11.2019
3830 Clouds 31 1007 70 10000 3.78 154 11:23 20.11.2019
3831 Clouds 31 1007 70 10000 6.5 128 10:59 20.11.2019
3832 Rain 27 1007 79 0 6.5 128 10:39 20.11.2019
3833 Clouds 31 1008 70 10000 2.6 140 10:20 20.11.2019
3834 Clouds 31 1008 70 10000 2.6 140 09:59 20.11.2019
3835 Clouds 31 1008 70 10000 2.6 140 09:41 20.11.2019
3836 Clouds 31 1010 74 10000 3.1 140 09:20 20.11.2019
3837 Clouds 31 1010 74 10000 3.1 140 08:46 20.11.2019
3838 Clouds 30 1010 79 10000 3.6 140 08:28 20.11.2019
3839 Clouds 30 1010 79 10000 3.6 140 07:57 20.11.2019
3840 Rain 29 1010 67 0 1.7 125 07:37 20.11.2019
3841 Clouds 30 1011 74 10000 2.6 130 07:18 20.11.2019
3842 Clouds 30 1011 74 10000 2.6 130 06:45 20.11.2019
3843 Clouds 30 1011 74 10000 3.1 120 06:19 20.11.2019
3844 Rain 28 1010 73 0 3.99 124 04:43 20.11.2019
3845 Clouds 28 1008 83 10000 3.1 90 02:29 20.11.2019
3846 Rain 28 1009 75 0 4.75 95 01:38 20.11.2019
3847 Rain 28 1008 73 0 2.93 103 00:58 20.11.2019
3848 Thunderstorm 28 1008 78 10000 27.3 80 00:22 20.11.2019
3849 Rain 28 1008 73 0 2.93 103 23:41 19.11.2019
3850 Thunderstorm 28 1009 83 10000 1.5 160 23:22 19.11.2019
3851 Thunderstorm 28 1009 83 10000 1.5 160 22:56 19.11.2019
3852 Rain 28 1008 73 0 2.91 83 22:37 19.11.2019
3853 Thunderstorm 27 1009 78 10000 1.5 130 22:18 19.11.2019
3854 Thunderstorm 27 1009 78 10000 1.5 130 22:18 19.11.2019
3855 Thunderstorm 27 1009 78 10000 1.5 130 21:55 19.11.2019
3856 Rain 28 1008 73 0 2.91 83 21:36 19.11.2019
3857 Clouds 28 1010 78 10000 2.1 100 21:18 19.11.2019
3858 Clouds 28 1010 78 10000 2.1 100 20:54 19.11.2019
3859 Rain 28 1008 73 0 2.91 83 20:36 19.11.2019
3860 Clouds 28 1010 83 10000 3.6 100 20:18 19.11.2019
3861 Clouds 28 1010 83 10000 3.6 100 19:42 19.11.2019
3862 Clouds 29 1011 79 10000 2.6 130 19:20 19.11.2019
3863 Clouds 29 1011 79 10000 2.6 130 18:58 19.11.2019
3864 Rain 28 1010 74 0 3.31 72 18:40 19.11.2019
3865 Clouds 29 1011 79 10000 3.6 110 18:21 19.11.2019
3866 Clouds 29 1011 79 10000 3.6 110 17:58 19.11.2019
3867 Rain 28 1010 74 0 3.31 72 17:40 19.11.2019
3868 Clouds 29 1010 79 10000 2.1 120 17:20 19.11.2019
3869 Clouds 29 1010 79 10000 2.1 120 16:59 19.11.2019
3870 Rain 28 1010 73 0 2.79 79 16:40 19.11.2019
3871 Rain 28 1010 73 0 2.79 79 16:40 19.11.2019
3872 Clouds 28 1010 83 10000 2.1 120 16:20 19.11.2019
3873 Clouds 28 1010 83 10000 2.1 120 15:47 19.11.2019
3874 Clouds 28 1010 83 10000 2.1 120 15:47 19.11.2019
3875 Clouds 28 1009 83 10000 0.5 0 15:27 19.11.2019
3876 Clouds 28 1009 83 10000 0.5 0 14:58 19.11.2019
3877 Rain 28 1010 73 0 2.79 79 14:39 19.11.2019
3878 Clouds 30 1008 74 10000 2.1 70 14:20 19.11.2019
3879 Clouds 30 1008 74 10000 2.1 70 13:42 19.11.2019
3880 Clouds 29 1008 83 10000 1.5 340 13:21 19.11.2019
3881 Clouds 29 1008 83 10000 1.5 340 12:57 19.11.2019
3882 Clouds 29 1008 70 0 2.04 116 12:39 19.11.2019
3883 Clouds 30 1008 79 10000 1 0 12:20 19.11.2019
3884 Clouds 30 1008 79 10000 1 0 11:55 19.11.2019
3885 Clouds 29 1008 70 0 2.04 116 11:36 19.11.2019
3886 Rain 31 1008 74 10000 3.1 100 11:18 19.11.2019
3887 Rain 31 1008 74 10000 3.1 100 10:44 19.11.2019
3888 Clouds 31 1009 70 10000 2.1 130 10:21 19.11.2019
3889 Clouds 31 1009 70 10000 2.1 130 09:43 19.11.2019
3890 Clouds 31 1010 74 10000 2.6 120 09:21 19.11.2019
3891 Clouds 31 1010 74 10000 2.6 120 08:58 19.11.2019
3892 Clouds 28 1008 71 0 2.32 137 08:40 19.11.2019
3893 Clouds 31 1011 74 10000 2.6 100 08:21 19.11.2019
3894 Clouds 31 1011 74 10000 2.6 100 07:56 19.11.2019
3895 Clouds 31 1012 70 10000 2.6 90 07:36 19.11.2019
3896 Clouds 31 1012 70 10000 2.6 90 07:18 19.11.2019
3897 Clouds 31 1012 70 10000 2.6 90 06:42 19.11.2019
3898 Clouds 30 1012 74 10000 3.1 100 06:18 19.11.2019
3899 Clouds 30 1012 74 10000 3.1 100 06:18 19.11.2019
3900 Clouds 28 1011 88 10000 2.1 120 05:19 19.11.2019
3901 Clouds 28 1011 75 0 3.61 107 03:40 19.11.2019
3902 Clouds 27 1010 88 10000 2.1 80 03:19 19.11.2019
3903 Clouds 27 1010 88 10000 2.1 80 02:47 19.11.2019
3904 Clouds 28 1009 83 10000 3.1 90 01:49 19.11.2019
3905 Clouds 28 1009 83 10000 3.1 100 00:49 19.11.2019
3906 Clouds 27 1009 88 10000 2.1 90 00:20 19.11.2019
3907 Clouds 28 1009 79 0 3.98 117 23:40 18.11.2019
3908 Clouds 26 1009 94 10000 1.5 80 23:20 18.11.2019
3909 Clouds 26 1009 94 10000 1.5 80 22:47 18.11.2019
3910 Clouds 28 1010 83 10000 2.1 110 22:24 18.11.2019
3911 Clouds 28 1010 83 10000 2.1 110 21:59 18.11.2019
3912 Clouds 28 1008 78 0 3.89 109 21:40 18.11.2019
3913 Clouds 28 1010 83 10000 3.1 110 21:21 18.11.2019
3914 Clouds 28 1010 83 10000 3.1 110 20:59 18.11.2019
3915 Clouds 28 1008 78 0 3.89 109 20:41 18.11.2019
3916 Clouds 27 1011 88 10000 1.5 60 20:19 18.11.2019
3917 Clouds 27 1011 88 10000 1.5 60 19:58 18.11.2019
3918 Rain 28 1011 78 0 4.45 84 19:38 18.11.2019
3919 Rain 28 1011 78 0 4.45 84 19:20 18.11.2019
3920 Rain 28 1011 78 0 4.45 84 18:56 18.11.2019
3921 -273 0 0 0 0 0 18:38 18.11.2019
3922 Clouds 29 1011 79 10000 3.1 90 18:19 18.11.2019
3923 Clouds 29 1011 79 10000 3.1 90 17:56 18.11.2019
3924 Rain 28 1011 78 0 4.45 84 17:37 18.11.2019
3925 Clouds 29 1010 79 10000 4.1 90 17:19 18.11.2019
3926 Clouds 29 1010 79 10000 4.1 90 17:19 18.11.2019
3927 Clouds 29 1010 79 10000 4.1 90 16:43 18.11.2019
3928 Clouds 29 1010 79 10000 4.1 90 16:43 18.11.2019
3929 Clouds 29 1010 79 10000 4.6 90 16:24 18.11.2019
3930 Clouds 29 1010 79 10000 4.6 90 15:58 18.11.2019
3931 Clouds 28 1011 77 0 4.91 88 15:40 18.11.2019
3932 Clouds 28 1009 83 10000 2.1 100 15:21 18.11.2019
3933 Clouds 28 1009 83 10000 2.1 100 14:58 18.11.2019
3934 Clouds 28 1011 77 0 4.91 88 14:38 18.11.2019
3935 Clouds 30 1008 74 10000 2.6 100 14:18 18.11.2019
3936 Clouds 30 1008 74 10000 2.6 100 13:42 18.11.2019
3937 Clouds 31 1008 74 10000 2.6 100 13:24 18.11.2019
3938 Clouds 31 1008 74 10000 2.6 100 12:43 18.11.2019
3939 Clouds 31 1008 70 10000 2.1 110 12:20 18.11.2019
3940 Clouds 31 1008 70 10000 2.1 110 11:57 18.11.2019
3941 Rain 28 1009 76 0 4.6 106 11:38 18.11.2019
3942 Clouds 31 1008 70 10000 3.6 110 11:20 18.11.2019
3943 Clouds 31 1008 70 10000 3.6 110 10:44 18.11.2019
3944 Clouds 31 1009 70 10000 4.1 90 10:25 18.11.2019
3945 Clouds 31 1009 70 10000 4.1 90 09:58 18.11.2019
3946 Rain 28 1008 76 0 4.87 115 09:38 18.11.2019
3947 Clouds 31 1010 70 10000 4.1 100 09:20 18.11.2019
3948 Clouds 31 1010 70 10000 4.1 100 08:55 18.11.2019
3949 Rain 28 1008 76 0 4.87 115 08:36 18.11.2019
3950 Clouds 32 1011 62 10000 2.6 120 08:18 18.11.2019
3951 Clouds 32 1011 62 10000 2.6 120 07:44 18.11.2019
3952 Clouds 31 1012 70 10000 4.6 90 07:23 18.11.2019
3953 Clouds 31 1012 70 10000 4.6 90 06:48 18.11.2019
3954 Clouds 30 1012 74 10000 4.1 90 06:28 18.11.2019
3955 Rain 28 1012 76 0 5.31 98 05:42 18.11.2019
3956 Clouds 28 1011 83 10000 2.1 130 03:59 18.11.2019
3957 Clouds 28 1010 83 10000 4.6 90 01:40 18.11.2019
3958 Clouds 28 1009 83 10000 4.1 90 00:54 18.11.2019
3959 Clouds 28 1009 83 10000 5.1 120 00:19 18.11.2019
3960 Rain 28 1010 76 0 6.06 106 23:41 17.11.2019
3961 Clouds 29 1009 79 10000 5.1 90 23:21 17.11.2019
3962 Clouds 29 1009 79 10000 5.1 90 22:57 17.11.2019
3963 Clouds 29 1009 79 10000 5.1 90 22:57 17.11.2019
3964 Rain 28 1009 78 0 5.51 104 22:39 17.11.2019
3965 Clouds 29 1010 83 10000 5.7 90 22:20 17.11.2019
3966 Clouds 29 1010 83 10000 5.7 90 21:55 17.11.2019
3967 Rain 28 1009 78 0 5.51 104 21:36 17.11.2019
3968 Clouds 29 1010 79 10000 5.7 90 21:18 17.11.2019
3969 Clouds 29 1010 79 10000 5.7 90 21:18 17.11.2019
3970 Clouds 29 1010 79 10000 5.7 90 20:54 17.11.2019
3971 Rain 28 1009 78 0 5.51 104 20:36 17.11.2019
3972 Clouds 29 1011 83 10000 4.6 90 20:18 17.11.2019
3973 Clouds 29 1011 83 10000 4.6 90 20:18 17.11.2019
3974 Clouds 29 1011 83 10000 4.6 90 19:54 17.11.2019
3975 Clouds 29 1011 79 10000 5.1 90 19:36 17.11.2019
3976 Clouds 29 1011 79 10000 5.1 90 19:18 17.11.2019
3977 Clouds 29 1011 79 10000 5.1 90 18:54 17.11.2019
3978 Clouds 29 1011 79 10000 5.1 90 18:54 17.11.2019
3979 Rain 28 1011 79 0 5.24 90 18:36 17.11.2019
3980 Clouds 29 1011 79 10000 5.7 90 18:18 17.11.2019
3981 Clouds 29 1011 79 10000 5.7 90 18:18 17.11.2019
3982 Clouds 29 1011 79 10000 5.7 90 17:56 17.11.2019
3983 Clouds 29 1011 79 10000 5.7 90 17:56 17.11.2019
3984 Rain 28 1011 79 0 5.24 90 17:38 17.11.2019
3985 Clouds 29 1010 79 10000 4.6 90 17:18 17.11.2019
3986 Rain 28 1010 79 0 5.85 101 16:42 17.11.2019
3987 Clouds 29 1009 83 10000 5.1 90 16:22 17.11.2019
3988 Clouds 29 1009 83 10000 5.1 90 15:57 17.11.2019
3989 Rain 28 1010 79 0 5.85 101 15:39 17.11.2019
3990 Clouds 29 1009 83 10000 4.1 100 15:19 17.11.2019
3991 Clouds 29 1009 83 10000 4.1 100 14:57 17.11.2019
3992 Rain 28 1010 79 0 5.85 101 14:39 17.11.2019
3993 Clouds 29 1008 83 10000 3.6 100 14:20 17.11.2019
3994 Clouds 29 1008 83 10000 3.6 100 13:59 17.11.2019
3995 Clouds 29 1008 83 10000 3.6 100 13:59 17.11.2019
3996 Rain 28 1008 79 0 5.59 95 13:40 17.11.2019
3997 Clouds 31 1008 79 10000 5.1 90 13:19 17.11.2019
3998 Clouds 29 1008 78 0 5.83 91 12:45 17.11.2019
3999 Clouds 31 1008 74 10000 5.7 100 12:24 17.11.2019
4000 Clouds 31 1008 74 10000 5.7 100 11:59 17.11.2019
4001 Clouds 29 1008 78 0 5.83 91 11:40 17.11.2019
4002 Clouds 31 1008 74 10000 5.7 90 11:21 17.11.2019
4003 Clouds 31 1008 74 10000 5.7 90 10:56 17.11.2019
4004 Clouds 31 1008 74 10000 5.7 90 10:56 17.11.2019
4005 Clouds 28 1008 77 0 5.85 83 10:36 17.11.2019
4006 Clouds 31 1009 70 10000 6.2 90 10:18 17.11.2019
4007 Clouds 28 1008 77 0 5.85 83 09:41 17.11.2019
4008 Clouds 31 1009 74 10000 6.7 90 09:23 17.11.2019
4009 Clouds 31 1009 74 10000 6.7 90 08:44 17.11.2019
4010 Clouds 31 1010 70 10000 6.7 100 08:24 17.11.2019
4011 Clouds 31 1010 70 10000 6.7 100 07:56 17.11.2019
4012 Clear 28 1010 78 0 6.95 79 07:38 17.11.2019
4013 Clouds 31 1011 70 10000 6.7 100 07:19 17.11.2019
4014 Clouds 31 1011 70 10000 6.7 100 06:50 17.11.2019
4015 Clouds 30 1011 74 10000 5.7 120 06:28 17.11.2019
4016 Clouds 30 1011 74 10000 6.7 100 04:57 17.11.2019
4017 Clouds 29 1010 79 10000 6.7 100 03:58 17.11.2019
4018 Clouds 28 1011 74 0 4.89 95 03:33 17.11.2019
4019 Clouds 28 1011 74 0 4.89 95 02:41 17.11.2019
4020 Clouds 28 1009 78 10000 5.1 90 01:50 17.11.2019
4021 Clouds 28 1008 83 10000 4.1 100 00:59 17.11.2019
4022 Clouds 27 1008 83 10000 4.6 90 00:23 17.11.2019
4023 Clouds 27 1008 83 10000 4.6 90 23:59 16.11.2019
4024 Rain 27 1009 79 0 5.02 193 23:40 16.11.2019
4025 Clouds 28 1010 75 0 6.11 165 23:18 16.11.2019
4026 Clouds 28 1010 75 0 6.11 165 22:42 16.11.2019
4027 Clouds 28 1010 75 0 6.11 165 22:42 16.11.2019
4028 Clouds 27 1010 88 10000 2.6 100 22:20 16.11.2019
4029 Clouds 27 1010 88 10000 2.6 100 21:58 16.11.2019
4030 Clouds 28 1010 75 0 6.11 165 21:39 16.11.2019
4031 Clouds 27 1010 88 10000 2.1 140 21:21 16.11.2019
4032 Clouds 27 1010 88 10000 2.1 140 20:57 16.11.2019
4033 Clouds 28 1010 75 0 6.11 165 20:38 16.11.2019
4034 Clouds 27 1011 83 10000 2.6 140 20:18 16.11.2019
4035 Rain 27 1012 77 0 3.04 193 19:41 16.11.2019
4036 Clouds 27 1011 83 10000 2.6 150 19:22 16.11.2019
4037 Clouds 27 1011 83 10000 2.6 150 18:56 16.11.2019
4038 Rain 27 1012 77 0 3.04 193 18:38 16.11.2019
4039 Clouds 27 1012 83 10000 3.6 150 18:20 16.11.2019
4040 Rain 27 1012 77 0 3.04 193 17:39 16.11.2019
4041 Clouds 27 1011 83 10000 3.6 150 17:21 16.11.2019
4042 Clouds 27 1011 83 10000 3.6 150 16:59 16.11.2019
4043 Clouds 27 1011 83 10000 3.6 150 16:59 16.11.2019
4044 Rain 25 1011 79 0 0.97 167 16:41 16.11.2019
4045 Clouds 27 1011 83 10000 4.1 120 16:22 16.11.2019
4046 Clouds 27 1011 83 10000 4.1 120 15:42 16.11.2019
4047 Clouds 27 1010 83 10000 5.1 140 15:24 16.11.2019
4048 Clouds 27 1010 83 10000 5.1 140 14:59 16.11.2019
4049 Rain 25 1011 79 0 0.97 167 14:40 16.11.2019
4050 Clouds 27 1010 88 10000 5.1 140 14:21 16.11.2019
4051 Clouds 27 1010 88 10000 5.1 140 13:56 16.11.2019
4052 Rain 25 1009 86 0 2.51 171 13:38 16.11.2019
4053 Clouds 27 1009 83 10000 4.6 120 13:19 16.11.2019
4054 Clouds 27 1009 83 10000 4.6 120 12:56 16.11.2019
4055 Rain 25 1010 86 0 3 194 12:38 16.11.2019
4056 Rain 27 1009 88 9000 5.1 140 12:19 16.11.2019
4057 Rain 27 1009 88 9000 5.1 140 11:43 16.11.2019
4058 Rain 26 1010 88 9000 4.1 140 11:25 16.11.2019
4059 Rain 26 1010 88 9000 4.1 140 10:56 16.11.2019
4060 Rain 25 1009 83 0 2.07 134 10:37 16.11.2019
4061 Rain 26 1011 94 9000 4.6 150 10:19 16.11.2019
4062 Rain 26 1011 94 9000 4.6 150 09:43 16.11.2019
4063 Rain 26 1012 88 9000 3.6 200 09:21 16.11.2019
4064 Rain 26 1012 88 9000 3.6 200 08:58 16.11.2019
4065 Rain 25 1009 83 0 2.07 134 08:37 16.11.2019
4066 Rain 29 1012 79 9000 2.6 140 08:18 16.11.2019
4067 Rain 29 1012 79 9000 2.6 140 07:41 16.11.2019
4068 Clouds 29 1012 74 10000 6.7 80 07:20 16.11.2019
4069 Clouds 29 1012 74 10000 6.7 80 06:45 16.11.2019
4070 Clouds 29 1012 79 10000 3.6 80 06:26 16.11.2019
4071 Clouds 28 1012 78 10000 3.6 100 04:50 16.11.2019
4072 Rain 26 1010 88 10000 3.1 90 03:27 16.11.2019
4073 Rain 26 1010 88 10000 3.1 90 03:27 16.11.2019
4074 Rain 26 1010 88 10000 3.1 90 02:55 16.11.2019
4075 Rain 26 1009 88 8000 5.1 90 01:44 16.11.2019
4076 Rain 26 1009 88 8000 5.1 90 01:44 16.11.2019
4077 Clouds 26 1009 94 10000 5.1 60 01:18 16.11.2019
4078 Clouds 26 1009 94 10000 5.1 60 00:41 16.11.2019
4079 Rain 25 1009 94 8000 6.7 70 00:20 16.11.2019
4080 Rain 27 1009 81 0 4.89 95 23:39 15.11.2019
4081 Rain 27 1009 81 0 4.89 95 23:39 15.11.2019
4082 Rain 27 1009 83 8000 7.7 70 23:20 15.11.2019
4083 Rain 27 1009 83 8000 7.7 70 22:55 15.11.2019
4084 Rain 27 1009 83 8000 7.7 70 22:55 15.11.2019
4085 Rain 25 1008 88 0 1.73 72 22:36 15.11.2019
4086 Clouds 27 1010 83 10000 3.1 100 22:18 15.11.2019
4087 Rain 25 1008 88 0 1.73 72 21:41 15.11.2019
4088 Clouds 27 1010 83 10000 2.6 110 21:20 15.11.2019
4089 Clouds 27 1010 83 10000 2.6 110 20:59 15.11.2019
4090 Rain 25 1008 88 0 1.73 72 20:40 15.11.2019
4091 Clouds 27 1011 88 10000 3.6 110 20:21 15.11.2019
4092 Clouds 27 1011 88 10000 3.6 110 19:59 15.11.2019
4093 Rain 28 1011 69 0 0.07 302 19:40 15.11.2019
4094 Clouds 27 1011 83 10000 3.1 110 19:20 15.11.2019
4095 Clouds 27 1011 83 10000 3.1 110 18:58 15.11.2019
4096 Rain 28 1011 69 0 0.07 302 18:40 15.11.2019
4097 Clouds 27 1011 88 10000 2.6 110 18:21 15.11.2019
4098 Clouds 27 1011 88 10000 2.6 110 17:43 15.11.2019
4099 Clouds 27 1011 88 10000 3.1 110 17:25 15.11.2019
4100 Clouds 27 1011 88 10000 3.1 110 17:25 15.11.2019
4101 Clouds 27 1011 88 10000 3.1 110 16:57 15.11.2019
4102 Rain 29 1011 69 0 1.18 186 16:38 15.11.2019
4103 Clouds 27 1010 88 10000 2.1 120 16:20 15.11.2019
4104 Rain 29 1011 69 0 1.18 186 15:39 15.11.2019
4105 Rain 29 1011 69 0 1.18 186 15:39 15.11.2019
4106 Rain 29 1011 69 0 1.18 186 15:20 15.11.2019
4107 Rain 29 1011 69 0 1.18 186 14:58 15.11.2019
4108 Rain 29 1011 69 0 1.18 186 14:39 15.11.2019
4109 Rain 29 1009 67 0 1.38 162 14:21 15.11.2019
4110 Rain 29 1009 67 0 1.38 162 13:59 15.11.2019
4111 Rain 29 1009 67 0 1.38 162 13:59 15.11.2019
4112 Rain 29 1009 67 0 1.38 162 13:40 15.11.2019
4113 Clouds 29 1008 79 9000 1 0 13:21 15.11.2019
4114 Clouds 29 1008 79 9000 1 0 12:59 15.11.2019
4115 Clouds 29 1009 63 0 0.64 192 12:40 15.11.2019
4116 Clouds 28 1008 83 9000 1.5 110 12:21 15.11.2019
4117 Clouds 28 1008 83 9000 1.5 110 11:59 15.11.2019
4118 Clouds 29 1009 63 0 0.64 192 11:39 15.11.2019
4119 Clouds 28 1009 83 9000 1.5 110 11:21 15.11.2019
4120 Clouds 28 1009 83 9000 1.5 110 10:57 15.11.2019
4121 Clouds 29 1008 64 0 1.39 167 10:39 15.11.2019
4122 Clouds 30 1009 74 9000 4.1 140 10:18 15.11.2019
4123 Clouds 29 1008 64 0 1.39 167 09:41 15.11.2019
4124 Clouds 31 1010 70 10000 2.6 110 09:20 15.11.2019
4125 Clouds 31 1010 70 10000 2.6 110 08:45 15.11.2019
4126 Rain 28 1011 83 10000 6.2 80 08:23 15.11.2019
4127 Rain 28 1011 83 10000 6.2 80 07:49 15.11.2019
4128 Clouds 30 1012 79 10000 3.6 100 07:29 15.11.2019
4129 Clouds 30 1012 79 10000 3.6 100 06:59 15.11.2019
4130 Rain 29 1011 70 0 3.36 158 06:34 15.11.2019
4131 Clouds 30 1011 79 10000 3.6 120 05:49 15.11.2019
4132 Clouds 28 1011 83 10000 2.1 100 05:27 15.11.2019
4133 Clouds 27 1011 83 10000 1.5 120 03:58 15.11.2019
4134 Thunderstorm 26 1010 88 10000 3.6 90 03:32 15.11.2019
4135 Thunderstorm 26 1009 94 8000 8.7 90 02:23 15.11.2019
4136 Thunderstorm 26 1009 94 8000 8.7 90 01:36 15.11.2019
4137 Thunderstorm 26 1009 94 8000 8.7 90 01:36 15.11.2019
4138 Rain 28 1008 73 0 3.31 116 01:18 15.11.2019
4139 Rain 28 1008 73 0 3.31 116 00:34 15.11.2019
4140 Rain 27 1008 88 10000 4.1 170 23:57 14.11.2019
4141 Rain 27 1008 88 10000 4.1 170 23:38 14.11.2019
4142 Clouds 28 1009 83 10000 3.1 70 23:18 14.11.2019
4143 Rain 28 1008 78 0 2.67 75 22:40 14.11.2019
4144 Clouds 29 1009 79 10000 4.1 100 22:21 14.11.2019
4145 Clouds 29 1009 79 10000 4.1 100 22:21 14.11.2019
4146 Clouds 29 1009 79 10000 4.1 100 21:57 14.11.2019
4147 Rain 28 1008 78 0 2.67 75 21:38 14.11.2019
4148 Rain 28 1008 78 0 2.67 75 21:38 14.11.2019
4149 Clouds 29 1010 74 10000 4.6 90 21:20 14.11.2019
4150 Rain 28 1008 78 0 2.67 75 20:42 14.11.2019
4151 Clouds 29 1010 79 10000 5.1 100 20:24 14.11.2019
4152 Clouds 29 1010 79 10000 5.1 100 19:59 14.11.2019
4153 Clouds 29 1010 79 10000 5.1 100 19:59 14.11.2019
4154 Clouds 29 1010 79 10000 5.1 100 19:41 14.11.2019
4155 Clouds 29 1012 79 10000 2.6 90 19:18 14.11.2019
4156 Clouds 29 1012 79 10000 2.6 90 18:56 14.11.2019
4157 Rain 29 1011 76 0 3.69 93 18:38 14.11.2019
4158 Clouds 28 1011 83 10000 2.1 100 18:20 14.11.2019
4159 Clouds 28 1011 83 10000 2.1 100 17:56 14.11.2019
4160 Clouds 28 1011 83 10000 2.1 100 17:37 14.11.2019
4161 Clouds 27 1010 83 10000 3.6 140 17:19 14.11.2019
4162 Clouds 27 1010 83 10000 3.6 140 16:57 14.11.2019
4163 Rain 29 1010 76 0 4.62 93 16:36 14.11.2019
4164 Clouds 29 1009 74 10000 4.6 90 16:18 14.11.2019
4165 Clouds 29 1009 74 10000 4.6 90 15:56 14.11.2019
4166 Rain 29 1010 76 0 4.62 93 15:37 14.11.2019
4167 Clouds 29 1009 74 10000 4.6 90 15:19 14.11.2019
4168 Clouds 29 1009 74 10000 4.6 90 14:44 14.11.2019
4169 Clouds 30 1008 70 10000 4.6 100 14:22 14.11.2019
4170 Clouds 30 1008 70 10000 4.6 100 13:57 14.11.2019
4171 Clouds 29 1008 77 0 5.23 93 13:38 14.11.2019
4172 Clouds 31 1008 66 10000 5.1 90 13:19 14.11.2019
4173 Clouds 31 1008 66 10000 5.1 90 12:47 14.11.2019
4174 Clouds 31 1008 79 10000 5.1 100 12:26 14.11.2019
4175 Clouds 31 1008 79 10000 5.1 100 11:59 14.11.2019
4176 Clouds 29 1008 76 0 5.83 102 11:39 14.11.2019
4177 Clouds 31 1008 70 10000 5.1 100 11:20 14.11.2019
4178 Clouds 31 1008 70 10000 5.1 100 11:20 14.11.2019
4179 Clouds 31 1008 70 10000 5.1 100 10:58 14.11.2019
4180 Clouds 29 1008 76 0 6.7 95 10:39 14.11.2019
4181 Clouds 32 1009 66 10000 6.2 100 10:20 14.11.2019
4182 Clouds 32 1009 66 10000 6.2 100 09:56 14.11.2019
4183 Clouds 29 1008 76 0 6.7 95 09:38 14.11.2019
4184 Clouds 29 1008 76 0 6.7 95 09:19 14.11.2019
4185 Clouds 29 1008 76 0 6.7 95 08:47 14.11.2019
4186 Clouds 29 1008 76 0 6.7 95 08:47 14.11.2019
4187 Clouds 32 1011 66 10000 6.7 90 08:25 14.11.2019
4188 Clouds 32 1011 66 10000 6.7 90 07:45 14.11.2019
4189 Clouds 31 1011 70 10000 7.2 90 07:26 14.11.2019
4190 Clouds 31 1011 70 10000 7.2 90 06:56 14.11.2019
4191 Clouds 29 1011 77 0 6.8 95 06:37 14.11.2019
4192 Clouds 31 1011 74 10000 6.7 110 06:18 14.11.2019
4193 Rain 28 1011 78 0 6.23 96 04:40 14.11.2019
4194 Rain 28 1011 78 0 6.23 96 04:19 14.11.2019
4195 Rain 28 1009 83 10000 5.7 110 02:45 14.11.2019
4196 Clouds 29 1009 79 10000 6.2 100 01:44 14.11.2019
4197 Clouds 28 1008 78 10000 6.2 100 01:26 14.11.2019
4198 Clouds 28 1008 78 10000 6.2 100 00:49 14.11.2019
4199 Clouds 28 1008 83 10000 4.6 100 00:29 14.11.2019
4200 Clouds 28 1009 78 0 5.32 88 23:41 13.11.2019
4201 Clouds 29 1008 79 10000 5.7 90 23:21 13.11.2019
4202 Clouds 29 1008 79 10000 5.7 90 22:56 13.11.2019
4203 Clouds 28 1008 76 0 4.7 85 22:38 13.11.2019
4204 Clouds 28 1009 83 10000 5.1 90 22:20 13.11.2019
4205 Clouds 28 1009 83 10000 5.1 90 21:55 13.11.2019
4206 Clouds 28 1008 76 0 4.7 85 21:37 13.11.2019
4207 Clouds 28 1010 83 10000 5.1 80 21:19 13.11.2019
4208 Clouds 28 1010 83 10000 5.1 80 20:56 13.11.2019
4209 Clouds 28 1008 76 0 4.7 85 20:37 13.11.2019
4210 Clouds 28 1010 83 10000 4.6 70 20:18 13.11.2019
4211 Clouds 28 1010 83 10000 4.6 70 19:44 13.11.2019
4212 Clouds 29 1011 74 10000 5.7 80 19:20 13.11.2019
4213 Clouds 29 1011 74 10000 5.7 80 18:58 13.11.2019
4214 Clouds 29 1011 76 0 5.73 84 18:39 13.11.2019
4215 Clouds 29 1011 74 10000 5.1 90 18:21 13.11.2019
4216 Clouds 29 1011 74 10000 5.1 90 17:58 13.11.2019
4217 Clouds 29 1011 76 0 5.73 84 17:40 13.11.2019
4218 Clouds 29 1010 74 10000 5.7 90 17:22 13.11.2019
4219 Clouds 29 1010 74 10000 5.7 90 17:22 13.11.2019
4220 Clouds 29 1010 74 10000 5.7 90 16:58 13.11.2019
4221 Clouds 29 1010 75 0 5.99 75 16:40 13.11.2019
4222 Clouds 29 1010 75 0 5.99 75 16:40 13.11.2019
4223 Clouds 29 1009 74 10000 5.1 80 16:21 13.11.2019
4224 Clouds 29 1009 74 10000 5.1 80 16:21 13.11.2019
4225 Clouds 29 1009 74 10000 5.1 80 15:58 13.11.2019
4226 Clouds 29 1009 74 10000 5.1 80 15:39 13.11.2019
4227 Clouds 29 1009 74 10000 5.1 80 15:21 13.11.2019
4228 Clouds 29 1008 74 10000 5.1 80 14:43 13.11.2019
4229 Clouds 29 1008 74 10000 5.1 80 14:23 13.11.2019
4230 Clouds 29 1008 79 10000 5.1 80 13:59 13.11.2019
4231 Clouds 29 1008 79 10000 5.1 80 13:37 13.11.2019
4232 Clouds 29 1008 79 10000 5.1 80 13:19 13.11.2019
4233 Clouds 29 1008 74 0 5.65 74 12:56 13.11.2019
4234 Clouds 29 1008 74 0 5.65 74 12:37 13.11.2019
4235 Clouds 31 1007 70 10000 4.6 90 12:19 13.11.2019
4236 Clouds 29 1008 74 0 5.65 74 11:41 13.11.2019
4237 Rain 29 1008 74 9000 4.6 60 11:21 13.11.2019
4238 Rain 29 1008 74 9000 4.6 60 10:58 13.11.2019
4239 Clouds 29 1008 75 0 6.27 69 10:40 13.11.2019
4240 Clouds 31 1008 70 10000 4.6 90 10:20 13.11.2019
4241 Clouds 31 1008 70 10000 4.6 90 09:57 13.11.2019
4242 Clouds 31 1008 70 10000 4.6 90 09:38 13.11.2019
4243 Clouds 31 1008 70 10000 4.6 90 09:20 13.11.2019
4244 Clouds 29 1008 75 0 6.27 69 08:39 13.11.2019
4245 Clouds 29 1008 75 0 6.27 69 08:39 13.11.2019
4246 Rain 28 1010 76 0 5 73 08:20 13.11.2019
4247 Rain 28 1010 76 0 5 73 07:43 13.11.2019
4248 Clouds 31 1011 70 10000 3.1 100 07:21 13.11.2019
4249 Clouds 31 1011 70 10000 3.1 100 06:47 13.11.2019
4250 Clouds 30 1011 79 10000 3.1 90 06:19 13.11.2019
4251 Clouds 30 1011 79 10000 3.1 90 06:19 13.11.2019
4252 Clouds 30 1011 79 10000 3.1 90 06:19 13.11.2019
4253 Clouds 30 1011 79 10000 3.1 90 05:57 13.11.2019
4254 Rain 28 1010 76 0 5 73 05:38 13.11.2019
4255 Clouds 30 1011 74 10000 3.6 100 04:44 13.11.2019
4256 Clouds 28 1009 78 10000 4.1 110 02:28 13.11.2019
4257 Clouds 28 1009 78 10000 4.1 110 01:46 13.11.2019
4258 Clouds 28 1008 83 10000 2.6 130 00:57 13.11.2019
4259 Clouds 28 1009 76 0 5.02 91 00:36 13.11.2019
4260 Clouds 28 1008 83 10000 2.6 110 23:42 12.11.2019
4261 Clouds 28 1009 83 10000 3.6 110 23:22 12.11.2019
4262 Clouds 28 1009 83 10000 3.6 110 22:58 12.11.2019
4263 Clouds 28 1008 74 0 4.07 96 22:40 12.11.2019
4264 Clouds 28 1009 83 10000 3.1 120 22:18 12.11.2019
4265 Clouds 28 1009 83 10000 3.1 120 21:44 12.11.2019
4266 Clouds 28 1010 78 10000 4.1 140 21:25 12.11.2019
4267 Clouds 28 1010 78 10000 4.1 140 20:58 12.11.2019
4268 Clouds 28 1008 74 0 4.07 96 20:38 12.11.2019
4269 Clouds 28 1011 78 10000 3.1 120 20:19 12.11.2019
4270 Clouds 28 1011 78 10000 3.1 120 19:58 12.11.2019
4271 Rain 28 1011 76 0 4.12 92 19:39 12.11.2019
4272 Clouds 29 1011 79 10000 2.1 120 19:19 12.11.2019
4273 Clouds 29 1011 79 10000 2.1 120 18:59 12.11.2019
4274 Rain 28 1011 76 0 4.12 92 18:40 12.11.2019
4275 Clouds 29 1011 74 10000 3.1 100 18:22 12.11.2019
4276 Clouds 29 1011 74 10000 3.1 100 17:58 12.11.2019
4277 Rain 28 1011 76 0 4.12 92 17:39 12.11.2019
4278 Clouds 29 1010 74 10000 2.6 120 17:21 12.11.2019
4279 Clouds 29 1010 74 10000 2.6 120 16:57 12.11.2019
4280 Clouds 29 1010 71 0 3.02 89 16:39 12.11.2019
4281 Clouds 29 1009 74 10000 2.6 120 16:21 12.11.2019
4282 Clouds 29 1009 74 10000 2.6 120 15:42 12.11.2019
4283 Clouds 29 1008 74 10000 3.1 110 15:21 12.11.2019
4284 Clouds 29 1008 74 10000 3.1 110 14:57 12.11.2019
4285 Clouds 29 1010 71 0 3.02 89 14:37 12.11.2019
4286 Clouds 30 1008 70 10000 2.6 120 14:19 12.11.2019
4287 Clouds 30 1008 70 10000 2.6 120 13:56 12.11.2019
4288 Clouds 29 1008 70 0 3.56 96 13:37 12.11.2019
4289 Clouds 29 1008 70 0 3.56 96 13:37 12.11.2019
4290 Clouds 30 1007 70 10000 3.1 90 13:18 12.11.2019
4291 Clouds 30 1007 70 10000 3.1 90 12:43 12.11.2019
4292 Clouds 31 1007 66 10000 3.1 100 12:20 12.11.2019
4293 Clouds 31 1007 66 10000 3.1 100 11:59 12.11.2019
4294 Clouds 31 1007 66 10000 3.1 100 11:59 12.11.2019
4295 Clouds 31 1007 66 10000 3.1 100 11:40 12.11.2019
4296 Clouds 31 1007 66 10000 3.1 100 11:22 12.11.2019
4297 Clouds 31 1007 66 10000 3.1 100 11:22 12.11.2019
4298 Clouds 31 1008 66 10000 3.1 100 10:56 12.11.2019
4299 Clear 29 1008 70 0 2.9 100 10:38 12.11.2019
4300 Clouds 31 1009 70 10000 3.1 100 10:19 12.11.2019
4301 Clouds 31 1009 70 10000 3.1 100 09:42 12.11.2019
4302 Clouds 31 1009 70 10000 3.1 100 09:23 12.11.2019
4303 Clouds 32 1012 62 10000 2.6 120 08:57 12.11.2019
4304 Clear 28 1008 71 0 2.2 105 08:39 12.11.2019
4305 Clouds 31 1011 70 10000 2.1 100 08:19 12.11.2019
4306 Clouds 31 1011 70 10000 2.1 100 07:40 12.11.2019
4307 Clouds 31 1011 70 10000 2.6 110 07:22 12.11.2019
4308 Clouds 31 1011 70 10000 2.6 110 06:45 12.11.2019
4309 Clouds 30 1011 70 10000 2.6 100 06:23 12.11.2019
4310 Clouds 30 1011 70 10000 2.6 100 05:46 12.11.2019
4311 Clouds 30 1010 74 10000 2.1 110 04:46 12.11.2019
4312 Clouds 28 1010 83 10000 1.5 140 03:48 12.11.2019
4313 Clouds 28 1008 78 10000 0.5 0 01:47 12.11.2019
4314 Clouds 27 1008 88 10000 1.5 130 01:22 12.11.2019
4315 Clouds 27 1008 88 10000 1.5 130 00:47 12.11.2019
4316 Clouds 27 1008 88 10000 1.5 70 00:28 12.11.2019
4317 Clouds 27 1008 88 10000 1.5 70 23:44 11.11.2019
4318 Clouds 28 1009 83 10000 1.5 130 23:23 11.11.2019
4319 Clouds 28 1009 83 10000 1.5 130 22:57 11.11.2019
4320 Rain 27 1008 75 0 0.59 177 22:36 11.11.2019
4321 Clouds 28 1009 83 10000 2.1 80 22:18 11.11.2019
4322 Clouds 28 1009 83 10000 2.1 80 21:57 11.11.2019
4323 Rain 27 1008 75 0 0.59 177 21:38 11.11.2019
4324 Clouds 28 1010 78 10000 2.1 140 21:19 11.11.2019
4325 Clouds 28 1010 78 10000 2.1 140 20:42 11.11.2019
4326 Clouds 28 1011 83 10000 2.1 140 20:20 11.11.2019
4327 Clouds 28 1011 83 10000 2.1 140 19:59 11.11.2019
4328 Clouds 28 1011 83 10000 2.1 140 19:41 11.11.2019
4329 Clouds 28 1011 78 10000 1.5 160 19:18 11.11.2019
4330 Clouds 28 1011 78 10000 1.5 160 18:56 11.11.2019
4331 Clouds 28 1011 70 0 0.83 217 18:37 11.11.2019
4332 Clouds 28 1011 78 10000 1.5 140 18:19 11.11.2019
4333 Clouds 28 1011 78 10000 1.5 140 17:42 11.11.2019
4334 -273 0 0 0 0 0 17:24 11.11.2019
4335 Clouds 28 1010 83 10000 1.5 130 16:43 11.11.2019
4336 Clouds 28 1009 78 10000 2.1 210 16:24 11.11.2019
4337 Clouds 28 1009 78 10000 2.1 210 15:59 11.11.2019
4338 Clouds 28 1009 78 10000 2.1 210 15:40 11.11.2019
4339 Clouds 29 1008 74 10000 1.5 210 15:19 11.11.2019
4340 Clouds 29 1008 74 10000 1.5 210 15:19 11.11.2019
4341 Clouds 29 1008 74 10000 1.5 210 15:19 11.11.2019
4342 Clouds 29 1008 74 10000 1.5 210 14:44 11.11.2019
4343 Clouds 29 1008 79 10000 2.1 210 14:25 11.11.2019
4344 Clouds 29 1008 79 10000 2.1 210 13:58 11.11.2019
4345 Clouds 29 1008 79 10000 2.1 210 13:38 11.11.2019
4346 Clouds 29 1008 79 10000 2.6 220 13:20 11.11.2019
4347 Clouds 29 1008 79 10000 2.6 220 12:57 11.11.2019
4348 Clouds 29 1008 79 10000 2.6 220 12:39 11.11.2019
4349 Clouds 29 1008 74 10000 3.1 240 12:21 11.11.2019
4350 Clouds 29 1008 74 10000 3.1 240 11:43 11.11.2019
4351 Clouds 30 1008 74 10000 2.6 250 11:22 11.11.2019
4352 Clouds 30 1008 74 10000 2.6 250 11:22 11.11.2019
4353 Clouds 30 1008 74 10000 2.6 250 10:58 11.11.2019
4354 Clouds 30 1008 74 10000 2.6 250 10:39 11.11.2019
4355 Clouds 30 1009 74 10000 3.6 250 10:18 11.11.2019
4356 Clouds 30 1009 74 10000 3.6 250 09:55 11.11.2019
4357 Clouds 28 1008 69 0 0.96 262 09:36 11.11.2019
4358 Clouds 30 1010 79 10000 4.1 250 09:18 11.11.2019
4359 Clouds 30 1010 79 10000 4.1 250 08:39 11.11.2019
4360 Rain 28 1011 71 0 1.22 319 08:20 11.11.2019
4361 Rain 28 1011 71 0 1.22 319 07:55 11.11.2019
4362 Rain 28 1011 71 0 1.22 319 07:36 11.11.2019
4363 Clouds 30 1011 74 10000 1.5 270 07:18 11.11.2019
4364 Clouds 30 1011 74 10000 1.5 270 06:41 11.11.2019
4365 Clouds 29 1011 74 10000 1.5 290 06:21 11.11.2019
4366 Clouds 29 1011 74 10000 1.5 290 05:50 11.11.2019
4367 Rain 27 1010 88 9000 2.6 290 03:59 11.11.2019
4368 Clouds 27 1009 83 10000 3.6 360 03:22 11.11.2019
4369 Clouds 28 1008 78 10000 2.6 220 02:20 11.11.2019
4370 Clouds 28 1008 78 10000 2.6 220 01:53 11.11.2019
4371 Clouds 28 1008 83 10000 2.6 240 01:33 11.11.2019
4372 Clouds 28 1008 83 10000 2.6 240 00:47 11.11.2019
4373 Rain 28 1009 73 0 2.87 261 23:59 10.11.2019
4374 Rain 28 1009 73 0 2.87 261 23:39 10.11.2019
4375 Thunderstorm 28 1008 83 10000 1.5 200 23:20 10.11.2019
4376 Thunderstorm 28 1008 83 10000 1.5 200 22:57 10.11.2019
4377 Thunderstorm 28 1008 83 10000 1.5 200 22:38 10.11.2019
4378 Thunderstorm 28 1009 83 10000 2.1 200 22:20 10.11.2019
4379 Thunderstorm 28 1009 83 10000 2.1 200 21:57 10.11.2019
4380 Thunderstorm 28 1009 83 10000 2.1 200 21:39 10.11.2019
4381 Thunderstorm 28 1010 83 10000 2.6 190 21:21 10.11.2019
4382 Thunderstorm 28 1010 83 10000 2.6 190 20:43 10.11.2019
4383 Thunderstorm 28 1011 78 10000 1.5 170 20:23 10.11.2019
4384 Thunderstorm 28 1011 78 10000 1.5 170 19:57 10.11.2019
4385 Thunderstorm 28 1011 78 10000 1.5 170 19:38 10.11.2019
4386 Rain 28 1010 76 0 4.12 267 19:19 10.11.2019
4387 Rain 28 1010 76 0 4.12 267 19:19 10.11.2019
4388 Rain 28 1010 76 0 4.12 267 18:58 10.11.2019
4389 Rain 28 1010 76 0 4.12 267 18:40 10.11.2019
4390 Rain 28 1010 76 0 4.12 267 18:40 10.11.2019
4391 Clouds 28 1011 78 10000 2.6 140 18:20 10.11.2019
4392 Clouds 28 1011 78 10000 2.6 140 17:58 10.11.2019
4393 Rain 28 1010 76 0 4.12 267 17:39 10.11.2019
4394 Rain 27 1011 83 10000 2.6 150 17:20 10.11.2019
4395 Rain 27 1011 83 10000 2.6 150 17:20 10.11.2019
4396 Rain 27 1011 83 10000 2.6 150 16:59 10.11.2019
4397 Rain 27 1011 83 10000 2.6 150 16:41 10.11.2019
4398 Rain 27 1010 83 10000 3.1 170 16:22 10.11.2019
4399 Rain 27 1010 83 10000 3.1 170 15:56 10.11.2019
4400 Rain 27 1010 83 10000 3.1 170 15:56 10.11.2019
4401 Rain 28 1011 76 0 5.23 276 15:37 10.11.2019
4402 Rain 28 1011 76 0 5.23 276 15:18 10.11.2019
4403 Rain 28 1011 76 0 5.23 276 14:56 10.11.2019
4404 Rain 28 1011 76 0 5.23 276 14:38 10.11.2019
4405 Thunderstorm 27 1009 83 9000 4.6 280 14:19 10.11.2019
4406 Thunderstorm 27 1009 83 9000 4.6 280 13:44 10.11.2019
4407 Rain 28 1008 83 10000 1.5 210 13:22 10.11.2019
4408 Rain 28 1008 83 10000 1.5 210 12:59 10.11.2019
4409 Rain 28 1008 83 10000 1.5 210 12:40 10.11.2019
4410 Clouds 30 1008 74 10000 3.1 250 12:19 10.11.2019
4411 Clouds 30 1008 74 10000 3.1 250 11:55 10.11.2019
4412 Rain 28 1009 73 0 4.62 268 11:37 10.11.2019
4413 Clouds 31 1008 70 10000 2.1 290 11:18 10.11.2019
4414 Clouds 31 1008 70 10000 2.1 290 11:18 10.11.2019
4415 Clouds 31 1008 70 10000 2.1 290 10:42 10.11.2019
4416 Clouds 31 1008 70 10000 2.1 290 10:42 10.11.2019
4417 Clouds 31 1009 70 10000 2.1 260 10:20 10.11.2019
4418 Clouds 31 1009 70 10000 2.1 260 09:55 10.11.2019
4419 Clouds 31 1009 70 10000 2.1 260 09:37 10.11.2019
4420 Clouds 29 1010 79 10000 1.5 250 09:18 10.11.2019
4421 Clouds 29 1010 79 10000 1.5 250 08:39 10.11.2019
4422 Clouds 29 1011 79 10000 3.1 250 08:20 10.11.2019
4423 Clouds 29 1011 79 10000 3.1 250 07:44 10.11.2019
4424 Clouds 29 1011 79 10000 1 0 07:25 10.11.2019
4425 Rain 28 1011 73 0 2.05 5 06:38 10.11.2019
4426 Clouds 30 1011 74 10000 2.1 250 05:44 10.11.2019
4427 Clouds 28 1010 83 10000 2.1 230 03:26 10.11.2019
4428 Clouds 28 1009 83 10000 2.1 230 02:20 10.11.2019
4429 Clouds 28 1009 70 0 0.9 167 01:19 10.11.2019
4430 Rain 28 1009 71 0 1.2 81 00:45 10.11.2019
4431 Clouds 28 1009 83 10000 3.1 220 23:59 09.11.2019
4432 Clouds 28 1009 83 10000 3.1 220 23:59 09.11.2019
4433 Clouds 27 1009 88 10000 2.1 200 23:38 09.11.2019
4434 Clouds 27 1009 88 10000 2.1 200 23:19 09.11.2019
4435 Clouds 27 1009 88 10000 2.1 200 22:42 09.11.2019
4436 Clouds 28 1010 83 10000 2.1 200 22:22 09.11.2019
4437 Clouds 28 1010 83 10000 2.1 200 21:58 09.11.2019
4438 Clouds 28 1010 83 10000 2.1 200 21:39 09.11.2019
4439 Clouds 28 1011 83 10000 2.1 190 21:20 09.11.2019
4440 Clouds 28 1011 83 10000 2.1 190 20:44 09.11.2019
4441 Clouds 28 1011 83 10000 2.1 190 20:44 09.11.2019
4442 Clouds 28 1011 78 10000 2.1 200 20:24 09.11.2019
4443 Clouds 28 1011 78 10000 2.1 200 19:59 09.11.2019
4444 Clouds 28 1011 78 10000 2.1 200 19:40 09.11.2019
4445 Clouds 27 1012 88 10000 2.1 130 19:22 09.11.2019
4446 Clouds 27 1012 88 10000 2.1 130 18:57 09.11.2019
4447 Clouds 27 1012 88 10000 2.1 130 18:38 09.11.2019
4448 Clouds 28 1012 83 10000 2.1 140 18:18 09.11.2019
4449 Clouds 28 1012 83 10000 2.1 140 17:42 09.11.2019
4450 Clouds 27 1011 88 10000 1 0 17:22 09.11.2019
4451 Clouds 27 1011 88 10000 1 0 16:57 09.11.2019
4452 Clouds 28 1011 68 0 0.38 2 16:38 09.11.2019
4453 Clouds 27 1010 88 10000 2.1 150 16:18 09.11.2019
4454 Clouds 27 1010 88 10000 2.1 150 15:42 09.11.2019
4455 Rain 27 1010 88 9000 2.6 180 15:23 09.11.2019
4456 Rain 27 1010 88 9000 2.6 180 14:46 09.11.2019
4457 Clouds 30 1009 74 10000 2.6 100 14:23 09.11.2019
4458 Clouds 30 1009 74 10000 2.6 100 13:58 09.11.2019
4459 Clouds 30 1009 74 10000 2.6 100 13:40 09.11.2019
4460 Clouds 29 1008 79 10000 3.1 100 13:21 09.11.2019
4461 Clouds 29 1008 79 10000 3.1 100 12:59 09.11.2019
4462 Clouds 29 1008 79 10000 3.1 100 12:40 09.11.2019
4463 Clouds 30 1008 70 10000 1 0 12:22 09.11.2019
4464 Clouds 30 1008 70 10000 1 0 11:54 09.11.2019
4465 Rain 28 1009 71 0 2.9 259 11:36 09.11.2019
4466 Clouds 30 1009 74 10000 1.5 240 11:18 09.11.2019
4467 Rain 28 1009 72 0 2.62 256 10:39 09.11.2019
4468 Clouds 30 1009 70 10000 2.1 90 10:19 09.11.2019
4469 Clouds 30 1009 70 10000 2.1 90 10:19 09.11.2019
4470 Clouds 30 1009 70 10000 2.1 90 09:45 09.11.2019
4471 Rain 30 1010 74 10000 1.5 240 09:27 09.11.2019
4472 Rain 30 1010 74 10000 1.5 240 08:59 09.11.2019
4473 Rain 30 1010 74 10000 1.5 240 08:59 09.11.2019
4474 Rain 28 1009 72 0 2.62 256 08:39 09.11.2019
4475 Clouds 30 1011 74 10000 2.1 80 08:19 09.11.2019
4476 Clouds 30 1011 74 10000 2.1 80 07:45 09.11.2019
4477 Clouds 30 1012 74 10000 0.5 0 07:23 09.11.2019
4478 Clouds 30 1012 74 10000 0.5 0 06:49 09.11.2019
4479 Clouds 29 1012 79 10000 1 0 06:30 09.11.2019
4480 Clouds 29 1012 79 10000 1 0 05:43 09.11.2019
4481 Clouds 29 1012 83 10000 1 0 04:58 09.11.2019
4482 Clouds 29 1011 79 10000 1 0 03:52 09.11.2019
4483 Clouds 27 1010 88 10000 2.1 360 02:43 09.11.2019
4484 Clouds 28 1009 78 10000 1.5 310 01:55 09.11.2019
4485 Clouds 28 1009 83 10000 1.5 290 00:52 09.11.2019
4486 Clouds 28 1009 78 10000 2.6 290 00:31 09.11.2019
4487 Clouds 28 1009 78 10000 2.6 290 23:58 08.11.2019
4488 Rain 27 1010 82 0 5.67 235 23:39 08.11.2019
4489 Clouds 28 1009 83 10000 2.6 290 23:19 08.11.2019
4490 Clouds 28 1009 83 10000 2.6 290 23:19 08.11.2019
4491 Clouds 28 1009 83 10000 2.6 290 22:48 08.11.2019
4492 Clouds 28 1010 83 10000 2.6 270 22:22 08.11.2019
4493 Clouds 28 1010 83 10000 2.6 270 21:56 08.11.2019
4494 Rain 27 1009 82 0 6.98 245 21:38 08.11.2019
4495 Clouds 28 1011 83 10000 3.1 240 21:18 08.11.2019
4496 Clouds 28 1011 83 10000 3.1 240 20:42 08.11.2019
4497 Clouds 28 1012 83 10000 3.1 240 20:22 08.11.2019
4498 Clouds 28 1012 83 10000 3.1 240 19:58 08.11.2019
4499 Rain 28 1011 76 0 5.5 246 19:38 08.11.2019
4500 Clouds 28 1012 83 10000 4.6 240 19:18 08.11.2019
4501 Clouds 28 1012 83 10000 4.6 240 18:55 08.11.2019
4502 Rain 28 1011 76 0 5.5 246 18:37 08.11.2019
4503 Rain 28 1011 76 0 5.5 246 18:37 08.11.2019
4504 Clouds 28 1012 83 10000 5.1 240 18:19 08.11.2019
4505 Clouds 28 1012 83 10000 5.1 240 17:55 08.11.2019
4506 Clouds 28 1012 83 10000 5.1 240 17:55 08.11.2019
4507 Rain 28 1011 76 0 5.5 246 17:37 08.11.2019
4508 Thunderstorm 27 1012 88 10000 4.6 240 17:19 08.11.2019
4509 Thunderstorm 27 1012 88 10000 4.6 240 16:58 08.11.2019
4510 Rain 28 1012 76 0 4.42 250 16:39 08.11.2019
4511 Rain 28 1012 76 0 4.42 250 16:39 08.11.2019
4512 Thunderstorm 27 1011 88 10000 5.1 240 16:19 08.11.2019
4513 Thunderstorm 27 1011 88 10000 5.1 240 15:57 08.11.2019
4514 Rain 28 1012 76 0 4.42 250 15:38 08.11.2019
4515 Rain 27 1011 88 9000 4.6 210 15:20 08.11.2019
4516 Rain 27 1011 88 9000 4.6 210 14:55 08.11.2019
4517 Rain 28 1012 76 0 4.42 250 14:36 08.11.2019
4518 Clouds 29 1010 79 10000 3.6 220 14:18 08.11.2019
4519 Clouds 29 1010 79 10000 3.6 220 13:43 08.11.2019
4520 Clouds 29 1009 79 10000 2.6 210 13:23 08.11.2019
4521 Clouds 29 1009 79 10000 2.6 210 12:59 08.11.2019
4522 Clouds 29 1009 79 10000 2.6 210 12:41 08.11.2019
4523 Clouds 30 1009 74 10000 2.6 270 12:23 08.11.2019
4524 Clouds 30 1009 74 10000 2.6 270 11:55 08.11.2019
4525 Rain 28 1010 74 0 4.32 246 11:37 08.11.2019
4526 Clouds 29 1009 79 10000 2.1 240 11:19 08.11.2019
4527 Clouds 29 1009 79 10000 2.1 240 11:19 08.11.2019
4528 Clouds 29 1009 79 10000 2.1 240 10:43 08.11.2019
4529 Clouds 29 1010 74 10000 2.6 190 10:22 08.11.2019
4530 Clouds 29 1010 74 10000 2.6 190 09:59 08.11.2019
4531 Clouds 29 1010 74 10000 2.6 190 09:41 08.11.2019
4532 Rain 30 1011 74 10000 2.1 340 09:20 08.11.2019
4533 Rain 30 1011 74 10000 2.1 340 08:47 08.11.2019
4534 Rain 31 1012 70 10000 2.1 210 08:29 08.11.2019
4535 Rain 31 1012 70 10000 2.1 210 07:57 08.11.2019
4536 Rain 29 1012 70 0 2.89 282 07:39 08.11.2019
4537 Clouds 30 1012 74 10000 2.6 250 07:20 08.11.2019
4538 Rain 29 1012 70 0 2.89 282 06:40 08.11.2019
4539 Clouds 30 1012 74 10000 2.1 230 06:20 08.11.2019
4540 Rain 29 1012 70 0 2.89 282 05:40 08.11.2019
4541 Rain 28 1012 74 0 5.08 247 04:43 08.11.2019
4542 Clouds 28 1011 83 10000 1 0 03:44 08.11.2019
4543 Clouds 27 1010 83 10000 1 0 03:21 08.11.2019
4544 Clouds 27 1010 83 10000 1 0 02:41 08.11.2019
4545 Clouds 27 1010 83 10000 1.5 250 01:46 08.11.2019
4546 Rain 28 1010 76 0 4.78 261 01:18 08.11.2019
4547 Clouds 28 1009 83 10000 2.6 290 00:24 08.11.2019
4548 Clouds 28 1009 83 10000 2.6 290 23:57 07.11.2019
4549 Rain 28 1010 76 0 4.78 261 23:39 07.11.2019
4550 Clouds 27 1009 88 10000 1 0 23:20 07.11.2019
4551 Clouds 27 1009 88 10000 1 0 22:42 07.11.2019
4552 Clouds 28 1010 83 10000 1 0 22:21 07.11.2019
4553 Clouds 28 1010 83 10000 1 0 21:56 07.11.2019
4554 Rain 28 1009 75 0 4.76 262 21:37 07.11.2019
4555 Clouds 28 1011 83 10000 2.1 320 21:19 07.11.2019
4556 Clouds 28 1011 83 10000 2.1 320 20:55 07.11.2019
4557 Clouds 28 1009 73 0 4.22 243 20:37 07.11.2019
4558 Clouds 27 1012 88 10000 0.5 0 20:19 07.11.2019
4559 Clouds 27 1012 88 10000 0.5 0 19:42 07.11.2019
4560 Clouds 27 1012 88 10000 0.5 0 19:42 07.11.2019
4561 Clouds 28 1012 83 10000 0.5 0 19:23 07.11.2019
4562 Clouds 28 1012 83 10000 0.5 0 18:59 07.11.2019
4563 Rain 28 1011 75 0 3.23 246 18:40 07.11.2019
4564 Clouds 28 1012 83 10000 1 0 18:20 07.11.2019
4565 Clouds 28 1012 83 10000 1 0 18:20 07.11.2019
4566 Clouds 28 1012 83 10000 1 0 18:20 07.11.2019
4567 Clouds 28 1012 83 10000 1 0 17:59 07.11.2019
4568 Clouds 28 1012 83 10000 1 0 17:39 07.11.2019
4569 Clouds 28 1011 83 10000 2.1 330 17:20 07.11.2019
4570 Clouds 28 1011 83 10000 2.1 330 16:58 07.11.2019
4571 Clouds 28 1011 83 10000 2.1 330 16:39 07.11.2019
4572 Clouds 28 1011 83 10000 2.1 330 16:19 07.11.2019
4573 -273 0 0 0 0 0 15:55 07.11.2019
4574 Clouds 28 1011 78 10000 3.1 330 15:36 07.11.2019
4575 Clouds 28 1011 78 10000 3.1 330 15:18 07.11.2019
4576 Clouds 28 1010 83 10000 6.7 300 14:43 07.11.2019
4577 Clouds 28 1010 83 10000 6.7 300 14:25 07.11.2019
4578 Rain 28 1009 76 0 5.38 284 13:56 07.11.2019
4579 Rain 28 1009 76 0 5.38 284 13:56 07.11.2019
4580 Rain 28 1009 76 0 5.38 284 13:38 07.11.2019
4581 Rain 28 1009 76 0 5.91 274 13:20 07.11.2019
4582 Rain 28 1009 76 0 5.91 274 12:58 07.11.2019
4583 Rain 28 1009 76 0 5.91 274 12:39 07.11.2019
4584 Rain 28 1009 76 0 5.91 274 12:20 07.11.2019
4585 Rain 28 1009 76 0 5.91 274 12:20 07.11.2019
4586 Rain 28 1009 76 0 5.91 274 11:44 07.11.2019
4587 Rain 28 1009 76 0 5.91 274 11:44 07.11.2019
4588 -273 0 0 0 0 0 11:24 07.11.2019
4589 Clouds 30 1008 70 10000 4.1 300 11:23 07.11.2019
4590 Clouds 30 1008 70 10000 4.1 300 10:59 07.11.2019
4591 Clouds 30 1008 70 10000 4.1 300 10:40 07.11.2019
4592 Clouds 30 1008 70 10000 4.1 300 10:18 07.11.2019
4593 Clouds 30 1009 74 10000 3.6 310 09:42 07.11.2019
4594 Clouds 30 1009 74 10000 3.6 310 09:22 07.11.2019
4595 Clouds 30 1010 74 10000 3.6 310 08:55 07.11.2019
4596 Clouds 30 1010 74 10000 3.6 310 08:37 07.11.2019
4597 Clouds 30 1010 74 10000 3.6 310 08:18 07.11.2019
4598 Clouds 31 1011 70 10000 4.1 300 07:41 07.11.2019
4599 Clouds 31 1011 70 10000 4.1 300 07:21 07.11.2019
4600 Clouds 31 1012 74 10000 4.6 290 06:48 07.11.2019
4601 Clouds 31 1012 74 10000 4.6 290 06:48 07.11.2019
4602 Clouds 31 1012 74 10000 4.6 290 06:27 07.11.2019
4603 Clouds 29 1011 79 10000 4.6 290 05:53 07.11.2019
4604 Clouds 29 1011 79 10000 4.6 290 05:33 07.11.2019
4605 Clouds 28 1011 78 10000 4.1 300 04:57 07.11.2019
4606 Clouds 28 1011 78 10000 4.1 300 04:38 07.11.2019
4607 Clouds 28 1009 78 10000 4.6 290 01:54 07.11.2019
4608 Clouds 28 1008 83 10000 4.1 290 00:47 07.11.2019
4609 -273 0 0 0 0 0 00:19 07.11.2019
4610 Clouds 28 1008 78 10000 2.1 310 23:47 06.11.2019
4611 Clouds 28 1008 78 10000 2.1 310 23:21 06.11.2019
4612 Clouds 28 1009 83 10000 3.6 290 22:56 06.11.2019
4613 Clouds 28 1009 83 10000 3.6 290 22:37 06.11.2019
4614 Clouds 28 1009 83 10000 3.6 290 22:18 06.11.2019
4615 Clouds 28 1009 83 10000 3.6 290 21:42 06.11.2019
4616 Clouds 28 1009 83 10000 3.6 290 21:20 06.11.2019
4617 Clouds 28 1010 78 10000 4.1 290 20:58 06.11.2019
4618 Clouds 28 1010 78 10000 4.1 290 20:40 06.11.2019
4619 Clouds 28 1010 78 10000 4.1 290 20:40 06.11.2019
4620 Clouds 28 1010 78 10000 4.1 290 20:21 06.11.2019
4621 Clouds 28 1010 78 10000 3.6 290 19:58 06.11.2019
4622 Clouds 28 1010 78 10000 3.6 290 19:39 06.11.2019
4623 Clouds 28 1010 78 10000 3.6 290 19:21 06.11.2019
4624 Clouds 28 1011 83 10000 4.1 290 18:57 06.11.2019
4625 Rain 28 1011 77 0 4.29 277 18:38 06.11.2019
4626 Clouds 28 1011 83 10000 3.1 290 18:19 06.11.2019
4627 Clouds 28 1011 83 10000 3.1 290 17:56 06.11.2019
4628 Rain 28 1011 77 0 4.29 277 17:37 06.11.2019
4629 Clouds 28 1010 83 10000 2.6 250 17:18 06.11.2019
4630 Clouds 28 1010 83 10000 2.6 250 16:54 06.11.2019
4631 Rain 28 1011 76 0 3.85 267 16:36 06.11.2019
4632 Clouds 28 1010 78 10000 4.1 290 16:18 06.11.2019
4633 Clouds 28 1010 78 10000 4.1 290 15:54 06.11.2019
4634 Rain 28 1011 76 0 3.85 267 15:36 06.11.2019
4635 Clouds 28 1009 78 10000 3.6 260 15:18 06.11.2019
4636 Clouds 28 1009 78 10000 3.6 260 14:55 06.11.2019
4637 Rain 28 1011 76 0 3.85 267 14:36 06.11.2019
4638 Clouds 27 1009 83 10000 2.6 280 14:18 06.11.2019
4639 Rain 28 1009 77 0 4.57 273 13:38 06.11.2019
4640 Clouds 27 1008 83 10000 6.7 280 13:20 06.11.2019
4641 Clouds 27 1008 83 10000 6.7 280 12:57 06.11.2019
4642 Rain 28 1009 77 0 4.57 273 12:39 06.11.2019
4643 Clouds 29 1008 79 10000 3.6 280 12:20 06.11.2019
4644 Clouds 29 1008 79 10000 3.6 280 11:58 06.11.2019
4645 Rain 28 1009 77 0 4.57 273 11:37 06.11.2019
4646 Clouds 29 1009 79 10000 2.6 270 11:18 06.11.2019
4647 Clouds 29 1009 79 10000 2.6 270 10:56 06.11.2019
4648 Rain 28 1008 78 0 5.78 285 10:37 06.11.2019
4649 Clouds 28 1010 83 10000 2.1 250 10:19 06.11.2019
4650 Clouds 28 1010 83 10000 2.1 250 09:43 06.11.2019
4651 Rain 28 1008 78 0 5.78 285 09:43 06.11.2019
4652 Clouds 28 1010 83 10000 2.1 250 09:43 06.11.2019
4653 Rain 28 1008 78 0 5.78 285 09:21 06.11.2019
4654 Rain 28 1008 78 0 5.78 285 08:58 06.11.2019
4655 Clouds 27 1008 80 0 4.72 286 08:38 06.11.2019
4656 Thunderstorm 26 1012 78 7000 7.2 290 08:20 06.11.2019
4657 Thunderstorm 26 1012 78 7000 7.2 290 07:56 06.11.2019
4658 Rain 27 1011 80 0 5.46 304 07:37 06.11.2019
4659 Thunderstorm 28 1012 78 9000 4.1 320 07:19 06.11.2019
4660 Thunderstorm 28 1012 78 9000 4.1 320 06:42 06.11.2019
4661 Rain 27 1012 88 9000 5.1 240 06:22 06.11.2019
4662 Clouds 27 1012 80 0 5.51 318 03:58 06.11.2019
4663 Thunderstorm 28 1010 78 9000 5.1 290 02:19 06.11.2019
4664 Thunderstorm 28 1010 78 10000 2.6 320 01:31 06.11.2019
4665 Thunderstorm 27 1010 88 9000 2.1 250 00:35 06.11.2019
4666 Thunderstorm 27 1010 88 9000 2.1 250 00:35 06.11.2019
4667 Thunderstorm 27 1010 88 9000 2.1 250 23:57 05.11.2019
4668 Rain 27 1010 72 0 5.54 296 23:37 05.11.2019
4669 Thunderstorm 27 1010 83 10000 3.6 250 23:19 05.11.2019
4670 Thunderstorm 27 1010 83 10000 3.6 250 22:43 05.11.2019
4671 Thunderstorm 27 1010 83 10000 3.6 250 22:43 05.11.2019
4672 Thunderstorm 28 1011 83 10000 4.6 300 22:19 05.11.2019
4673 Thunderstorm 28 1011 83 10000 4.6 300 21:58 05.11.2019
4674 Rain 25 1010 80 0 7.04 335 21:40 05.11.2019
4675 Thunderstorm 27 1012 83 10000 6.2 290 21:20 05.11.2019
4676 Thunderstorm 27 1012 83 10000 6.2 290 20:57 05.11.2019
4677 Rain 25 1010 80 0 7.04 335 20:38 05.11.2019
4678 Thunderstorm 27 1012 83 10000 6.7 250 20:20 05.11.2019
4679 Thunderstorm 27 1012 83 10000 6.7 250 19:55 05.11.2019
4680 Rain 28 1012 75 0 5.52 282 19:37 05.11.2019
4681 Thunderstorm 28 1013 74 10000 4.6 250 19:18 05.11.2019
4682 Thunderstorm 28 1013 74 10000 4.6 250 18:56 05.11.2019
4683 Rain 28 1012 75 0 5.52 282 18:38 05.11.2019
4684 Thunderstorm 28 1013 74 10000 1.5 250 18:19 05.11.2019
4685 Thunderstorm 28 1013 74 10000 1.5 250 18:19 05.11.2019
4686 Thunderstorm 28 1013 74 10000 1.5 250 17:54 05.11.2019
4687 Thunderstorm 28 1013 74 10000 1.5 250 17:54 05.11.2019
4688 Rain 28 1012 75 0 5.52 282 17:36 05.11.2019
4689 Thunderstorm 28 1012 74 10000 1.5 300 17:18 05.11.2019
4690 Thunderstorm 28 1012 74 10000 1.5 300 16:41 05.11.2019
4691 Thunderstorm 28 1011 78 10000 2.1 320 16:20 05.11.2019
4692 Thunderstorm 28 1011 78 10000 2.1 320 15:55 05.11.2019
4693 Thunderstorm 28 1011 78 10000 2.6 290 15:36 05.11.2019
4694 Thunderstorm 28 1011 78 10000 2.6 290 15:18 05.11.2019
4695 Thunderstorm 28 1011 78 10000 2.6 290 14:54 05.11.2019
4696 Rain 28 1012 75 0 5.11 287 14:36 05.11.2019
4697 Thunderstorm 28 1010 74 10000 3.1 340 14:18 05.11.2019
4698 Thunderstorm 28 1010 74 10000 3.1 340 13:42 05.11.2019
4699 Thunderstorm 28 1009 83 10000 4.1 360 13:23 05.11.2019
4700 Thunderstorm 28 1009 83 10000 4.1 360 12:41 05.11.2019
4701 Clouds 29 1009 79 10000 4.1 350 12:22 05.11.2019
4702 Clouds 29 1009 79 10000 4.1 350 11:58 05.11.2019
4703 Rain 28 1010 75 0 5.1 287 11:38 05.11.2019
4704 Clouds 30 1010 70 10000 3.1 300 11:20 05.11.2019
4705 Clouds 30 1010 70 10000 3.1 300 10:55 05.11.2019
4706 Rain 28 1010 75 0 5.27 294 10:37 05.11.2019
4707 Clouds 30 1010 70 10000 2.6 290 10:18 05.11.2019
4708 Clouds 30 1010 70 10000 2.6 290 09:54 05.11.2019
4709 Rain 28 1010 75 0 5.27 294 09:36 05.11.2019
4710 Clouds 30 1011 70 10000 2.1 300 09:18 05.11.2019
4711 Rain 28 1010 75 0 5.27 294 08:38 05.11.2019
4712 Clouds 29 1012 79 10000 1.5 310 08:19 05.11.2019
4713 Clouds 29 1012 79 10000 1.5 310 07:55 05.11.2019
4714 Rain 28 1012 73 0 4.16 282 07:37 05.11.2019
4715 Clouds 30 1013 79 10000 3.1 250 07:19 05.11.2019
4716 Clouds 30 1013 79 10000 3.1 250 06:43 05.11.2019
4717 Clouds 30 1013 79 10000 3.1 250 06:43 05.11.2019
4718 Clouds 28 1013 83 10000 0.5 0 05:51 05.11.2019
4719 Clouds 30 1013 66 10000 2.6 270 05:22 05.11.2019
4720 Clouds 29 1012 70 10000 1 0 04:25 05.11.2019
4721 Clouds 29 1012 70 10000 1 0 03:49 05.11.2019
4722 Rain 28 1013 73 0 4.56 271 02:44 05.11.2019
4723 Clouds 28 1011 78 10000 2.1 360 01:59 05.11.2019
4724 Clouds 28 1011 78 10000 2.6 360 00:50 05.11.2019
4725 Clouds 28 1011 78 10000 2.6 10 00:29 05.11.2019
4726 Clouds 28 1011 78 10000 2.6 10 23:55 04.11.2019
4727 Rain 28 1011 72 0 3.95 283 23:36 04.11.2019
4728 Clouds 28 1011 78 10000 2.1 360 23:18 04.11.2019
4729 Clouds 28 1011 78 10000 2.1 360 23:18 04.11.2019
4730 Clouds 28 1011 78 10000 2.1 360 22:41 04.11.2019
4731 Clouds 28 1011 78 10000 2.1 350 22:22 04.11.2019
4732 Clouds 28 1011 78 10000 2.1 350 21:56 04.11.2019
4733 Clouds 28 1010 73 0 4.08 326 21:37 04.11.2019
4734 Clouds 28 1010 73 0 4.08 326 21:19 04.11.2019
4735 Clouds 28 1010 73 0 4.08 326 20:58 04.11.2019
4736 Clouds 28 1010 73 0 4.08 326 20:39 04.11.2019
4737 Clouds 28 1013 71 0 2.71 320 20:21 04.11.2019
4738 Clouds 28 1013 72 0 3.15 313 19:58 04.11.2019
4739 Clouds 28 1013 72 0 3.15 313 19:40 04.11.2019
4740 Clouds 29 1013 70 10000 2.1 350 19:21 04.11.2019
4741 Clouds 29 1013 70 10000 2.1 350 18:57 04.11.2019
4742 Clouds 28 1013 72 0 3.15 313 18:38 04.11.2019
4743 Clouds 28 1013 74 10000 3.15 313 18:19 04.11.2019
4744 Clouds 28 1013 72 0 3.15 313 17:39 04.11.2019
4745 Clouds 28 1013 72 0 3.15 313 17:39 04.11.2019
4746 Clouds 29 1013 74 10000 0.5 0 17:21 04.11.2019
4747 Clouds 29 1013 74 10000 0.5 0 16:57 04.11.2019
4748 Clouds 29 1013 70 0 3.17 309 16:39 04.11.2019
4749 Clouds 28 1012 78 10000 1 0 16:20 04.11.2019
4750 Clouds 28 1012 78 10000 1 0 15:55 04.11.2019
4751 Clouds 29 1013 70 0 3.17 309 15:36 04.11.2019
4752 Clouds 29 1012 70 10000 3.1 340 15:18 04.11.2019
4753 Clouds 29 1012 70 10000 3.1 340 14:41 04.11.2019
4754 Clouds 30 1011 66 10000 1.5 310 14:21 04.11.2019
4755 Clouds 30 1011 66 10000 1.5 310 13:59 04.11.2019
4756 Clouds 29 1011 69 0 3.32 321 13:41 04.11.2019
4757 Clouds 30 1011 70 10000 2.1 330 13:22 04.11.2019
4758 Clouds 30 1011 70 10000 2.1 330 12:59 04.11.2019
4759 Clouds 30 1011 70 10000 2.1 330 12:41 04.11.2019
4760 Clouds 30 1011 70 10000 1.5 320 12:22 04.11.2019
4761 Clouds 30 1011 70 10000 1.5 320 11:57 04.11.2019
4762 Clouds 29 1011 68 0 2.71 330 11:38 04.11.2019
4763 Clouds 30 1011 70 10000 2.1 50 11:20 04.11.2019
4764 Clouds 30 1011 70 10000 2.1 50 10:44 04.11.2019
4765 Clouds 30 1012 70 10000 2.1 80 10:25 04.11.2019
4766 Clouds 30 1012 70 10000 2.1 80 09:47 04.11.2019
4767 Clouds 30 1012 70 10000 2.1 80 09:28 04.11.2019
4768 Clouds 30 1012 70 10000 2.1 80 08:59 04.11.2019
4769 Clouds 30 1012 70 10000 2.1 80 08:41 04.11.2019
4770 Clouds 30 1014 70 10000 1 0 08:21 04.11.2019
4771 Clouds 30 1014 70 10000 1 0 07:45 04.11.2019
4772 Clouds 30 1014 74 10000 2.1 100 07:24 04.11.2019
4773 Clouds 30 1014 74 10000 2.1 100 06:59 04.11.2019
4774 Clouds 28 1014 68 0 2.69 356 06:36 04.11.2019
4775 Clouds 28 1014 68 0 2.69 356 05:59 04.11.2019
4776 Clouds 28 1014 69 0 2.38 336 04:45 04.11.2019
4777 Rain 27 1013 88 10000 2.6 140 04:23 04.11.2019
4778 Rain 27 1013 88 10000 3.6 140 02:44 04.11.2019
4779 Clouds 28 1012 78 10000 2.1 20 01:22 04.11.2019
4780 Clouds 28 1012 78 10000 2.1 20 00:49 04.11.2019
4781 Clouds 28 1012 78 10000 2.1 350 00:21 04.11.2019
4782 Clouds 28 1012 78 10000 2.1 350 23:56 03.11.2019
4783 Clouds 28 1012 69 0 2.75 329 23:36 03.11.2019
4784 Clouds 28 1012 74 10000 1.5 10 23:18 03.11.2019
4785 Clouds 28 1012 74 10000 1.5 10 22:54 03.11.2019
4786 Clouds 28 1011 68 0 1.97 326 22:36 03.11.2019
4787 Clouds 28 1012 69 10000 2.6 340 22:18 03.11.2019
4788 Clouds 28 1012 69 10000 2.6 340 21:41 03.11.2019
4789 Clouds 28 1013 74 10000 3.6 10 21:21 03.11.2019
4790 Clouds 28 1013 74 10000 3.6 10 20:56 03.11.2019
4791 Clouds 28 1011 68 0 1.97 326 20:37 03.11.2019
4792 Clouds 29 1014 74 10000 1.5 360 20:18 03.11.2019
4793 Clouds 29 1014 74 10000 1.5 360 19:56 03.11.2019
4794 Clouds 28 1013 69 0 1.32 344 19:38 03.11.2019
4795 Clouds 29 1014 74 10000 1.5 20 19:19 03.11.2019
4796 Clouds 28 1013 69 0 1.32 344 18:39 03.11.2019
4797 Clouds 29 1014 74 10000 1.5 20 18:19 03.11.2019
4798 Clouds 29 1014 74 10000 1.5 20 17:59 03.11.2019
4799 Clouds 28 1013 69 0 1.32 344 17:40 03.11.2019
4800 Clouds 29 1013 74 10000 2.1 20 17:19 03.11.2019
4801 Clouds 29 1013 74 10000 2.1 20 16:56 03.11.2019
4802 Clouds 28 1013 69 0 1.14 345 16:38 03.11.2019
4803 Clouds 29 1012 74 10000 2.1 40 16:19 03.11.2019
4804 Clouds 29 1012 74 10000 2.1 40 15:56 03.11.2019
4805 Clouds 28 1013 69 0 1.14 345 15:38 03.11.2019
4806 Clouds 30 1011 74 10000 2.6 30 15:20 03.11.2019
4807 Clouds 30 1011 74 10000 2.6 30 14:41 03.11.2019
4808 Clouds 30 1011 74 10000 2.1 350 14:19 03.11.2019
4809 Clouds 30 1011 74 10000 2.1 350 14:19 03.11.2019
4810 Clouds 30 1011 74 10000 2.1 350 13:56 03.11.2019
4811 Clouds 28 1010 68 0 1.1 356 13:37 03.11.2019
4812 Clouds 30 1010 70 10000 2.1 350 13:18 03.11.2019
4813 Clouds 30 1010 70 10000 2.1 350 13:18 03.11.2019
4814 Clouds 28 1011 68 0 0.98 26 12:38 03.11.2019
4815 Clouds 30 1010 74 10000 2.1 330 12:19 03.11.2019
4816 Clouds 30 1010 74 10000 2.1 330 11:56 03.11.2019
4817 Clouds 30 1010 74 10000 2.1 330 11:56 03.11.2019
4818 Clouds 28 1011 68 0 0.98 26 11:38 03.11.2019
4819 Clouds 30 1011 70 10000 1 0 11:19 03.11.2019
4820 Clouds 30 1011 70 10000 1 0 10:42 03.11.2019
4821 Clouds 30 1011 70 10000 1 0 10:22 03.11.2019
4822 Clouds 30 1011 70 10000 1 0 09:58 03.11.2019
4823 Clear 28 1010 68 0 1.19 48 09:40 03.11.2019
4824 Clouds 30 1012 74 10000 1.5 20 09:22 03.11.2019
4825 Clouds 30 1012 74 10000 1.5 20 08:48 03.11.2019
4826 Clouds 31 1012 70 10000 2.1 80 08:25 03.11.2019
4827 Clouds 31 1012 70 10000 2.1 80 07:47 03.11.2019
4828 Clouds 31 1013 70 10000 2.1 90 07:29 03.11.2019
4829 Clouds 31 1013 70 10000 2.1 90 06:54 03.11.2019
4830 Clouds 28 1013 69 0 1.54 84 06:35 03.11.2019
4831 Clouds 28 1013 69 0 1.54 84 05:40 03.11.2019
4832 Clouds 30 1013 74 10000 2.1 90 05:18 03.11.2019
4833 Clouds 30 1013 74 10000 2.1 90 04:45 03.11.2019
4834 Clouds 28 1013 70 0 1.47 101 03:39 03.11.2019
4835 Clouds 27 1012 83 10000 1.47 101 02:46 03.11.2019
4836 Clouds 27 1011 83 10000 1.01 136 02:21 03.11.2019
4837 Clouds 27 1011 83 10000 1.01 136 02:21 03.11.2019
4838 Clouds 27 1011 83 10000 1.01 136 01:44 03.11.2019
4839 Clouds 27 1010 88 10000 0.5 0 01:21 03.11.2019
4840 Clouds 27 1010 88 10000 0.5 0 00:46 03.11.2019
4841 Clouds 28 1010 83 10000 0.5 0 00:28 03.11.2019
4842 Clouds 28 1010 83 10000 0.5 0 23:58 02.11.2019
4843 Clouds 28 1011 73 0 0.41 324 23:39 02.11.2019
4844 Clouds 28 1010 78 10000 0.55 82 23:19 02.11.2019
4845 Clouds 28 1010 78 10000 0.55 82 22:56 02.11.2019
4846 Clouds 28 1010 78 10000 0.55 82 22:56 02.11.2019
4847 Rain 28 1010 73 0 0.55 82 22:38 02.11.2019
4848 Clouds 28 1011 78 10000 1 0 22:19 02.11.2019
4849 Clouds 28 1011 78 10000 1 0 21:56 02.11.2019
4850 Rain 28 1010 73 0 0.55 82 21:38 02.11.2019
4851 Clouds 29 1012 74 10000 1 0 21:18 02.11.2019
4852 Clouds 29 1012 74 10000 1 0 21:18 02.11.2019
4853 Clouds 29 1012 74 10000 1 0 21:18 02.11.2019
4854 Clouds 29 1012 74 10000 1 0 21:18 02.11.2019
4855 Clouds 29 1012 74 10000 1 0 20:59 02.11.2019
4856 Rain 28 1010 73 0 0.55 82 20:40 02.11.2019
4857 Clouds 29 1013 74 10000 1 0 20:20 02.11.2019
4858 Clouds 29 1013 74 10000 1 0 19:55 02.11.2019
4859 Rain 28 1013 70 0 0.98 94 19:36 02.11.2019
4860 Clouds 29 1013 74 10000 1 0 19:18 02.11.2019
4861 Clouds 29 1013 74 10000 1 0 18:43 02.11.2019
4862 Clouds 29 1013 74 10000 1 0 18:24 02.11.2019
4863 Clouds 29 1013 74 10000 1 0 17:59 02.11.2019
4864 Rain 28 1013 70 0 0.98 94 17:40 02.11.2019
4865 Clouds 29 1011 74 10000 1.5 360 17:22 02.11.2019
4866 Clouds 29 1011 74 10000 1.5 360 17:22 02.11.2019
4867 Clouds 29 1011 74 10000 1.5 360 16:58 02.11.2019
4868 Clouds 28 1012 69 0 0.92 36 16:38 02.11.2019
4869 Clouds 29 1011 74 10000 2.1 350 16:20 02.11.2019
4870 Clouds 29 1011 74 10000 2.1 350 15:42 02.11.2019
4871 Clouds 29 1010 74 10000 2.6 330 15:20 02.11.2019
4872 Clouds 29 1010 74 10000 2.6 330 14:56 02.11.2019
4873 Clouds 28 1012 69 0 0.92 36 14:38 02.11.2019
4874 Clouds 30 1009 70 10000 2.1 340 14:20 02.11.2019
4875 Rain 28 1010 71 0 1.61 10 13:40 02.11.2019
4876 Clouds 30 1009 70 10000 2.1 350 13:20 02.11.2019
4877 Clouds 30 1009 70 10000 2.1 350 12:57 02.11.2019
4878 Clouds 28 1010 68 0 0.56 347 12:38 02.11.2019
4879 Clouds 31 1009 66 10000 2.1 320 12:19 02.11.2019
4880 Clouds 31 1009 66 10000 2.1 320 11:42 02.11.2019
4881 Clouds 31 1009 66 10000 2.1 330 11:24 02.11.2019
4882 Clouds 31 1009 66 10000 2.1 330 10:57 02.11.2019
4883 Clouds 28 1009 69 0 0.33 283 10:39 02.11.2019
4884 Clouds 31 1010 70 10000 2.1 340 10:18 02.11.2019
4885 Clouds 31 1010 70 10000 2.1 340 09:43 02.11.2019
4886 Clouds 30 1010 74 10000 2.1 340 09:22 02.11.2019
4887 Clouds 30 1010 74 10000 2.1 340 08:52 02.11.2019
4888 Clouds 29 1011 79 10000 1.5 350 08:25 02.11.2019
4889 Clouds 29 1011 79 10000 1.5 350 07:58 02.11.2019
4890 Clouds 28 1012 69 0 1.39 172 07:40 02.11.2019
4891 Clouds 28 1012 69 0 1.39 172 07:40 02.11.2019
4892 Clouds 30 1012 74 10000 2.1 330 07:22 02.11.2019
4893 Clouds 30 1012 74 10000 2.1 330 06:50 02.11.2019
4894 Clouds 29 1012 74 10000 1.5 290 06:23 02.11.2019
4895 Clouds 29 1012 74 10000 1.5 290 05:44 02.11.2019
4896 Clouds 28 1011 78 10000 1.37 169 04:25 02.11.2019
4897 Clouds 28 1011 78 10000 1.37 169 03:51 02.11.2019
4898 Clouds 27 1010 83 10000 1.37 169 03:30 02.11.2019
4899 Clouds 27 1010 83 10000 1.37 169 03:30 02.11.2019
4900 Clouds 27 1009 83 10000 1.37 169 02:29 02.11.2019
4901 Clouds 28 1010 69 0 0.94 218 01:29 02.11.2019
4902 Clouds 28 1010 71 0 0.74 123 00:57 02.11.2019
4903 Clouds 28 1009 78 10000 2.1 250 00:30 02.11.2019
4904 Clouds 28 1009 78 10000 2.1 250 23:57 01.11.2019
4905 Clouds 28 1010 71 0 0.74 123 23:39 01.11.2019
4906 Clouds 28 1009 78 10000 2.1 250 23:19 01.11.2019
4907 Clouds 28 1009 78 10000 2.1 250 22:42 01.11.2019
4908 Clouds 28 1009 78 10000 0.5 0 22:21 01.11.2019
4909 Clouds 28 1009 78 10000 0.5 0 21:55 01.11.2019
4910 Clouds 28 1009 72 0 1.66 125 21:36 01.11.2019
4911 Clouds 28 1011 78 10000 1.66 125 21:18 01.11.2019
4912 Clouds 28 1009 72 0 1.66 125 20:42 01.11.2019
4913 Clouds 28 1011 78 10000 2.09 137 20:23 01.11.2019
4914 Clouds 28 1011 78 10000 2.09 137 19:59 01.11.2019
4915 Clouds 28 1011 78 10000 2.09 137 19:59 01.11.2019
4916 Clouds 28 1011 78 10000 2.09 137 19:41 01.11.2019
4917 Clouds 28 1011 78 10000 1 0 19:21 01.11.2019
4918 Clouds 28 1011 78 10000 1 0 18:41 01.11.2019
4919 Clouds 29 1011 74 10000 1 0 18:21 01.11.2019
4920 Clouds 29 1011 74 10000 1 0 17:59 01.11.2019
4921 Rain 28 1011 72 0 2.09 137 17:41 01.11.2019
4922 Clouds 29 1010 74 10000 1 0 17:23 01.11.2019
4923 Clouds 29 1010 74 10000 1 0 16:41 01.11.2019
4924 Clouds 29 1009 74 10000 1.5 270 16:21 01.11.2019
4925 Clouds 29 1009 74 10000 1.5 270 15:59 01.11.2019
4926 Rain 28 1011 71 0 0.47 266 15:40 01.11.2019
4927 Clouds 29 1009 74 10000 2.1 260 15:22 01.11.2019
4928 Clouds 29 1009 74 10000 2.1 260 15:22 01.11.2019
4929 Clouds 29 1009 74 10000 2.1 260 14:44 01.11.2019
4930 Clouds 29 1009 79 10000 2.6 300 14:26 01.11.2019
4931 Clouds 29 1009 79 10000 2.6 300 14:00 01.11.2019
4932 Clouds 29 1009 79 10000 2.6 300 13:41 01.11.2019
4933 Clouds 30 1008 74 10000 4.1 290 13:22 01.11.2019
4934 Clouds 30 1008 74 10000 4.1 290 12:56 01.11.2019
4935 Clouds 28 1009 70 0 0.47 156 12:37 01.11.2019
4936 Clouds 28 1009 70 0 0.47 156 12:37 01.11.2019
4937 Clouds 30 1008 74 10000 4.1 290 12:19 01.11.2019
4938 Clouds 30 1008 74 10000 4.1 290 11:42 01.11.2019
4939 Clouds 31 1008 70 10000 2.6 280 11:24 01.11.2019
4940 Clouds 31 1008 70 10000 2.6 280 10:55 01.11.2019
4941 Clouds 28 1008 71 0 0.88 214 10:37 01.11.2019
4942 Clouds 31 1009 70 10000 1.5 280 10:18 01.11.2019
4943 Clouds 28 1008 71 0 0.88 214 09:42 01.11.2019
4944 Clouds 30 1010 74 10000 1.5 270 09:22 01.11.2019
4945 Clouds 30 1010 74 10000 1.5 270 08:55 01.11.2019
4946 Clouds 28 1008 71 0 0.88 214 08:36 01.11.2019
4947 Clouds 28 1008 71 0 0.88 214 08:36 01.11.2019
4948 Clouds 31 1011 70 10000 2.1 150 08:18 01.11.2019
4949 Clouds 31 1011 70 10000 2.1 150 07:46 01.11.2019
4950 Clouds 31 1012 66 10000 2.6 190 07:22 01.11.2019
4951 Clouds 31 1012 66 10000 2.6 190 06:55 01.11.2019
4952 Clouds 29 1012 79 10000 2.6 210 06:23 01.11.2019
4953 Clouds 29 1012 79 10000 2.6 210 05:57 01.11.2019
4954 Clouds 28 1011 69 0 1.19 161 05:35 01.11.2019
4955 Clouds 27 1010 83 10000 0.5 0 03:32 01.11.2019
4956 Clouds 27 1009 88 10000 1 0 01:48 01.11.2019
4957 Clouds 27 1009 83 10000 1.5 170 01:19 01.11.2019
4958 Clouds 27 1009 88 10000 2.6 130 00:20 01.11.2019
4959 Clouds 27 1009 88 10000 2.6 130 23:45 31.10.2019
4960 Rain 27 1009 76 0 0.87 257 23:25 31.10.2019
4961 Rain 27 1009 76 0 0.87 257 22:58 31.10.2019
4962 Rain 27 1009 76 0 0.87 257 22:40 31.10.2019
4963 Clouds 28 1009 83 10000 2.1 170 22:22 31.10.2019
4964 Clouds 28 1009 83 10000 2.1 170 21:56 31.10.2019
4965 Rain 27 1009 76 0 0.87 257 21:37 31.10.2019
4966 Clouds 28 1011 78 10000 2.1 200 21:18 31.10.2019
4967 Rain 27 1009 76 0 0.87 257 20:40 31.10.2019
4968 Clouds 28 1012 78 10000 2.1 220 20:22 31.10.2019
4969 Clouds 28 1012 78 10000 2.1 220 19:48 31.10.2019
4970 Clouds 28 1012 78 10000 1 0 19:29 31.10.2019
4971 Clouds 28 1012 78 10000 1 0 18:59 31.10.2019
4972 Rain 27 1011 78 0 2.44 103 18:41 31.10.2019
4973 Clouds 28 1012 78 10000 0.5 0 18:22 31.10.2019
4974 Clouds 28 1012 78 10000 0.5 0 17:56 31.10.2019
4975 Rain 27 1011 78 0 2.44 103 17:37 31.10.2019
4976 Clouds 28 1011 83 10000 2.1 230 17:18 31.10.2019
4977 Clouds 28 1011 83 10000 2.1 230 16:41 31.10.2019
4978 Clouds 28 1010 83 10000 3.1 270 16:20 31.10.2019
4979 Clouds 28 1010 83 10000 3.1 270 15:59 31.10.2019
4980 Rain 27 1011 73 0 1.83 130 15:40 31.10.2019
4981 Clouds 28 1009 78 10000 3.6 270 15:20 31.10.2019
4982 Clouds 28 1009 78 10000 3.6 270 14:57 31.10.2019
4983 Rain 27 1011 73 0 1.83 130 14:39 31.10.2019
4984 Rain 27 1011 73 0 1.83 130 14:39 31.10.2019
4985 Clouds 29 1009 79 10000 3.6 270 14:21 31.10.2019
4986 Clouds 29 1009 79 10000 3.6 270 13:57 31.10.2019
4987 Rain 28 1009 73 0 3.36 178 13:38 31.10.2019
4988 Clouds 30 1008 70 10000 3.6 240 13:19 31.10.2019
4989 Clouds 30 1008 70 10000 3.6 240 12:55 31.10.2019
4990 Clouds 30 1008 70 10000 3.6 240 12:55 31.10.2019
4991 Rain 27 1009 75 0 1.2 255 12:37 31.10.2019
4992 Clouds 30 1008 70 10000 2.6 200 12:18 31.10.2019
4993 Clouds 30 1008 70 10000 2.6 200 11:44 31.10.2019
4994 Clouds 30 1009 70 10000 2.6 200 11:20 31.10.2019
4995 Clouds 30 1009 70 10000 2.6 200 10:57 31.10.2019
4996 Clouds 30 1009 70 10000 2.6 200 10:57 31.10.2019
4997 Rain 28 1009 77 0 4.41 218 10:38 31.10.2019
4998 Clouds 30 1010 74 10000 3.1 200 10:20 31.10.2019
4999 Clouds 30 1010 74 10000 3.1 200 09:44 31.10.2019
5000 Clouds 30 1010 74 10000 3.1 200 09:44 31.10.2019
5001 Clouds 29 1011 79 10000 3.1 240 09:19 31.10.2019
5002 Clouds 29 1011 79 10000 3.1 240 08:56 31.10.2019
5003 Rain 28 1009 77 0 4.41 218 08:38 31.10.2019
5004 Clouds 30 1011 74 10000 3.1 220 08:19 31.10.2019
5005 Clouds 30 1011 74 10000 3.1 220 07:43 31.10.2019
5006 Clouds 29 1011 79 10000 4.1 200 07:24 31.10.2019
5007 Clouds 28 1011 74 0 3.55 221 06:39 31.10.2019
5008 Clouds 28 1011 74 0 3.55 221 06:20 31.10.2019
5009 Clouds 28 1012 83 10000 4.1 230 05:18 31.10.2019
5010 Clouds 28 1012 83 10000 4.1 230 05:18 31.10.2019
5011 Clouds 28 1010 83 10000 4.6 240 02:47 31.10.2019
5012 Clouds 27 1009 83 10000 5.1 230 02:22 31.10.2019
5013 Clouds 27 1009 83 10000 5.1 230 02:22 31.10.2019
5014 Clouds 28 1009 76 0 5.23 229 00:47 31.10.2019
5015 Clouds 27 1008 83 10000 6.2 250 00:24 31.10.2019
5016 Clouds 28 1009 76 0 5.23 229 23:40 30.10.2019
5017 Rain 27 1009 83 8000 4.6 250 23:22 30.10.2019
5018 Clouds 28 1008 75 0 5.08 245 22:41 30.10.2019
5019 Clouds 28 1008 75 0 5.08 245 22:19 30.10.2019
5020 Clouds 28 1008 75 0 5.08 245 21:54 30.10.2019
5021 Clouds 28 1008 75 0 5.08 245 21:36 30.10.2019
5022 Clouds 28 1008 75 0 5.08 245 21:36 30.10.2019
5023 Rain 26 1010 88 8000 8.2 250 21:18 30.10.2019
5024 Rain 26 1010 88 8000 8.2 250 21:18 30.10.2019
5025 Rain 26 1010 88 8000 8.2 250 20:57 30.10.2019
5026 Clouds 28 1008 75 0 5.08 245 20:37 30.10.2019
5027 Rain 26 1011 88 8000 9.3 250 20:19 30.10.2019
5028 Rain 26 1011 88 8000 9.3 250 19:42 30.10.2019
5029 Clouds 26 1011 94 10000 5.7 250 19:24 30.10.2019
5030 Clouds 26 1011 94 10000 5.7 250 18:59 30.10.2019
5031 Rain 28 1011 76 0 5.19 266 18:38 30.10.2019
5032 Rain 25 1011 94 6000 2.6 200 18:19 30.10.2019
5033 Rain 25 1011 94 6000 2.6 200 17:55 30.10.2019
5034 Rain 28 1011 76 0 5.19 266 17:37 30.10.2019
5035 Rain 28 1011 76 0 5.19 266 17:37 30.10.2019
5036 Rain 28 1011 76 0 5.19 266 17:37 30.10.2019
5037 Rain 25 1011 94 6000 4.6 130 17:18 30.10.2019
5038 Rain 25 1011 94 6000 4.6 130 16:42 30.10.2019
5039 Rain 25 1010 94 6000 7.2 220 16:24 30.10.2019
5040 Rain 25 1010 94 6000 7.2 220 16:24 30.10.2019
5041 Rain 25 1010 94 6000 7.2 220 15:59 30.10.2019
5042 Rain 28 1011 76 0 5.82 258 15:40 30.10.2019
5043 Clouds 26 1009 88 8000 5.7 270 15:21 30.10.2019
5044 Clouds 26 1009 88 8000 5.7 270 14:59 30.10.2019
5045 Clouds 26 1009 88 8000 5.7 270 14:40 30.10.2019
5046 Rain 27 1008 83 8000 2.1 220 14:22 30.10.2019
5047 Rain 27 1008 83 8000 2.1 220 13:55 30.10.2019
5048 Rain 28 1008 78 7000 4.1 230 13:37 30.10.2019
5049 Rain 28 1008 78 7000 4.1 230 13:37 30.10.2019
5050 Rain 28 1008 78 7000 4.1 230 13:18 30.10.2019
5051 Rain 28 1008 78 7000 4.1 230 12:45 30.10.2019
5052 Clouds 28 1008 78 10000 4.1 230 12:27 30.10.2019
5053 Clouds 28 1008 78 10000 4.1 230 11:58 30.10.2019
5054 Rain 28 1008 75 0 3.98 277 11:40 30.10.2019
5055 Clouds 29 1008 79 10000 4.1 220 11:21 30.10.2019
5056 Clouds 29 1008 79 10000 4.1 220 10:43 30.10.2019
5057 Clouds 29 1009 79 10000 4.6 230 10:23 30.10.2019
5058 Rain 27 1008 77 0 4.1 262 09:42 30.10.2019
5059 Clouds 28 1010 83 10000 4.6 220 09:24 30.10.2019
5060 Clouds 28 1010 83 10000 4.6 220 08:57 30.10.2019
5061 Rain 27 1008 77 0 4.1 262 08:39 30.10.2019
5062 Rain 28 1011 78 10000 4.6 240 08:20 30.10.2019
5063 Rain 28 1011 78 10000 4.6 240 07:46 30.10.2019
5064 Rain 27 1010 88 9000 4.6 230 07:24 30.10.2019
5065 Rain 27 1010 88 9000 4.6 230 06:42 30.10.2019
5066 Rain 26 1011 88 8000 4.6 230 06:21 30.10.2019
5067 Clouds 28 1011 73 0 4.98 260 05:42 30.10.2019
5068 Rain 26 1011 94 8000 4.6 210 04:55 30.10.2019
5069 Rain 26 1010 94 9000 7.2 230 03:43 30.10.2019
5070 Clouds 28 1008 83 10000 3.6 230 02:55 30.10.2019
5071 Clouds 27 1008 88 10000 3.6 250 02:19 30.10.2019
5072 Clouds 27 1008 83 10000 3.6 240 01:31 30.10.2019
5073 Clouds 27 1008 83 10000 4.1 270 00:31 30.10.2019
5074 Rain 28 1009 74 0 5.68 261 23:46 29.10.2019
5075 Clouds 26 1008 88 10000 4.1 270 23:24 29.10.2019
5076 Clouds 26 1008 88 10000 4.1 270 22:49 29.10.2019
5077 Rain 27 1009 88 8000 7.2 270 22:20 29.10.2019
5078 Rain 27 1009 88 8000 7.2 270 21:59 29.10.2019
5079 Rain 27 1009 88 8000 7.2 270 21:41 29.10.2019
5080 Clouds 28 1010 78 10000 6.2 270 21:20 29.10.2019
5081 Clouds 28 1010 78 10000 6.2 270 20:59 29.10.2019
5082 Rain 27 1008 75 0 4.65 281 20:40 29.10.2019
5083 Clouds 28 1010 78 10000 4.1 280 20:21 29.10.2019
5084 Clouds 28 1010 78 10000 4.1 280 19:57 29.10.2019
5085 Clouds 27 1011 79 0 5.96 321 19:38 29.10.2019
5086 Clouds 28 1011 74 10000 3.6 330 19:20 29.10.2019
5087 Clouds 28 1011 74 10000 3.6 330 18:56 29.10.2019
5088 Clouds 27 1011 79 0 5.96 321 18:37 29.10.2019
5089 Clouds 28 1010 74 10000 3.6 330 18:19 29.10.2019
5090 Clouds 28 1010 74 10000 3.6 330 17:54 29.10.2019
5091 Clouds 27 1011 79 0 5.96 321 17:36 29.10.2019
5092 Clouds 28 1009 74 10000 2.6 330 17:18 29.10.2019
5093 Rain 26 1010 81 0 8.44 333 16:40 29.10.2019
5094 Clouds 28 1008 78 10000 2.1 350 16:21 29.10.2019
5095 Clouds 28 1008 78 10000 2.1 350 15:57 29.10.2019
5096 Rain 26 1010 81 0 8.44 333 15:39 29.10.2019
5097 Clouds 28 1008 74 10000 3.1 350 15:20 29.10.2019
5098 Clouds 28 1008 74 10000 3.1 350 14:55 29.10.2019
5099 Rain 26 1010 81 0 8.44 333 14:37 29.10.2019
5100 Clouds 28 1007 74 10000 4.6 360 14:19 29.10.2019
5101 Clouds 28 1007 74 10000 4.6 360 14:18 29.10.2019
5102 Rain 27 1008 79 0 5.63 347 13:40 29.10.2019
5103 Clouds 28 1007 74 10000 5.1 10 13:22 29.10.2019
5104 Clouds 28 1007 74 10000 5.1 10 12:46 29.10.2019
5105 Clouds 27 1007 83 10000 4.6 360 12:27 29.10.2019
5106 Clouds 27 1007 83 10000 4.6 360 11:59 29.10.2019
5107 Rain 26 1008 83 0 6.35 1 11:41 29.10.2019
5108 Clouds 27 1008 83 10000 4.6 360 11:20 29.10.2019
5109 Clouds 27 1008 83 10000 4.6 360 10:57 29.10.2019
5110 Rain 25 1008 89 0 5.76 17 10:38 29.10.2019
5111 Rain 26 1009 88 8000 3.6 350 10:20 29.10.2019
5112 Rain 26 1009 88 8000 3.6 350 09:56 29.10.2019
5113 Rain 25 1008 89 0 5.76 17 09:37 29.10.2019
5114 Rain 26 1009 88 7000 8.7 10 09:19 29.10.2019
5115 Rain 26 1009 88 7000 8.7 10 08:44 29.10.2019
5116 Rain 25 1011 94 6000 8.2 20 08:25 29.10.2019
5117 Rain 25 1011 94 6000 8.2 20 07:55 29.10.2019
5118 Rain 28 1010 78 0 5.83 9 07:36 29.10.2019
5119 Rain 28 1010 78 0 5.83 9 07:18 29.10.2019
5120 Rain 28 1010 78 0 5.83 9 06:43 29.10.2019
5121 Thunderstorm 24 1012 100 4000 3.6 30 06:21 29.10.2019
5122 Thunderstorm 24 1012 100 4000 3.6 30 05:50 29.10.2019
5123 Thunderstorm 27 1009 83 9000 2.6 310 05:25 29.10.2019
5124 Thunderstorm 27 1009 83 9000 2.6 310 04:30 29.10.2019
5125 Thunderstorm 27 1008 83 10000 5.1 290 02:32 29.10.2019
5126 Thunderstorm 27 1008 83 10000 5.1 290 01:46 29.10.2019
5127 Thunderstorm 25 1007 100 9000 0.5 0 01:18 29.10.2019
5128 Thunderstorm 25 1007 94 9000 2.6 290 00:32 29.10.2019
5129 Thunderstorm 25 1007 94 9000 2.6 290 23:43 28.10.2019
5130 Rain 28 1008 73 0 3.96 17 23:21 28.10.2019
5131 Rain 28 1008 73 0 3.96 17 22:58 28.10.2019
5132 Rain 28 1008 73 0 3.96 17 22:37 28.10.2019
5133 Clouds 29 1008 79 10000 3.6 310 22:18 28.10.2019
5134 Clouds 29 1008 79 10000 3.6 310 21:55 28.10.2019
5135 Rain 28 1008 73 0 3.96 17 21:37 28.10.2019
5136 Clouds 29 1009 79 10000 3.6 340 21:18 28.10.2019
5137 Clouds 29 1009 79 10000 3.6 340 20:44 28.10.2019
5138 Clouds 29 1009 74 10000 4.1 340 20:24 28.10.2019
5139 Clouds 29 1009 74 10000 4.1 340 19:59 28.10.2019
5140 Rain 28 1011 74 0 4.66 38 19:39 28.10.2019
5141 Clouds 29 1010 79 10000 2.6 360 19:21 28.10.2019
5142 Clouds 29 1010 79 10000 2.6 360 18:58 28.10.2019
5143 Rain 28 1011 74 0 4.66 38 18:39 28.10.2019
5144 Rain 28 1011 74 0 4.66 38 18:21 28.10.2019
5145 Rain 28 1011 74 0 4.66 38 17:56 28.10.2019
5146 Rain 28 1011 74 0 4.66 38 17:38 28.10.2019
5147 Rain 28 1010 77 0 5.59 39 17:19 28.10.2019
5148 Rain 28 1010 77 0 5.59 39 16:57 28.10.2019
5149 Rain 28 1010 77 0 5.59 39 16:39 28.10.2019
5150 Clouds 30 1009 74 10000 4.6 30 16:20 28.10.2019
5151 Clouds 30 1009 74 10000 4.6 30 15:58 28.10.2019
5152 Clouds 30 1009 74 10000 4.6 30 15:58 28.10.2019
5153 Rain 28 1010 77 0 5.59 39 15:39 28.10.2019
5154 Clouds 29 1008 79 10000 3.6 30 15:20 28.10.2019
5155 Clouds 29 1008 79 10000 3.6 30 14:57 28.10.2019
5156 Rain 28 1010 77 0 5.59 39 14:38 28.10.2019
5157 Clouds 30 1007 74 10000 2.6 10 14:18 28.10.2019
5158 Clouds 30 1007 74 10000 2.6 10 13:55 28.10.2019
5159 Rain 28 1008 73 0 5.65 35 13:37 28.10.2019
5160 Clouds 30 1007 74 10000 3.1 20 13:18 28.10.2019
5161 Clouds 30 1007 74 10000 3.1 20 13:18 28.10.2019
5162 Clouds 30 1007 74 10000 3.1 20 12:42 28.10.2019
5163 Clouds 30 1007 74 10000 3.1 10 12:20 28.10.2019
5164 Rain 28 1008 72 0 5.55 25 11:40 28.10.2019
5165 Clouds 30 1008 70 10000 3.1 360 11:22 28.10.2019
5166 Clouds 30 1008 70 10000 3.1 360 10:58 28.10.2019
5167 Rain 28 1008 72 0 4.3 12 10:38 28.10.2019
5168 Clouds 31 1008 62 10000 4.6 20 10:20 28.10.2019
5169 Clouds 31 1008 62 10000 4.6 20 09:56 28.10.2019
5170 Rain 28 1008 72 0 4.3 12 09:37 28.10.2019
5171 Clouds 30 1009 70 10000 6.2 30 09:19 28.10.2019
5172 Clouds 30 1009 70 10000 6.2 30 08:56 28.10.2019
5173 Clouds 30 1009 70 10000 6.2 30 08:56 28.10.2019
5174 Clouds 29 1007 73 0 4.62 4 08:37 28.10.2019
5175 Clouds 32 1010 66 10000 4.6 40 08:18 28.10.2019
5176 Clouds 32 1010 66 10000 4.6 40 07:55 28.10.2019
5177 Rain 28 1010 75 0 5.2 9 07:36 28.10.2019
5178 Clouds 31 1011 74 10000 5.1 30 07:18 28.10.2019
5179 Rain 28 1010 75 0 5.2 9 06:39 28.10.2019
5180 Clouds 30 1010 74 10000 2.1 30 05:33 28.10.2019
5181 Clouds 29 1009 79 10000 2.1 30 03:45 28.10.2019
5182 Clouds 28 1008 78 10000 2.1 30 02:46 28.10.2019
5183 Clouds 28 1008 83 10000 2.1 30 01:52 28.10.2019
5184 Clouds 28 1007 83 10000 3.1 30 00:53 28.10.2019
5185 Clouds 28 1008 78 10000 2.1 30 00:26 28.10.2019
5186 Clouds 28 1008 78 10000 2.1 30 23:46 27.10.2019
5187 Clouds 28 1008 83 10000 3.1 30 23:22 27.10.2019
5188 Clouds 28 1008 83 10000 3.1 30 22:57 27.10.2019
5189 Clouds 28 1008 83 10000 3.1 30 22:57 27.10.2019
5190 -273 0 0 0 0 0 22:39 27.10.2019
5191 Clouds 28 1008 83 10000 2.1 40 22:20 27.10.2019
5192 Clouds 28 1008 83 10000 2.1 40 21:57 27.10.2019
5193 Rain 28 1008 77 0 4.91 72 21:39 27.10.2019
5194 Clouds 28 1009 83 10000 2.6 50 21:20 27.10.2019
5195 Clouds 28 1009 83 10000 2.6 50 20:54 27.10.2019
5196 Rain 28 1008 77 0 4.93 53 20:36 27.10.2019
5197 Rain 28 1008 77 0 4.93 53 20:36 27.10.2019
5198 Clouds 29 1010 79 10000 3.6 70 20:18 27.10.2019
5199 Rain 28 1010 76 0 6.04 72 19:40 27.10.2019
5200 Clouds 29 1010 74 10000 3.6 70 19:21 27.10.2019
5201 Clouds 29 1010 74 10000 3.6 70 18:58 27.10.2019
5202 Rain 28 1010 76 0 6.04 72 18:39 27.10.2019
5203 Clouds 29 1010 74 10000 3.6 70 18:21 27.10.2019
5204 Clouds 29 1010 74 10000 3.6 70 17:57 27.10.2019
5205 Rain 28 1010 76 0 6.04 72 17:38 27.10.2019
5206 Clouds 29 1010 74 10000 2.6 70 17:19 27.10.2019
5207 Clouds 29 1010 74 10000 2.6 70 16:56 27.10.2019
5208 Clouds 29 1010 74 10000 2.6 70 16:56 27.10.2019
5209 Rain 28 1010 75 0 6.26 65 16:38 27.10.2019
5210 Clouds 29 1009 74 10000 3.1 60 16:19 27.10.2019
5211 Clouds 29 1009 74 10000 3.1 60 15:55 27.10.2019
5212 Rain 28 1010 75 0 6.26 65 15:37 27.10.2019
5213 Clouds 30 1008 70 10000 4.1 70 15:18 27.10.2019
5214 Rain 28 1010 75 0 6.26 65 14:41 27.10.2019
5215 Clouds 30 1008 70 10000 3.6 80 14:20 27.10.2019
5216 Clouds 30 1008 70 10000 3.6 80 13:56 27.10.2019
5217 Rain 28 1008 75 0 5.11 63 13:38 27.10.2019
5218 Rain 28 1008 75 0 4.63 58 13:19 27.10.2019
5219 Rain 28 1008 75 0 4.63 58 12:45 27.10.2019
5220 Clouds 30 1008 74 10000 3.1 100 12:24 27.10.2019
5221 Clouds 30 1008 74 10000 3.1 100 11:57 27.10.2019
5222 Rain 28 1008 75 0 4.63 58 11:38 27.10.2019
5223 Clouds 30 1008 74 10000 3.6 90 11:20 27.10.2019
5224 Clouds 30 1008 74 10000 3.6 90 10:43 27.10.2019
5225 Clouds 31 1009 70 10000 2.6 110 10:24 27.10.2019
5226 Clouds 31 1009 70 10000 2.6 110 09:55 27.10.2019
5227 Rain 28 1008 74 0 3.95 71 09:37 27.10.2019
5228 Clouds 31 1010 70 10000 3.6 110 09:18 27.10.2019
5229 Clouds 31 1010 70 10000 3.6 110 09:18 27.10.2019
5230 Clouds 31 1010 70 10000 3.6 110 08:41 27.10.2019
5231 Clouds 31 1011 70 10000 3.1 110 08:21 27.10.2019
5232 Clouds 31 1011 70 10000 3.1 110 07:50 27.10.2019
5233 Clouds 31 1011 66 10000 3.6 90 07:29 27.10.2019
5234 Clouds 31 1011 66 10000 3.6 90 06:59 27.10.2019
5235 Clear 28 1010 73 0 4.47 68 06:40 27.10.2019
5236 Clouds 30 1011 70 10000 3.6 100 06:21 27.10.2019
5237 Clear 28 1010 73 0 4.47 68 05:38 27.10.2019
5238 Clouds 30 1011 70 10000 3.1 110 04:48 27.10.2019
5239 Clouds 27 1009 83 10000 2.6 120 02:48 27.10.2019
5240 Clouds 27 1008 83 10000 2.1 120 02:18 27.10.2019
5241 Clouds 27 1008 83 10000 3.1 130 01:51 27.10.2019
5242 Clouds 27 1008 83 10000 2.6 140 01:23 27.10.2019
5243 Clouds 27 1008 83 10000 2.6 140 00:48 27.10.2019
5244 Clouds 28 1009 78 10000 3.6 140 00:28 27.10.2019
5245 Clouds 28 1009 78 10000 3.6 140 23:57 26.10.2019
5246 Rain 28 1008 72 0 1.81 164 23:38 26.10.2019
5247 Clouds 28 1010 78 10000 3.6 140 23:20 26.10.2019
5248 Clouds 28 1010 78 10000 3.6 140 22:56 26.10.2019
5249 Rain 28 1008 72 0 1.81 164 22:37 26.10.2019
5250 Clouds 28 1010 78 10000 3.6 130 22:18 26.10.2019
5251 Clouds 28 1010 78 10000 3.6 130 21:43 26.10.2019
5252 Clouds 28 1011 83 10000 4.6 130 21:21 26.10.2019
5253 Clouds 28 1011 83 10000 4.6 130 20:57 26.10.2019
5254 Clouds 28 1011 70 0 0.84 98 20:37 26.10.2019
5255 Clouds 28 1011 78 10000 3.1 130 20:18 26.10.2019
5256 Clouds 28 1011 78 10000 3.1 130 19:42 26.10.2019
5257 Clouds 28 1011 78 10000 3.1 140 19:20 26.10.2019
5258 Clouds 28 1011 78 10000 3.1 140 19:20 26.10.2019
5259 Clouds 28 1011 78 10000 3.1 140 18:57 26.10.2019
5260 Clouds 28 1011 70 0 0.84 98 18:39 26.10.2019
5261 Clouds 28 1011 78 10000 3.1 150 18:19 26.10.2019
5262 Clouds 28 1011 78 10000 3.1 150 17:56 26.10.2019
5263 Clouds 28 1011 70 0 0.82 126 17:37 26.10.2019
5264 Clouds 28 1010 78 10000 3.1 150 17:19 26.10.2019
5265 Clouds 28 1010 78 10000 3.1 150 16:43 26.10.2019
5266 Clouds 29 1010 70 10000 3.1 150 16:25 26.10.2019
5267 Clouds 29 1010 70 10000 3.1 150 15:59 26.10.2019
5268 Clouds 28 1011 70 0 0.82 126 15:37 26.10.2019
5269 Clouds 29 1008 74 10000 4.1 130 15:18 26.10.2019
5270 Clouds 28 1008 69 0 1.31 166 14:38 26.10.2019
5271 Clouds 30 1008 70 10000 4.6 150 14:19 26.10.2019
5272 Clouds 28 1008 72 0 1.62 187 13:55 26.10.2019
5273 Clouds 28 1008 72 0 1.62 187 13:36 26.10.2019
5274 Clouds 28 1008 72 0 1.62 187 13:18 26.10.2019
5275 Clouds 31 1008 66 10000 2.1 130 12:42 26.10.2019
5276 Clouds 28 1008 72 0 2.66 195 12:18 26.10.2019
5277 Clouds 28 1008 72 0 2.66 195 11:45 26.10.2019
5278 Clouds 31 1009 66 10000 2.1 140 11:24 26.10.2019
5279 Clouds 31 1009 66 10000 2.1 140 10:46 26.10.2019
5280 Clouds 31 1010 66 10000 2.1 150 10:25 26.10.2019
5281 Clouds 31 1010 66 10000 2.1 150 09:49 26.10.2019
5282 Clouds 31 1011 66 10000 2.1 210 09:30 26.10.2019
5283 Clouds 31 1011 66 10000 2.1 210 08:50 26.10.2019
5284 Clouds 30 1012 70 10000 2.1 210 08:28 26.10.2019
5285 Clouds 30 1012 70 10000 2.1 210 07:57 26.10.2019
5286 Clouds 28 1011 72 0 3.3 196 07:39 26.10.2019
5287 Clouds 30 1012 70 10000 2.1 210 07:19 26.10.2019
5288 Clouds 28 1011 72 0 3.3 196 06:40 26.10.2019
5289 Clouds 29 1011 74 10000 2.1 220 05:56 26.10.2019
5290 Clouds 28 1010 78 10000 1.5 210 05:19 26.10.2019
5291 Clouds 27 1010 88 10000 1.5 150 03:45 26.10.2019
5292 Clouds 27 1008 78 10000 2.6 110 02:29 26.10.2019
5293 Clouds 27 1008 78 10000 2.6 110 01:46 26.10.2019
5294 Clouds 27 1008 83 10000 2.1 140 00:51 26.10.2019
5295 Clouds 27 1009 78 10000 2.6 140 23:55 25.10.2019
5296 Rain 27 1009 79 0 7.64 173 23:37 25.10.2019
5297 Clouds 27 1010 78 10000 2.6 150 23:18 25.10.2019
5298 Rain 27 1009 79 0 7.64 173 22:39 25.10.2019
5299 Clouds 28 1011 74 10000 3.1 150 22:21 25.10.2019
5300 Clouds 28 1011 74 10000 3.1 150 21:55 25.10.2019
5301 Rain 27 1009 79 0 7.64 173 21:37 25.10.2019
5302 Clouds 28 1012 74 10000 3.1 150 21:19 25.10.2019
5303 Clouds 28 1012 74 10000 3.1 150 20:43 25.10.2019
5304 Clouds 28 1012 74 10000 4.1 150 20:20 25.10.2019
5305 Clouds 28 1012 74 10000 4.1 150 19:47 25.10.2019
5306 Clouds 28 1012 74 10000 4.1 150 19:47 25.10.2019
5307 Clouds 28 1011 69 10000 3.1 160 19:29 25.10.2019
5308 Clouds 28 1011 69 10000 3.1 160 18:58 25.10.2019
5309 Clouds 28 1012 74 0 6.79 168 18:40 25.10.2019
5310 Clouds 27 1011 78 10000 3.6 150 18:20 25.10.2019
5311 Rain 28 1011 73 0 7.83 159 17:40 25.10.2019
5312 Clouds 27 1011 78 9000 2.6 150 17:20 25.10.2019
5313 Clouds 27 1011 78 9000 2.6 150 16:47 25.10.2019
5314 Clouds 27 1010 78 9000 3.1 120 16:23 25.10.2019
5315 Clouds 27 1010 78 9000 3.1 120 15:57 25.10.2019
5316 Rain 28 1011 73 0 7.83 159 15:39 25.10.2019
5317 Rain 27 1009 83 9000 3.1 120 15:20 25.10.2019
5318 Rain 27 1009 83 9000 3.1 120 15:20 25.10.2019
5319 Rain 27 1009 83 9000 3.1 120 14:43 25.10.2019
5320 Rain 27 1009 83 9000 3.1 150 14:23 25.10.2019
5321 Rain 27 1009 83 9000 3.1 150 14:23 25.10.2019
5322 Rain 27 1009 83 9000 3.1 150 13:59 25.10.2019
5323 Clouds 27 1010 79 0 7.37 153 13:39 25.10.2019
5324 Rain 28 1009 74 9000 4.1 150 13:21 25.10.2019
5325 Rain 28 1009 74 9000 4.1 150 12:54 25.10.2019
5326 Clouds 27 1010 79 0 7.37 153 12:36 25.10.2019
5327 Clouds 29 1009 74 10000 5.7 150 12:18 25.10.2019
5328 Rain 27 1009 83 0 9.73 156 11:39 25.10.2019
5329 Rain 27 1009 83 0 9.73 156 11:39 25.10.2019
5330 Clouds 29 1010 74 10000 6.7 150 11:20 25.10.2019
5331 Clouds 29 1010 74 10000 6.7 150 10:42 25.10.2019
5332 Clouds 28 1011 78 10000 7.2 130 10:23 25.10.2019
5333 Clouds 28 1011 78 10000 7.2 130 09:59 25.10.2019
5334 Rain 27 1009 83 0 9.73 156 09:39 25.10.2019
5335 Clouds 28 1012 83 10000 7.2 150 09:20 25.10.2019
5336 Clouds 28 1012 83 10000 7.2 150 08:51 25.10.2019
5337 Rain 27 1012 78 0 6.72 172 08:33 25.10.2019
5338 Rain 27 1012 78 0 6.72 172 07:58 25.10.2019
5339 Rain 27 1012 78 0 6.72 172 07:40 25.10.2019
5340 Rain 28 1012 83 10000 5.7 140 07:22 25.10.2019
5341 Clouds 29 1011 74 10000 4.1 190 06:36 25.10.2019
5342 Clouds 29 1011 74 10000 4.1 190 05:48 25.10.2019
5343 Clouds 28 1010 83 10000 2.6 220 05:21 25.10.2019
5344 Rain 27 1010 83 6000 3.1 170 03:59 25.10.2019
5345 Clouds 28 1009 78 10000 2.6 210 02:22 25.10.2019
5346 Clouds 28 1009 78 10000 2.6 210 01:51 25.10.2019
5347 Clouds 28 1009 78 10000 3.1 220 00:26 25.10.2019
5348 Clouds 28 1009 78 10000 3.1 220 23:41 24.10.2019
5349 Clouds 28 1010 78 10000 3.6 230 23:23 24.10.2019
5350 Clouds 28 1010 78 10000 3.6 230 22:57 24.10.2019
5351 Rain 27 1010 78 0 4.81 152 22:38 24.10.2019
5352 Clouds 28 1011 74 10000 3.1 210 22:19 24.10.2019
5353 Clouds 28 1011 74 10000 3.1 210 22:19 24.10.2019
5354 Clouds 28 1011 74 10000 3.1 210 21:57 24.10.2019
5355 Rain 27 1010 78 0 4.81 152 21:38 24.10.2019
5356 Rain 27 1010 78 0 4.81 152 21:38 24.10.2019
5357 Clouds 28 1012 78 10000 4.1 210 21:19 24.10.2019
5358 Clouds 28 1012 78 10000 4.1 210 20:57 24.10.2019
5359 Clouds 27 1012 78 0 4.42 148 20:38 24.10.2019
5360 Clouds 28 1012 78 10000 4.42 148 20:20 24.10.2019
5361 Clouds 28 1012 78 10000 4.42 148 19:54 24.10.2019
5362 Clouds 27 1012 78 0 4.42 148 19:36 24.10.2019
5363 Clouds 28 1011 78 10000 3.6 190 19:18 24.10.2019
5364 Clouds 27 1012 78 0 4.42 148 18:40 24.10.2019
5365 Clouds 28 1011 78 10000 3.6 210 18:22 24.10.2019
5366 Clouds 28 1011 78 10000 3.6 210 17:59 24.10.2019
5367 Rain 27 1012 82 0 8.13 154 17:40 24.10.2019
5368 Clouds 28 1010 78 10000 4.1 200 17:20 24.10.2019
5369 Clouds 28 1010 78 10000 4.1 200 17:20 24.10.2019
5370 Clouds 28 1010 78 10000 4.1 200 16:55 24.10.2019
5371 Rain 27 1012 82 0 8.13 154 16:37 24.10.2019
5372 Clouds 28 1009 78 10000 4.6 200 16:18 24.10.2019
5373 Clouds 28 1009 78 10000 4.6 200 15:55 24.10.2019
5374 Rain 27 1012 82 0 8.13 154 15:37 24.10.2019
5375 Clouds 28 1009 78 10000 4.6 200 15:19 24.10.2019
5376 Rain 27 1010 81 0 7.25 169 14:44 24.10.2019
5377 Clouds 29 1009 79 10000 7.2 200 14:26 24.10.2019
5378 Clouds 29 1009 79 10000 7.2 200 13:59 24.10.2019
5379 Rain 27 1010 81 0 7.25 169 13:39 24.10.2019
5380 Clouds 28 1009 83 10000 4.6 200 13:19 24.10.2019
5381 Clouds 28 1009 83 10000 4.6 200 12:57 24.10.2019
5382 Rain 27 1010 81 0 7.25 169 12:38 24.10.2019
5383 Clouds 30 1009 70 10000 3.6 150 12:19 24.10.2019
5384 Clouds 30 1009 70 10000 3.6 150 11:56 24.10.2019
5385 Clouds 28 1008 80 0 8.38 180 11:36 24.10.2019
5386 Clouds 28 1008 80 0 8.38 180 11:36 24.10.2019
5387 Clouds 30 1010 66 10000 3.6 140 11:18 24.10.2019
5388 Clouds 30 1010 66 10000 3.6 140 10:42 24.10.2019
5389 Clouds 30 1011 66 10000 6.7 150 10:23 24.10.2019
5390 Clouds 30 1011 66 10000 6.7 150 09:55 24.10.2019
5391 Clouds 28 1008 79 0 7.12 171 09:36 24.10.2019
5392 Clouds 31 1011 66 10000 4.6 170 09:18 24.10.2019
5393 Rain 28 1011 79 0 6.42 184 08:42 24.10.2019
5394 Clouds 31 1012 66 10000 3.1 170 08:20 24.10.2019
5395 Clouds 31 1012 66 10000 3.1 170 07:48 24.10.2019
5396 Clouds 31 1012 66 10000 3.1 170 07:23 24.10.2019
5397 Clouds 31 1012 66 10000 3.1 170 07:23 24.10.2019
5398 Clouds 31 1012 66 10000 3.1 170 06:56 24.10.2019
5399 Rain 28 1011 79 0 6.42 184 06:36 24.10.2019
5400 Clouds 30 1012 70 10000 3.1 190 05:55 24.10.2019
5401 Clouds 30 1010 70 10000 3.1 190 05:33 24.10.2019
5402 Clouds 29 1009 74 10000 3.6 190 04:33 24.10.2019
5403 Clouds 29 1008 74 10000 4.1 180 03:36 24.10.2019
5404 Clouds 29 1008 74 10000 4.1 180 02:41 24.10.2019
5405 Clouds 29 1008 74 10000 4.6 180 02:20 24.10.2019
5406 Clouds 29 1008 79 10000 4.1 180 01:31 24.10.2019
5407 Clouds 29 1008 79 10000 4.1 180 00:57 24.10.2019
5408 Rain 29 1008 79 10000 4.1 190 00:30 24.10.2019
5409 Rain 29 1008 79 10000 4.1 190 23:57 23.10.2019
5410 Clouds 28 1009 76 0 4.21 197 23:38 23.10.2019
5411 Clouds 29 1009 79 10000 4.6 150 23:19 23.10.2019
5412 Clouds 29 1009 79 10000 4.6 150 22:56 23.10.2019
5413 Clouds 28 1009 76 0 4.21 197 22:37 23.10.2019
5414 Clouds 29 1010 74 10000 3.6 200 22:18 23.10.2019
5415 Clouds 29 1010 74 10000 3.6 200 21:56 23.10.2019
5416 Clouds 28 1009 76 0 4.21 197 21:37 23.10.2019
5417 Clouds 30 1010 70 10000 3.6 190 21:19 23.10.2019
5418 Clouds 30 1010 70 10000 3.6 190 20:54 23.10.2019
5419 Clouds 28 1011 76 0 4.4 199 20:36 23.10.2019
5420 Clouds 29 1011 74 10000 4.1 190 20:18 23.10.2019
5421 Clouds 29 1011 74 10000 4.1 190 19:42 23.10.2019
5422 Clouds 30 1010 70 10000 5.1 200 19:19 23.10.2019
5423 Clouds 30 1010 70 10000 5.1 200 18:57 23.10.2019
5424 Clouds 28 1011 76 0 4.4 199 18:39 23.10.2019
5425 Clouds 30 1010 70 10000 4.1 200 18:19 23.10.2019
5426 Clouds 30 1010 70 10000 4.1 200 17:46 23.10.2019
5427 Clouds 30 1010 70 10000 5.1 210 17:21 23.10.2019
5428 Clouds 30 1010 70 10000 5.1 210 16:59 23.10.2019
5429 Clouds 28 1011 79 0 5.38 199 16:40 23.10.2019
5430 Clouds 28 1011 79 0 5.38 199 16:40 23.10.2019
5431 Clouds 30 1009 70 10000 5.1 210 16:20 23.10.2019
5432 Clouds 30 1009 70 10000 5.1 210 15:56 23.10.2019
5433 Clouds 28 1011 79 0 5.38 199 15:37 23.10.2019
5434 Clouds 30 1008 74 10000 5.1 200 15:18 23.10.2019
5435 Clouds 30 1008 74 10000 5.1 200 14:55 23.10.2019
5436 Clouds 28 1008 76 0 6.01 194 14:37 23.10.2019
5437 Clouds 31 1008 66 10000 5.1 200 14:18 23.10.2019
5438 Clouds 31 1008 66 10000 5.1 200 14:18 23.10.2019
5439 Clouds 31 1008 66 10000 5.1 200 13:42 23.10.2019
5440 Clouds 30 1008 70 10000 5.7 200 13:24 23.10.2019
5441 Clouds 30 1008 70 10000 5.7 200 12:57 23.10.2019
5442 Clouds 28 1008 76 0 6.01 194 12:38 23.10.2019
5443 Clouds 32 1008 66 10000 5.1 140 12:19 23.10.2019
5444 Clouds 32 1008 66 10000 5.1 140 11:57 23.10.2019
5445 Clouds 28 1008 77 0 6.11 182 11:39 23.10.2019
5446 Clouds 32 1008 66 10000 5.1 150 11:20 23.10.2019
5447 Clouds 32 1008 66 10000 5.1 150 10:46 23.10.2019
5448 Clouds 32 1008 66 10000 5.1 150 10:46 23.10.2019
5449 Clouds 32 1009 66 10000 6.2 130 10:26 23.10.2019
5450 Clouds 32 1009 66 10000 6.2 130 09:58 23.10.2019
5451 Clouds 28 1008 76 0 5.78 179 09:39 23.10.2019
5452 Clouds 32 1010 62 10000 6.2 140 09:21 23.10.2019
5453 Clouds 32 1010 62 10000 6.2 140 08:43 23.10.2019
5454 Clouds 31 1010 66 10000 5.7 140 08:25 23.10.2019
5455 Clouds 31 1010 66 10000 5.7 140 07:47 23.10.2019
5456 Clouds 31 1010 66 10000 5.7 140 07:47 23.10.2019
5457 Clouds 31 1010 70 10000 5.1 140 07:26 23.10.2019
5458 Clouds 31 1010 70 10000 5.1 140 06:48 23.10.2019
5459 Clouds 30 1010 70 10000 5.1 140 06:23 23.10.2019
5460 Clouds 30 1010 70 10000 5.1 140 05:59 23.10.2019
5461 Clouds 29 1009 70 10000 4.6 140 05:18 23.10.2019
5462 Clouds 28 1011 75 0 4.94 166 03:37 23.10.2019
5463 Clouds 28 1008 78 10000 5.7 150 02:42 23.10.2019
5464 Clouds 28 1008 71 0 4.02 176 01:35 23.10.2019
5465 Clouds 28 1008 78 10000 5.1 150 00:59 23.10.2019
5466 Clouds 29 1008 74 10000 5.1 120 00:33 23.10.2019
5467 Clouds 28 1008 71 0 3.69 172 23:43 22.10.2019
5468 Clouds 29 1009 74 10000 5.7 100 23:19 22.10.2019
5469 Clouds 29 1009 74 10000 5.7 100 22:59 22.10.2019
5470 Clouds 28 1008 71 0 3.69 172 22:40 22.10.2019
5471 Clouds 29 1010 74 10000 4.6 130 22:22 22.10.2019
5472 Clouds 29 1010 74 10000 4.6 130 21:57 22.10.2019
5473 Clouds 28 1008 72 0 3.94 169 21:38 22.10.2019
5474 Clouds 29 1010 79 10000 5.1 150 21:19 22.10.2019
5475 Clouds 29 1010 79 10000 5.1 150 20:58 22.10.2019
5476 Clouds 28 1011 73 0 3.63 153 20:40 22.10.2019
5477 Clouds 29 1010 79 10000 4.1 150 20:21 22.10.2019
5478 Clouds 29 1010 79 10000 4.1 150 19:56 22.10.2019
5479 Clouds 28 1011 73 0 3.63 153 19:38 22.10.2019
5480 Clouds 29 1010 79 10000 4.1 150 19:20 22.10.2019
5481 Clouds 29 1010 79 10000 4.1 150 18:55 22.10.2019
5482 Clouds 29 1010 79 10000 3.1 150 18:37 22.10.2019
5483 Clouds 29 1010 79 10000 3.1 150 18:19 22.10.2019
5484 Clouds 28 1010 75 0 3.89 153 17:39 22.10.2019
5485 Clouds 29 1009 74 10000 3.1 140 17:20 22.10.2019
5486 Clouds 29 1009 74 10000 3.1 140 16:59 22.10.2019
5487 Clouds 28 1010 75 0 3.89 153 16:39 22.10.2019
5488 Clouds 28 1010 75 0 3.89 153 16:39 22.10.2019
5489 Clouds 29 1008 74 10000 2.6 150 16:20 22.10.2019
5490 Clouds 29 1008 74 10000 2.6 150 16:20 22.10.2019
5491 Clouds 29 1008 74 10000 2.6 150 15:58 22.10.2019
5492 Clouds 28 1010 75 0 3.89 153 15:40 22.10.2019
5493 Clouds 30 1007 74 10000 2.6 140 15:19 22.10.2019
5494 Clouds 30 1007 74 10000 2.6 140 14:46 22.10.2019
5495 Clouds 30 1007 74 10000 2.6 210 14:21 22.10.2019
5496 Clouds 30 1007 74 10000 2.6 210 13:54 22.10.2019
5497 Clouds 28 1008 74 0 4.36 160 13:36 22.10.2019
5498 Clouds 31 1007 66 10000 1.5 190 13:18 22.10.2019
5499 Clouds 31 1007 66 10000 1.5 190 12:41 22.10.2019
5500 Clouds 31 1008 66 10000 2.1 210 12:22 22.10.2019
5501 Clouds 31 1008 66 10000 2.1 210 11:59 22.10.2019
5502 Clouds 28 1007 77 0 4.5 156 11:39 22.10.2019
5503 Clouds 31 1008 70 10000 2.1 210 11:21 22.10.2019
5504 Clouds 31 1008 70 10000 2.1 210 11:21 22.10.2019
5505 Clouds 31 1008 70 10000 2.1 210 10:58 22.10.2019
5506 Clouds 28 1007 77 0 4.5 156 10:37 22.10.2019
5507 Clouds 31 1009 66 10000 2.6 190 10:19 22.10.2019
5508 Clouds 31 1009 66 10000 2.6 190 09:55 22.10.2019
5509 Clouds 28 1007 78 0 4.97 153 09:37 22.10.2019
5510 Clouds 31 1010 70 10000 2.6 200 09:19 22.10.2019
5511 Clouds 31 1010 70 10000 2.6 200 08:43 22.10.2019
5512 Clouds 30 1011 70 10000 2.1 210 08:22 22.10.2019
5513 Clouds 30 1011 70 10000 2.1 210 07:50 22.10.2019
5514 Clouds 30 1011 70 10000 2.6 190 07:29 22.10.2019
5515 Clouds 30 1011 70 10000 2.6 190 06:52 22.10.2019
5516 Clouds 28 1010 78 10000 1.5 200 06:31 22.10.2019
5517 Clouds 28 1010 78 10000 1.5 200 05:59 22.10.2019
5518 Clouds 28 1010 78 10000 1.5 200 05:24 22.10.2019
5519 Clouds 28 1009 78 10000 2.1 220 03:19 22.10.2019
5520 Clouds 28 1008 83 10000 2.6 200 02:28 22.10.2019
5521 Clouds 28 1008 83 10000 2.6 200 01:31 22.10.2019
5522 Clouds 28 1008 83 10000 2.6 200 00:58 22.10.2019
5523 Clouds 28 1009 81 0 6.41 149 00:40 22.10.2019
5524 Clouds 28 1008 78 10000 2.1 190 00:21 22.10.2019
5525 Clouds 28 1008 78 10000 2.1 190 23:56 21.10.2019
5526 Clouds 28 1008 78 0 5.65 138 23:37 21.10.2019
5527 Clouds 28 1009 78 10000 2.1 200 23:18 21.10.2019
5528 Clouds 28 1009 78 10000 2.1 200 22:56 21.10.2019
5529 Clouds 28 1008 78 0 5.65 138 22:38 21.10.2019
5530 Clouds 28 1010 78 10000 2.6 200 22:19 21.10.2019
5531 Clouds 28 1010 78 10000 2.6 200 21:54 21.10.2019
5532 Clouds 27 1008 77 0 5.43 121 21:36 21.10.2019
5533 Clouds 28 1010 74 10000 2.6 230 21:18 21.10.2019
5534 Clouds 28 1010 74 10000 2.6 230 20:41 21.10.2019
5535 Clouds 28 1011 74 10000 2.6 220 20:21 21.10.2019
5536 Clouds 28 1011 74 10000 2.6 220 19:59 21.10.2019
5537 Clouds 27 1011 78 0 4.8 112 19:41 21.10.2019
5538 Clouds 28 1011 83 10000 3.1 210 19:22 21.10.2019
5539 Clouds 28 1011 83 10000 3.1 210 18:57 21.10.2019
5540 Clouds 27 1011 78 0 4.8 112 18:38 21.10.2019
5541 Clouds 28 1010 83 10000 1.5 160 18:19 21.10.2019
5542 Clouds 28 1010 83 10000 1.5 160 17:57 21.10.2019
5543 Rain 27 1011 78 0 4.34 77 17:38 21.10.2019
5544 Clouds 28 1010 83 10000 4.34 77 17:19 21.10.2019
5545 Clouds 28 1010 83 10000 4.34 77 16:57 21.10.2019
5546 Rain 27 1011 78 0 4.34 77 16:39 21.10.2019
5547 Clouds 28 1009 83 10000 4.34 77 16:20 21.10.2019
5548 Clouds 28 1009 83 10000 4.34 77 15:47 21.10.2019
5549 Clouds 29 1008 83 10000 1 0 15:27 21.10.2019
5550 Clouds 29 1008 83 10000 1 0 14:58 21.10.2019
5551 Clouds 27 1009 80 0 4.18 69 14:39 21.10.2019
5552 Rain 29 1008 79 8000 1 0 14:21 21.10.2019
5553 Rain 29 1008 79 8000 1 0 13:57 21.10.2019
5554 Clouds 27 1009 80 0 4.18 69 13:39 21.10.2019
5555 Rain 29 1008 83 8000 2.1 60 13:19 21.10.2019
5556 Rain 29 1008 83 8000 2.1 60 12:42 21.10.2019
5557 Rain 30 1008 74 10000 1 0 12:23 21.10.2019
5558 Rain 30 1008 74 10000 1 0 12:23 21.10.2019
5559 Rain 30 1008 74 10000 1 0 11:58 21.10.2019
5560 Clouds 28 1008 73 0 2.71 81.053 11:39 21.10.2019
5561 Clouds 30 1009 74 10000 1.5 300 11:20 21.10.2019
5562 Clouds 30 1009 74 10000 1.5 300 10:57 21.10.2019
5563 Clouds 28 1008 73 0 2.71 81.053 10:38 21.10.2019
5564 Clouds 30 1010 74 10000 1.5 320 10:19 21.10.2019
5565 Clouds 30 1010 74 10000 1.5 320 09:51 21.10.2019
5566 Clouds 30 1011 74 10000 1.5 320 09:26 21.10.2019
5567 Clouds 30 1011 74 10000 1.5 320 08:59 21.10.2019
5568 Rain 27 1012 74 0 2.7 55.379 08:40 21.10.2019
5569 Clouds 30 1011 70 10000 1.5 100 08:22 21.10.2019
5570 Clouds 30 1011 70 10000 1.5 100 07:44 21.10.2019
5571 Clouds 30 1012 70 10000 1.5 140 07:21 21.10.2019
5572 Clouds 30 1012 70 10000 1.5 140 06:57 21.10.2019
5573 Rain 27 1012 74 0 2.7 55.379 06:39 21.10.2019
5574 Clouds 30 1011 74 10000 1.5 140 05:57 21.10.2019
5575 Clouds 30 1011 74 10000 1.5 140 05:57 21.10.2019
5576 Clouds 30 1011 74 10000 1.5 140 05:57 21.10.2019
5577 Clouds 29 1010 74 10000 1 0 04:50 21.10.2019
5578 Rain 27 1011 73 0 1.41 205.223 03:38 21.10.2019
5579 Rain 28 1010 72 0 3.57 218.718 02:37 21.10.2019
5580 Clouds 27 1008 83 10000 1.5 220 02:19 21.10.2019
5581 Rain 28 1010 72 0 3.57 218.718 01:38 21.10.2019
5582 Clouds 27 1008 83 10000 3.27 207.763 00:51 21.10.2019
5583 Clouds 27 1009 83 10000 3.27 207.763 00:27 21.10.2019
5584 Clouds 27 1009 83 10000 4.14 224.804 23:43 20.10.2019
5585 Clouds 27 1010 83 10000 1 0 23:23 20.10.2019
5586 Clouds 27 1010 83 10000 1 0 22:58 20.10.2019
5587 Rain 28 1008 73 0 4.14 224.804 22:39 20.10.2019
5588 Rain 27 1010 83 10000 1 0 22:19 20.10.2019
5589 Rain 27 1010 83 10000 1 0 21:59 20.10.2019
5590 Rain 28 1008 73 0 4.14 224.804 21:39 20.10.2019
5591 Rain 28 1011 74 10000 1 0 21:21 20.10.2019
5592 Rain 28 1011 74 10000 1 0 20:54 20.10.2019
5593 Rain 28 1011 75 0 4.16 221.864 20:36 20.10.2019
5594 Rain 28 1011 78 9000 2.1 230 20:18 20.10.2019
5595 Rain 28 1011 78 9000 2.1 230 19:55 20.10.2019
5596 Rain 28 1011 75 0 4.16 221.864 19:36 20.10.2019
5597 Clouds 28 1011 78 10000 2.1 220 19:18 20.10.2019
5598 Rain 28 1011 75 0 4.16 221.864 18:40 20.10.2019
5599 Clouds 28 1011 74 10000 3.1 230 18:20 20.10.2019
5600 Clouds 28 1011 74 10000 3.1 230 17:56 20.10.2019
5601 Clouds 28 1011 74 10000 3.1 230 17:56 20.10.2019
5602 Rain 28 1011 74 0 4.21 207.769 17:38 20.10.2019
5603 Clouds 28 1010 78 10000 4.1 250 17:19 20.10.2019
5604 Clouds 28 1010 78 10000 4.1 250 16:43 20.10.2019
5605 Clouds 28 1009 78 10000 5.7 250 16:24 20.10.2019
5606 Clouds 28 1009 78 10000 5.7 250 15:59 20.10.2019
5607 Rain 28 1011 74 0 4.21 207.769 15:38 20.10.2019
5608 Clouds 28 1009 78 10000 6.2 260 15:20 20.10.2019
5609 Clouds 28 1009 78 10000 6.2 260 14:58 20.10.2019
5610 Clouds 28 1009 71 0 4.53 207.192 14:38 20.10.2019
5611 Rain 27 1008 83 9000 6.7 260 14:19 20.10.2019
5612 Rain 27 1008 83 9000 6.7 260 13:56 20.10.2019
5613 Rain 27 1008 83 9000 6.7 260 13:56 20.10.2019
5614 Clouds 28 1009 71 0 4.53 207.192 13:37 20.10.2019
5615 Clouds 28 1008 78 10000 9.8 260 13:18 20.10.2019
5616 Clouds 28 1008 78 10000 9.8 260 12:56 20.10.2019
5617 Rain 29 1009 70 0 4.21 206.784 12:38 20.10.2019
5618 Clouds 29 1009 79 10000 9.3 250 12:20 20.10.2019
5619 Clouds 29 1009 79 10000 9.3 250 11:55 20.10.2019
5620 Rain 28 1008 70 0 4.38 196.698 11:37 20.10.2019
5621 Clouds 27 1010 88 10000 7.7 250 11:19 20.10.2019
5622 Clouds 27 1010 88 10000 7.7 250 10:41 20.10.2019
5623 Clouds 27 1010 88 10000 7.7 250 10:41 20.10.2019
5624 Rain 26 1011 94 3000 5.1 230 10:22 20.10.2019
5625 Rain 26 1011 94 3000 5.1 230 09:59 20.10.2019
5626 Rain 28 1008 70 0 4.38 196.698 09:41 20.10.2019
5627 Clouds 30 1012 79 10000 7.2 250 09:21 20.10.2019
5628 Clouds 30 1012 79 10000 7.2 250 08:49 20.10.2019
5629 Clouds 30 1012 74 10000 6.7 240 08:24 20.10.2019
5630 Clouds 30 1012 74 10000 6.7 240 07:51 20.10.2019
5631 Clouds 31 1012 66 10000 3.6 200 07:31 20.10.2019
5632 Clouds 31 1012 66 10000 3.6 200 06:59 20.10.2019
5633 Clouds 30 1012 70 10000 3.1 190 06:21 20.10.2019
5634 Clouds 28 1010 78 10000 3.1 150 04:28 20.10.2019
5635 Clouds 28 1010 78 10000 3.1 150 03:47 20.10.2019
5636 Clouds 28 1009 78 10000 3.6 150 03:21 20.10.2019
5637 Clouds 28 1009 78 10000 3.6 150 02:44 20.10.2019
5638 Clouds 28 1009 78 10000 3.6 150 01:59 20.10.2019
5639 Clouds 28 1009 78 10000 3.1 160 01:24 20.10.2019
5640 Clouds 28 1009 78 10000 3.1 160 00:58 20.10.2019
5641 Clouds 28 1009 74 0 3.58 154.761 00:39 20.10.2019
5642 Clouds 28 1009 78 10000 4.1 150 00:20 20.10.2019
5643 Clouds 28 1009 78 10000 4.1 150 23:42 19.10.2019
5644 Clouds 28 1009 78 10000 4.1 140 23:23 19.10.2019
5645 Clouds 28 1009 78 10000 4.1 140 22:57 19.10.2019
5646 Clouds 27 1009 78 0 5.04 145.717 22:38 19.10.2019
5647 Clouds 28 1010 78 10000 4.1 140 22:20 19.10.2019
5648 Clouds 28 1010 78 10000 4.1 140 21:46 19.10.2019
5649 Clouds 28 1011 78 10000 4.1 140 21:24 19.10.2019
5650 Clouds 28 1011 78 10000 4.1 140 20:54 19.10.2019
5651 Clouds 28 1011 75 0 5.24 138.476 20:36 19.10.2019
5652 Clouds 28 1011 78 10000 4.1 150 20:18 19.10.2019
5653 Clouds 28 1011 75 0 5.24 138.476 19:41 19.10.2019
5654 Clouds 29 1011 74 10000 5.1 150 19:23 19.10.2019
5655 Clouds 29 1011 74 10000 5.1 150 18:43 19.10.2019
5656 Clouds 29 1011 74 10000 5.7 150 18:24 19.10.2019
5657 Clouds 29 1011 74 10000 5.7 150 17:59 19.10.2019
5658 Rain 27 1010 79 0 7.56 143.411 17:37 19.10.2019
5659 Clouds 29 1009 74 10000 3.6 190 17:19 19.10.2019
5660 Rain 27 1010 79 0 7.56 143.411 16:39 19.10.2019
5661 Clouds 29 1009 74 10000 3.1 180 16:20 19.10.2019
5662 Clouds 29 1009 74 10000 3.1 180 15:59 19.10.2019
5663 Rain 27 1010 79 0 7.56 143.411 15:39 19.10.2019
5664 Clouds 30 1008 70 10000 3.1 170 15:21 19.10.2019
5665 Clouds 28 1009 78 0 6.97 149.82 14:38 19.10.2019
5666 Clouds 28 1009 78 0 6.97 149.82 14:38 19.10.2019
5667 Clouds 30 1008 66 10000 3.6 170 14:20 19.10.2019
5668 Clouds 30 1008 66 10000 3.6 170 13:56 19.10.2019
5669 Clouds 28 1009 78 0 6.97 149.82 13:38 19.10.2019
5670 Clouds 31 1008 66 10000 5.1 120 13:18 19.10.2019
5671 Clouds 28 1009 76 0 7.01 144.651 12:41 19.10.2019
5672 Clouds 30 1008 70 10000 3.6 140 12:22 19.10.2019
5673 Clouds 30 1008 70 10000 3.6 140 11:59 19.10.2019
5674 Clouds 30 1008 70 10000 3.6 140 11:40 19.10.2019
5675 Clouds 31 1009 66 10000 4.1 130 11:22 19.10.2019
5676 Clouds 31 1009 66 10000 4.1 130 10:54 19.10.2019
5677 Clouds 31 1009 66 10000 4.1 130 10:36 19.10.2019
5678 Clouds 31 1010 66 10000 4.1 140 10:18 19.10.2019
5679 Clouds 31 1010 66 10000 4.1 140 09:41 19.10.2019
5680 Clouds 31 1010 66 10000 4.1 140 09:41 19.10.2019
5681 Clouds 31 1010 66 10000 4.1 140 09:23 19.10.2019
5682 Clouds 30 1011 74 10000 4.1 140 08:58 19.10.2019
5683 Clouds 30 1011 74 10000 4.1 140 08:58 19.10.2019
5684 Clouds 30 1011 74 10000 4.1 140 08:39 19.10.2019
5685 Clouds 30 1011 74 10000 4.1 140 08:20 19.10.2019
5686 Clouds 30 1011 74 10000 4.1 140 08:20 19.10.2019
5687 Clouds 30 1012 74 10000 3.1 140 07:42 19.10.2019
5688 Clouds 30 1012 74 10000 3.1 140 07:23 19.10.2019
5689 Clouds 29 1012 79 10000 2.6 140 06:40 19.10.2019
5690 Clouds 28 1011 83 10000 2.6 140 05:55 19.10.2019
5691 Clouds 28 1011 83 10000 2.6 140 05:27 19.10.2019
5692 Clouds 26 1009 94 10000 1.5 150 03:25 19.10.2019
5693 Clouds 27 1009 74 0 2.15 155.165 02:38 19.10.2019
5694 Clouds 26 1009 88 10000 2.15 155.165 01:51 19.10.2019
5695 Clouds 26 1009 88 10000 2.38 156.523 01:18 19.10.2019
5696 Clouds 26 1009 88 10000 2.38 156.523 00:45 19.10.2019
5697 Clouds 27 1009 75 0 1.44 194.829 00:22 19.10.2019
5698 Clouds 27 1009 75 0 1.44 194.829 23:41 18.10.2019
5699 Clouds 26 1009 94 10000 0.5 0 23:23 18.10.2019
5700 Clouds 26 1009 94 10000 0.5 0 22:55 18.10.2019
5701 Clouds 27 1009 75 0 1.44 194.829 22:37 18.10.2019
5702 Clouds 26 1010 94 10000 1.44 194.829 22:19 18.10.2019
5703 Clouds 26 1010 94 10000 1.44 194.829 21:56 18.10.2019
5704 Clouds 27 1009 75 0 1.44 194.829 21:38 18.10.2019
5705 Clouds 26 1011 94 10000 1.46 298.868 21:19 18.10.2019
5706 Clouds 26 1011 94 10000 1.46 298.868 20:54 18.10.2019
5707 Clouds 27 1011 75 0 1.46 298.868 20:36 18.10.2019
5708 Clouds 26 1011 88 10000 1.46 298.868 20:18 18.10.2019
5709 Clouds 27 1011 75 0 1.46 298.868 19:41 18.10.2019
5710 Clouds 26 1011 94 10000 1 0 19:23 18.10.2019
5711 Clouds 26 1011 94 10000 1 0 18:59 18.10.2019
5712 Clouds 27 1011 75 0 1.46 298.868 18:41 18.10.2019
5713 Clouds 26 1010 94 10000 0.5 0 18:23 18.10.2019
5714 Clouds 26 1010 94 10000 0.5 0 17:57 18.10.2019
5715 Rain 27 1010 75 0 1.45 285.728 17:38 18.10.2019
5716 Clouds 25 1009 94 10000 0.5 0 17:20 18.10.2019
5717 Clouds 25 1009 94 10000 0.5 0 16:44 18.10.2019
5718 Clouds 25 1009 94 10000 0.5 0 16:44 18.10.2019
5719 Rain 25 1009 94 9000 1 0 16:22 18.10.2019
5720 Rain 25 1009 94 9000 1 0 16:22 18.10.2019
5721 Rain 25 1009 94 9000 1 0 15:59 18.10.2019
5722 Rain 27 1010 75 0 1.45 285.728 15:40 18.10.2019
5723 Rain 25 1008 94 7000 1.5 220 15:20 18.10.2019
5724 Rain 25 1008 94 7000 1.5 220 14:58 18.10.2019
5725 Rain 27 1009 76 0 4.26 264.795 14:39 18.10.2019
5726 Rain 26 1008 94 7000 2.6 200 14:21 18.10.2019
5727 Rain 26 1008 94 7000 2.6 200 13:58 18.10.2019
5728 Rain 27 1009 76 0 4.26 264.795 13:39 18.10.2019
5729 Rain 26 1008 94 9000 4.1 280 13:21 18.10.2019
5730 Rain 26 1008 94 9000 4.1 280 12:56 18.10.2019
5731 Rain 28 1009 73 0 1.77 209.869 12:38 18.10.2019
5732 Rain 25 1009 94 9000 3.6 290 12:20 18.10.2019
5733 Rain 25 1009 94 9000 3.6 290 11:54 18.10.2019
5734 Rain 28 1008 75 0 4.42 148.398 11:36 18.10.2019
5735 Rain 28 1008 75 0 4.42 148.398 11:18 18.10.2019
5736 Rain 28 1008 75 0 4.42 148.398 11:18 18.10.2019
5737 Rain 28 1008 75 0 4.42 148.398 10:41 18.10.2019
5738 Rain 28 1008 75 0 4.42 148.398 10:22 18.10.2019
5739 Rain 28 1008 75 0 4.42 148.398 10:22 18.10.2019
5740 Rain 28 1008 75 0 4.42 148.398 09:58 18.10.2019
5741 Rain 28 1008 75 0 4.42 148.398 09:40 18.10.2019
5742 Clouds 30 1011 79 10000 3.1 260 09:20 18.10.2019
5743 Clouds 30 1011 79 10000 3.1 260 08:47 18.10.2019
5744 -273 0 0 0 0 0 08:26 18.10.2019
5745 Rain 28 1011 78 0 5.5 133.991 07:59 18.10.2019
5746 Rain 28 1011 78 0 5.5 133.991 07:41 18.10.2019
5747 Clouds 29 1011 83 10000 1.5 210 07:18 18.10.2019
5748 Rain 28 1011 78 0 5.5 133.991 06:38 18.10.2019
5749 Clouds 27 1011 88 10000 1 0 06:19 18.10.2019
5750 Clouds 27 1011 88 10000 1 0 05:54 18.10.2019
5751 Clouds 26 1010 94 10000 2.1 250 05:20 18.10.2019
5752 Rain 25 1009 94 9000 0.5 0 03:42 18.10.2019
5753 Rain 25 1008 94 7000 1.5 120 03:19 18.10.2019
5754 Clouds 26 1008 94 10000 2.6 230 02:33 18.10.2019
5755 Clouds 26 1008 94 10000 2.6 230 01:43 18.10.2019
5756 Rain 25 1008 94 6000 4.6 150 01:23 18.10.2019
5757 Rain 25 1008 94 6000 4.6 150 00:43 18.10.2019
5758 Clouds 26 1009 94 10000 4.46 154.893 00:20 18.10.2019
5759 Clouds 26 1009 94 10000 4.46 154.893 23:41 17.10.2019
5760 Clouds 26 1009 94 10000 1.5 130 23:21 17.10.2019
5761 Clouds 26 1009 94 10000 1.5 130 22:58 17.10.2019
5762 Clouds 28 1008 76 0 4.46 154.893 22:39 17.10.2019
5763 Rain 25 1010 94 8000 5.1 200 22:20 17.10.2019
5764 Rain 25 1010 94 8000 5.1 200 21:58 17.10.2019
5765 Clouds 28 1008 76 0 4.46 154.893 21:39 17.10.2019
5766 Clouds 28 1010 83 10000 2.1 200 21:21 17.10.2019
5767 Clouds 28 1010 83 10000 2.1 200 21:21 17.10.2019
5768 Clouds 28 1010 83 10000 2.1 200 20:58 17.10.2019
5769 Clouds 28 1011 76 0 4.85 136.672 20:40 17.10.2019
5770 Clouds 28 1011 83 10000 3.1 200 20:20 17.10.2019
5771 Clouds 28 1011 83 10000 3.1 200 20:20 17.10.2019
5772 Clouds 28 1011 83 10000 3.1 200 19:59 17.10.2019
5773 Clouds 28 1011 83 10000 3.1 200 19:59 17.10.2019
5774 Clouds 28 1011 76 0 4.85 136.672 19:40 17.10.2019
5775 Clouds 28 1010 83 10000 3.6 210 19:20 17.10.2019
5776 Clouds 28 1010 83 10000 3.6 210 18:58 17.10.2019
5777 Clouds 28 1011 76 0 4.85 136.672 18:38 17.10.2019
5778 Clouds 28 1009 83 10000 4.1 200 18:20 17.10.2019
5779 Clouds 28 1009 83 10000 4.1 200 17:42 17.10.2019
5780 Clouds 28 1009 78 10000 3.6 200 17:23 17.10.2019
5781 Clouds 28 1009 78 10000 3.6 200 16:58 17.10.2019
5782 Clouds 28 1010 73 0 3.515 146 16:39 17.10.2019
5783 Clouds 29 1008 74 10000 4.1 200 16:18 17.10.2019
5784 Clouds 29 1008 74 10000 4.1 200 15:56 17.10.2019
5785 Clouds 28 1010 73 0 3.515 146 15:38 17.10.2019
5786 Clouds 29 1008 74 10000 3.6 200 15:20 17.10.2019
5787 Clouds 29 1008 74 10000 3.6 200 14:55 17.10.2019
5788 Clouds 28 1008 76 0 3.367 151 14:37 17.10.2019
5789 Clouds 29 1008 79 10000 4.6 210 14:18 17.10.2019
5790 Clouds 28 1008 76 0 3.367 151 13:39 17.10.2019
5791 Clouds 28 1008 83 10000 5.1 210 13:19 17.10.2019
5792 Clouds 28 1008 83 10000 5.1 210 12:55 17.10.2019
5793 Clouds 28 1008 83 10000 5.1 210 12:55 17.10.2019
5794 Clouds 28 1008 76 0 3.367 151 12:36 17.10.2019
5795 Clouds 28 1008 83 10000 5.1 150 12:18 17.10.2019
5796 Clouds 27 1007 76 0 2.717 170 11:41 17.10.2019
5797 Clouds 27 1007 76 0 2.717 170 11:41 17.10.2019
5798 Clouds 29 1009 79 10000 7.7 130 11:22 17.10.2019
5799 Clouds 29 1009 79 10000 7.7 130 10:58 17.10.2019
5800 Clouds 27 1007 76 0 2.717 170 10:39 17.10.2019
5801 Clouds 29 1010 79 10000 2.6 200 10:19 17.10.2019
5802 Clouds 29 1010 79 10000 2.6 200 09:55 17.10.2019
5803 -273 0 0 0 0 0 09:55 17.10.2019
5804 Clouds 29 1010 79 10000 2.6 200 09:55 17.10.2019
5805 Clouds 27 1007 76 0 2.717 170 09:37 17.10.2019
5806 -273 0 0 0 0 0 09:19 17.10.2019
5807 Clouds 29 1010 79 10000 2.6 200 08:46 17.10.2019
5808 Clouds 28 1011 73 0 1.95 103 08:26 17.10.2019
5809 Clouds 28 1011 73 0 1.95 103 07:58 17.10.2019
5810 -273 0 0 0 0 0 07:40 17.10.2019
5811 Clouds 28 1011 73 0 1.95 103 07:20 17.10.2019
5812 Clouds 28 1011 73 0 1.95 103 07:20 17.10.2019
5813 Clouds 28 1011 73 0 1.95 103 06:42 17.10.2019
5814 Clouds 28 1011 73 0 1.95 103 06:42 17.10.2019
5815 Clouds 28 1011 83 10000 4.6 220 06:23 17.10.2019
5816 Clouds 28 1011 83 10000 4.6 220 05:58 17.10.2019
5817 Clouds 27 1010 74 0 0.913 192 05:34 17.10.2019
5818 Clouds 27 1010 88 10000 5.1 200 04:57 17.10.2019
5819 Rain 27 1009 88 9000 5.7 200 03:58 17.10.2019
5820 Clouds 27 1010 74 0 0.913 192 03:38 17.10.2019
5821 Rain 28 1008 78 9000 4.6 210 01:55 17.10.2019
5822 Rain 27 1008 78 0 1.476 135 00:41 17.10.2019
5823 Rain 26 1009 94 8000 1.5 230 00:20 17.10.2019
5824 Rain 26 1009 94 8000 1.5 230 23:42 16.10.2019
5825 Rain 26 1009 88 8000 1.5 250 23:21 16.10.2019
5826 Rain 26 1009 88 8000 1.5 250 22:57 16.10.2019
5827 Rain 26 1008 83 0 4.487 136 22:38 16.10.2019
5828 Clouds 28 1010 78 10000 2.6 200 22:19 16.10.2019
5829 Clouds 28 1010 78 10000 2.6 200 21:58 16.10.2019
5830 Rain 26 1008 83 0 4.765 137 21:38 16.10.2019
5831 Rain 26 1008 83 0 4.765 137 21:38 16.10.2019
5832 Clouds 28 1010 78 10000 3.6 200 21:20 16.10.2019
5833 Clouds 28 1010 78 10000 3.6 200 20:58 16.10.2019
5834 Rain 27 1011 81 0 5.675 174 20:40 16.10.2019
5835 Clouds 28 1011 78 10000 5.1 210 20:21 16.10.2019
5836 Clouds 28 1011 78 10000 5.1 210 19:59 16.10.2019
5837 Rain 27 1011 81 0 5.675 174 19:39 16.10.2019
5838 Rain 27 1011 81 0 5.675 174 19:39 16.10.2019
5839 Clouds 28 1011 78 10000 4.1 210 19:21 16.10.2019
5840 Clouds 28 1011 78 10000 4.1 210 18:55 16.10.2019
5841 Rain 27 1011 81 0 5.675 174 18:37 16.10.2019
5842 Clouds 28 1010 83 10000 3.1 220 18:18 16.10.2019
5843 Clouds 28 1010 83 10000 3.1 220 17:54 16.10.2019
5844 Clouds 28 1010 83 10000 3.1 220 17:54 16.10.2019
5845 Rain 28 1010 76 0 2.968 209 17:36 16.10.2019
5846 Clouds 28 1008 83 10000 4.1 240 17:18 16.10.2019
5847 Clouds 28 1008 83 10000 4.1 240 16:43 16.10.2019
5848 Clouds 28 1008 83 10000 4.6 250 16:21 16.10.2019
5849 Clouds 28 1008 83 10000 4.6 250 15:58 16.10.2019
5850 Rain 28 1010 76 0 2.968 209 15:39 16.10.2019
5851 Clouds 29 1008 79 10000 3.6 250 15:19 16.10.2019
5852 Clouds 29 1008 79 10000 3.6 250 14:58 16.10.2019
5853 Clouds 29 1008 79 10000 3.6 250 14:39 16.10.2019
5854 Clouds 29 1008 79 10000 3.6 250 14:39 16.10.2019
5855 Clouds 30 1008 74 10000 3.6 250 14:20 16.10.2019
5856 Clouds 30 1008 74 10000 3.6 250 13:57 16.10.2019
5857 Clouds 30 1008 74 10000 3.6 250 13:39 16.10.2019
5858 Clouds 30 1008 74 10000 4.1 250 13:20 16.10.2019
5859 Clouds 30 1008 74 10000 4.1 250 12:42 16.10.2019
5860 Clouds 29 1008 74 10000 4.6 240 12:20 16.10.2019
5861 Clouds 29 1008 74 10000 4.6 240 11:45 16.10.2019
5862 Clouds 29 1009 83 10000 4.6 250 11:19 16.10.2019
5863 Clouds 29 1009 83 10000 4.6 250 10:56 16.10.2019
5864 Clouds 29 1009 83 10000 4.6 250 10:36 16.10.2019
5865 Clouds 28 1009 83 10000 3.6 290 10:18 16.10.2019
5866 -273 0 0 0 0 0 09:40 16.10.2019
5867 Clouds 28 1009 83 10000 3.6 290 09:40 16.10.2019
5868 Clouds 28 1010 83 10000 5.1 260 09:21 16.10.2019
5869 -273 0 0 0 0 0 08:46 16.10.2019
5870 Clouds 29 1011 79 10000 2.1 290 08:26 16.10.2019
5871 Clouds 29 1011 79 10000 2.1 290 07:59 16.10.2019
5872 Clouds 29 1011 79 10000 2.1 290 07:41 16.10.2019
5873 Clouds 29 1011 74 10000 2.1 320 07:22 16.10.2019
5874 Clouds 29 1011 74 10000 2.1 320 06:47 16.10.2019
5875 Clouds 28 1010 78 10000 1.5 290 06:28 16.10.2019
5876 Rain 28 1011 73 0 2.695 240 04:25 16.10.2019
5877 Thunderstorm 26 1009 88 9000 7.7 280 02:51 16.10.2019
5878 Thunderstorm 28 1008 83 10000 2.6 330 01:20 16.10.2019
5879 Thunderstorm 28 1008 83 10000 2.6 330 00:58 16.10.2019
5880 Thunderstorm 28 1008 83 10000 2.6 330 00:39 16.10.2019
5881 Clouds 29 1008 66 0 1.748 240 23:58 15.10.2019
5882 Clouds 29 1008 66 0 1.748 240 23:38 15.10.2019
5883 Clouds 28 1009 83 10000 3.1 290 23:19 15.10.2019
5884 Clouds 28 1009 83 10000 3.1 290 22:55 15.10.2019
5885 Clouds 28 1009 83 10000 3.1 290 22:37 15.10.2019
5886 Clouds 28 1010 78 10000 3.6 270 22:18 15.10.2019
5887 Clouds 28 1010 78 10000 3.6 270 22:18 15.10.2019
5888 Clouds 28 1010 78 10000 3.6 270 21:54 15.10.2019
5889 Clouds 28 1010 78 10000 3.6 270 21:36 15.10.2019
5890 Clouds 28 1011 78 10000 0.5 0 21:18 15.10.2019
5891 -273 0 0 0 0 0 20:54 15.10.2019
5892 Clouds 28 1011 78 10000 0.5 0 20:36 15.10.2019
5893 Clouds 28 1011 78 10000 1 0 20:18 15.10.2019
5894 Clouds 28 1011 78 10000 1 0 19:41 15.10.2019
5895 Clouds 28 1011 78 10000 1 0 19:41 15.10.2019
5896 Clouds 28 1010 83 10000 2.1 320 19:20 15.10.2019
5897 Clouds 28 1010 83 10000 2.1 320 18:57 15.10.2019
5898 Clouds 28 1010 83 10000 2.1 320 18:39 15.10.2019
5899 Clouds 28 1010 83 10000 2.1 290 18:20 15.10.2019
5900 Clouds 28 1010 83 10000 2.1 290 17:54 15.10.2019
5901 Clouds 28 1010 83 10000 2.1 290 17:36 15.10.2019
5902 Clouds 27 1009 88 10000 3.1 290 17:18 15.10.2019
5903 Clouds 27 1009 88 10000 3.1 290 16:42 15.10.2019
5904 Clouds 27 1009 88 10000 6.7 290 16:21 15.10.2019
5905 Clouds 27 1009 88 10000 6.7 290 15:56 15.10.2019
5906 Clouds 27 1009 88 10000 6.7 290 15:38 15.10.2019
5907 Clouds 27 1008 78 10000 3.1 360 15:19 15.10.2019
5908 Clouds 27 1008 78 10000 3.1 360 14:55 15.10.2019
5909 Clouds 27 1008 78 10000 3.1 360 14:55 15.10.2019
5910 Clouds 27 1008 78 10000 3.1 360 14:36 15.10.2019
5911 Clouds 31 1008 70 10000 2.6 290 14:18 15.10.2019
5912 Clouds 31 1008 70 10000 2.6 290 13:43 15.10.2019
5913 Clouds 31 1008 70 10000 2.6 290 13:43 15.10.2019
5914 Clouds 30 1008 70 10000 4.1 280 13:20 15.10.2019
5915 Clouds 30 1008 70 10000 4.1 280 13:20 15.10.2019
5916 Clouds 30 1008 70 10000 4.1 280 12:56 15.10.2019
5917 Clouds 30 1008 70 10000 4.1 280 12:56 15.10.2019
5918 Rain 29 1008 71 0 3.675 299 12:38 15.10.2019
5919 Clouds 30 1008 74 10000 4.6 270 12:19 15.10.2019
5920 Clouds 30 1008 74 10000 4.6 270 11:42 15.10.2019
5921 Clouds 30 1008 74 10000 4.6 270 11:42 15.10.2019
5922 Clouds 31 1009 70 10000 3.1 290 11:20 15.10.2019
5923 Clouds 31 1009 70 10000 3.1 290 10:55 15.10.2019
5924 Clouds 31 1009 70 10000 3.1 290 10:37 15.10.2019
5925 Clouds 30 1010 70 10000 3.6 310 10:18 15.10.2019
5926 -273 0 0 0 0 0 09:40 15.10.2019
5927 Clouds 30 1010 70 10000 3.6 310 09:40 15.10.2019
5928 Clouds 31 1011 70 10000 2.1 300 09:21 15.10.2019
5929 Clouds 31 1011 70 10000 2.1 300 08:58 15.10.2019
5930 Clouds 31 1011 70 10000 2.1 300 08:58 15.10.2019
5931 Clouds 31 1011 70 10000 2.1 300 08:40 15.10.2019
5932 Clouds 31 1011 70 10000 2.1 300 08:20 15.10.2019
5933 Clouds 30 1011 70 10000 2.1 300 07:44 15.10.2019
5934 Clouds 30 1011 74 10000 1 0 07:23 15.10.2019
5935 Clouds 30 1011 74 10000 1 0 06:58 15.10.2019
5936 Clouds 30 1011 74 10000 1 0 06:39 15.10.2019
5937 Clouds 29 1010 79 10000 2.1 250 05:56 15.10.2019
5938 Clouds 29 1010 79 10000 2.1 250 05:37 15.10.2019
5939 Clouds 28 1010 83 10000 1.5 250 04:49 15.10.2019
5940 Clouds 28 1009 83 10000 1.5 250 04:19 15.10.2019
5941 Clouds 28 1009 78 10000 1.5 230 03:35 15.10.2019
5942 Clouds 28 1009 78 10000 0.5 0 01:57 15.10.2019
5943 Clouds 28 1009 78 10000 0.5 0 01:39 15.10.2019
5944 Clouds 28 1008 78 10000 1 0 00:59 15.10.2019
5945 Clouds 28 1009 78 10000 2.96 327.642 00:25 15.10.2019
5946 Clouds 28 1009 78 10000 2.14 330.225 23:59 14.10.2019
5947 Clouds 28 1009 78 10000 2.14 330.225 23:37 14.10.2019
5948 Clouds 28 1009 78 10000 0.5 0 23:18 14.10.2019
5949 Clouds 28 1009 78 10000 0.5 0 22:39 14.10.2019
5950 Clouds 28 1010 78 10000 0.5 0 22:20 14.10.2019
5951 Clouds 28 1010 78 10000 0.5 0 21:58 14.10.2019
5952 Clouds 28 1010 78 10000 0.5 0 21:39 14.10.2019
5953 Clouds 28 1011 78 10000 0.5 0 21:21 14.10.2019
5954 Clouds 28 1011 78 10000 0.5 0 20:57 14.10.2019
5955 Clouds 28 1011 78 10000 0.5 0 20:57 14.10.2019
5956 Clouds 28 1011 78 10000 0.5 0 20:38 14.10.2019
5957 Clouds 28 1011 78 10000 0.5 0 20:38 14.10.2019
5958 Clouds 28 1011 78 10000 0.5 0 20:19 14.10.2019
5959 Clouds 28 1011 78 10000 0.5 0 19:43 14.10.2019
5960 Clouds 28 1011 78 10000 0.5 0 19:25 14.10.2019
5961 Clouds 28 1011 78 10000 0.5 0 18:59 14.10.2019
5962 Clouds 28 1011 66 0 0.42 30.306 18:40 14.10.2019
5963 Clouds 29 1010 74 10000 1 0 18:20 14.10.2019
5964 Clouds 29 1010 74 10000 1 0 18:20 14.10.2019
5965 Clouds 29 1010 74 10000 1 0 17:58 14.10.2019
5966 Clear 29 1010 66 0 1.54 61.689 17:40 14.10.2019
5967 Clouds 29 1010 74 10000 0.5 0 17:22 14.10.2019
5968 Clouds 29 1010 74 10000 0.5 0 16:44 14.10.2019
5969 Clouds 29 1009 74 10000 1.5 300 16:22 14.10.2019
5970 Clouds 29 1009 74 10000 1.5 300 15:57 14.10.2019
5971 Clear 29 1010 66 0 1.54 61.689 15:38 14.10.2019
5972 Clouds 30 1008 70 10000 1.5 300 15:20 14.10.2019
5973 Clouds 30 1008 70 10000 1.5 300 14:43 14.10.2019
5974 Clouds 30 1008 70 10000 1.5 300 14:24 14.10.2019
5975 Clouds 30 1008 70 10000 1.5 300 13:57 14.10.2019
5976 Clear 29 1008 65 0 1.29 38.473 13:38 14.10.2019
5977 Clouds 31 1008 89 10000 1.5 290 13:19 14.10.2019
5978 Clouds 29 1009 61 0 0.98 3.353 12:41 14.10.2019
5979 Clouds 30 1008 94 10000 1.5 60 12:19 14.10.2019
5980 Clouds 30 1008 94 10000 1.5 60 11:47 14.10.2019
5981 Clouds 30 1009 94 10000 2.1 60 11:27 14.10.2019
5982 Clouds 30 1009 94 10000 2.1 60 10:59 14.10.2019
5983 Clear 28 1008 63 0 1.12 26.679 10:40 14.10.2019
5984 Clouds 31 1010 79 10000 3.1 90 10:20 14.10.2019
5985 Clouds 31 1010 79 10000 3.1 90 09:56 14.10.2019
5986 Clear 28 1008 63 0 1.12 26.679 09:37 14.10.2019
5987 Clouds 31 1011 79 10000 3.1 90 09:18 14.10.2019
5988 Clouds 31 1011 79 10000 3.1 90 08:44 14.10.2019
5989 Clouds 30 1012 89 10000 2.6 70 08:22 14.10.2019
5990 Clear 28 1011 65 0 2.39 35.356 07:43 14.10.2019
5991 Clouds 30 1012 89 10000 2.6 70 07:19 14.10.2019
5992 Clouds 30 1012 89 10000 2.6 70 06:53 14.10.2019
5993 Clouds 29 1011 83 10000 2.6 30 06:26 14.10.2019
5994 Clouds 29 1011 83 10000 2.6 30 05:49 14.10.2019
5995 Clouds 28 1011 88 10000 1.5 30 04:48 14.10.2019
5996 Clouds 27 1009 94 10000 2.1 50 03:28 14.10.2019
5997 Clouds 27 1009 94 10000 2.1 50 02:49 14.10.2019
5998 Clouds 27 1009 94 10000 1.5 70 01:24 14.10.2019
5999 Clouds 27 1009 94 10000 1.5 70 00:58 14.10.2019
6000 Clouds 27 1009 94 10000 2.1 70 00:20 14.10.2019
6001 Clouds 27 1009 94 10000 2.1 70 23:45 13.10.2019
6002 Clouds 28 1010 88 10000 2.6 90 23:20 13.10.2019
6003 Clouds 28 1010 88 10000 2.6 90 22:58 13.10.2019
6004 Clouds 28 1010 88 10000 2.6 90 22:58 13.10.2019
6005 Clouds 28 1009 71 0 2.18 332.202 22:40 13.10.2019
6006 Clouds 28 1011 88 10000 2.1 90 22:21 13.10.2019
6007 Clouds 28 1011 88 10000 2.1 90 22:21 13.10.2019
6008 Clouds 28 1011 88 10000 2.1 90 21:58 13.10.2019
6009 Clouds 28 1009 71 0 2.18 332.202 21:38 13.10.2019
6010 Clouds 28 1012 88 10000 2.1 110 21:19 13.10.2019
6011 -273 0 0 0 0 0 20:57 13.10.2019
6012 Clouds 28 1011 70 0 0.72 205.429 20:39 13.10.2019
6013 Clouds 28 1012 88 10000 2.6 120 20:20 13.10.2019
6014 Clouds 28 1012 88 10000 2.6 120 19:58 13.10.2019
6015 Clouds 28 1011 70 0 0.72 205.429 19:39 13.10.2019
6016 Clouds 28 1011 88 10000 2.1 120 19:21 13.10.2019
6017 Clouds 28 1011 88 10000 2.1 120 18:57 13.10.2019
6018 -273 0 0 0 0 0 18:57 13.10.2019
6019 Clouds 28 1011 70 0 0.72 205.429 18:37 13.10.2019
6020 Clouds 28 1011 88 10000 2.6 130 18:19 13.10.2019
6021 Clouds 28 1011 88 10000 2.6 130 18:19 13.10.2019
6022 Clouds 28 1011 88 10000 2.6 130 17:57 13.10.2019
6023 Clouds 28 1011 69 0 0.94 218.469 17:38 13.10.2019
6024 Clouds 28 1011 69 0 0.94 218.469 17:38 13.10.2019
6025 Clouds 28 1010 88 10000 2.1 110 17:20 13.10.2019
6026 Clouds 28 1010 88 10000 2.1 110 16:41 13.10.2019
6027 Clouds 28 1009 88 10000 2.6 110 16:18 13.10.2019
6028 -273 0 0 0 0 0 15:57 13.10.2019
6029 Clouds 28 1011 69 0 0.94 218.469 15:38 13.10.2019
6030 Clouds 29 1008 83 10000 2.6 90 15:18 13.10.2019
6031 Clouds 29 1008 83 10000 2.6 90 14:57 13.10.2019
6032 Clouds 28 1009 71 0 2.62 243.171 14:38 13.10.2019
6033 Clouds 29 1008 83 10000 2.6 90 14:19 13.10.2019
6034 Clouds 29 1008 83 10000 2.6 90 13:41 13.10.2019
6035 Clouds 29 1008 89 10000 3.1 80 13:23 13.10.2019
6036 Clouds 29 1008 89 10000 3.1 80 12:59 13.10.2019
6037 Clouds 28 1009 72 0 3.07 227.51 12:39 13.10.2019
6038 Clouds 29 1009 83 10000 2.6 100 12:21 13.10.2019
6039 Clouds 29 1009 83 10000 2.6 100 11:59 13.10.2019
6040 Clouds 28 1008 70 0 2.49 235.061 11:39 13.10.2019
6041 Clouds 29 1009 83 10000 2.6 90 11:20 13.10.2019
6042 Clouds 29 1009 83 10000 2.6 90 10:57 13.10.2019
6043 Clouds 28 1008 70 0 2.49 235.061 10:38 13.10.2019
6044 Clouds 29 1010 79 10000 1.5 90 10:20 13.10.2019
6045 Clouds 28 1008 70 0 2.49 235.061 09:39 13.10.2019
6046 Clouds 30 1010 74 10000 2.1 90 09:21 13.10.2019
6047 Clouds 30 1010 74 10000 2.1 90 08:45 13.10.2019
6048 Clouds 29 1011 79 10000 2.1 90 08:26 13.10.2019
6049 Clouds 29 1011 79 10000 2.1 90 07:52 13.10.2019
6050 Clouds 29 1011 79 10000 2.1 90 07:33 13.10.2019
6051 -273 0 0 0 0 0 06:54 13.10.2019
6052 Clouds 28 1012 83 10000 2.6 110 06:24 13.10.2019
6053 Clouds 28 1012 83 10000 2.6 110 06:24 13.10.2019
6054 Clouds 26 1011 88 10000 1.5 100 05:27 13.10.2019
6055 Clouds 26 1011 88 10000 1.5 100 05:27 13.10.2019
6056 Clouds 25 1009 94 10000 2.7 335.63 04:35 13.10.2019
6057 Clouds 27 1011 76 0 2.7 335.63 03:35 13.10.2019
6058 Clouds 25 1009 94 10000 0.5 0 02:32 13.10.2019
6059 Rain 26 1009 82 0 5.21 315.591 01:37 13.10.2019
6060 Rain 25 1009 94 8000 0.5 0 01:18 13.10.2019
6061 Rain 25 1009 94 8000 0.5 0 00:42 13.10.2019
6062 Rain 25 1009 94 8000 0.5 0 00:42 13.10.2019
6063 Rain 25 1010 94 8000 1 0 00:19 13.10.2019
6064 Rain 25 1010 94 8000 1 0 23:42 12.10.2019
6065 Rain 26 1010 94 8000 6.2 110 23:23 12.10.2019
6066 Rain 26 1010 94 8000 6.2 110 22:59 12.10.2019
6067 Rain 27 1008 80 0 4.58 270.826 22:40 12.10.2019
6068 Rain 27 1008 80 0 4.58 270.826 22:40 12.10.2019
6069 Rain 26 1011 94 8000 5.7 210 22:22 12.10.2019
6070 Rain 26 1011 94 8000 5.7 210 21:59 12.10.2019
6071 Rain 27 1008 80 0 4.58 270.826 21:40 12.10.2019
6072 Clouds 25 1012 94 9000 2.1 220 21:22 12.10.2019
6073 Clouds 25 1012 94 9000 2.1 220 20:56 12.10.2019
6074 Rain 25 1012 94 7000 2.1 150 20:37 12.10.2019
6075 Rain 25 1012 94 7000 2.1 150 20:19 12.10.2019
6076 Rain 27 1011 80 0 5.49 279.577 19:36 12.10.2019
6077 Rain 25 1012 100 7000 4.6 220 19:18 12.10.2019
6078 Rain 25 1012 100 7000 4.6 220 18:44 12.10.2019
6079 Clouds 26 1011 94 8000 6.2 230 18:26 12.10.2019
6080 Clouds 26 1011 94 8000 6.2 230 17:56 12.10.2019
6081 Clouds 26 1011 94 8000 6.2 230 17:56 12.10.2019
6082 Rain 27 1010 79 0 5.78 282.635 17:37 12.10.2019
6083 Rain 27 1010 79 0 5.78 282.635 17:18 12.10.2019
6084 Rain 27 1010 79 0 5.78 282.635 16:40 12.10.2019
6085 Rain 27 1010 79 0 5.78 282.635 16:21 12.10.2019
6086 Rain 27 1010 79 0 5.78 282.635 15:57 12.10.2019
6087 Rain 27 1010 79 0 5.78 282.635 15:38 12.10.2019
6088 Rain 28 1008 88 10000 5.7 230 15:19 12.10.2019
6089 Rain 28 1008 88 10000 5.7 230 14:41 12.10.2019
6090 Rain 29 1008 83 10000 3.6 250 14:20 12.10.2019
6091 Rain 29 1008 83 10000 3.6 250 13:51 12.10.2019
6092 Rain 30 1008 79 10000 2.6 200 13:32 12.10.2019
6093 Rain 30 1008 79 10000 2.6 200 12:57 12.10.2019
6094 Rain 28 1008 76 0 3.88 257.67 12:38 12.10.2019
6095 Clouds 31 1009 74 10000 4.1 210 12:20 12.10.2019
6096 Clouds 31 1009 74 10000 4.1 210 11:47 12.10.2019
6097 Clouds 30 1009 74 10000 3.1 240 11:24 12.10.2019
6098 Clouds 30 1009 74 10000 3.1 240 10:58 12.10.2019
6099 Rain 28 1007 71 0 0.52 262.559 10:40 12.10.2019
6100 Clouds 30 1010 79 10000 3.1 240 10:21 12.10.2019
6101 Clouds 30 1010 79 10000 3.1 240 09:57 12.10.2019
6102 -273 0 0 0 0 0 09:57 12.10.2019
6103 Rain 28 1007 71 0 0.52 262.559 09:38 12.10.2019
6104 Clouds 31 1011 74 10000 2.1 200 09:19 12.10.2019
6105 Clouds 31 1011 74 10000 2.1 200 08:44 12.10.2019
6106 Clouds 31 1011 74 10000 2.1 200 08:44 12.10.2019
6107 Clouds 31 1011 74 10000 2.6 200 08:24 12.10.2019
6108 Clouds 31 1011 74 10000 2.6 200 07:57 12.10.2019
6109 Clouds 29 1011 79 10000 2.6 200 07:31 12.10.2019
6110 Clouds 29 1011 74 10000 3.1 240 06:28 12.10.2019
6111 Clouds 29 1011 74 10000 3.1 240 05:43 12.10.2019
6112 Clouds 28 1010 83 10000 4.6 230 04:43 12.10.2019
6113 Clouds 27 1009 88 10000 4.1 230 03:54 12.10.2019
6114 Clouds 27 1008 83 10000 2.6 230 02:50 12.10.2019
6115 Rain 28 1008 71 0 0.93 181.723 01:34 12.10.2019
6116 Clouds 27 1008 88 10000 2.1 200 00:56 12.10.2019
6117 Clouds 27 1009 88 10000 2.1 200 00:38 12.10.2019
6118 Clouds 27 1009 88 10000 2.1 200 23:55 11.10.2019
6119 Clouds 26 1009 94 10000 0.88 170.879 23:36 11.10.2019
6120 Clouds 26 1009 94 10000 0.88 170.879 23:18 11.10.2019
6121 Clouds 27 1010 88 10000 0.88 170.879 22:38 11.10.2019
6122 Clouds 27 1010 88 10000 0.88 170.879 22:19 11.10.2019
6123 Rain 28 1008 73 0 0.88 170.879 21:43 11.10.2019
6124 Rain 27 1011 88 8000 1 0 21:22 11.10.2019
6125 Rain 28 1010 71 0 1.95 167.838 20:59 11.10.2019
6126 Rain 28 1010 71 0 1.95 167.838 20:41 11.10.2019
6127 Rain 28 1010 71 0 1.95 167.838 20:23 11.10.2019
6128 Rain 28 1010 71 0 1.95 167.838 19:55 11.10.2019
6129 Rain 28 1010 71 0 1.95 167.838 19:37 11.10.2019
6130 Rain 28 1010 71 0 1.95 167.838 19:37 11.10.2019
6131 Rain 28 1010 71 0 1.95 167.838 19:18 11.10.2019
6132 Rain 28 1010 71 0 1.95 167.838 19:18 11.10.2019
6133 Rain 28 1010 71 0 1.95 167.838 19:18 11.10.2019
6134 Rain 28 1010 71 0 1.95 167.838 18:56 11.10.2019
6135 Rain 28 1010 71 0 1.95 167.838 18:37 11.10.2019
6136 Rain 28 1010 75 0 1.84 100.503 18:18 11.10.2019
6137 Rain 28 1010 75 0 1.84 100.503 17:55 11.10.2019
6138 Rain 28 1010 75 0 1.84 100.503 17:36 11.10.2019
6139 Rain 28 1010 75 0 1.84 100.503 17:18 11.10.2019
6140 Rain 28 1010 75 0 1.84 100.503 16:41 11.10.2019
6141 Rain 28 1010 75 0 1.84 100.503 16:20 11.10.2019
6142 Rain 28 1010 75 0 1.84 100.503 16:20 11.10.2019
6143 Rain 28 1010 75 0 1.84 100.503 15:59 11.10.2019
6144 Rain 28 1010 75 0 1.84 100.503 15:38 11.10.2019
6145 Clouds 29 1008 68 0 1.48 118.916 15:19 11.10.2019
6146 Clouds 29 1008 68 0 1.48 118.916 14:47 11.10.2019
6147 Clouds 29 1008 68 0 1.48 118.916 14:29 11.10.2019
6148 Clouds 29 1008 68 0 1.48 118.916 13:56 11.10.2019
6149 Clouds 29 1008 68 0 1.48 118.916 13:37 11.10.2019
6150 Clouds 29 1009 64 0 0.73 141.254 13:19 11.10.2019
6151 Clouds 29 1009 64 0 0.73 141.254 12:54 11.10.2019
6152 Clouds 29 1009 64 0 0.73 141.254 12:36 11.10.2019
6153 Clouds 29 1008 65 0 0.81 238.671 12:18 11.10.2019
6154 Clouds 29 1008 65 0 0.81 238.671 11:41 11.10.2019
6155 Clouds 29 1008 65 0 0.81 238.671 11:22 11.10.2019
6156 Clouds 29 1008 65 0 0.81 238.671 10:56 11.10.2019
6157 Clouds 29 1008 65 0 0.81 238.671 10:38 11.10.2019
6158 Clouds 29 1008 65 0 0.81 238.671 10:20 11.10.2019
6159 Clouds 29 1008 65 0 0.81 238.671 09:55 11.10.2019
6160 Clouds 28 1008 64 0 0.98 284.732 09:37 11.10.2019
6161 Clouds 28 1011 65 0 0.36 138.073 09:18 11.10.2019
6162 Clouds 28 1011 65 0 0.36 138.073 09:18 11.10.2019
6163 Clouds 28 1011 65 0 0.36 138.073 08:54 11.10.2019
6164 Clouds 28 1011 65 0 0.36 138.073 08:36 11.10.2019
6165 Clouds 28 1011 65 0 0.36 138.073 08:18 11.10.2019
6166 Clouds 28 1011 65 0 0.36 138.073 07:41 11.10.2019
6167 Clouds 28 1011 65 0 0.36 138.073 07:22 11.10.2019
6168 Clouds 28 1011 65 0 0.36 138.073 06:47 11.10.2019
6169 Clouds 28 1011 65 0 0.66 208.052 06:22 11.10.2019
6170 Clouds 28 1011 65 0 0.66 208.052 05:37 11.10.2019
6171 Clouds 28 1011 65 0 0.66 208.052 04:59 11.10.2019
6172 Clouds 28 1011 65 0 0.66 208.052 04:24 11.10.2019
6173 Clouds 28 1009 66 0 1.43 233.66 02:19 11.10.2019
6174 Clouds 28 1009 72 0 2.19 204.066 00:43 11.10.2019
6175 Clouds 28 1009 72 0 2.19 204.066 00:25 11.10.2019
6176 Rain 28 1009 73 0 3.05 197.692 23:43 10.10.2019
6177 Rain 28 1009 73 0 3.05 197.692 23:21 10.10.2019
6178 Rain 28 1009 73 0 3.05 197.692 22:57 10.10.2019
6179 Rain 28 1009 73 0 3.05 197.692 22:39 10.10.2019
6180 Rain 28 1009 73 0 3.05 197.692 22:20 10.10.2019
6181 Rain 28 1009 73 0 3.05 197.692 21:57 10.10.2019
6182 Rain 28 1009 73 0 3.05 197.692 21:38 10.10.2019
6183 Rain 28 1011 73 0 3.19 200.457 21:20 10.10.2019
6184 Rain 28 1011 73 0 4.07 203.635 20:42 10.10.2019
6185 Rain 28 1011 73 0 4.07 203.635 20:21 10.10.2019
6186 Rain 28 1011 73 0 4.07 203.635 19:58 10.10.2019
6187 Rain 28 1011 73 0 4.07 203.635 19:40 10.10.2019
6188 Rain 28 1011 73 0 4.07 203.635 19:40 10.10.2019
6189 Rain 28 1011 73 0 4.07 203.635 19:20 10.10.2019
6190 Rain 28 1011 73 0 4.07 203.635 18:57 10.10.2019
6191 Rain 28 1011 73 0 4.07 203.635 18:39 10.10.2019
6192 Rain 28 1011 76 0 4.51 220.862 18:20 10.10.2019
6193 Rain 28 1011 76 0 4.51 220.862 17:54 10.10.2019
6194 Rain 28 1011 76 0 4.51 220.862 17:36 10.10.2019
6195 Rain 28 1011 76 0 4.51 220.862 17:36 10.10.2019
6196 Rain 28 1011 76 0 4.51 220.862 17:18 10.10.2019
6197 Rain 28 1011 76 0 4.51 220.862 17:18 10.10.2019
6198 Rain 28 1011 76 0 4.51 220.862 16:41 10.10.2019
6199 Rain 28 1011 76 0 4.51 220.862 16:22 10.10.2019
6200 Rain 28 1011 76 0 4.51 220.862 15:44 10.10.2019
6201 Rain 28 1011 76 0 4.51 220.862 15:25 10.10.2019
6202 Rain 27 1009 78 0 5.68 223.545 14:59 10.10.2019
6203 Rain 27 1009 78 0 5.68 223.545 14:38 10.10.2019
6204 Rain 27 1009 78 0 5.68 223.545 14:19 10.10.2019
6205 Rain 27 1009 78 0 5.68 223.545 13:59 10.10.2019
6206 Rain 27 1009 78 0 5.68 223.545 13:41 10.10.2019
6207 Rain 27 1009 82 0 6.71 253.241 13:20 10.10.2019
6208 Rain 27 1009 82 0 6.71 253.241 12:57 10.10.2019
6209 Rain 27 1009 82 0 6.71 253.241 12:39 10.10.2019
6210 Rain 26 1009 78 0 2 298.796 12:19 10.10.2019
6211 Rain 26 1009 78 0 2 298.796 11:55 10.10.2019
6212 Rain 26 1009 78 0 2 298.796 11:37 10.10.2019
6213 Rain 26 1009 78 0 2 298.796 11:18 10.10.2019
6214 Rain 26 1009 78 0 2 298.796 10:44 10.10.2019
6215 Rain 26 1009 78 0 2 298.796 10:26 10.10.2019
6216 Rain 26 1009 78 0 2 298.796 09:56 10.10.2019
6217 Rain 26 1009 78 0 2 298.796 09:38 10.10.2019
6218 Rain 28 1011 77 0 5.35 225.81 09:19 10.10.2019
6219 Rain 28 1011 77 0 5.35 225.81 08:41 10.10.2019
6220 Rain 28 1011 77 0 5.35 225.81 08:23 10.10.2019
6221 Rain 28 1011 77 0 5.35 225.81 07:59 10.10.2019
6222 Rain 28 1011 77 0 5.35 225.81 07:40 10.10.2019
6223 Rain 28 1011 77 0 5.35 225.81 07:20 10.10.2019
6224 Rain 28 1011 77 0 5.35 225.81 06:45 10.10.2019
6225 Rain 28 1011 76 0 5.3 226.307 06:24 10.10.2019
6226 Rain 28 1011 76 0 5.3 226.307 05:25 10.10.2019
6227 Rain 28 1011 76 0 5.3 226.307 04:37 10.10.2019
6228 Rain 28 1011 76 0 5.3 226.307 03:42 10.10.2019
6229 Rain 28 1009 78 0 6.89 227.895 01:43 10.10.2019
6230 Rain 28 1009 78 0 6.37 220.66 01:24 10.10.2019
6231 Rain 28 1009 78 0 6.37 220.66 00:53 10.10.2019
6232 Rain 28 1009 77 0 5.49 227.561 00:21 10.10.2019
6233 Rain 28 1009 77 0 5.49 227.561 23:39 09.10.2019
6234 Rain 28 1009 77 0 5.49 227.561 23:20 09.10.2019
6235 Rain 28 1009 77 0 5.49 227.561 22:43 09.10.2019
6236 Rain 28 1009 77 0 5.49 227.561 22:24 09.10.2019
6237 Rain 28 1009 77 0 5.49 227.561 21:59 09.10.2019
6238 Rain 28 1009 77 0 5.49 227.561 21:40 09.10.2019
6239 Rain 28 1011 78 0 5.15 218.269 21:20 09.10.2019
6240 Clouds 28 1011 78 0 4.34 217.442 20:56 09.10.2019
6241 Clouds 28 1011 78 0 4.34 217.442 20:56 09.10.2019
6242 Clouds 28 1011 78 0 4.34 217.442 20:37 09.10.2019
6243 Clouds 28 1011 78 0 4.34 217.442 20:37 09.10.2019
6244 Clouds 28 1011 78 0 4.34 217.442 20:18 09.10.2019
6245 Clouds 28 1011 78 0 4.34 217.442 19:46 09.10.2019
6246 Clouds 28 1011 78 0 4.34 217.442 19:24 09.10.2019
6247 Clouds 28 1011 78 0 4.34 217.442 18:58 09.10.2019
6248 Clouds 28 1011 78 0 4.34 217.442 18:38 09.10.2019
6249 Clouds 28 1011 72 0 3.17 218.295 18:18 09.10.2019
6250 Clouds 28 1011 72 0 3.17 218.295 17:56 09.10.2019
6251 Clouds 28 1011 72 0 3.17 218.295 17:37 09.10.2019
6252 Clouds 28 1011 72 0 3.17 218.295 17:19 09.10.2019
6253 Clouds 28 1011 72 0 3.17 218.295 16:42 09.10.2019
6254 Clouds 28 1011 72 0 3.17 218.295 16:23 09.10.2019
6255 Clouds 28 1011 72 0 3.17 218.295 15:58 09.10.2019
6256 Clouds 28 1011 72 0 3.17 218.295 15:39 09.10.2019
6257 Clouds 28 1009 70 0 2.92 227.634 15:20 09.10.2019
6258 Clouds 28 1009 70 0 2.92 227.634 14:59 09.10.2019
6259 Clouds 28 1009 70 0 2.92 227.634 14:41 09.10.2019
6260 Clouds 28 1009 70 0 2.92 227.634 14:18 09.10.2019
6261 Clouds 28 1009 70 0 2.92 227.634 14:18 09.10.2019
6262 Clouds 28 1009 70 0 2.92 227.634 13:40 09.10.2019
6263 Clouds 28 1009 71 0 3.14 211.384 13:22 09.10.2019
6264 Clouds 28 1009 71 0 3.14 211.384 12:59 09.10.2019
6265 Clouds 28 1009 71 0 3.14 211.384 12:41 09.10.2019
6266 Clear 28 1009 71 0 3.07 224.432 12:21 09.10.2019
6267 Clear 28 1009 71 0 3.07 224.432 11:56 09.10.2019
6268 Clear 28 1009 71 0 3.07 224.432 11:37 09.10.2019
6269 Clear 28 1009 71 0 3.07 224.432 11:19 09.10.2019
6270 Clear 28 1009 71 0 3.07 224.432 10:44 09.10.2019
6271 Clear 28 1009 71 0 3.07 224.432 10:22 09.10.2019
6272 Clear 28 1009 71 0 3.07 224.432 09:59 09.10.2019
6273 Clear 28 1009 71 0 3.07 224.432 09:41 09.10.2019
6274 Clouds 28 1011 72 0 2.54 212.638 09:19 09.10.2019
6275 Clouds 28 1011 70 0 2.31 219.174 08:43 09.10.2019
6276 Clouds 28 1011 70 0 2.31 219.174 08:23 09.10.2019
6277 Clouds 28 1011 70 0 2.31 219.174 07:59 09.10.2019
6278 Clouds 28 1011 70 0 2.31 219.174 07:39 09.10.2019
6279 Clouds 28 1011 70 0 2.31 219.174 07:21 09.10.2019
6280 Clouds 28 1011 70 0 2.31 219.174 06:52 09.10.2019
6281 Clouds 28 1011 70 0 2.31 219.174 06:52 09.10.2019
6282 Clouds 28 1012 70 0 1.64 210.231 06:19 09.10.2019
6283 Clouds 28 1012 70 0 1.64 210.231 05:44 09.10.2019
6284 Clouds 28 1012 70 0 1.64 210.231 04:26 09.10.2019
6285 Clouds 28 1010 72 0 2.75 201.021 02:53 09.10.2019
6286 Clouds 28 1010 72 0 2.75 201.021 01:44 09.10.2019
6287 Clouds 28 1010 73 0 2.65 203.738 01:21 09.10.2019
6288 Clouds 28 1010 73 0 2.65 203.738 00:57 09.10.2019
6289 Clouds 28 1010 73 0 2.65 203.738 00:38 09.10.2019
6290 Rain 27 1009 75 0 2.49 200.292 00:20 09.10.2019
6291 Rain 27 1009 75 0 2.49 200.292 23:39 08.10.2019
6292 Rain 27 1009 75 0 2.49 200.292 23:19 08.10.2019
6293 Rain 27 1009 75 0 2.49 200.292 23:19 08.10.2019
6294 Rain 27 1009 75 0 2.49 200.292 22:57 08.10.2019
6295 Rain 27 1009 75 0 2.49 200.292 22:38 08.10.2019
6296 Rain 27 1009 75 0 2.49 200.292 22:19 08.10.2019
6297 Rain 27 1009 75 0 2.49 200.292 21:57 08.10.2019
6298 Rain 27 1009 75 0 2.49 200.292 21:39 08.10.2019
6299 Clouds 28 1012 71 0 1.87 178.009 21:19 08.10.2019
6300 Clouds 28 1012 71 0 1.87 178.009 20:56 08.10.2019
6301 Clouds 28 1012 71 0 1.87 178.009 20:56 08.10.2019
6302 Clouds 28 1012 71 0 2.3 180 20:37 08.10.2019
6303 Clouds 28 1012 71 0 2.3 180 20:19 08.10.2019
6304 Clouds 28 1012 71 0 2.3 180 19:57 08.10.2019
6305 Clouds 28 1012 71 0 2.3 180 19:38 08.10.2019
6306 Clouds 28 1012 71 0 2.3 180 19:20 08.10.2019
6307 Clouds 28 1012 71 0 2.3 180 18:46 08.10.2019
6308 Clouds 28 1012 71 0 2.3 180 18:28 08.10.2019
6309 Clouds 28 1012 68 0 1.41 191.82 17:59 08.10.2019
6310 Clouds 28 1012 68 0 1.41 191.82 17:40 08.10.2019
6311 Clouds 28 1012 68 0 1.41 191.82 17:40 08.10.2019
6312 Rain 26 1010 94 9000 2.1 210 17:20 08.10.2019
6313 Rain 26 1010 94 9000 2.1 210 16:58 08.10.2019
6314 Clouds 28 1012 68 0 1.41 191.82 16:38 08.10.2019
6315 Rain 26 1010 88 9000 2.1 190 16:20 08.10.2019
6316 Rain 26 1010 88 9000 2.1 190 15:41 08.10.2019
6317 Thunderstorm 26 1010 94 6000 5.7 150 15:21 08.10.2019
6318 Thunderstorm 26 1010 94 6000 5.7 150 14:58 08.10.2019
6319 Clouds 28 1010 67 0 1.24 217.399 14:39 08.10.2019
6320 Clouds 30 1009 79 10000 1.5 220 14:20 08.10.2019
6321 Clouds 30 1009 79 10000 1.5 220 13:57 08.10.2019
6322 Clouds 28 1010 67 0 1.24 217.399 13:38 08.10.2019
6323 Clouds 30 1009 70 10000 1.5 220 13:19 08.10.2019
6324 Clouds 30 1009 70 10000 1.5 220 12:56 08.10.2019
6325 Clouds 28 1010 69 0 1.23 172.95 12:37 08.10.2019
6326 Clouds 28 1010 69 0 1.23 172.95 12:37 08.10.2019
6327 Clouds 30 1009 70 10000 2.1 220 12:18 08.10.2019
6328 Clouds 30 1009 70 10000 2.1 220 11:41 08.10.2019
6329 Clouds 30 1009 70 10000 2.1 220 11:41 08.10.2019
6330 Clouds 30 1010 70 10000 2.6 230 11:23 08.10.2019
6331 Clouds 30 1010 70 10000 2.6 230 10:56 08.10.2019
6332 Clouds 28 1009 70 0 0.87 171.571 10:37 08.10.2019
6333 Clouds 29 1011 74 10000 1 0 10:19 08.10.2019
6334 Clouds 29 1011 74 10000 1 0 09:55 08.10.2019
6335 Clouds 28 1009 70 0 0.87 171.571 09:37 08.10.2019
6336 Clouds 30 1012 70 10000 1.5 180 09:18 08.10.2019
6337 Clouds 30 1012 70 10000 1.5 180 08:42 08.10.2019
6338 Clouds 30 1012 70 10000 0.5 0 08:23 08.10.2019
6339 Clouds 30 1012 70 10000 0.5 0 07:44 08.10.2019
6340 Clouds 29 1012 74 10000 1.5 290 07:21 08.10.2019
6341 Clouds 29 1012 74 10000 1.5 290 06:50 08.10.2019
6342 Clouds 29 1012 74 10000 0.5 0 06:28 08.10.2019
6343 Clouds 29 1012 74 10000 0.5 0 05:46 08.10.2019
6344 Clouds 29 1012 74 10000 0.5 0 05:46 08.10.2019
6345 Clouds 28 1011 78 10000 0.5 0 05:25 08.10.2019
6346 Clouds 27 1010 83 10000 0.5 0 04:31 08.10.2019
6347 Clouds 27 1010 83 10000 2.1 240 03:27 08.10.2019
6348 Clouds 27 1010 69 0 1.44 214.418 02:36 08.10.2019
6349 Clouds 27 1009 83 10000 3.1 210 01:45 08.10.2019
6350 Clouds 27 1009 83 10000 2.1 210 01:26 08.10.2019
6351 Clouds 27 1009 83 10000 2.1 210 00:46 08.10.2019
6352 Clouds 27 1010 83 10000 2.1 210 00:20 08.10.2019
6353 Clouds 27 1009 70 0 1.41 215.547 23:39 07.10.2019
6354 Clouds 27 1011 88 10000 1.41 215.547 23:20 07.10.2019
6355 Clouds 27 1011 88 10000 1.41 215.547 22:56 07.10.2019
6356 Clouds 27 1009 70 0 1.41 215.547 22:38 07.10.2019
6357 Clouds 27 1009 70 0 1.41 215.547 22:38 07.10.2019
6358 Clouds 27 1012 88 10000 0.5 0 22:20 07.10.2019
6359 Clouds 27 1012 88 10000 0.5 0 21:56 07.10.2019
6360 Clouds 27 1009 70 0 1.41 215.547 21:38 07.10.2019
6361 Clouds 27 1012 88 10000 1.62 183.427 21:20 07.10.2019
6362 Clouds 27 1012 88 10000 1.72 175.504 20:57 07.10.2019
6363 Clouds 28 1012 68 0 1.72 175.504 20:39 07.10.2019
6364 Clouds 27 1012 88 10000 1 0 20:20 07.10.2019
6365 Clouds 27 1012 88 10000 1 0 19:57 07.10.2019
6366 Clouds 28 1012 68 0 1.72 175.504 19:39 07.10.2019
6367 Clouds 27 1013 83 10000 1 0 19:18 07.10.2019
6368 Clouds 27 1013 83 10000 1 0 18:56 07.10.2019
6369 Clouds 28 1012 68 0 1.72 175.504 18:38 07.10.2019
6370 Clouds 27 1012 83 10000 2.1 230 18:18 07.10.2019
6371 Clouds 27 1012 83 10000 2.1 230 17:42 07.10.2019
6372 Clouds 28 1011 83 10000 1.5 320 17:20 07.10.2019
6373 Clouds 28 1011 83 10000 1.5 320 16:56 07.10.2019
6374 Clouds 28 1011 69 0 1.69 159.84 16:38 07.10.2019
6375 Clouds 28 1010 83 10000 1 0 16:19 07.10.2019
6376 Clouds 28 1011 69 0 1.69 159.84 15:44 07.10.2019
6377 Clouds 29 1010 79 10000 1 0 15:25 07.10.2019
6378 Clouds 29 1010 79 10000 1 0 14:55 07.10.2019
6379 Rain 28 1010 66 0 1.57 94.758 14:37 07.10.2019
6380 Clouds 29 1009 79 10000 1.5 150 14:18 07.10.2019
6381 Rain 28 1010 66 0 1.57 94.758 13:41 07.10.2019
6382 Clouds 28 1009 83 10000 1 0 13:20 07.10.2019
6383 Clouds 28 1009 83 10000 1 0 12:55 07.10.2019
6384 Rain 28 1010 71 0 3.11 84.612 12:37 07.10.2019
6385 Clouds 27 1009 88 10000 1 0 12:19 07.10.2019
6386 Clouds 27 1009 88 10000 1 0 11:57 07.10.2019
6387 Clouds 26 1011 83 10000 1 0 11:37 07.10.2019
6388 Clouds 26 1011 83 10000 1 0 11:18 07.10.2019
6389 Rain 28 1009 72 0 0.82 124.021 10:41 07.10.2019
6390 Rain 28 1009 72 0 0.82 124.021 10:41 07.10.2019
6391 Rain 28 1009 72 0 0.82 124.021 10:41 07.10.2019
6392 Rain 28 1009 72 0 0.82 124.021 10:20 07.10.2019
6393 Rain 28 1009 72 0 0.82 124.021 10:20 07.10.2019
6394 Rain 28 1009 72 0 0.82 124.021 09:42 07.10.2019
6395 Rain 28 1009 72 0 0.82 124.021 09:42 07.10.2019
6396 Rain 29 1012 79 10000 2.1 130 09:23 07.10.2019
6397 Rain 29 1012 79 10000 2.1 130 08:56 07.10.2019
6398 Rain 28 1012 72 0 1.22 178.169 08:38 07.10.2019
6399 Clouds 28 1013 83 10000 2.1 130 08:19 07.10.2019
6400 Rain 28 1012 72 0 1.22 178.169 07:41 07.10.2019
6401 Clouds 28 1013 83 10000 2.1 130 07:21 07.10.2019
6402 Clouds 28 1013 83 10000 2.1 130 06:49 07.10.2019
6403 Clouds 27 1012 88 10000 2.6 120 06:27 07.10.2019
6404 Clouds 27 1012 88 10000 2.6 120 05:47 07.10.2019
6405 Clouds 28 1011 78 10000 2.6 170 05:21 07.10.2019
6406 Clouds 28 1011 78 10000 3.6 160 04:24 07.10.2019
6407 Clouds 28 1011 78 10000 3.6 160 03:44 07.10.2019
6408 Clouds 28 1011 78 10000 3.6 160 03:44 07.10.2019
6409 Clouds 28 1010 83 10000 3.1 210 03:20 07.10.2019
6410 Clouds 28 1010 78 10000 2.1 210 02:21 07.10.2019
6411 Clouds 28 1010 78 10000 2.1 210 01:50 07.10.2019
6412 Rain 28 1010 74 0 5.24 181.006 01:21 07.10.2019
6413 Clouds 28 1010 78 10000 2.6 220 00:39 07.10.2019
6414 Clouds 28 1010 78 10000 2.6 220 00:20 07.10.2019
6415 Clouds 28 1010 78 10000 2.6 220 23:42 06.10.2019
6416 Clouds 28 1010 78 10000 2.6 220 23:42 06.10.2019
6417 Clouds 28 1010 78 10000 2.6 220 23:42 06.10.2019
6418 Clouds 28 1011 78 10000 2.1 210 23:21 06.10.2019
6419 Clouds 28 1011 78 10000 2.1 210 22:59 06.10.2019
6420 Rain 28 1009 74 0 4.46 169.546 22:41 06.10.2019
6421 Clouds 28 1011 78 10000 2.6 210 22:22 06.10.2019
6422 Clouds 28 1011 78 10000 2.6 210 21:57 06.10.2019
6423 Rain 28 1009 74 0 4.46 169.546 21:38 06.10.2019
6424 Rain 28 1009 74 0 4.46 169.546 21:38 06.10.2019
6425 Clouds 28 1011 78 10000 4.1 200 21:19 06.10.2019
6426 Clouds 28 1011 78 10000 4.1 200 20:58 06.10.2019
6427 Rain 28 1012 74 0 4.28 169.204 20:39 06.10.2019
6428 Clouds 27 1012 83 10000 4.1 200 20:20 06.10.2019
6429 Clouds 27 1012 83 10000 4.1 200 19:57 06.10.2019
6430 Clouds 27 1012 83 10000 4.1 200 19:57 06.10.2019
6431 Rain 28 1012 74 0 4.28 169.204 19:37 06.10.2019
6432 Clouds 28 1012 78 10000 4.1 160 19:19 06.10.2019
6433 Clouds 28 1012 78 10000 4.1 160 19:19 06.10.2019
6434 Clouds 28 1012 78 10000 4.1 160 18:56 06.10.2019
6435 Rain 28 1012 74 0 4.28 169.204 18:38 06.10.2019
6436 Clouds 27 1011 88 10000 4.1 190 18:19 06.10.2019
6437 Clouds 27 1011 88 10000 4.1 190 17:57 06.10.2019
6438 Rain 28 1011 73 0 5.04 172.204 17:38 06.10.2019
6439 Clouds 27 1010 83 10000 4.6 200 17:18 06.10.2019
6440 Clouds 27 1010 83 10000 4.6 200 17:18 06.10.2019
6441 Clouds 27 1010 83 10000 4.6 200 16:42 06.10.2019
6442 Clouds 28 1010 78 10000 4.6 150 16:23 06.10.2019
6443 Clouds 28 1010 78 10000 4.6 150 15:45 06.10.2019
6444 Clouds 28 1009 83 10000 6.2 150 15:23 06.10.2019
6445 Clouds 28 1009 83 10000 6.2 150 14:59 06.10.2019
6446 Clouds 28 1009 83 10000 6.2 150 14:41 06.10.2019
6447 Clouds 28 1009 83 10000 5.1 150 14:23 06.10.2019
6448 Clouds 28 1009 83 10000 5.1 150 13:56 06.10.2019
6449 Rain 28 1010 74 0 3.55 198.955 13:37 06.10.2019
6450 Clouds 29 1009 79 10000 4.1 140 13:19 06.10.2019
6451 Clouds 29 1009 79 10000 4.1 140 12:56 06.10.2019
6452 Clouds 28 1009 70 0 3.42 207.725 12:37 06.10.2019
6453 Rain 29 1009 79 10000 2.6 50 12:19 06.10.2019
6454 Rain 29 1009 79 10000 2.6 50 11:43 06.10.2019
6455 Rain 31 1012 70 9000 2.6 200 11:25 06.10.2019
6456 Rain 31 1012 70 9000 2.6 200 10:58 06.10.2019
6457 Clouds 28 1009 68 0 2.98 181.616 10:39 06.10.2019
6458 Clouds 31 1012 74 10000 3.1 210 10:21 06.10.2019
6459 Clouds 28 1009 68 0 2.98 181.616 09:42 06.10.2019
6460 Clouds 31 1011 70 10000 2.1 210 09:21 06.10.2019
6461 Clouds 31 1011 70 10000 2.1 210 09:21 06.10.2019
6462 Clouds 31 1011 70 10000 2.1 210 08:59 06.10.2019
6463 Clouds 28 1012 72 0 3.25 188.608 08:39 06.10.2019
6464 Clouds 30 1012 74 10000 2.1 170 08:19 06.10.2019
6465 Clouds 30 1012 74 10000 2.1 170 07:42 06.10.2019
6466 Clouds 30 1012 74 10000 3.1 190 07:18 06.10.2019
6467 Clouds 29 1011 79 10000 3.6 200 06:18 06.10.2019
6468 Clouds 29 1011 79 10000 2.1 170 05:27 06.10.2019
6469 Clouds 28 1010 83 10000 2.6 210 03:23 06.10.2019
6470 Clouds 28 1010 76 0 3.95 226.417 02:40 06.10.2019
6471 Clouds 28 1010 76 0 3.95 226.417 02:40 06.10.2019
6472 Clouds 27 1010 83 10000 2.6 210 01:57 06.10.2019
6473 Clouds 28 1010 76 0 3.95 226.417 01:37 06.10.2019
6474 Clouds 27 1009 83 10000 2.6 210 01:18 06.10.2019
6475 Clouds 28 1010 75 0 4.32 225.995 00:45 06.10.2019
6476 Clouds 28 1009 78 10000 3.6 220 00:21 06.10.2019
6477 Clouds 28 1009 78 10000 3.6 220 23:43 05.10.2019
6478 Clouds 28 1010 78 10000 4.1 230 23:21 05.10.2019
6479 Clouds 28 1010 78 10000 4.1 230 22:57 05.10.2019
6480 Clouds 27 1009 76 0 5.42 233.619 22:38 05.10.2019
6481 Clouds 27 1009 76 0 5.42 233.619 22:38 05.10.2019
6482 Clouds 27 1009 76 0 5.42 233.619 22:38 05.10.2019
6483 Clouds 28 1011 78 10000 4.6 230 22:19 05.10.2019
6484 Clouds 28 1011 78 10000 4.6 230 21:42 05.10.2019
6485 Clouds 28 1011 78 10000 4.6 230 21:42 05.10.2019
6486 Clouds 28 1011 83 10000 5.7 240 21:24 05.10.2019
6487 Clouds 28 1011 83 10000 5.7 240 20:59 05.10.2019
6488 Clouds 28 1011 83 10000 5.7 240 20:59 05.10.2019
6489 Rain 27 1012 77 0 4.78 220.873 20:40 05.10.2019
6490 Clouds 28 1012 78 10000 6.2 250 20:20 05.10.2019
6491 Clouds 28 1012 78 10000 6.2 250 19:58 05.10.2019
6492 Clouds 27 1011 83 8000 6.7 250 19:37 05.10.2019
6493 Clouds 27 1011 83 8000 6.7 250 19:18 05.10.2019
6494 Clouds 27 1011 83 8000 6.7 250 18:55 05.10.2019
6495 Rain 27 1012 77 0 4.78 220.873 18:36 05.10.2019
6496 Rain 26 1011 88 8000 3.6 250 18:18 05.10.2019
6497 Rain 27 1011 78 0 4.64 221.91 17:42 05.10.2019
6498 Rain 25 1010 94 6000 3.1 280 17:22 05.10.2019
6499 Rain 25 1010 94 6000 3.1 280 16:56 05.10.2019
6500 Rain 25 1010 94 6000 3.1 280 16:56 05.10.2019
6501 Rain 27 1011 78 0 4.64 221.91 16:37 05.10.2019
6502 Rain 25 1010 88 6000 4.6 300 16:19 05.10.2019
6503 Rain 25 1010 88 6000 4.6 300 15:56 05.10.2019
6504 Rain 27 1011 78 0 4.64 221.91 15:38 05.10.2019
6505 Rain 26 1010 88 6000 4.6 240 15:19 05.10.2019
6506 Rain 26 1010 88 6000 4.6 240 14:42 05.10.2019
6507 Rain 27 1010 74 0 3.47 239.164 14:23 05.10.2019
6508 Rain 27 1010 74 0 3.47 239.164 13:44 05.10.2019
6509 Rain 27 1010 78 0 2.46 293.611 13:26 05.10.2019
6510 Rain 27 1010 78 0 2.46 293.611 13:26 05.10.2019
6511 Rain 27 1010 78 0 2.46 293.611 12:59 05.10.2019
6512 Rain 27 1010 78 0 2.46 293.611 12:59 05.10.2019
6513 Rain 27 1010 78 0 2.46 293.611 12:41 05.10.2019
6514 Rain 29 1009 79 9000 3.6 230 12:19 05.10.2019
6515 Rain 27 1009 74 0 2.53 295.178 11:41 05.10.2019
6516 Rain 27 1009 74 0 2.53 295.178 11:41 05.10.2019
6517 Rain 29 1010 74 9000 5.7 220 11:20 05.10.2019
6518 Rain 29 1010 74 9000 5.7 220 10:57 05.10.2019
6519 Rain 27 1009 74 0 2.53 295.178 10:38 05.10.2019
6520 Clouds 30 1011 70 10000 4.1 270 10:20 05.10.2019
6521 Rain 27 1009 74 0 2.53 295.178 09:42 05.10.2019
6522 Clouds 30 1011 70 10000 3.6 300 09:23 05.10.2019
6523 Clouds 30 1011 70 10000 3.6 300 08:56 05.10.2019
6524 Clouds 28 1012 72 0 3.15 268.146 08:38 05.10.2019
6525 Clouds 30 1012 74 10000 3.1 280 08:18 05.10.2019
6526 Clouds 30 1012 74 10000 3.1 280 07:46 05.10.2019
6527 Clouds 30 1012 74 10000 3.6 290 07:28 05.10.2019
6528 Clouds 30 1012 74 10000 3.6 290 06:56 05.10.2019
6529 Clouds 29 1012 74 10000 3.6 260 06:22 05.10.2019
6530 Clouds 28 1011 73 0 3.59 269.617 05:39 05.10.2019
6531 Clouds 28 1009 78 10000 3.6 290 03:32 05.10.2019
6532 Clouds 28 1010 74 0 4.02 276.284 02:38 05.10.2019
6533 Clouds 27 1009 83 10000 3.1 290 01:27 05.10.2019
6534 Clouds 27 1009 83 10000 3.1 290 00:49 05.10.2019
6535 Clouds 27 1009 83 10000 3.1 290 00:49 05.10.2019
6536 Clouds 27 1010 88 10000 3.1 260 00:28 05.10.2019
6537 Clouds 27 1010 88 10000 3.1 260 23:58 04.10.2019
6538 Clouds 27 1009 74 0 3.01 261.019 23:40 04.10.2019
6539 Clouds 27 1010 83 10000 2.1 260 23:21 04.10.2019
6540 Clouds 27 1010 83 10000 2.1 260 22:56 04.10.2019
6541 Clouds 27 1009 74 0 3.01 261.019 22:37 04.10.2019
6542 Clouds 27 1009 74 0 3.01 261.019 22:37 04.10.2019
6543 Clouds 27 1011 83 10000 5.7 260 22:19 04.10.2019
6544 Clouds 27 1009 74 0 3.01 261.019 21:40 04.10.2019
6545 Clouds 27 1012 74 10000 4.1 150 21:22 04.10.2019
6546 Clouds 27 1012 74 10000 4.1 150 20:59 04.10.2019
6547 Clouds 27 1012 74 10000 4.1 150 20:59 04.10.2019
6548 Rain 28 1012 74 0 3.31 272.268 20:41 04.10.2019
6549 Rain 28 1012 74 0 3.31 272.268 20:22 04.10.2019
6550 Rain 28 1012 74 0 3.31 272.268 19:56 04.10.2019
6551 Rain 28 1012 74 0 3.31 272.268 19:37 04.10.2019
6552 Rain 28 1012 74 0 3.31 272.268 19:19 04.10.2019
6553 Rain 28 1012 74 0 3.31 272.268 18:55 04.10.2019
6554 Rain 28 1012 74 0 3.31 272.268 18:36 04.10.2019
6555 Clouds 28 1011 83 10000 2.6 310 18:18 04.10.2019
6556 Rain 28 1011 75 0 3.44 272.981 17:40 04.10.2019
6557 Clouds 28 1010 83 10000 2.6 310 17:22 04.10.2019
6558 Clouds 28 1010 83 10000 2.6 310 16:58 04.10.2019
6559 Rain 28 1011 75 0 3.44 272.981 16:39 04.10.2019
6560 Rain 28 1011 75 0 3.44 272.981 16:39 04.10.2019
6561 Clouds 28 1010 83 10000 3.1 290 16:18 04.10.2019
6562 Clouds 28 1010 83 10000 3.1 290 16:18 04.10.2019
6563 Clouds 28 1010 83 10000 3.1 290 16:18 04.10.2019
6564 Clouds 28 1010 83 10000 3.1 290 15:56 04.10.2019
6565 Rain 28 1011 75 0 3.44 272.981 15:37 04.10.2019
6566 Clouds 29 1009 79 10000 3.1 300 15:19 04.10.2019
6567 Rain 28 1010 72 0 2.92 287.158 14:55 04.10.2019
6568 Clouds 29 1009 79 10000 3.1 300 14:37 04.10.2019
6569 Clouds 29 1009 79 10000 3.1 300 14:19 04.10.2019
6570 Clouds 29 1009 79 10000 3.1 300 13:44 04.10.2019
6571 Clouds 30 1009 74 10000 3.1 300 13:21 04.10.2019
6572 Clouds 30 1009 74 10000 3.1 300 12:47 04.10.2019
6573 Clouds 29 1010 74 10000 2.6 310 12:29 04.10.2019
6574 Clouds 29 1010 74 10000 2.6 310 11:59 04.10.2019
6575 Clouds 28 1009 68 0 3.26 253.808 11:41 04.10.2019
6576 Clouds 29 1011 74 10000 2.6 320 11:20 04.10.2019
6577 Clouds 29 1011 74 10000 2.6 320 11:20 04.10.2019
6578 Clouds 29 1011 74 10000 2.6 320 10:41 04.10.2019
6579 Clouds 29 1012 74 10000 1.5 290 10:21 04.10.2019
6580 Clouds 29 1012 74 10000 1.5 290 09:50 04.10.2019
6581 Clouds 29 1012 79 10000 2.6 290 09:31 04.10.2019
6582 Clouds 29 1012 79 10000 2.6 290 08:57 04.10.2019
6583 Clouds 28 1012 65 0 1.66 244.532 08:38 04.10.2019
6584 Clouds 28 1012 65 0 1.66 244.532 08:38 04.10.2019
6585 Clouds 29 1013 79 10000 2.6 290 08:20 04.10.2019
6586 Clouds 29 1013 79 10000 2.6 290 07:46 04.10.2019
6587 Clouds 29 1014 79 10000 2.6 250 07:23 04.10.2019
6588 Clouds 29 1014 79 10000 2.6 250 06:47 04.10.2019
6589 Clouds 28 1013 78 10000 2.6 250 06:27 04.10.2019
6590 Clouds 28 1013 78 10000 2.6 250 05:52 04.10.2019
6591 Clouds 27 1012 83 10000 2.6 220 05:19 04.10.2019
6592 Clouds 27 1012 83 10000 3.1 230 03:56 04.10.2019
6593 Clouds 27 1011 83 10000 2.6 230 02:54 04.10.2019
6594 Clouds 26 1010 88 10000 2.1 210 02:21 04.10.2019
6595 Clouds 26 1010 88 10000 2.1 210 01:43 04.10.2019
6596 Clouds 27 1010 83 10000 2.6 210 01:24 04.10.2019
6597 Clouds 26 1011 88 10000 4.6 150 00:18 04.10.2019
6598 Rain 28 1010 71 0 1.96 165.27 23:37 03.10.2019
6599 Clouds 27 1012 83 10000 1.5 130 23:18 03.10.2019
6600 Clouds 27 1012 83 10000 1.5 130 22:57 03.10.2019
6601 Clouds 27 1012 83 10000 1.5 130 22:57 03.10.2019
6602 Rain 28 1010 71 0 1.96 165.27 22:39 03.10.2019
6603 Clouds 28 1013 83 10000 1.5 200 22:21 03.10.2019
6604 Clouds 28 1013 83 10000 1.5 200 22:21 03.10.2019
6605 Clouds 28 1013 83 10000 1.5 200 21:56 03.10.2019
6606 Rain 28 1010 71 0 1.96 165.27 21:37 03.10.2019
6607 Clouds 28 1014 83 10000 1.5 210 21:19 03.10.2019
6608 Clouds 28 1014 83 10000 1.5 210 20:56 03.10.2019
6609 Clouds 28 1014 83 10000 1.5 210 20:56 03.10.2019
6610 Rain 28 1012 75 0 2.82 140.288 20:37 03.10.2019
6611 Rain 28 1012 75 0 2.82 140.288 20:37 03.10.2019
6612 Clouds 27 1013 88 10000 1 0 20:19 03.10.2019
6613 Clouds 27 1013 88 10000 1 0 19:55 03.10.2019
6614 Clouds 27 1013 88 10000 1 0 19:55 03.10.2019
6615 Rain 28 1012 75 0 2.82 140.288 19:36 03.10.2019
6616 Clouds 27 1013 83 10000 2.1 210 19:18 03.10.2019
6617 Rain 28 1012 75 0 2.82 140.288 18:40 03.10.2019
6618 Clouds 27 1012 83 10000 2.1 270 18:19 03.10.2019
6619 Clouds 27 1012 83 10000 2.1 270 18:19 03.10.2019
6620 Clouds 27 1012 83 10000 2.1 270 18:19 03.10.2019
6621 Clouds 27 1012 83 10000 2.1 270 17:59 03.10.2019
6622 Rain 29 1012 74 0 2.11 115.074 17:41 03.10.2019
6623 Clouds 27 1011 83 10000 1 0 17:20 03.10.2019
6624 Clouds 27 1011 83 10000 1 0 16:44 03.10.2019
6625 Clouds 27 1011 83 10000 1.5 240 16:26 03.10.2019
6626 Clouds 27 1011 83 10000 1.5 240 15:57 03.10.2019
6627 Rain 29 1012 74 0 2.11 115.074 15:39 03.10.2019
6628 Clouds 28 1011 83 10000 2.6 250 15:21 03.10.2019
6629 Clouds 28 1011 83 10000 2.6 250 14:47 03.10.2019
6630 Clouds 27 1010 88 10000 0.5 0 14:27 03.10.2019
6631 Clouds 27 1010 88 10000 0.5 0 13:59 03.10.2019
6632 Clouds 29 1010 62 0 1.87 111.847 13:41 03.10.2019
6633 Clouds 27 1010 83 10000 0.5 0 13:19 03.10.2019
6634 Clouds 27 1010 83 10000 0.5 0 12:57 03.10.2019
6635 Clouds 29 1010 63 0 1.68 124.391 12:38 03.10.2019
6636 Clouds 29 1009 65 0 1.78 71.912 12:19 03.10.2019
6637 Clouds 29 1009 65 0 1.78 71.912 11:42 03.10.2019
6638 Rain 28 1011 78 10000 1.5 340 11:23 03.10.2019
6639 Rain 28 1011 78 10000 1.5 340 10:59 03.10.2019
6640 Clouds 29 1009 65 0 1.78 71.912 10:40 03.10.2019
6641 Clouds 28 1012 83 10000 0.5 0 10:19 03.10.2019
6642 Clouds 28 1012 83 10000 0.5 0 10:19 03.10.2019
6643 Clouds 28 1012 83 10000 0.5 0 09:58 03.10.2019
6644 Clouds 29 1009 65 0 1.78 71.912 09:40 03.10.2019
6645 Rain 27 1013 94 8000 2.1 140 09:21 03.10.2019
6646 Rain 27 1013 94 8000 2.1 140 08:46 03.10.2019
6647 Clouds 28 1014 78 10000 2.1 360 08:27 03.10.2019
6648 Clouds 28 1014 78 10000 2.1 360 07:59 03.10.2019
6649 Clouds 28 1014 78 10000 2.1 360 07:59 03.10.2019
6650 Rain 29 1013 68 0 2.64 74.081 07:41 03.10.2019
6651 Rain 29 1013 68 0 2.64 74.081 07:19 03.10.2019
6652 Rain 29 1013 68 0 2.64 74.081 06:50 03.10.2019
6653 Thunderstorm 27 1013 94 9000 1.5 80 06:24 03.10.2019
6654 Thunderstorm 27 1013 94 9000 1.5 80 05:46 03.10.2019
6655 Rain 28 1012 72 0 3.33 66.544 05:20 03.10.2019
6656 Clouds 27 1011 88 10000 2.6 20 04:31 03.10.2019
6657 Clouds 27 1010 88 10000 3.1 290 03:24 03.10.2019
6658 Rain 28 1010 75 0 3.79 62.109 02:39 03.10.2019
6659 Rain 28 1010 75 0 3.79 62.109 01:52 03.10.2019
6660 Thunderstorm 26 1010 94 10000 0.5 0 01:33 03.10.2019
6661 Thunderstorm 26 1010 94 10000 0.5 0 00:49 03.10.2019
6662 Thunderstorm 26 1010 94 10000 1 0 00:19 03.10.2019
6663 Thunderstorm 26 1010 94 10000 1 0 23:43 02.10.2019
6664 Thunderstorm 26 1010 94 10000 4.68 109.557 23:22 02.10.2019
6665 Thunderstorm 26 1010 94 10000 4.68 109.557 22:44 02.10.2019
6666 Rain 28 1010 77 0 4.68 109.557 22:22 02.10.2019
6667 Rain 28 1010 77 0 4.68 109.557 21:58 02.10.2019
6668 Rain 28 1010 77 0 4.68 109.557 21:39 02.10.2019
6669 Thunderstorm 28 1012 83 10000 2.6 70 21:20 02.10.2019
6670 Thunderstorm 28 1012 83 10000 2.6 70 20:57 02.10.2019
6671 Rain 28 1012 78 0 6.42 114.401 20:38 02.10.2019
6672 Thunderstorm 28 1012 83 10000 3.1 60 20:20 02.10.2019
6673 Thunderstorm 28 1012 83 10000 3.1 60 19:56 02.10.2019
6674 Rain 28 1012 78 0 6.42 114.401 19:38 02.10.2019
6675 Rain 28 1012 78 0 6.42 114.401 19:19 02.10.2019
6676 Rain 28 1012 78 0 6.42 114.401 18:56 02.10.2019
6677 Rain 28 1012 78 0 6.42 114.401 18:38 02.10.2019
6678 Clouds 28 1012 83 10000 2.6 30 18:19 02.10.2019
6679 Clouds 28 1012 83 10000 2.6 30 17:43 02.10.2019
6680 Clouds 28 1010 83 10000 4.1 30 17:21 02.10.2019
6681 Clouds 28 1010 83 10000 4.1 30 17:21 02.10.2019
6682 Clouds 28 1010 83 10000 4.1 30 17:21 02.10.2019
6683 Clouds 28 1010 83 10000 4.1 30 16:59 02.10.2019
6684 Clouds 28 1010 83 10000 4.1 30 16:41 02.10.2019
6685 Clouds 27 1010 83 10000 1.5 90 16:21 02.10.2019
6686 Clouds 27 1010 83 10000 1.5 90 15:57 02.10.2019
6687 Rain 28 1011 77 0 6.34 127.36 15:38 02.10.2019
6688 Clouds 28 1009 83 10000 1 0 15:19 02.10.2019
6689 Clouds 28 1009 83 10000 1 0 14:56 02.10.2019
6690 Rain 28 1010 76 0 6.01 126.095 14:38 02.10.2019
6691 Clouds 28 1009 83 9000 3.6 130 14:19 02.10.2019
6692 Clouds 28 1009 83 9000 3.6 130 13:43 02.10.2019
6693 Clouds 28 1009 83 9000 3.6 130 13:23 02.10.2019
6694 Rain 28 1010 78 0 5.72 125.554 12:56 02.10.2019
6695 Rain 28 1010 78 0 5.72 125.554 12:37 02.10.2019
6696 Rain 28 1010 78 0 5.72 125.554 12:37 02.10.2019
6697 Thunderstorm 26 1010 94 7000 7.2 60 12:18 02.10.2019
6698 Rain 28 1009 80 0 5.95 115.459 11:43 02.10.2019
6699 Rain 28 1009 80 0 5.95 115.459 11:22 02.10.2019
6700 Rain 28 1009 80 0 5.95 115.459 10:42 02.10.2019
6701 Clouds 31 1011 74 10000 4.6 90 10:20 02.10.2019
6702 Clouds 31 1011 74 10000 4.6 90 09:57 02.10.2019
6703 Clouds 31 1012 74 10000 5.7 100 09:36 02.10.2019
6704 Clouds 31 1012 74 10000 5.7 100 09:18 02.10.2019
6705 Rain 28 1012